<?xml version="1.0"?>
<gpx version="1.1" creator="GPS Visualizer http://www.gpsvisualizer.com/" xmlns="http://www.topografix.com/GPX/1/1" xmlns:xsi="http://www.w3.org/2001/XMLSchema-instance" xsi:schemaLocation="http://www.topografix.com/GPX/1/1 http://www.topografix.com/GPX/1/1/gpx.xsd">
<trk>
  <name>2016-06-05-01</name>
  <trkseg>
    <trkpt lat="48.495955" lon="2.635579">
      <ele>91.0</ele>
      <time>2016-06-05T07:50:26Z</time>
    </trkpt>
    <trkpt lat="48.495849" lon="2.635713">
      <ele>91.0</ele>
      <time>2016-06-05T07:50:29Z</time>
    </trkpt>
    <trkpt lat="48.495764" lon="2.63582">
      <ele>91.0</ele>
      <time>2016-06-05T07:50:32Z</time>
    </trkpt>
    <trkpt lat="48.495683" lon="2.635892">
      <ele>91.114</ele>
      <time>2016-06-05T07:50:34Z</time>
    </trkpt>
    <trkpt lat="48.495609" lon="2.635984">
      <ele>91.438</ele>
      <time>2016-06-05T07:50:36Z</time>
    </trkpt>
    <trkpt lat="48.495537" lon="2.636123">
      <ele>92.07</ele>
      <time>2016-06-05T07:50:39Z</time>
    </trkpt>
    <trkpt lat="48.495452" lon="2.636216">
      <ele>92.514</ele>
      <time>2016-06-05T07:50:41Z</time>
    </trkpt>
    <trkpt lat="48.495326" lon="2.636339">
      <ele>93.504</ele>
      <time>2016-06-05T07:50:44Z</time>
    </trkpt>
    <trkpt lat="48.495239" lon="2.636455">
      <ele>94.344</ele>
      <time>2016-06-05T07:50:47Z</time>
    </trkpt>
    <trkpt lat="48.49514" lon="2.636576">
      <ele>94.835</ele>
      <time>2016-06-05T07:50:50Z</time>
    </trkpt>
    <trkpt lat="48.495044" lon="2.636688">
      <ele>95.0</ele>
      <time>2016-06-05T07:50:53Z</time>
    </trkpt>
    <trkpt lat="48.49496" lon="2.636812">
      <ele>94.712</ele>
      <time>2016-06-05T07:50:56Z</time>
    </trkpt>
    <trkpt lat="48.494889" lon="2.636932">
      <ele>94.201</ele>
      <time>2016-06-05T07:50:59Z</time>
    </trkpt>
    <trkpt lat="48.494791" lon="2.637051">
      <ele>93.689</ele>
      <time>2016-06-05T07:51:02Z</time>
    </trkpt>
    <trkpt lat="48.494698" lon="2.637172">
      <ele>93.748</ele>
      <time>2016-06-05T07:51:05Z</time>
    </trkpt>
    <trkpt lat="48.494621" lon="2.63727">
      <ele>93.636</ele>
      <time>2016-06-05T07:51:08Z</time>
    </trkpt>
    <trkpt lat="48.494544" lon="2.63736">
      <ele>93.358</ele>
      <time>2016-06-05T07:51:10Z</time>
    </trkpt>
    <trkpt lat="48.494478" lon="2.637458">
      <ele>93.121</ele>
      <time>2016-06-05T07:51:12Z</time>
    </trkpt>
    <trkpt lat="48.494367" lon="2.637575">
      <ele>93.27</ele>
      <time>2016-06-05T07:51:15Z</time>
    </trkpt>
    <trkpt lat="48.494265" lon="2.637701">
      <ele>93.724</ele>
      <time>2016-06-05T07:51:18Z</time>
    </trkpt>
    <trkpt lat="48.494193" lon="2.637789">
      <ele>94.04</ele>
      <time>2016-06-05T07:51:20Z</time>
    </trkpt>
    <trkpt lat="48.494123" lon="2.637882">
      <ele>94.532</ele>
      <time>2016-06-05T07:51:22Z</time>
    </trkpt>
    <trkpt lat="48.494051" lon="2.637969">
      <ele>95.105</ele>
      <time>2016-06-05T07:51:24Z</time>
    </trkpt>
    <trkpt lat="48.493948" lon="2.638087">
      <ele>95.9</ele>
      <time>2016-06-05T07:51:27Z</time>
    </trkpt>
    <trkpt lat="48.493859" lon="2.638198">
      <ele>96.513</ele>
      <time>2016-06-05T07:51:30Z</time>
    </trkpt>
    <trkpt lat="48.493764" lon="2.638326">
      <ele>96.974</ele>
      <time>2016-06-05T07:51:33Z</time>
    </trkpt>
    <trkpt lat="48.493688" lon="2.638417">
      <ele>97.218</ele>
      <time>2016-06-05T07:51:35Z</time>
    </trkpt>
    <trkpt lat="48.493597" lon="2.638532">
      <ele>97.766</ele>
      <time>2016-06-05T07:51:38Z</time>
    </trkpt>
    <trkpt lat="48.493529" lon="2.638624">
      <ele>98.282</ele>
      <time>2016-06-05T07:51:40Z</time>
    </trkpt>
    <trkpt lat="48.493426" lon="2.638745">
      <ele>98.345</ele>
      <time>2016-06-05T07:51:43Z</time>
    </trkpt>
    <trkpt lat="48.493322" lon="2.638855">
      <ele>98.199</ele>
      <time>2016-06-05T07:51:46Z</time>
    </trkpt>
    <trkpt lat="48.493243" lon="2.638925">
      <ele>98.52</ele>
      <time>2016-06-05T07:51:48Z</time>
    </trkpt>
    <trkpt lat="48.493162" lon="2.63901">
      <ele>98.798</ele>
      <time>2016-06-05T07:51:50Z</time>
    </trkpt>
    <trkpt lat="48.4931" lon="2.639115">
      <ele>98.866</ele>
      <time>2016-06-05T07:51:52Z</time>
    </trkpt>
    <trkpt lat="48.493048" lon="2.639299">
      <ele>99.041</ele>
      <time>2016-06-05T07:51:55Z</time>
    </trkpt>
    <trkpt lat="48.492963" lon="2.639409">
      <ele>99.376</ele>
      <time>2016-06-05T07:51:58Z</time>
    </trkpt>
    <trkpt lat="48.492836" lon="2.639457">
      <ele>99.79</ele>
      <time>2016-06-05T07:52:02Z</time>
    </trkpt>
    <trkpt lat="48.492749" lon="2.63952">
      <ele>100.075</ele>
      <time>2016-06-05T07:52:04Z</time>
    </trkpt>
    <trkpt lat="48.492677" lon="2.639612">
      <ele>100.144</ele>
      <time>2016-06-05T07:52:07Z</time>
    </trkpt>
    <trkpt lat="48.492598" lon="2.639733">
      <ele>100.0</ele>
      <time>2016-06-05T07:52:10Z</time>
    </trkpt>
    <trkpt lat="48.492512" lon="2.639851">
      <ele>100.0</ele>
      <time>2016-06-05T07:52:14Z</time>
    </trkpt>
    <trkpt lat="48.492407" lon="2.63994">
      <ele>100.0</ele>
      <time>2016-06-05T07:52:17Z</time>
    </trkpt>
    <trkpt lat="48.492319" lon="2.640038">
      <ele>100.137</ele>
      <time>2016-06-05T07:52:19Z</time>
    </trkpt>
    <trkpt lat="48.492213" lon="2.640145">
      <ele>100.555</ele>
      <time>2016-06-05T07:52:22Z</time>
    </trkpt>
    <trkpt lat="48.492108" lon="2.640222">
      <ele>101.21</ele>
      <time>2016-06-05T07:52:25Z</time>
    </trkpt>
    <trkpt lat="48.492052" lon="2.640331">
      <ele>101.613</ele>
      <time>2016-06-05T07:52:29Z</time>
    </trkpt>
    <trkpt lat="48.49196" lon="2.640435">
      <ele>101.944</ele>
      <time>2016-06-05T07:52:32Z</time>
    </trkpt>
    <trkpt lat="48.491907" lon="2.640553">
      <ele>102.135</ele>
      <time>2016-06-05T07:52:35Z</time>
    </trkpt>
    <trkpt lat="48.491821" lon="2.640659">
      <ele>102.279</ele>
      <time>2016-06-05T07:52:38Z</time>
    </trkpt>
    <trkpt lat="48.491723" lon="2.640771">
      <ele>102.179</ele>
      <time>2016-06-05T07:52:42Z</time>
    </trkpt>
    <trkpt lat="48.491606" lon="2.640887">
      <ele>102.042</ele>
      <time>2016-06-05T07:52:45Z</time>
    </trkpt>
    <trkpt lat="48.491532" lon="2.640966">
      <ele>102.232</ele>
      <time>2016-06-05T07:52:48Z</time>
    </trkpt>
    <trkpt lat="48.491467" lon="2.641102">
      <ele>102.695</ele>
      <time>2016-06-05T07:52:51Z</time>
    </trkpt>
    <trkpt lat="48.491399" lon="2.641222">
      <ele>102.564</ele>
      <time>2016-06-05T07:52:54Z</time>
    </trkpt>
    <trkpt lat="48.49131" lon="2.641316">
      <ele>102.472</ele>
      <time>2016-06-05T07:53:00Z</time>
    </trkpt>
    <trkpt lat="48.491227" lon="2.641391">
      <ele>102.578</ele>
      <time>2016-06-05T07:53:05Z</time>
    </trkpt>
    <trkpt lat="48.491204" lon="2.641535">
      <ele>102.315</ele>
      <time>2016-06-05T07:53:12Z</time>
    </trkpt>
    <trkpt lat="48.491131" lon="2.64166">
      <ele>102.022</ele>
      <time>2016-06-05T07:53:15Z</time>
    </trkpt>
    <trkpt lat="48.491016" lon="2.641744">
      <ele>101.658</ele>
      <time>2016-06-05T07:53:18Z</time>
    </trkpt>
    <trkpt lat="48.490926" lon="2.641857">
      <ele>101.334</ele>
      <time>2016-06-05T07:53:22Z</time>
    </trkpt>
    <trkpt lat="48.490864" lon="2.641969">
      <ele>101.11</ele>
      <time>2016-06-05T07:53:26Z</time>
    </trkpt>
    <trkpt lat="48.490778" lon="2.642062">
      <ele>100.885</ele>
      <time>2016-06-05T07:53:28Z</time>
    </trkpt>
    <trkpt lat="48.490664" lon="2.642152">
      <ele>100.846</ele>
      <time>2016-06-05T07:53:31Z</time>
    </trkpt>
    <trkpt lat="48.490595" lon="2.642244">
      <ele>101.067</ele>
      <time>2016-06-05T07:53:35Z</time>
    </trkpt>
    <trkpt lat="48.49051" lon="2.642339">
      <ele>101.42</ele>
      <time>2016-06-05T07:53:38Z</time>
    </trkpt>
    <trkpt lat="48.490417" lon="2.642417">
      <ele>101.701</ele>
      <time>2016-06-05T07:53:42Z</time>
    </trkpt>
    <trkpt lat="48.490337" lon="2.642518">
      <ele>102.0</ele>
      <time>2016-06-05T07:53:45Z</time>
    </trkpt>
    <trkpt lat="48.490251" lon="2.642599">
      <ele>101.904</ele>
      <time>2016-06-05T07:53:47Z</time>
    </trkpt>
    <trkpt lat="48.490152" lon="2.642691">
      <ele>101.547</ele>
      <time>2016-06-05T07:53:51Z</time>
    </trkpt>
    <trkpt lat="48.490048" lon="2.642766">
      <ele>101.173</ele>
      <time>2016-06-05T07:53:54Z</time>
    </trkpt>
    <trkpt lat="48.489975" lon="2.642922">
      <ele>101.519</ele>
      <time>2016-06-05T07:54:00Z</time>
    </trkpt>
    <trkpt lat="48.489866" lon="2.643065">
      <ele>102.018</ele>
      <time>2016-06-05T07:54:05Z</time>
    </trkpt>
    <trkpt lat="48.489781" lon="2.643179">
      <ele>102.094</ele>
      <time>2016-06-05T07:54:08Z</time>
    </trkpt>
    <trkpt lat="48.489726" lon="2.643323">
      <ele>102.013</ele>
      <time>2016-06-05T07:54:13Z</time>
    </trkpt>
    <trkpt lat="48.489635" lon="2.643445">
      <ele>101.56</ele>
      <time>2016-06-05T07:54:17Z</time>
    </trkpt>
    <trkpt lat="48.489554" lon="2.643524">
      <ele>100.979</ele>
      <time>2016-06-05T07:54:20Z</time>
    </trkpt>
    <trkpt lat="48.489501" lon="2.643636">
      <ele>100.389</ele>
      <time>2016-06-05T07:54:23Z</time>
    </trkpt>
    <trkpt lat="48.489414" lon="2.643759">
      <ele>99.781</ele>
      <time>2016-06-05T07:54:26Z</time>
    </trkpt>
    <trkpt lat="48.489372" lon="2.643926">
      <ele>99.444</ele>
      <time>2016-06-05T07:54:29Z</time>
    </trkpt>
    <trkpt lat="48.489326" lon="2.644044">
      <ele>98.909</ele>
      <time>2016-06-05T07:54:31Z</time>
    </trkpt>
    <trkpt lat="48.489301" lon="2.644187">
      <ele>98.378</ele>
      <time>2016-06-05T07:54:33Z</time>
    </trkpt>
    <trkpt lat="48.489259" lon="2.644362">
      <ele>97.294</ele>
      <time>2016-06-05T07:54:36Z</time>
    </trkpt>
    <trkpt lat="48.489273" lon="2.644505">
      <ele>97.065</ele>
      <time>2016-06-05T07:54:38Z</time>
    </trkpt>
    <trkpt lat="48.489245" lon="2.644688">
      <ele>96.599</ele>
      <time>2016-06-05T07:54:40Z</time>
    </trkpt>
    <trkpt lat="48.489221" lon="2.644839">
      <ele>95.971</ele>
      <time>2016-06-05T07:54:42Z</time>
    </trkpt>
    <trkpt lat="48.489164" lon="2.644956">
      <ele>95.157</ele>
      <time>2016-06-05T07:54:44Z</time>
    </trkpt>
    <trkpt lat="48.489096" lon="2.645061">
      <ele>95.22</ele>
      <time>2016-06-05T07:54:47Z</time>
    </trkpt>
    <trkpt lat="48.489051" lon="2.6452">
      <ele>95.72</ele>
      <time>2016-06-05T07:54:49Z</time>
    </trkpt>
    <trkpt lat="48.489001" lon="2.645334">
      <ele>96.323</ele>
      <time>2016-06-05T07:54:51Z</time>
    </trkpt>
    <trkpt lat="48.488975" lon="2.64547">
      <ele>97.169</ele>
      <time>2016-06-05T07:54:53Z</time>
    </trkpt>
    <trkpt lat="48.48892" lon="2.645619">
      <ele>98.168</ele>
      <time>2016-06-05T07:54:56Z</time>
    </trkpt>
    <trkpt lat="48.488937" lon="2.645754">
      <ele>98.789</ele>
      <time>2016-06-05T07:54:58Z</time>
    </trkpt>
    <trkpt lat="48.488922" lon="2.645899">
      <ele>99.327</ele>
      <time>2016-06-05T07:55:01Z</time>
    </trkpt>
    <trkpt lat="48.488894" lon="2.646069">
      <ele>99.851</ele>
      <time>2016-06-05T07:55:04Z</time>
    </trkpt>
    <trkpt lat="48.488877" lon="2.646206">
      <ele>99.573</ele>
      <time>2016-06-05T07:55:06Z</time>
    </trkpt>
    <trkpt lat="48.48881" lon="2.646374">
      <ele>98.486</ele>
      <time>2016-06-05T07:55:08Z</time>
    </trkpt>
    <trkpt lat="48.488788" lon="2.646509">
      <ele>98.274</ele>
      <time>2016-06-05T07:55:09Z</time>
    </trkpt>
    <trkpt lat="48.488738" lon="2.646683">
      <ele>97.946</ele>
      <time>2016-06-05T07:55:10Z</time>
    </trkpt>
    <trkpt lat="48.488615" lon="2.646919">
      <ele>97.924</ele>
      <time>2016-06-05T07:55:12Z</time>
    </trkpt>
    <trkpt lat="48.488527" lon="2.647013">
      <ele>97.641</ele>
      <time>2016-06-05T07:55:13Z</time>
    </trkpt>
    <trkpt lat="48.488463" lon="2.647177">
      <ele>97.771</ele>
      <time>2016-06-05T07:55:15Z</time>
    </trkpt>
    <trkpt lat="48.488395" lon="2.647357">
      <ele>97.929</ele>
      <time>2016-06-05T07:55:17Z</time>
    </trkpt>
    <trkpt lat="48.488313" lon="2.647507">
      <ele>97.952</ele>
      <time>2016-06-05T07:55:19Z</time>
    </trkpt>
    <trkpt lat="48.488256" lon="2.647643">
      <ele>98.236</ele>
      <time>2016-06-05T07:55:21Z</time>
    </trkpt>
    <trkpt lat="48.488182" lon="2.647786">
      <ele>98.455</ele>
      <time>2016-06-05T07:55:23Z</time>
    </trkpt>
    <trkpt lat="48.488121" lon="2.647945">
      <ele>98.236</ele>
      <time>2016-06-05T07:55:25Z</time>
    </trkpt>
    <trkpt lat="48.488033" lon="2.648068">
      <ele>97.838</ele>
      <time>2016-06-05T07:55:27Z</time>
    </trkpt>
    <trkpt lat="48.48796" lon="2.648194">
      <ele>97.312</ele>
      <time>2016-06-05T07:55:30Z</time>
    </trkpt>
    <trkpt lat="48.487891" lon="2.64837">
      <ele>96.947</ele>
      <time>2016-06-05T07:55:32Z</time>
    </trkpt>
    <trkpt lat="48.487795" lon="2.648498">
      <ele>96.717</ele>
      <time>2016-06-05T07:55:34Z</time>
    </trkpt>
    <trkpt lat="48.487787" lon="2.648705">
      <ele>97.393</ele>
      <time>2016-06-05T07:55:36Z</time>
    </trkpt>
    <trkpt lat="48.48772" lon="2.648834">
      <ele>97.178</ele>
      <time>2016-06-05T07:55:39Z</time>
    </trkpt>
    <trkpt lat="48.487642" lon="2.648938">
      <ele>96.797</ele>
      <time>2016-06-05T07:55:41Z</time>
    </trkpt>
    <trkpt lat="48.487537" lon="2.649055">
      <ele>96.516</ele>
      <time>2016-06-05T07:55:43Z</time>
    </trkpt>
    <trkpt lat="48.487474" lon="2.649219">
      <ele>97.095</ele>
      <time>2016-06-05T07:55:45Z</time>
    </trkpt>
    <trkpt lat="48.487407" lon="2.649374">
      <ele>97.412</ele>
      <time>2016-06-05T07:55:47Z</time>
    </trkpt>
    <trkpt lat="48.487318" lon="2.649527">
      <ele>97.642</ele>
      <time>2016-06-05T07:55:49Z</time>
    </trkpt>
    <trkpt lat="48.4873" lon="2.649708">
      <ele>98.229</ele>
      <time>2016-06-05T07:55:51Z</time>
    </trkpt>
    <trkpt lat="48.487197" lon="2.64986">
      <ele>98.36</ele>
      <time>2016-06-05T07:55:53Z</time>
    </trkpt>
    <trkpt lat="48.487138" lon="2.649993">
      <ele>98.376</ele>
      <time>2016-06-05T07:55:55Z</time>
    </trkpt>
    <trkpt lat="48.487114" lon="2.650176">
      <ele>98.221</ele>
      <time>2016-06-05T07:55:57Z</time>
    </trkpt>
    <trkpt lat="48.487007" lon="2.650293">
      <ele>97.45</ele>
      <time>2016-06-05T07:56:00Z</time>
    </trkpt>
    <trkpt lat="48.486943" lon="2.650415">
      <ele>96.992</ele>
      <time>2016-06-05T07:56:02Z</time>
    </trkpt>
    <trkpt lat="48.486865" lon="2.650527">
      <ele>96.685</ele>
      <time>2016-06-05T07:56:04Z</time>
    </trkpt>
    <trkpt lat="48.486773" lon="2.650668">
      <ele>97.037</ele>
      <time>2016-06-05T07:56:07Z</time>
    </trkpt>
    <trkpt lat="48.486674" lon="2.650784">
      <ele>97.649</ele>
      <time>2016-06-05T07:56:09Z</time>
    </trkpt>
    <trkpt lat="48.486665" lon="2.650981">
      <ele>98.526</ele>
      <time>2016-06-05T07:56:13Z</time>
    </trkpt>
    <trkpt lat="48.486591" lon="2.651096">
      <ele>98.673</ele>
      <time>2016-06-05T07:56:15Z</time>
    </trkpt>
    <trkpt lat="48.486494" lon="2.651225">
      <ele>98.788</ele>
      <time>2016-06-05T07:56:18Z</time>
    </trkpt>
    <trkpt lat="48.486421" lon="2.651353">
      <ele>98.986</ele>
      <time>2016-06-05T07:56:21Z</time>
    </trkpt>
    <trkpt lat="48.486351" lon="2.651513">
      <ele>99.386</ele>
      <time>2016-06-05T07:56:24Z</time>
    </trkpt>
    <trkpt lat="48.486293" lon="2.651618">
      <ele>99.54</ele>
      <time>2016-06-05T07:56:27Z</time>
    </trkpt>
    <trkpt lat="48.486213" lon="2.651777">
      <ele>99.618</ele>
      <time>2016-06-05T07:56:30Z</time>
    </trkpt>
    <trkpt lat="48.486156" lon="2.651904">
      <ele>99.878</ele>
      <time>2016-06-05T07:56:32Z</time>
    </trkpt>
    <trkpt lat="48.486109" lon="2.652056">
      <ele>100.391</ele>
      <time>2016-06-05T07:56:34Z</time>
    </trkpt>
    <trkpt lat="48.486037" lon="2.652175">
      <ele>100.342</ele>
      <time>2016-06-05T07:56:36Z</time>
    </trkpt>
    <trkpt lat="48.485932" lon="2.652322">
      <ele>100.07</ele>
      <time>2016-06-05T07:56:38Z</time>
    </trkpt>
    <trkpt lat="48.485887" lon="2.652468">
      <ele>100.271</ele>
      <time>2016-06-05T07:56:41Z</time>
    </trkpt>
    <trkpt lat="48.485827" lon="2.652574">
      <ele>100.221</ele>
      <time>2016-06-05T07:56:43Z</time>
    </trkpt>
    <trkpt lat="48.485774" lon="2.652692">
      <ele>100.264</ele>
      <time>2016-06-05T07:56:45Z</time>
    </trkpt>
    <trkpt lat="48.485694" lon="2.652851">
      <ele>100.392</ele>
      <time>2016-06-05T07:56:47Z</time>
    </trkpt>
    <trkpt lat="48.485632" lon="2.652989">
      <ele>100.52</ele>
      <time>2016-06-05T07:56:49Z</time>
    </trkpt>
    <trkpt lat="48.485521" lon="2.653043">
      <ele>99.955</ele>
      <time>2016-06-05T07:56:51Z</time>
    </trkpt>
    <trkpt lat="48.485455" lon="2.65322">
      <ele>100.592</ele>
      <time>2016-06-05T07:56:53Z</time>
    </trkpt>
    <trkpt lat="48.485403" lon="2.653338">
      <ele>101.008</ele>
      <time>2016-06-05T07:56:56Z</time>
    </trkpt>
    <trkpt lat="48.485385" lon="2.653481">
      <ele>101.205</ele>
      <time>2016-06-05T07:56:58Z</time>
    </trkpt>
    <trkpt lat="48.48533" lon="2.653668">
      <ele>101.188</ele>
      <time>2016-06-05T07:57:01Z</time>
    </trkpt>
    <trkpt lat="48.485321" lon="2.653804">
      <ele>101.156</ele>
      <time>2016-06-05T07:57:03Z</time>
    </trkpt>
    <trkpt lat="48.485276" lon="2.653929">
      <ele>100.995</ele>
      <time>2016-06-05T07:57:05Z</time>
    </trkpt>
    <trkpt lat="48.485303" lon="2.654063">
      <ele>101.091</ele>
      <time>2016-06-05T07:57:08Z</time>
    </trkpt>
    <trkpt lat="48.485299" lon="2.654249">
      <ele>101.054</ele>
      <time>2016-06-05T07:57:11Z</time>
    </trkpt>
    <trkpt lat="48.48529" lon="2.654396">
      <ele>101.008</ele>
      <time>2016-06-05T07:57:13Z</time>
    </trkpt>
    <trkpt lat="48.485286" lon="2.654552">
      <ele>101.0</ele>
      <time>2016-06-05T07:57:15Z</time>
    </trkpt>
    <trkpt lat="48.485249" lon="2.654784">
      <ele>101.0</ele>
      <time>2016-06-05T07:57:17Z</time>
    </trkpt>
    <trkpt lat="48.485196" lon="2.655007">
      <ele>101.025</ele>
      <time>2016-06-05T07:57:19Z</time>
    </trkpt>
    <trkpt lat="48.485189" lon="2.655173">
      <ele>101.623</ele>
      <time>2016-06-05T07:57:22Z</time>
    </trkpt>
    <trkpt lat="48.485163" lon="2.655366">
      <ele>102.186</ele>
      <time>2016-06-05T07:57:25Z</time>
    </trkpt>
    <trkpt lat="48.485173" lon="2.655527">
      <ele>102.559</ele>
      <time>2016-06-05T07:57:27Z</time>
    </trkpt>
    <trkpt lat="48.485185" lon="2.655682">
      <ele>102.818</ele>
      <time>2016-06-05T07:57:29Z</time>
    </trkpt>
    <trkpt lat="48.485136" lon="2.655804">
      <ele>102.946</ele>
      <time>2016-06-05T07:57:32Z</time>
    </trkpt>
    <trkpt lat="48.485098" lon="2.655983">
      <ele>102.651</ele>
      <time>2016-06-05T07:57:35Z</time>
    </trkpt>
    <trkpt lat="48.485062" lon="2.656146">
      <ele>102.126</ele>
      <time>2016-06-05T07:57:37Z</time>
    </trkpt>
    <trkpt lat="48.485042" lon="2.656373">
      <ele>101.351</ele>
      <time>2016-06-05T07:57:41Z</time>
    </trkpt>
    <trkpt lat="48.485023" lon="2.656552">
      <ele>101.166</ele>
      <time>2016-06-05T07:57:44Z</time>
    </trkpt>
    <trkpt lat="48.485017" lon="2.656702">
      <ele>101.122</ele>
      <time>2016-06-05T07:57:46Z</time>
    </trkpt>
    <trkpt lat="48.485013" lon="2.656843">
      <ele>101.094</ele>
      <time>2016-06-05T07:57:48Z</time>
    </trkpt>
    <trkpt lat="48.484946" lon="2.656964">
      <ele>100.806</ele>
      <time>2016-06-05T07:57:51Z</time>
    </trkpt>
    <trkpt lat="48.484917" lon="2.657121">
      <ele>100.701</ele>
      <time>2016-06-05T07:57:54Z</time>
    </trkpt>
    <trkpt lat="48.484848" lon="2.657279">
      <ele>100.36</ele>
      <time>2016-06-05T07:57:57Z</time>
    </trkpt>
    <trkpt lat="48.484845" lon="2.657443">
      <ele>100.091</ele>
      <time>2016-06-05T07:57:59Z</time>
    </trkpt>
    <trkpt lat="48.484847" lon="2.657582">
      <ele>99.705</ele>
      <time>2016-06-05T07:58:01Z</time>
    </trkpt>
    <trkpt lat="48.484846" lon="2.657786">
      <ele>99.0</ele>
      <time>2016-06-05T07:58:04Z</time>
    </trkpt>
    <trkpt lat="48.484821" lon="2.657932">
      <ele>99.0</ele>
      <time>2016-06-05T07:58:06Z</time>
    </trkpt>
    <trkpt lat="48.484771" lon="2.658105">
      <ele>98.885</ele>
      <time>2016-06-05T07:58:08Z</time>
    </trkpt>
    <trkpt lat="48.484746" lon="2.658278">
      <ele>98.336</ele>
      <time>2016-06-05T07:58:10Z</time>
    </trkpt>
    <trkpt lat="48.484709" lon="2.658495">
      <ele>98.574</ele>
      <time>2016-06-05T07:58:12Z</time>
    </trkpt>
    <trkpt lat="48.484687" lon="2.658668">
      <ele>98.873</ele>
      <time>2016-06-05T07:58:14Z</time>
    </trkpt>
    <trkpt lat="48.484641" lon="2.658816">
      <ele>98.708</ele>
      <time>2016-06-05T07:58:16Z</time>
    </trkpt>
    <trkpt lat="48.484625" lon="2.659006">
      <ele>99.072</ele>
      <time>2016-06-05T07:58:19Z</time>
    </trkpt>
    <trkpt lat="48.484624" lon="2.659211">
      <ele>99.75</ele>
      <time>2016-06-05T07:58:22Z</time>
    </trkpt>
    <trkpt lat="48.484623" lon="2.659386">
      <ele>100.15</ele>
      <time>2016-06-05T07:58:24Z</time>
    </trkpt>
    <trkpt lat="48.484619" lon="2.659531">
      <ele>100.373</ele>
      <time>2016-06-05T07:58:27Z</time>
    </trkpt>
    <trkpt lat="48.484569" lon="2.659679">
      <ele>100.363</ele>
      <time>2016-06-05T07:58:30Z</time>
    </trkpt>
    <trkpt lat="48.484527" lon="2.659854">
      <ele>101.105</ele>
      <time>2016-06-05T07:58:33Z</time>
    </trkpt>
    <trkpt lat="48.484499" lon="2.660018">
      <ele>102.065</ele>
      <time>2016-06-05T07:58:35Z</time>
    </trkpt>
    <trkpt lat="48.484471" lon="2.660195">
      <ele>102.702</ele>
      <time>2016-06-05T07:58:37Z</time>
    </trkpt>
    <trkpt lat="48.484442" lon="2.660337">
      <ele>103.213</ele>
      <time>2016-06-05T07:58:39Z</time>
    </trkpt>
    <trkpt lat="48.484399" lon="2.660488">
      <ele>103.757</ele>
      <time>2016-06-05T07:58:41Z</time>
    </trkpt>
    <trkpt lat="48.484347" lon="2.660647">
      <ele>104.329</ele>
      <time>2016-06-05T07:58:43Z</time>
    </trkpt>
    <trkpt lat="48.48431" lon="2.660787">
      <ele>104.833</ele>
      <time>2016-06-05T07:58:45Z</time>
    </trkpt>
    <trkpt lat="48.484226" lon="2.660963">
      <ele>105.367</ele>
      <time>2016-06-05T07:58:48Z</time>
    </trkpt>
    <trkpt lat="48.484195" lon="2.661123">
      <ele>105.941</ele>
      <time>2016-06-05T07:58:50Z</time>
    </trkpt>
    <trkpt lat="48.484128" lon="2.66126">
      <ele>106.397</ele>
      <time>2016-06-05T07:58:52Z</time>
    </trkpt>
    <trkpt lat="48.484153" lon="2.661413">
      <ele>107.038</ele>
      <time>2016-06-05T07:58:54Z</time>
    </trkpt>
    <trkpt lat="48.484109" lon="2.661542">
      <ele>107.344</ele>
      <time>2016-06-05T07:58:57Z</time>
    </trkpt>
    <trkpt lat="48.484053" lon="2.661692">
      <ele>107.682</ele>
      <time>2016-06-05T07:59:01Z</time>
    </trkpt>
    <trkpt lat="48.484049" lon="2.661839">
      <ele>108.197</ele>
      <time>2016-06-05T07:59:05Z</time>
    </trkpt>
    <trkpt lat="48.484007" lon="2.661989">
      <ele>108.77</ele>
      <time>2016-06-05T07:59:09Z</time>
    </trkpt>
    <trkpt lat="48.484006" lon="2.662128">
      <ele>109.847</ele>
      <time>2016-06-05T07:59:16Z</time>
    </trkpt>
    <trkpt lat="48.484014" lon="2.662272">
      <ele>110.827</ele>
      <time>2016-06-05T07:59:20Z</time>
    </trkpt>
    <trkpt lat="48.483934" lon="2.662342">
      <ele>111.63</ele>
      <time>2016-06-05T07:59:26Z</time>
    </trkpt>
    <trkpt lat="48.483866" lon="2.662494">
      <ele>112.874</ele>
      <time>2016-06-05T07:59:32Z</time>
    </trkpt>
    <trkpt lat="48.483879" lon="2.662632">
      <ele>113.457</ele>
      <time>2016-06-05T07:59:35Z</time>
    </trkpt>
    <trkpt lat="48.48383" lon="2.662751">
      <ele>113.883</ele>
      <time>2016-06-05T07:59:42Z</time>
    </trkpt>
    <trkpt lat="48.483808" lon="2.66293">
      <ele>114.867</ele>
      <time>2016-06-05T07:59:53Z</time>
    </trkpt>
    <trkpt lat="48.483795" lon="2.663071">
      <ele>115.732</ele>
      <time>2016-06-05T07:59:59Z</time>
    </trkpt>
    <trkpt lat="48.483763" lon="2.663219">
      <ele>116.495</ele>
      <time>2016-06-05T08:00:02Z</time>
    </trkpt>
    <trkpt lat="48.483741" lon="2.663378">
      <ele>116.99</ele>
      <time>2016-06-05T08:00:07Z</time>
    </trkpt>
    <trkpt lat="48.483727" lon="2.663536">
      <ele>116.861</ele>
      <time>2016-06-05T08:00:12Z</time>
    </trkpt>
    <trkpt lat="48.483646" lon="2.663704">
      <ele>116.996</ele>
      <time>2016-06-05T08:00:17Z</time>
    </trkpt>
    <trkpt lat="48.483573" lon="2.663821">
      <ele>116.455</ele>
      <time>2016-06-05T08:00:19Z</time>
    </trkpt>
    <trkpt lat="48.483564" lon="2.663979">
      <ele>115.406</ele>
      <time>2016-06-05T08:00:22Z</time>
    </trkpt>
    <trkpt lat="48.483549" lon="2.664127">
      <ele>114.477</ele>
      <time>2016-06-05T08:00:25Z</time>
    </trkpt>
    <trkpt lat="48.483506" lon="2.664267">
      <ele>113.656</ele>
      <time>2016-06-05T08:00:28Z</time>
    </trkpt>
    <trkpt lat="48.48347" lon="2.664403">
      <ele>112.806</ele>
      <time>2016-06-05T08:00:31Z</time>
    </trkpt>
    <trkpt lat="48.483393" lon="2.664574">
      <ele>112.219</ele>
      <time>2016-06-05T08:00:35Z</time>
    </trkpt>
    <trkpt lat="48.483319" lon="2.664705">
      <ele>112.162</ele>
      <time>2016-06-05T08:00:39Z</time>
    </trkpt>
    <trkpt lat="48.483243" lon="2.66479">
      <ele>112.486</ele>
      <time>2016-06-05T08:00:42Z</time>
    </trkpt>
    <trkpt lat="48.483153" lon="2.664878">
      <ele>113.102</ele>
      <time>2016-06-05T08:00:45Z</time>
    </trkpt>
    <trkpt lat="48.483034" lon="2.66493">
      <ele>113.98</ele>
      <time>2016-06-05T08:00:47Z</time>
    </trkpt>
    <trkpt lat="48.482918" lon="2.664948">
      <ele>113.907</ele>
      <time>2016-06-05T08:00:50Z</time>
    </trkpt>
    <trkpt lat="48.482807" lon="2.664954">
      <ele>113.852</ele>
      <time>2016-06-05T08:00:53Z</time>
    </trkpt>
    <trkpt lat="48.482717" lon="2.664922">
      <ele>113.343</ele>
      <time>2016-06-05T08:00:56Z</time>
    </trkpt>
    <trkpt lat="48.482688" lon="2.664771">
      <ele>112.796</ele>
      <time>2016-06-05T08:01:03Z</time>
    </trkpt>
    <trkpt lat="48.482624" lon="2.664673">
      <ele>112.348</ele>
      <time>2016-06-05T08:01:06Z</time>
    </trkpt>
    <trkpt lat="48.482676" lon="2.664671">
      <ele>112.566</ele>
      <time>2016-06-05T08:01:15Z</time>
    </trkpt>
    <trkpt lat="48.482655" lon="2.664518">
      <ele>112.233</ele>
      <time>2016-06-05T08:02:29Z</time>
    </trkpt>
    <trkpt lat="48.48264" lon="2.664338">
      <ele>112.008</ele>
      <time>2016-06-05T08:02:31Z</time>
    </trkpt>
    <trkpt lat="48.482609" lon="2.6642">
      <ele>111.785</ele>
      <time>2016-06-05T08:02:32Z</time>
    </trkpt>
    <trkpt lat="48.482576" lon="2.664058">
      <ele>111.263</ele>
      <time>2016-06-05T08:02:33Z</time>
    </trkpt>
    <trkpt lat="48.482528" lon="2.663847">
      <ele>110.167</ele>
      <time>2016-06-05T08:02:35Z</time>
    </trkpt>
    <trkpt lat="48.482451" lon="2.663598">
      <ele>108.2</ele>
      <time>2016-06-05T08:02:37Z</time>
    </trkpt>
    <trkpt lat="48.482389" lon="2.66335">
      <ele>105.522</ele>
      <time>2016-06-05T08:02:39Z</time>
    </trkpt>
    <trkpt lat="48.482344" lon="2.663103">
      <ele>103.924</ele>
      <time>2016-06-05T08:02:41Z</time>
    </trkpt>
    <trkpt lat="48.48227" lon="2.662827">
      <ele>102.546</ele>
      <time>2016-06-05T08:02:43Z</time>
    </trkpt>
    <trkpt lat="48.482276" lon="2.662553">
      <ele>102.581</ele>
      <time>2016-06-05T08:02:45Z</time>
    </trkpt>
    <trkpt lat="48.482222" lon="2.662372">
      <ele>102.46</ele>
      <time>2016-06-05T08:02:47Z</time>
    </trkpt>
    <trkpt lat="48.482138" lon="2.662213">
      <ele>102.697</ele>
      <time>2016-06-05T08:02:49Z</time>
    </trkpt>
    <trkpt lat="48.482093" lon="2.662049">
      <ele>102.535</ele>
      <time>2016-06-05T08:02:51Z</time>
    </trkpt>
    <trkpt lat="48.482039" lon="2.661841">
      <ele>102.095</ele>
      <time>2016-06-05T08:02:53Z</time>
    </trkpt>
    <trkpt lat="48.48196" lon="2.661641">
      <ele>101.02</ele>
      <time>2016-06-05T08:02:56Z</time>
    </trkpt>
    <trkpt lat="48.481906" lon="2.661515">
      <ele>100.102</ele>
      <time>2016-06-05T08:02:58Z</time>
    </trkpt>
    <trkpt lat="48.481804" lon="2.661267">
      <ele>98.044</ele>
      <time>2016-06-05T08:03:00Z</time>
    </trkpt>
    <trkpt lat="48.481749" lon="2.661073">
      <ele>96.711</ele>
      <time>2016-06-05T08:03:02Z</time>
    </trkpt>
    <trkpt lat="48.481721" lon="2.660872">
      <ele>95.558</ele>
      <time>2016-06-05T08:03:04Z</time>
    </trkpt>
    <trkpt lat="48.481656" lon="2.660767">
      <ele>95.0</ele>
      <time>2016-06-05T08:03:05Z</time>
    </trkpt>
    <trkpt lat="48.481572" lon="2.660644">
      <ele>95.0</ele>
      <time>2016-06-05T08:03:06Z</time>
    </trkpt>
    <trkpt lat="48.481538" lon="2.66044">
      <ele>94.777</ele>
      <time>2016-06-05T08:03:08Z</time>
    </trkpt>
    <trkpt lat="48.481457" lon="2.660326">
      <ele>94.797</ele>
      <time>2016-06-05T08:03:09Z</time>
    </trkpt>
    <trkpt lat="48.481336" lon="2.660207">
      <ele>94.745</ele>
      <time>2016-06-05T08:03:10Z</time>
    </trkpt>
    <trkpt lat="48.481288" lon="2.660047">
      <ele>94.169</ele>
      <time>2016-06-05T08:03:12Z</time>
    </trkpt>
    <trkpt lat="48.481254" lon="2.659817">
      <ele>93.341</ele>
      <time>2016-06-05T08:03:15Z</time>
    </trkpt>
    <trkpt lat="48.481187" lon="2.659657">
      <ele>92.659</ele>
      <time>2016-06-05T08:03:18Z</time>
    </trkpt>
    <trkpt lat="48.481162" lon="2.659451">
      <ele>91.405</ele>
      <time>2016-06-05T08:03:21Z</time>
    </trkpt>
    <trkpt lat="48.481084" lon="2.659306">
      <ele>91.547</ele>
      <time>2016-06-05T08:03:23Z</time>
    </trkpt>
    <trkpt lat="48.481029" lon="2.659198">
      <ele>91.921</ele>
      <time>2016-06-05T08:03:25Z</time>
    </trkpt>
    <trkpt lat="48.480981" lon="2.659016">
      <ele>92.542</ele>
      <time>2016-06-05T08:03:28Z</time>
    </trkpt>
    <trkpt lat="48.480873" lon="2.658851">
      <ele>93.0</ele>
      <time>2016-06-05T08:03:30Z</time>
    </trkpt>
    <trkpt lat="48.480875" lon="2.658711">
      <ele>93.0</ele>
      <time>2016-06-05T08:03:33Z</time>
    </trkpt>
    <trkpt lat="48.480859" lon="2.658567">
      <ele>93.015</ele>
      <time>2016-06-05T08:03:36Z</time>
    </trkpt>
    <trkpt lat="48.480808" lon="2.658449">
      <ele>92.962</ele>
      <time>2016-06-05T08:03:39Z</time>
    </trkpt>
    <trkpt lat="48.480726" lon="2.658308">
      <ele>93.091</ele>
      <time>2016-06-05T08:03:41Z</time>
    </trkpt>
    <trkpt lat="48.480657" lon="2.658214">
      <ele>93.43</ele>
      <time>2016-06-05T08:03:44Z</time>
    </trkpt>
    <trkpt lat="48.480677" lon="2.658066">
      <ele>93.962</ele>
      <time>2016-06-05T08:03:53Z</time>
    </trkpt>
    <trkpt lat="48.480602" lon="2.657934">
      <ele>94.0</ele>
      <time>2016-06-05T08:03:56Z</time>
    </trkpt>
    <trkpt lat="48.480547" lon="2.657769">
      <ele>94.0</ele>
      <time>2016-06-05T08:03:58Z</time>
    </trkpt>
    <trkpt lat="48.48058" lon="2.657643">
      <ele>94.0</ele>
      <time>2016-06-05T08:04:01Z</time>
    </trkpt>
    <trkpt lat="48.48059" lon="2.657498">
      <ele>93.993</ele>
      <time>2016-06-05T08:04:04Z</time>
    </trkpt>
    <trkpt lat="48.480507" lon="2.65737">
      <ele>93.532</ele>
      <time>2016-06-05T08:04:06Z</time>
    </trkpt>
    <trkpt lat="48.48045" lon="2.657168">
      <ele>92.684</ele>
      <time>2016-06-05T08:04:10Z</time>
    </trkpt>
    <trkpt lat="48.480386" lon="2.657071">
      <ele>92.244</ele>
      <time>2016-06-05T08:04:12Z</time>
    </trkpt>
    <trkpt lat="48.480373" lon="2.656936">
      <ele>91.627</ele>
      <time>2016-06-05T08:04:15Z</time>
    </trkpt>
    <trkpt lat="48.480304" lon="2.656843">
      <ele>91.54</ele>
      <time>2016-06-05T08:04:17Z</time>
    </trkpt>
    <trkpt lat="48.480225" lon="2.656754">
      <ele>91.445</ele>
      <time>2016-06-05T08:04:19Z</time>
    </trkpt>
    <trkpt lat="48.480221" lon="2.656608">
      <ele>90.993</ele>
      <time>2016-06-05T08:04:22Z</time>
    </trkpt>
    <trkpt lat="48.480205" lon="2.656469">
      <ele>90.55</ele>
      <time>2016-06-05T08:04:27Z</time>
    </trkpt>
    <trkpt lat="48.480124" lon="2.656331">
      <ele>90.438</ele>
      <time>2016-06-05T08:04:30Z</time>
    </trkpt>
    <trkpt lat="48.480047" lon="2.656181">
      <ele>90.209</ele>
      <time>2016-06-05T08:04:33Z</time>
    </trkpt>
    <trkpt lat="48.479978" lon="2.65605">
      <ele>90.062</ele>
      <time>2016-06-05T08:04:36Z</time>
    </trkpt>
    <trkpt lat="48.47998" lon="2.655908">
      <ele>90.019</ele>
      <time>2016-06-05T08:04:41Z</time>
    </trkpt>
    <trkpt lat="48.47989" lon="2.655746">
      <ele>90.19</ele>
      <time>2016-06-05T08:04:45Z</time>
    </trkpt>
    <trkpt lat="48.47986" lon="2.655614">
      <ele>90.392</ele>
      <time>2016-06-05T08:04:49Z</time>
    </trkpt>
    <trkpt lat="48.479826" lon="2.655454">
      <ele>90.374</ele>
      <time>2016-06-05T08:04:53Z</time>
    </trkpt>
    <trkpt lat="48.47979" lon="2.655296">
      <ele>90.244</ele>
      <time>2016-06-05T08:04:58Z</time>
    </trkpt>
    <trkpt lat="48.479744" lon="2.655135">
      <ele>90.552</ele>
      <time>2016-06-05T08:05:04Z</time>
    </trkpt>
    <trkpt lat="48.479696" lon="2.655009">
      <ele>91.059</ele>
      <time>2016-06-05T08:05:07Z</time>
    </trkpt>
    <trkpt lat="48.47968" lon="2.654855">
      <ele>91.674</ele>
      <time>2016-06-05T08:05:14Z</time>
    </trkpt>
    <trkpt lat="48.479626" lon="2.654733">
      <ele>92.308</ele>
      <time>2016-06-05T08:05:18Z</time>
    </trkpt>
    <trkpt lat="48.479586" lon="2.654611">
      <ele>92.498</ele>
      <time>2016-06-05T08:05:22Z</time>
    </trkpt>
    <trkpt lat="48.479565" lon="2.65445">
      <ele>92.437</ele>
      <time>2016-06-05T08:05:27Z</time>
    </trkpt>
    <trkpt lat="48.479536" lon="2.654301">
      <ele>92.159</ele>
      <time>2016-06-05T08:05:31Z</time>
    </trkpt>
    <trkpt lat="48.47951" lon="2.654131">
      <ele>91.97</ele>
      <time>2016-06-05T08:05:35Z</time>
    </trkpt>
    <trkpt lat="48.479439" lon="2.653994">
      <ele>92.0</ele>
      <time>2016-06-05T08:05:38Z</time>
    </trkpt>
    <trkpt lat="48.47939" lon="2.653857">
      <ele>91.908</ele>
      <time>2016-06-05T08:05:41Z</time>
    </trkpt>
    <trkpt lat="48.479309" lon="2.653732">
      <ele>91.711</ele>
      <time>2016-06-05T08:05:43Z</time>
    </trkpt>
    <trkpt lat="48.479246" lon="2.653607">
      <ele>91.7</ele>
      <time>2016-06-05T08:05:45Z</time>
    </trkpt>
    <trkpt lat="48.479183" lon="2.653497">
      <ele>91.53</ele>
      <time>2016-06-05T08:05:50Z</time>
    </trkpt>
    <trkpt lat="48.479137" lon="2.653322">
      <ele>91.209</ele>
      <time>2016-06-05T08:05:55Z</time>
    </trkpt>
    <trkpt lat="48.479087" lon="2.653165">
      <ele>91.4</ele>
      <time>2016-06-05T08:05:58Z</time>
    </trkpt>
    <trkpt lat="48.479052" lon="2.653031">
      <ele>91.288</ele>
      <time>2016-06-05T08:06:02Z</time>
    </trkpt>
    <trkpt lat="48.47903" lon="2.65287">
      <ele>90.495</ele>
      <time>2016-06-05T08:06:07Z</time>
    </trkpt>
    <trkpt lat="48.478977" lon="2.652739">
      <ele>89.905</ele>
      <time>2016-06-05T08:06:11Z</time>
    </trkpt>
    <trkpt lat="48.47891" lon="2.652639">
      <ele>89.538</ele>
      <time>2016-06-05T08:06:14Z</time>
    </trkpt>
    <trkpt lat="48.478823" lon="2.652565">
      <ele>89.471</ele>
      <time>2016-06-05T08:06:16Z</time>
    </trkpt>
    <trkpt lat="48.478758" lon="2.652456">
      <ele>89.397</ele>
      <time>2016-06-05T08:06:19Z</time>
    </trkpt>
    <trkpt lat="48.478655" lon="2.652395">
      <ele>89.524</ele>
      <time>2016-06-05T08:06:22Z</time>
    </trkpt>
    <trkpt lat="48.478557" lon="2.652415">
      <ele>89.754</ele>
      <time>2016-06-05T08:06:26Z</time>
    </trkpt>
    <trkpt lat="48.478454" lon="2.652435">
      <ele>89.898</ele>
      <time>2016-06-05T08:06:28Z</time>
    </trkpt>
    <trkpt lat="48.478364" lon="2.652527">
      <ele>90.184</ele>
      <time>2016-06-05T08:06:31Z</time>
    </trkpt>
    <trkpt lat="48.478259" lon="2.652636">
      <ele>91.383</ele>
      <time>2016-06-05T08:06:34Z</time>
    </trkpt>
    <trkpt lat="48.478083" lon="2.652778">
      <ele>92.902</ele>
      <time>2016-06-05T08:06:38Z</time>
    </trkpt>
    <trkpt lat="48.478008" lon="2.652936">
      <ele>93.57</ele>
      <time>2016-06-05T08:06:41Z</time>
    </trkpt>
    <trkpt lat="48.477928" lon="2.653023">
      <ele>93.883</ele>
      <time>2016-06-05T08:06:43Z</time>
    </trkpt>
    <trkpt lat="48.477837" lon="2.653073">
      <ele>94.0</ele>
      <time>2016-06-05T08:06:45Z</time>
    </trkpt>
    <trkpt lat="48.477662" lon="2.653177">
      <ele>93.765</ele>
      <time>2016-06-05T08:06:49Z</time>
    </trkpt>
    <trkpt lat="48.477512" lon="2.653182">
      <ele>93.479</ele>
      <time>2016-06-05T08:06:51Z</time>
    </trkpt>
    <trkpt lat="48.477434" lon="2.653315">
      <ele>93.459</ele>
      <time>2016-06-05T08:06:54Z</time>
    </trkpt>
    <trkpt lat="48.477329" lon="2.653418">
      <ele>92.956</ele>
      <time>2016-06-05T08:06:56Z</time>
    </trkpt>
    <trkpt lat="48.477211" lon="2.653485">
      <ele>92.465</ele>
      <time>2016-06-05T08:06:59Z</time>
    </trkpt>
    <trkpt lat="48.47716" lon="2.653601">
      <ele>92.516</ele>
      <time>2016-06-05T08:07:01Z</time>
    </trkpt>
    <trkpt lat="48.477072" lon="2.653675">
      <ele>91.918</ele>
      <time>2016-06-05T08:07:03Z</time>
    </trkpt>
    <trkpt lat="48.476977" lon="2.65382">
      <ele>91.234</ele>
      <time>2016-06-05T08:07:06Z</time>
    </trkpt>
    <trkpt lat="48.476871" lon="2.653901">
      <ele>90.779</ele>
      <time>2016-06-05T08:07:08Z</time>
    </trkpt>
    <trkpt lat="48.476776" lon="2.65397">
      <ele>90.686</ele>
      <time>2016-06-05T08:07:10Z</time>
    </trkpt>
    <trkpt lat="48.476702" lon="2.654092">
      <ele>90.858</ele>
      <time>2016-06-05T08:07:13Z</time>
    </trkpt>
    <trkpt lat="48.476622" lon="2.654192">
      <ele>91.091</ele>
      <time>2016-06-05T08:07:15Z</time>
    </trkpt>
    <trkpt lat="48.476501" lon="2.654239">
      <ele>91.26</ele>
      <time>2016-06-05T08:07:17Z</time>
    </trkpt>
    <trkpt lat="48.476394" lon="2.654284">
      <ele>91.422</ele>
      <time>2016-06-05T08:07:19Z</time>
    </trkpt>
    <trkpt lat="48.476256" lon="2.654357">
      <ele>91.207</ele>
      <time>2016-06-05T08:07:21Z</time>
    </trkpt>
    <trkpt lat="48.476166" lon="2.654413">
      <ele>91.084</ele>
      <time>2016-06-05T08:07:23Z</time>
    </trkpt>
    <trkpt lat="48.476069" lon="2.654483">
      <ele>90.869</ele>
      <time>2016-06-05T08:07:25Z</time>
    </trkpt>
    <trkpt lat="48.475962" lon="2.654582">
      <ele>90.729</ele>
      <time>2016-06-05T08:07:27Z</time>
    </trkpt>
    <trkpt lat="48.475852" lon="2.654686">
      <ele>90.878</ele>
      <time>2016-06-05T08:07:29Z</time>
    </trkpt>
    <trkpt lat="48.475741" lon="2.654676">
      <ele>90.169</ele>
      <time>2016-06-05T08:07:32Z</time>
    </trkpt>
    <trkpt lat="48.475658" lon="2.654802">
      <ele>90.206</ele>
      <time>2016-06-05T08:07:35Z</time>
    </trkpt>
    <trkpt lat="48.475587" lon="2.654902">
      <ele>90.448</ele>
      <time>2016-06-05T08:07:37Z</time>
    </trkpt>
    <trkpt lat="48.475505" lon="2.654982">
      <ele>90.7</ele>
      <time>2016-06-05T08:07:40Z</time>
    </trkpt>
    <trkpt lat="48.475398" lon="2.65504">
      <ele>90.639</ele>
      <time>2016-06-05T08:07:43Z</time>
    </trkpt>
    <trkpt lat="48.47532" lon="2.655115">
      <ele>90.629</ele>
      <time>2016-06-05T08:07:45Z</time>
    </trkpt>
    <trkpt lat="48.475199" lon="2.65522">
      <ele>90.449</ele>
      <time>2016-06-05T08:07:48Z</time>
    </trkpt>
    <trkpt lat="48.475096" lon="2.65534">
      <ele>90.423</ele>
      <time>2016-06-05T08:07:50Z</time>
    </trkpt>
    <trkpt lat="48.474959" lon="2.655433">
      <ele>89.935</ele>
      <time>2016-06-05T08:07:53Z</time>
    </trkpt>
    <trkpt lat="48.474888" lon="2.655558">
      <ele>90.0</ele>
      <time>2016-06-05T08:07:55Z</time>
    </trkpt>
    <trkpt lat="48.474772" lon="2.655666">
      <ele>90.0</ele>
      <time>2016-06-05T08:07:58Z</time>
    </trkpt>
    <trkpt lat="48.474564" lon="2.655718">
      <ele>90.57</ele>
      <time>2016-06-05T08:08:02Z</time>
    </trkpt>
    <trkpt lat="48.474475" lon="2.655772">
      <ele>90.89</ele>
      <time>2016-06-05T08:08:03Z</time>
    </trkpt>
    <trkpt lat="48.474415" lon="2.655929">
      <ele>91.0</ele>
      <time>2016-06-05T08:08:06Z</time>
    </trkpt>
    <trkpt lat="48.474346" lon="2.65608">
      <ele>91.0</ele>
      <time>2016-06-05T08:08:08Z</time>
    </trkpt>
    <trkpt lat="48.474248" lon="2.656161">
      <ele>90.873</ele>
      <time>2016-06-05T08:08:10Z</time>
    </trkpt>
    <trkpt lat="48.474134" lon="2.6562">
      <ele>90.365</ele>
      <time>2016-06-05T08:08:12Z</time>
    </trkpt>
    <trkpt lat="48.474053" lon="2.656302">
      <ele>89.366</ele>
      <time>2016-06-05T08:08:15Z</time>
    </trkpt>
    <trkpt lat="48.47393" lon="2.656362">
      <ele>88.31</ele>
      <time>2016-06-05T08:08:17Z</time>
    </trkpt>
    <trkpt lat="48.473853" lon="2.656488">
      <ele>87.612</ele>
      <time>2016-06-05T08:08:20Z</time>
    </trkpt>
    <trkpt lat="48.473743" lon="2.656622">
      <ele>86.424</ele>
      <time>2016-06-05T08:08:23Z</time>
    </trkpt>
    <trkpt lat="48.473676" lon="2.656722">
      <ele>85.853</ele>
      <time>2016-06-05T08:08:25Z</time>
    </trkpt>
    <trkpt lat="48.473589" lon="2.656771">
      <ele>85.216</ele>
      <time>2016-06-05T08:08:27Z</time>
    </trkpt>
    <trkpt lat="48.473491" lon="2.656818">
      <ele>84.68</ele>
      <time>2016-06-05T08:08:29Z</time>
    </trkpt>
    <trkpt lat="48.473374" lon="2.656903">
      <ele>84.144</ele>
      <time>2016-06-05T08:08:32Z</time>
    </trkpt>
    <trkpt lat="48.473292" lon="2.656983">
      <ele>83.851</ele>
      <time>2016-06-05T08:08:34Z</time>
    </trkpt>
    <trkpt lat="48.473196" lon="2.656989">
      <ele>83.506</ele>
      <time>2016-06-05T08:08:36Z</time>
    </trkpt>
    <trkpt lat="48.473133" lon="2.657091">
      <ele>83.279</ele>
      <time>2016-06-05T08:08:38Z</time>
    </trkpt>
    <trkpt lat="48.473039" lon="2.657136">
      <ele>82.982</ele>
      <time>2016-06-05T08:08:40Z</time>
    </trkpt>
    <trkpt lat="48.472956" lon="2.657217">
      <ele>82.993</ele>
      <time>2016-06-05T08:08:42Z</time>
    </trkpt>
    <trkpt lat="48.472846" lon="2.657282">
      <ele>83.053</ele>
      <time>2016-06-05T08:08:44Z</time>
    </trkpt>
    <trkpt lat="48.472757" lon="2.657332">
      <ele>83.0</ele>
      <time>2016-06-05T08:08:46Z</time>
    </trkpt>
    <trkpt lat="48.472622" lon="2.657411">
      <ele>83.0</ele>
      <time>2016-06-05T08:08:48Z</time>
    </trkpt>
    <trkpt lat="48.47253" lon="2.657538">
      <ele>83.137</ele>
      <time>2016-06-05T08:08:51Z</time>
    </trkpt>
    <trkpt lat="48.472431" lon="2.657628">
      <ele>83.461</ele>
      <time>2016-06-05T08:08:53Z</time>
    </trkpt>
    <trkpt lat="48.472316" lon="2.657724">
      <ele>83.806</ele>
      <time>2016-06-05T08:08:55Z</time>
    </trkpt>
    <trkpt lat="48.472226" lon="2.657893">
      <ele>84.0</ele>
      <time>2016-06-05T08:08:57Z</time>
    </trkpt>
    <trkpt lat="48.472133" lon="2.657922">
      <ele>83.679</ele>
      <time>2016-06-05T08:08:59Z</time>
    </trkpt>
    <trkpt lat="48.472045" lon="2.658016">
      <ele>83.362</ele>
      <time>2016-06-05T08:09:01Z</time>
    </trkpt>
    <trkpt lat="48.47195" lon="2.65805">
      <ele>83.02</ele>
      <time>2016-06-05T08:09:03Z</time>
    </trkpt>
    <trkpt lat="48.471847" lon="2.658148">
      <ele>82.532</ele>
      <time>2016-06-05T08:09:05Z</time>
    </trkpt>
    <trkpt lat="48.471758" lon="2.658227">
      <ele>81.915</ele>
      <time>2016-06-05T08:09:07Z</time>
    </trkpt>
    <trkpt lat="48.471682" lon="2.658325">
      <ele>81.139</ele>
      <time>2016-06-05T08:09:10Z</time>
    </trkpt>
    <trkpt lat="48.471602" lon="2.658389">
      <ele>81.047</ele>
      <time>2016-06-05T08:09:12Z</time>
    </trkpt>
    <trkpt lat="48.471514" lon="2.658489">
      <ele>81.308</ele>
      <time>2016-06-05T08:09:15Z</time>
    </trkpt>
    <trkpt lat="48.471373" lon="2.658573">
      <ele>81.912</ele>
      <time>2016-06-05T08:09:17Z</time>
    </trkpt>
    <trkpt lat="48.471265" lon="2.658611">
      <ele>82.445</ele>
      <time>2016-06-05T08:09:20Z</time>
    </trkpt>
    <trkpt lat="48.471168" lon="2.658656">
      <ele>83.214</ele>
      <time>2016-06-05T08:09:21Z</time>
    </trkpt>
    <trkpt lat="48.471077" lon="2.658777">
      <ele>85.16</ele>
      <time>2016-06-05T08:09:24Z</time>
    </trkpt>
    <trkpt lat="48.470995" lon="2.65885">
      <ele>86.834</ele>
      <time>2016-06-05T08:09:28Z</time>
    </trkpt>
    <trkpt lat="48.470887" lon="2.658852">
      <ele>88.022</ele>
      <time>2016-06-05T08:09:31Z</time>
    </trkpt>
    <trkpt lat="48.47079" lon="2.658875">
      <ele>89.17</ele>
      <time>2016-06-05T08:09:34Z</time>
    </trkpt>
    <trkpt lat="48.470647" lon="2.658836">
      <ele>89.898</ele>
      <time>2016-06-05T08:09:37Z</time>
    </trkpt>
    <trkpt lat="48.470547" lon="2.658823">
      <ele>90.54</ele>
      <time>2016-06-05T08:09:39Z</time>
    </trkpt>
    <trkpt lat="48.470456" lon="2.658791">
      <ele>90.548</ele>
      <time>2016-06-05T08:09:42Z</time>
    </trkpt>
    <trkpt lat="48.470342" lon="2.658762">
      <ele>90.789</ele>
      <time>2016-06-05T08:09:45Z</time>
    </trkpt>
    <trkpt lat="48.470247" lon="2.658761">
      <ele>90.949</ele>
      <time>2016-06-05T08:09:48Z</time>
    </trkpt>
    <trkpt lat="48.47015" lon="2.658759">
      <ele>90.785</ele>
      <time>2016-06-05T08:09:51Z</time>
    </trkpt>
    <trkpt lat="48.470048" lon="2.658756">
      <ele>90.604</ele>
      <time>2016-06-05T08:09:54Z</time>
    </trkpt>
    <trkpt lat="48.469955" lon="2.658758">
      <ele>90.367</ele>
      <time>2016-06-05T08:09:56Z</time>
    </trkpt>
    <trkpt lat="48.469847" lon="2.658742">
      <ele>89.92</ele>
      <time>2016-06-05T08:09:58Z</time>
    </trkpt>
    <trkpt lat="48.469737" lon="2.658755">
      <ele>89.571</ele>
      <time>2016-06-05T08:10:01Z</time>
    </trkpt>
    <trkpt lat="48.469624" lon="2.658723">
      <ele>89.968</ele>
      <time>2016-06-05T08:10:03Z</time>
    </trkpt>
    <trkpt lat="48.469516" lon="2.658709">
      <ele>90.576</ele>
      <time>2016-06-05T08:10:05Z</time>
    </trkpt>
    <trkpt lat="48.469411" lon="2.658666">
      <ele>91.241</ele>
      <time>2016-06-05T08:10:07Z</time>
    </trkpt>
    <trkpt lat="48.469307" lon="2.658705">
      <ele>91.99</ele>
      <time>2016-06-05T08:10:10Z</time>
    </trkpt>
    <trkpt lat="48.46921" lon="2.658717">
      <ele>92.688</ele>
      <time>2016-06-05T08:10:12Z</time>
    </trkpt>
    <trkpt lat="48.469109" lon="2.65867">
      <ele>93.208</ele>
      <time>2016-06-05T08:10:15Z</time>
    </trkpt>
    <trkpt lat="48.469002" lon="2.658678">
      <ele>93.593</ele>
      <time>2016-06-05T08:10:18Z</time>
    </trkpt>
    <trkpt lat="48.468906" lon="2.658666">
      <ele>93.938</ele>
      <time>2016-06-05T08:10:20Z</time>
    </trkpt>
    <trkpt lat="48.468787" lon="2.658656">
      <ele>94.367</ele>
      <time>2016-06-05T08:10:22Z</time>
    </trkpt>
    <trkpt lat="48.468692" lon="2.658653">
      <ele>94.709</ele>
      <time>2016-06-05T08:10:24Z</time>
    </trkpt>
    <trkpt lat="48.468556" lon="2.658617">
      <ele>94.806</ele>
      <time>2016-06-05T08:10:28Z</time>
    </trkpt>
    <trkpt lat="48.468435" lon="2.658583">
      <ele>94.329</ele>
      <time>2016-06-05T08:10:31Z</time>
    </trkpt>
    <trkpt lat="48.468328" lon="2.658565">
      <ele>94.0</ele>
      <time>2016-06-05T08:10:33Z</time>
    </trkpt>
    <trkpt lat="48.468214" lon="2.658533">
      <ele>94.0</ele>
      <time>2016-06-05T08:10:36Z</time>
    </trkpt>
    <trkpt lat="48.468063" lon="2.6585">
      <ele>94.0</ele>
      <time>2016-06-05T08:10:39Z</time>
    </trkpt>
    <trkpt lat="48.467947" lon="2.658507">
      <ele>94.0</ele>
      <time>2016-06-05T08:10:42Z</time>
    </trkpt>
    <trkpt lat="48.467837" lon="2.658526">
      <ele>94.0</ele>
      <time>2016-06-05T08:10:46Z</time>
    </trkpt>
    <trkpt lat="48.467711" lon="2.6585">
      <ele>94.24</ele>
      <time>2016-06-05T08:10:49Z</time>
    </trkpt>
    <trkpt lat="48.467607" lon="2.658518">
      <ele>94.615</ele>
      <time>2016-06-05T08:10:51Z</time>
    </trkpt>
    <trkpt lat="48.467498" lon="2.658493">
      <ele>95.022</ele>
      <time>2016-06-05T08:10:53Z</time>
    </trkpt>
    <trkpt lat="48.467399" lon="2.658466">
      <ele>96.091</ele>
      <time>2016-06-05T08:10:55Z</time>
    </trkpt>
    <trkpt lat="48.467241" lon="2.658432">
      <ele>97.797</ele>
      <time>2016-06-05T08:10:58Z</time>
    </trkpt>
    <trkpt lat="48.467104" lon="2.658415">
      <ele>98.3</ele>
      <time>2016-06-05T08:11:01Z</time>
    </trkpt>
    <trkpt lat="48.467003" lon="2.65841">
      <ele>98.571</ele>
      <time>2016-06-05T08:11:04Z</time>
    </trkpt>
    <trkpt lat="48.466911" lon="2.658411">
      <ele>98.513</ele>
      <time>2016-06-05T08:11:06Z</time>
    </trkpt>
    <trkpt lat="48.466783" lon="2.658391">
      <ele>97.751</ele>
      <time>2016-06-05T08:11:09Z</time>
    </trkpt>
    <trkpt lat="48.466691" lon="2.658378">
      <ele>97.161</ele>
      <time>2016-06-05T08:11:11Z</time>
    </trkpt>
    <trkpt lat="48.466566" lon="2.658363">
      <ele>97.0</ele>
      <time>2016-06-05T08:11:13Z</time>
    </trkpt>
    <trkpt lat="48.466461" lon="2.658375">
      <ele>97.0</ele>
      <time>2016-06-05T08:11:16Z</time>
    </trkpt>
    <trkpt lat="48.466331" lon="2.658345">
      <ele>97.0</ele>
      <time>2016-06-05T08:11:19Z</time>
    </trkpt>
    <trkpt lat="48.466212" lon="2.658312">
      <ele>97.0</ele>
      <time>2016-06-05T08:11:22Z</time>
    </trkpt>
    <trkpt lat="48.466089" lon="2.658309">
      <ele>97.08</ele>
      <time>2016-06-05T08:11:25Z</time>
    </trkpt>
    <trkpt lat="48.465978" lon="2.658302">
      <ele>97.479</ele>
      <time>2016-06-05T08:11:27Z</time>
    </trkpt>
    <trkpt lat="48.465881" lon="2.658388">
      <ele>97.828</ele>
      <time>2016-06-05T08:11:30Z</time>
    </trkpt>
    <trkpt lat="48.465758" lon="2.658417">
      <ele>98.542</ele>
      <time>2016-06-05T08:11:33Z</time>
    </trkpt>
    <trkpt lat="48.465639" lon="2.65848">
      <ele>99.399</ele>
      <time>2016-06-05T08:11:38Z</time>
    </trkpt>
    <trkpt lat="48.465543" lon="2.658367">
      <ele>100.045</ele>
      <time>2016-06-05T08:11:41Z</time>
    </trkpt>
    <trkpt lat="48.465408" lon="2.658331">
      <ele>100.531</ele>
      <time>2016-06-05T08:11:43Z</time>
    </trkpt>
    <trkpt lat="48.465266" lon="2.658347">
      <ele>100.998</ele>
      <time>2016-06-05T08:11:45Z</time>
    </trkpt>
    <trkpt lat="48.465128" lon="2.658343">
      <ele>100.981</ele>
      <time>2016-06-05T08:11:48Z</time>
    </trkpt>
    <trkpt lat="48.465026" lon="2.658361">
      <ele>100.91</ele>
      <time>2016-06-05T08:11:50Z</time>
    </trkpt>
    <trkpt lat="48.464929" lon="2.658403">
      <ele>100.494</ele>
      <time>2016-06-05T08:11:53Z</time>
    </trkpt>
    <trkpt lat="48.464838" lon="2.658409">
      <ele>100.144</ele>
      <time>2016-06-05T08:11:56Z</time>
    </trkpt>
    <trkpt lat="48.464737" lon="2.658393">
      <ele>99.838</ele>
      <time>2016-06-05T08:11:59Z</time>
    </trkpt>
    <trkpt lat="48.464637" lon="2.658408">
      <ele>99.814</ele>
      <time>2016-06-05T08:12:03Z</time>
    </trkpt>
    <trkpt lat="48.464553" lon="2.658457">
      <ele>99.826</ele>
      <time>2016-06-05T08:12:05Z</time>
    </trkpt>
    <trkpt lat="48.464452" lon="2.658531">
      <ele>99.981</ele>
      <time>2016-06-05T08:12:08Z</time>
    </trkpt>
    <trkpt lat="48.46436" lon="2.658582">
      <ele>100.304</ele>
      <time>2016-06-05T08:12:11Z</time>
    </trkpt>
    <trkpt lat="48.464268" lon="2.658629">
      <ele>100.676</ele>
      <time>2016-06-05T08:12:13Z</time>
    </trkpt>
    <trkpt lat="48.464186" lon="2.658692">
      <ele>101.201</ele>
      <time>2016-06-05T08:12:15Z</time>
    </trkpt>
    <trkpt lat="48.464069" lon="2.658769">
      <ele>101.72</ele>
      <time>2016-06-05T08:12:18Z</time>
    </trkpt>
    <trkpt lat="48.463976" lon="2.658822">
      <ele>101.924</ele>
      <time>2016-06-05T08:12:21Z</time>
    </trkpt>
    <trkpt lat="48.463843" lon="2.658876">
      <ele>102.0</ele>
      <time>2016-06-05T08:12:24Z</time>
    </trkpt>
    <trkpt lat="48.463765" lon="2.658948">
      <ele>102.0</ele>
      <time>2016-06-05T08:12:27Z</time>
    </trkpt>
    <trkpt lat="48.463683" lon="2.659061">
      <ele>102.0</ele>
      <time>2016-06-05T08:12:30Z</time>
    </trkpt>
    <trkpt lat="48.463613" lon="2.659147">
      <ele>102.0</ele>
      <time>2016-06-05T08:12:32Z</time>
    </trkpt>
    <trkpt lat="48.463538" lon="2.659228">
      <ele>102.263</ele>
      <time>2016-06-05T08:12:36Z</time>
    </trkpt>
    <trkpt lat="48.463423" lon="2.659237">
      <ele>102.677</ele>
      <time>2016-06-05T08:12:39Z</time>
    </trkpt>
    <trkpt lat="48.463334" lon="2.659352">
      <ele>102.998</ele>
      <time>2016-06-05T08:12:43Z</time>
    </trkpt>
    <trkpt lat="48.463244" lon="2.659409">
      <ele>102.637</ele>
      <time>2016-06-05T08:12:45Z</time>
    </trkpt>
    <trkpt lat="48.463168" lon="2.659487">
      <ele>102.434</ele>
      <time>2016-06-05T08:12:48Z</time>
    </trkpt>
    <trkpt lat="48.463054" lon="2.659543">
      <ele>102.349</ele>
      <time>2016-06-05T08:12:51Z</time>
    </trkpt>
    <trkpt lat="48.462965" lon="2.659585">
      <ele>102.18</ele>
      <time>2016-06-05T08:12:53Z</time>
    </trkpt>
    <trkpt lat="48.462846" lon="2.65964">
      <ele>101.95</ele>
      <time>2016-06-05T08:12:57Z</time>
    </trkpt>
    <trkpt lat="48.462766" lon="2.659726">
      <ele>101.916</ele>
      <time>2016-06-05T08:13:01Z</time>
    </trkpt>
    <trkpt lat="48.462668" lon="2.659793">
      <ele>101.31</ele>
      <time>2016-06-05T08:13:04Z</time>
    </trkpt>
    <trkpt lat="48.462581" lon="2.659899">
      <ele>101.034</ele>
      <time>2016-06-05T08:13:08Z</time>
    </trkpt>
    <trkpt lat="48.462484" lon="2.659995">
      <ele>100.867</ele>
      <time>2016-06-05T08:13:12Z</time>
    </trkpt>
    <trkpt lat="48.462396" lon="2.66009">
      <ele>100.17</ele>
      <time>2016-06-05T08:13:15Z</time>
    </trkpt>
    <trkpt lat="48.462303" lon="2.660129">
      <ele>99.776</ele>
      <time>2016-06-05T08:13:18Z</time>
    </trkpt>
    <trkpt lat="48.462151" lon="2.660238">
      <ele>99.637</ele>
      <time>2016-06-05T08:13:23Z</time>
    </trkpt>
    <trkpt lat="48.462042" lon="2.660274">
      <ele>99.346</ele>
      <time>2016-06-05T08:13:27Z</time>
    </trkpt>
    <trkpt lat="48.46195" lon="2.660296">
      <ele>99.019</ele>
      <time>2016-06-05T08:13:32Z</time>
    </trkpt>
    <trkpt lat="48.461838" lon="2.660355">
      <ele>99.383</ele>
      <time>2016-06-05T08:13:37Z</time>
    </trkpt>
    <trkpt lat="48.461734" lon="2.660392">
      <ele>99.758</ele>
      <time>2016-06-05T08:13:42Z</time>
    </trkpt>
    <trkpt lat="48.461637" lon="2.660423">
      <ele>100.32</ele>
      <time>2016-06-05T08:13:47Z</time>
    </trkpt>
    <trkpt lat="48.461531" lon="2.660447">
      <ele>101.465</ele>
      <time>2016-06-05T08:13:53Z</time>
    </trkpt>
    <trkpt lat="48.461428" lon="2.66042">
      <ele>102.578</ele>
      <time>2016-06-05T08:14:00Z</time>
    </trkpt>
    <trkpt lat="48.461328" lon="2.660401">
      <ele>103.658</ele>
      <time>2016-06-05T08:14:06Z</time>
    </trkpt>
    <trkpt lat="48.46122" lon="2.660357">
      <ele>104.824</ele>
      <time>2016-06-05T08:14:14Z</time>
    </trkpt>
    <trkpt lat="48.461131" lon="2.660316">
      <ele>105.785</ele>
      <time>2016-06-05T08:14:18Z</time>
    </trkpt>
    <trkpt lat="48.461041" lon="2.660333">
      <ele>106.252</ele>
      <time>2016-06-05T08:14:25Z</time>
    </trkpt>
    <trkpt lat="48.460968" lon="2.660415">
      <ele>106.515</ele>
      <time>2016-06-05T08:14:35Z</time>
    </trkpt>
    <trkpt lat="48.460875" lon="2.660495">
      <ele>106.85</ele>
      <time>2016-06-05T08:14:41Z</time>
    </trkpt>
    <trkpt lat="48.460765" lon="2.660488">
      <ele>106.814</ele>
      <time>2016-06-05T08:14:43Z</time>
    </trkpt>
    <trkpt lat="48.460699" lon="2.660623">
      <ele>106.391</ele>
      <time>2016-06-05T08:14:46Z</time>
    </trkpt>
    <trkpt lat="48.460603" lon="2.660661">
      <ele>106.106</ele>
      <time>2016-06-05T08:14:49Z</time>
    </trkpt>
    <trkpt lat="48.460506" lon="2.660741">
      <ele>105.822</ele>
      <time>2016-06-05T08:14:51Z</time>
    </trkpt>
    <trkpt lat="48.460463" lon="2.660892">
      <ele>105.667</ele>
      <time>2016-06-05T08:14:53Z</time>
    </trkpt>
    <trkpt lat="48.460442" lon="2.661032">
      <ele>105.591</ele>
      <time>2016-06-05T08:14:55Z</time>
    </trkpt>
    <trkpt lat="48.460366" lon="2.661124">
      <ele>105.318</ele>
      <time>2016-06-05T08:14:57Z</time>
    </trkpt>
    <trkpt lat="48.460252" lon="2.661155">
      <ele>104.8</ele>
      <time>2016-06-05T08:15:00Z</time>
    </trkpt>
    <trkpt lat="48.460158" lon="2.661212">
      <ele>103.981</ele>
      <time>2016-06-05T08:15:03Z</time>
    </trkpt>
    <trkpt lat="48.460071" lon="2.661258">
      <ele>103.118</ele>
      <time>2016-06-05T08:15:06Z</time>
    </trkpt>
    <trkpt lat="48.459996" lon="2.661348">
      <ele>102.116</ele>
      <time>2016-06-05T08:15:10Z</time>
    </trkpt>
    <trkpt lat="48.459881" lon="2.661385">
      <ele>101.151</ele>
      <time>2016-06-05T08:15:13Z</time>
    </trkpt>
    <trkpt lat="48.459783" lon="2.661378">
      <ele>100.446</ele>
      <time>2016-06-05T08:15:15Z</time>
    </trkpt>
    <trkpt lat="48.459687" lon="2.661367">
      <ele>100.0</ele>
      <time>2016-06-05T08:15:18Z</time>
    </trkpt>
    <trkpt lat="48.459602" lon="2.66143">
      <ele>99.916</ele>
      <time>2016-06-05T08:15:21Z</time>
    </trkpt>
    <trkpt lat="48.459526" lon="2.661508">
      <ele>99.874</ele>
      <time>2016-06-05T08:15:23Z</time>
    </trkpt>
    <trkpt lat="48.459557" lon="2.661639">
      <ele>99.635</ele>
      <time>2016-06-05T08:15:26Z</time>
    </trkpt>
    <trkpt lat="48.459584" lon="2.661829">
      <ele>99.791</ele>
      <time>2016-06-05T08:15:29Z</time>
    </trkpt>
    <trkpt lat="48.459528" lon="2.662011">
      <ele>100.072</ele>
      <time>2016-06-05T08:15:32Z</time>
    </trkpt>
    <trkpt lat="48.459516" lon="2.662145">
      <ele>100.186</ele>
      <time>2016-06-05T08:15:34Z</time>
    </trkpt>
    <trkpt lat="48.45953" lon="2.66233">
      <ele>100.696</ele>
      <time>2016-06-05T08:15:37Z</time>
    </trkpt>
    <trkpt lat="48.45959" lon="2.662483">
      <ele>101.463</ele>
      <time>2016-06-05T08:15:39Z</time>
    </trkpt>
    <trkpt lat="48.459556" lon="2.66268">
      <ele>101.402</ele>
      <time>2016-06-05T08:15:42Z</time>
    </trkpt>
    <trkpt lat="48.459584" lon="2.662899">
      <ele>101.502</ele>
      <time>2016-06-05T08:15:44Z</time>
    </trkpt>
    <trkpt lat="48.459521" lon="2.663006">
      <ele>101.276</ele>
      <time>2016-06-05T08:15:47Z</time>
    </trkpt>
    <trkpt lat="48.459442" lon="2.663168">
      <ele>101.396</ele>
      <time>2016-06-05T08:15:52Z</time>
    </trkpt>
    <trkpt lat="48.459395" lon="2.663288">
      <ele>101.659</ele>
      <time>2016-06-05T08:15:54Z</time>
    </trkpt>
    <trkpt lat="48.459315" lon="2.663444">
      <ele>101.72</ele>
      <time>2016-06-05T08:15:57Z</time>
    </trkpt>
    <trkpt lat="48.459256" lon="2.663581">
      <ele>101.926</ele>
      <time>2016-06-05T08:16:00Z</time>
    </trkpt>
    <trkpt lat="48.459216" lon="2.663717">
      <ele>102.313</ele>
      <time>2016-06-05T08:16:02Z</time>
    </trkpt>
    <trkpt lat="48.459168" lon="2.663841">
      <ele>102.824</ele>
      <time>2016-06-05T08:16:04Z</time>
    </trkpt>
    <trkpt lat="48.459117" lon="2.664002">
      <ele>103.252</ele>
      <time>2016-06-05T08:16:06Z</time>
    </trkpt>
    <trkpt lat="48.459093" lon="2.664151">
      <ele>103.515</ele>
      <time>2016-06-05T08:16:08Z</time>
    </trkpt>
    <trkpt lat="48.459045" lon="2.664336">
      <ele>103.876</ele>
      <time>2016-06-05T08:16:12Z</time>
    </trkpt>
    <trkpt lat="48.459004" lon="2.664469">
      <ele>104.171</ele>
      <time>2016-06-05T08:16:15Z</time>
    </trkpt>
    <trkpt lat="48.458975" lon="2.664644">
      <ele>104.38</ele>
      <time>2016-06-05T08:16:18Z</time>
    </trkpt>
    <trkpt lat="48.458909" lon="2.664772">
      <ele>104.868</ele>
      <time>2016-06-05T08:16:20Z</time>
    </trkpt>
    <trkpt lat="48.458833" lon="2.664912">
      <ele>105.402</ele>
      <time>2016-06-05T08:16:22Z</time>
    </trkpt>
    <trkpt lat="48.458779" lon="2.665046">
      <ele>105.957</ele>
      <time>2016-06-05T08:16:25Z</time>
    </trkpt>
    <trkpt lat="48.458746" lon="2.665194">
      <ele>106.727</ele>
      <time>2016-06-05T08:16:30Z</time>
    </trkpt>
    <trkpt lat="48.458712" lon="2.665341">
      <ele>107.584</ele>
      <time>2016-06-05T08:16:35Z</time>
    </trkpt>
    <trkpt lat="48.458653" lon="2.665461">
      <ele>108.457</ele>
      <time>2016-06-05T08:16:39Z</time>
    </trkpt>
    <trkpt lat="48.458614" lon="2.665597">
      <ele>109.137</ele>
      <time>2016-06-05T08:16:44Z</time>
    </trkpt>
    <trkpt lat="48.458584" lon="2.665731">
      <ele>109.827</ele>
      <time>2016-06-05T08:16:47Z</time>
    </trkpt>
    <trkpt lat="48.458519" lon="2.665836">
      <ele>110.673</ele>
      <time>2016-06-05T08:16:50Z</time>
    </trkpt>
    <trkpt lat="48.458472" lon="2.665997">
      <ele>111.591</ele>
      <time>2016-06-05T08:16:54Z</time>
    </trkpt>
    <trkpt lat="48.45842" lon="2.666111">
      <ele>112.376</ele>
      <time>2016-06-05T08:16:56Z</time>
    </trkpt>
    <trkpt lat="48.458365" lon="2.66624">
      <ele>112.414</ele>
      <time>2016-06-05T08:16:59Z</time>
    </trkpt>
    <trkpt lat="48.458348" lon="2.666404">
      <ele>111.897</ele>
      <time>2016-06-05T08:17:01Z</time>
    </trkpt>
    <trkpt lat="48.458303" lon="2.666606">
      <ele>110.655</ele>
      <time>2016-06-05T08:17:05Z</time>
    </trkpt>
    <trkpt lat="48.458237" lon="2.666709">
      <ele>110.588</ele>
      <time>2016-06-05T08:17:08Z</time>
    </trkpt>
    <trkpt lat="48.458192" lon="2.666851">
      <ele>110.342</ele>
      <time>2016-06-05T08:17:10Z</time>
    </trkpt>
    <trkpt lat="48.458159" lon="2.666994">
      <ele>110.112</ele>
      <time>2016-06-05T08:17:13Z</time>
    </trkpt>
    <trkpt lat="48.458132" lon="2.667152">
      <ele>110.542</ele>
      <time>2016-06-05T08:17:15Z</time>
    </trkpt>
    <trkpt lat="48.458077" lon="2.667325">
      <ele>111.293</ele>
      <time>2016-06-05T08:17:22Z</time>
    </trkpt>
    <trkpt lat="48.458004" lon="2.667489">
      <ele>112.725</ele>
      <time>2016-06-05T08:17:25Z</time>
    </trkpt>
    <trkpt lat="48.457978" lon="2.667687">
      <ele>112.929</ele>
      <time>2016-06-05T08:17:28Z</time>
    </trkpt>
    <trkpt lat="48.457935" lon="2.667845">
      <ele>113.439</ele>
      <time>2016-06-05T08:17:31Z</time>
    </trkpt>
    <trkpt lat="48.457878" lon="2.667983">
      <ele>114.184</ele>
      <time>2016-06-05T08:17:33Z</time>
    </trkpt>
    <trkpt lat="48.457868" lon="2.668131">
      <ele>114.35</ele>
      <time>2016-06-05T08:17:35Z</time>
    </trkpt>
    <trkpt lat="48.457852" lon="2.668272">
      <ele>114.466</ele>
      <time>2016-06-05T08:17:36Z</time>
    </trkpt>
    <trkpt lat="48.457801" lon="2.668446">
      <ele>114.461</ele>
      <time>2016-06-05T08:17:38Z</time>
    </trkpt>
    <trkpt lat="48.457699" lon="2.668641">
      <ele>114.253</ele>
      <time>2016-06-05T08:17:40Z</time>
    </trkpt>
    <trkpt lat="48.45763" lon="2.66879">
      <ele>114.189</ele>
      <time>2016-06-05T08:17:42Z</time>
    </trkpt>
    <trkpt lat="48.45761" lon="2.668955">
      <ele>113.524</ele>
      <time>2016-06-05T08:17:45Z</time>
    </trkpt>
    <trkpt lat="48.457579" lon="2.669093">
      <ele>112.53</ele>
      <time>2016-06-05T08:17:49Z</time>
    </trkpt>
    <trkpt lat="48.457516" lon="2.669214">
      <ele>111.82</ele>
      <time>2016-06-05T08:17:51Z</time>
    </trkpt>
    <trkpt lat="48.457472" lon="2.669344">
      <ele>111.297</ele>
      <time>2016-06-05T08:17:53Z</time>
    </trkpt>
    <trkpt lat="48.457376" lon="2.669503">
      <ele>110.015</ele>
      <time>2016-06-05T08:17:55Z</time>
    </trkpt>
    <trkpt lat="48.457286" lon="2.669623">
      <ele>108.796</ele>
      <time>2016-06-05T08:17:57Z</time>
    </trkpt>
    <trkpt lat="48.457193" lon="2.669729">
      <ele>107.951</ele>
      <time>2016-06-05T08:17:59Z</time>
    </trkpt>
    <trkpt lat="48.457079" lon="2.669728">
      <ele>107.958</ele>
      <time>2016-06-05T08:18:03Z</time>
    </trkpt>
    <trkpt lat="48.456966" lon="2.669732">
      <ele>107.93</ele>
      <time>2016-06-05T08:18:06Z</time>
    </trkpt>
    <trkpt lat="48.456885" lon="2.669595">
      <ele>108.818</ele>
      <time>2016-06-05T08:18:09Z</time>
    </trkpt>
    <trkpt lat="48.456731" lon="2.669498">
      <ele>108.994</ele>
      <time>2016-06-05T08:18:11Z</time>
    </trkpt>
    <trkpt lat="48.456666" lon="2.669379">
      <ele>109.237</ele>
      <time>2016-06-05T08:18:15Z</time>
    </trkpt>
    <trkpt lat="48.456608" lon="2.66924">
      <ele>109.792</ele>
      <time>2016-06-05T08:18:18Z</time>
    </trkpt>
    <trkpt lat="48.456605" lon="2.669087">
      <ele>110.446</ele>
      <time>2016-06-05T08:18:22Z</time>
    </trkpt>
    <trkpt lat="48.456568" lon="2.668939">
      <ele>111.057</ele>
      <time>2016-06-05T08:18:25Z</time>
    </trkpt>
    <trkpt lat="48.456482" lon="2.668785">
      <ele>111.418</ele>
      <time>2016-06-05T08:18:28Z</time>
    </trkpt>
    <trkpt lat="48.456462" lon="2.668614">
      <ele>112.506</ele>
      <time>2016-06-05T08:18:32Z</time>
    </trkpt>
    <trkpt lat="48.456411" lon="2.668474">
      <ele>112.198</ele>
      <time>2016-06-05T08:18:35Z</time>
    </trkpt>
    <trkpt lat="48.456399" lon="2.668335">
      <ele>112.109</ele>
      <time>2016-06-05T08:18:39Z</time>
    </trkpt>
    <trkpt lat="48.456351" lon="2.668209">
      <ele>113.168</ele>
      <time>2016-06-05T08:18:42Z</time>
    </trkpt>
    <trkpt lat="48.45633" lon="2.668036">
      <ele>114.565</ele>
      <time>2016-06-05T08:18:46Z</time>
    </trkpt>
    <trkpt lat="48.456312" lon="2.667887">
      <ele>115.767</ele>
      <time>2016-06-05T08:18:51Z</time>
    </trkpt>
    <trkpt lat="48.456246" lon="2.667749">
      <ele>117.233</ele>
      <time>2016-06-05T08:18:55Z</time>
    </trkpt>
    <trkpt lat="48.456161" lon="2.667618">
      <ele>118.423</ele>
      <time>2016-06-05T08:18:57Z</time>
    </trkpt>
    <trkpt lat="48.456101" lon="2.66751">
      <ele>119.111</ele>
      <time>2016-06-05T08:19:00Z</time>
    </trkpt>
    <trkpt lat="48.456034" lon="2.667378">
      <ele>121.062</ele>
      <time>2016-06-05T08:19:05Z</time>
    </trkpt>
    <trkpt lat="48.455983" lon="2.66724">
      <ele>122.358</ele>
      <time>2016-06-05T08:19:11Z</time>
    </trkpt>
    <trkpt lat="48.455922" lon="2.667132">
      <ele>123.655</ele>
      <time>2016-06-05T08:19:16Z</time>
    </trkpt>
    <trkpt lat="48.455825" lon="2.667">
      <ele>125.418</ele>
      <time>2016-06-05T08:19:21Z</time>
    </trkpt>
    <trkpt lat="48.455762" lon="2.666888">
      <ele>126.459</ele>
      <time>2016-06-05T08:19:27Z</time>
    </trkpt>
    <trkpt lat="48.45569" lon="2.666806">
      <ele>127.254</ele>
      <time>2016-06-05T08:19:30Z</time>
    </trkpt>
    <trkpt lat="48.455592" lon="2.66675">
      <ele>128.008</ele>
      <time>2016-06-05T08:19:33Z</time>
    </trkpt>
    <trkpt lat="48.455466" lon="2.666647">
      <ele>128.796</ele>
      <time>2016-06-05T08:19:36Z</time>
    </trkpt>
    <trkpt lat="48.45538" lon="2.666594">
      <ele>128.726</ele>
      <time>2016-06-05T08:19:38Z</time>
    </trkpt>
    <trkpt lat="48.45529" lon="2.666547">
      <ele>128.494</ele>
      <time>2016-06-05T08:19:40Z</time>
    </trkpt>
    <trkpt lat="48.455202" lon="2.666518">
      <ele>128.808</ele>
      <time>2016-06-05T08:19:47Z</time>
    </trkpt>
    <trkpt lat="48.455126" lon="2.666443">
      <ele>129.352</ele>
      <time>2016-06-05T08:19:51Z</time>
    </trkpt>
    <trkpt lat="48.455099" lon="2.666277">
      <ele>129.931</ele>
      <time>2016-06-05T08:19:58Z</time>
    </trkpt>
    <trkpt lat="48.455035" lon="2.666134">
      <ele>130.105</ele>
      <time>2016-06-05T08:20:03Z</time>
    </trkpt>
    <trkpt lat="48.455006" lon="2.666">
      <ele>130.03</ele>
      <time>2016-06-05T08:20:07Z</time>
    </trkpt>
    <trkpt lat="48.454983" lon="2.665852">
      <ele>130.179</ele>
      <time>2016-06-05T08:20:12Z</time>
    </trkpt>
    <trkpt lat="48.454951" lon="2.665681">
      <ele>130.981</ele>
      <time>2016-06-05T08:20:16Z</time>
    </trkpt>
    <trkpt lat="48.454897" lon="2.665549">
      <ele>131.756</ele>
      <time>2016-06-05T08:20:21Z</time>
    </trkpt>
    <trkpt lat="48.454855" lon="2.66539">
      <ele>132.329</ele>
      <time>2016-06-05T08:20:27Z</time>
    </trkpt>
    <trkpt lat="48.454801" lon="2.66527">
      <ele>132.744</ele>
      <time>2016-06-05T08:20:32Z</time>
    </trkpt>
    <trkpt lat="48.454713" lon="2.665125">
      <ele>133.565</ele>
      <time>2016-06-05T08:20:39Z</time>
    </trkpt>
    <trkpt lat="48.454649" lon="2.665002">
      <ele>133.995</ele>
      <time>2016-06-05T08:20:44Z</time>
    </trkpt>
    <trkpt lat="48.454586" lon="2.664876">
      <ele>134.0</ele>
      <time>2016-06-05T08:20:48Z</time>
    </trkpt>
    <trkpt lat="48.45452" lon="2.664747">
      <ele>134.0</ele>
      <time>2016-06-05T08:20:54Z</time>
    </trkpt>
    <trkpt lat="48.454447" lon="2.664645">
      <ele>134.0</ele>
      <time>2016-06-05T08:20:59Z</time>
    </trkpt>
    <trkpt lat="48.454374" lon="2.664493">
      <ele>133.791</ele>
      <time>2016-06-05T08:21:03Z</time>
    </trkpt>
    <trkpt lat="48.454292" lon="2.66438">
      <ele>133.451</ele>
      <time>2016-06-05T08:21:06Z</time>
    </trkpt>
    <trkpt lat="48.454271" lon="2.664236">
      <ele>133.376</ele>
      <time>2016-06-05T08:21:14Z</time>
    </trkpt>
    <trkpt lat="48.454237" lon="2.664105">
      <ele>133.531</ele>
      <time>2016-06-05T08:21:18Z</time>
    </trkpt>
    <trkpt lat="48.454207" lon="2.663959">
      <ele>134.001</ele>
      <time>2016-06-05T08:21:26Z</time>
    </trkpt>
    <trkpt lat="48.454174" lon="2.663805">
      <ele>134.363</ele>
      <time>2016-06-05T08:21:34Z</time>
    </trkpt>
    <trkpt lat="48.454127" lon="2.663666">
      <ele>134.774</ele>
      <time>2016-06-05T08:21:39Z</time>
    </trkpt>
    <trkpt lat="48.454038" lon="2.663534">
      <ele>135.427</ele>
      <time>2016-06-05T08:21:44Z</time>
    </trkpt>
    <trkpt lat="48.454057" lon="2.663392">
      <ele>136.266</ele>
      <time>2016-06-05T08:21:55Z</time>
    </trkpt>
    <trkpt lat="48.454072" lon="2.663248">
      <ele>136.764</ele>
      <time>2016-06-05T08:22:03Z</time>
    </trkpt>
    <trkpt lat="48.454023" lon="2.663113">
      <ele>136.893</ele>
      <time>2016-06-05T08:22:08Z</time>
    </trkpt>
    <trkpt lat="48.454006" lon="2.66298">
      <ele>137.0</ele>
      <time>2016-06-05T08:22:16Z</time>
    </trkpt>
    <trkpt lat="48.453963" lon="2.662861">
      <ele>137.0</ele>
      <time>2016-06-05T08:22:22Z</time>
    </trkpt>
    <trkpt lat="48.4539" lon="2.662749">
      <ele>136.896</ele>
      <time>2016-06-05T08:22:29Z</time>
    </trkpt>
    <trkpt lat="48.453839" lon="2.662621">
      <ele>136.537</ele>
      <time>2016-06-05T08:22:39Z</time>
    </trkpt>
    <trkpt lat="48.453774" lon="2.662501">
      <ele>136.416</ele>
      <time>2016-06-05T08:22:45Z</time>
    </trkpt>
    <trkpt lat="48.4537" lon="2.662398">
      <ele>136.43</ele>
      <time>2016-06-05T08:22:52Z</time>
    </trkpt>
    <trkpt lat="48.453602" lon="2.662356">
      <ele>136.466</ele>
      <time>2016-06-05T08:23:02Z</time>
    </trkpt>
    <trkpt lat="48.453569" lon="2.662229">
      <ele>136.021</ele>
      <time>2016-06-05T08:23:09Z</time>
    </trkpt>
    <trkpt lat="48.453623" lon="2.662097">
      <ele>136.019</ele>
      <time>2016-06-05T08:23:13Z</time>
    </trkpt>
    <trkpt lat="48.453691" lon="2.661972">
      <ele>136.259</ele>
      <time>2016-06-05T08:23:18Z</time>
    </trkpt>
    <trkpt lat="48.453808" lon="2.661968">
      <ele>136.649</ele>
      <time>2016-06-05T08:23:22Z</time>
    </trkpt>
    <trkpt lat="48.453907" lon="2.662056">
      <ele>136.598</ele>
      <time>2016-06-05T08:23:25Z</time>
    </trkpt>
    <trkpt lat="48.453978" lon="2.662192">
      <ele>136.109</ele>
      <time>2016-06-05T08:23:30Z</time>
    </trkpt>
    <trkpt lat="48.454064" lon="2.662325">
      <ele>136.0</ele>
      <time>2016-06-05T08:23:33Z</time>
    </trkpt>
    <trkpt lat="48.454094" lon="2.662477">
      <ele>136.0</ele>
      <time>2016-06-05T08:23:36Z</time>
    </trkpt>
    <trkpt lat="48.454137" lon="2.662692">
      <ele>136.691</ele>
      <time>2016-06-05T08:23:39Z</time>
    </trkpt>
    <trkpt lat="48.454194" lon="2.6628">
      <ele>137.008</ele>
      <time>2016-06-05T08:23:41Z</time>
    </trkpt>
    <trkpt lat="48.454251" lon="2.662966">
      <ele>137.206</ele>
      <time>2016-06-05T08:23:44Z</time>
    </trkpt>
    <trkpt lat="48.454324" lon="2.663112">
      <ele>137.681</ele>
      <time>2016-06-05T08:23:46Z</time>
    </trkpt>
    <trkpt lat="48.454376" lon="2.663226">
      <ele>138.216</ele>
      <time>2016-06-05T08:23:48Z</time>
    </trkpt>
    <trkpt lat="48.454433" lon="2.663372">
      <ele>138.773</ele>
      <time>2016-06-05T08:23:51Z</time>
    </trkpt>
    <trkpt lat="48.454501" lon="2.663557">
      <ele>138.234</ele>
      <time>2016-06-05T08:23:54Z</time>
    </trkpt>
    <trkpt lat="48.454566" lon="2.663653">
      <ele>137.698</ele>
      <time>2016-06-05T08:23:55Z</time>
    </trkpt>
    <trkpt lat="48.454637" lon="2.663794">
      <ele>136.683</ele>
      <time>2016-06-05T08:23:57Z</time>
    </trkpt>
    <trkpt lat="48.454707" lon="2.663977">
      <ele>135.665</ele>
      <time>2016-06-05T08:24:00Z</time>
    </trkpt>
    <trkpt lat="48.454756" lon="2.664096">
      <ele>135.376</ele>
      <time>2016-06-05T08:24:02Z</time>
    </trkpt>
    <trkpt lat="48.45483" lon="2.66425">
      <ele>135.088</ele>
      <time>2016-06-05T08:24:04Z</time>
    </trkpt>
    <trkpt lat="48.45491" lon="2.664392">
      <ele>134.865</ele>
      <time>2016-06-05T08:24:06Z</time>
    </trkpt>
    <trkpt lat="48.454966" lon="2.664538">
      <ele>134.582</ele>
      <time>2016-06-05T08:24:08Z</time>
    </trkpt>
    <trkpt lat="48.455047" lon="2.664707">
      <ele>134.224</ele>
      <time>2016-06-05T08:24:10Z</time>
    </trkpt>
    <trkpt lat="48.455103" lon="2.664864">
      <ele>133.86</ele>
      <time>2016-06-05T08:24:12Z</time>
    </trkpt>
    <trkpt lat="48.455211" lon="2.665034">
      <ele>133.73</ele>
      <time>2016-06-05T08:24:14Z</time>
    </trkpt>
    <trkpt lat="48.455305" lon="2.665207">
      <ele>134.123</ele>
      <time>2016-06-05T08:24:16Z</time>
    </trkpt>
    <trkpt lat="48.455396" lon="2.665382">
      <ele>134.21</ele>
      <time>2016-06-05T08:24:18Z</time>
    </trkpt>
    <trkpt lat="48.45548" lon="2.665519">
      <ele>134.492</ele>
      <time>2016-06-05T08:24:20Z</time>
    </trkpt>
    <trkpt lat="48.455582" lon="2.665627">
      <ele>134.648</ele>
      <time>2016-06-05T08:24:22Z</time>
    </trkpt>
    <trkpt lat="48.455681" lon="2.66571">
      <ele>133.992</ele>
      <time>2016-06-05T08:24:25Z</time>
    </trkpt>
    <trkpt lat="48.455764" lon="2.665778">
      <ele>133.449</ele>
      <time>2016-06-05T08:24:26Z</time>
    </trkpt>
    <trkpt lat="48.455868" lon="2.665844">
      <ele>132.99</ele>
      <time>2016-06-05T08:24:28Z</time>
    </trkpt>
    <trkpt lat="48.45598" lon="2.665919">
      <ele>132.674</ele>
      <time>2016-06-05T08:24:30Z</time>
    </trkpt>
    <trkpt lat="48.456058" lon="2.66606">
      <ele>131.68</ele>
      <time>2016-06-05T08:24:33Z</time>
    </trkpt>
    <trkpt lat="48.456168" lon="2.666167">
      <ele>130.844</ele>
      <time>2016-06-05T08:24:36Z</time>
    </trkpt>
    <trkpt lat="48.456249" lon="2.666265">
      <ele>130.663</ele>
      <time>2016-06-05T08:24:38Z</time>
    </trkpt>
    <trkpt lat="48.456329" lon="2.666402">
      <ele>130.474</ele>
      <time>2016-06-05T08:24:40Z</time>
    </trkpt>
    <trkpt lat="48.456386" lon="2.666509">
      <ele>130.114</ele>
      <time>2016-06-05T08:24:42Z</time>
    </trkpt>
    <trkpt lat="48.456467" lon="2.66671">
      <ele>128.857</ele>
      <time>2016-06-05T08:24:45Z</time>
    </trkpt>
    <trkpt lat="48.456553" lon="2.666789">
      <ele>128.53</ele>
      <time>2016-06-05T08:24:48Z</time>
    </trkpt>
    <trkpt lat="48.456613" lon="2.66691">
      <ele>127.886</ele>
      <time>2016-06-05T08:24:50Z</time>
    </trkpt>
    <trkpt lat="48.456716" lon="2.666981">
      <ele>128.161</ele>
      <time>2016-06-05T08:24:53Z</time>
    </trkpt>
    <trkpt lat="48.456809" lon="2.6671">
      <ele>128.144</ele>
      <time>2016-06-05T08:24:58Z</time>
    </trkpt>
    <trkpt lat="48.456912" lon="2.667175">
      <ele>128.893</ele>
      <time>2016-06-05T08:24:59Z</time>
    </trkpt>
    <trkpt lat="48.457028" lon="2.667198">
      <ele>129.475</ele>
      <time>2016-06-05T08:25:01Z</time>
    </trkpt>
    <trkpt lat="48.45713" lon="2.6671">
      <ele>130.548</ele>
      <time>2016-06-05T08:25:03Z</time>
    </trkpt>
    <trkpt lat="48.457208" lon="2.667002">
      <ele>131.534</ele>
      <time>2016-06-05T08:25:08Z</time>
    </trkpt>
    <trkpt lat="48.457252" lon="2.666877">
      <ele>131.49</ele>
      <time>2016-06-05T08:25:11Z</time>
    </trkpt>
    <trkpt lat="48.457291" lon="2.666705">
      <ele>130.975</ele>
      <time>2016-06-05T08:25:14Z</time>
    </trkpt>
    <trkpt lat="48.45732" lon="2.666554">
      <ele>130.329</ele>
      <time>2016-06-05T08:25:17Z</time>
    </trkpt>
    <trkpt lat="48.457328" lon="2.666369">
      <ele>129.858</ele>
      <time>2016-06-05T08:25:20Z</time>
    </trkpt>
    <trkpt lat="48.457373" lon="2.666159">
      <ele>129.372</ele>
      <time>2016-06-05T08:25:23Z</time>
    </trkpt>
    <trkpt lat="48.457389" lon="2.66592">
      <ele>129.199</ele>
      <time>2016-06-05T08:25:26Z</time>
    </trkpt>
    <trkpt lat="48.457367" lon="2.665756">
      <ele>129.425</ele>
      <time>2016-06-05T08:25:29Z</time>
    </trkpt>
    <trkpt lat="48.457302" lon="2.665592">
      <ele>130.508</ele>
      <time>2016-06-05T08:25:33Z</time>
    </trkpt>
    <trkpt lat="48.457229" lon="2.665375">
      <ele>130.578</ele>
      <time>2016-06-05T08:25:35Z</time>
    </trkpt>
    <trkpt lat="48.457195" lon="2.665215">
      <ele>129.788</ele>
      <time>2016-06-05T08:25:37Z</time>
    </trkpt>
    <trkpt lat="48.457172" lon="2.665021">
      <ele>128.847</ele>
      <time>2016-06-05T08:25:39Z</time>
    </trkpt>
    <trkpt lat="48.45712" lon="2.664839">
      <ele>128.313</ele>
      <time>2016-06-05T08:25:41Z</time>
    </trkpt>
    <trkpt lat="48.457121" lon="2.664658">
      <ele>127.226</ele>
      <time>2016-06-05T08:25:43Z</time>
    </trkpt>
    <trkpt lat="48.457058" lon="2.664508">
      <ele>127.594</ele>
      <time>2016-06-05T08:25:45Z</time>
    </trkpt>
    <trkpt lat="48.457009" lon="2.664295">
      <ele>128.07</ele>
      <time>2016-06-05T08:25:48Z</time>
    </trkpt>
    <trkpt lat="48.45699" lon="2.664152">
      <ele>128.388</ele>
      <time>2016-06-05T08:25:50Z</time>
    </trkpt>
    <trkpt lat="48.456938" lon="2.663993">
      <ele>129.703</ele>
      <time>2016-06-05T08:25:53Z</time>
    </trkpt>
    <trkpt lat="48.456949" lon="2.663806">
      <ele>129.918</ele>
      <time>2016-06-05T08:25:57Z</time>
    </trkpt>
    <trkpt lat="48.456921" lon="2.663675">
      <ele>130.253</ele>
      <time>2016-06-05T08:25:59Z</time>
    </trkpt>
    <trkpt lat="48.456881" lon="2.663547">
      <ele>130.863</ele>
      <time>2016-06-05T08:26:01Z</time>
    </trkpt>
    <trkpt lat="48.456825" lon="2.663391">
      <ele>131.742</ele>
      <time>2016-06-05T08:26:04Z</time>
    </trkpt>
    <trkpt lat="48.456776" lon="2.663273">
      <ele>132.345</ele>
      <time>2016-06-05T08:26:06Z</time>
    </trkpt>
    <trkpt lat="48.456742" lon="2.663106">
      <ele>133.054</ele>
      <time>2016-06-05T08:26:09Z</time>
    </trkpt>
    <trkpt lat="48.456691" lon="2.662983">
      <ele>133.215</ele>
      <time>2016-06-05T08:26:11Z</time>
    </trkpt>
    <trkpt lat="48.456629" lon="2.662847">
      <ele>132.6</ele>
      <time>2016-06-05T08:26:14Z</time>
    </trkpt>
    <trkpt lat="48.456568" lon="2.662695">
      <ele>131.673</ele>
      <time>2016-06-05T08:26:16Z</time>
    </trkpt>
    <trkpt lat="48.4565" lon="2.662564">
      <ele>131.215</ele>
      <time>2016-06-05T08:26:18Z</time>
    </trkpt>
    <trkpt lat="48.456412" lon="2.662392">
      <ele>131.297</ele>
      <time>2016-06-05T08:26:21Z</time>
    </trkpt>
    <trkpt lat="48.456449" lon="2.662264">
      <ele>130.133</ele>
      <time>2016-06-05T08:26:25Z</time>
    </trkpt>
    <trkpt lat="48.456395" lon="2.662112">
      <ele>130.493</ele>
      <time>2016-06-05T08:26:29Z</time>
    </trkpt>
    <trkpt lat="48.456338" lon="2.661953">
      <ele>130.947</ele>
      <time>2016-06-05T08:26:32Z</time>
    </trkpt>
    <trkpt lat="48.456305" lon="2.661774">
      <ele>131.325</ele>
      <time>2016-06-05T08:26:35Z</time>
    </trkpt>
    <trkpt lat="48.456253" lon="2.661615">
      <ele>131.862</ele>
      <time>2016-06-05T08:26:37Z</time>
    </trkpt>
    <trkpt lat="48.456182" lon="2.661441">
      <ele>132.772</ele>
      <time>2016-06-05T08:26:40Z</time>
    </trkpt>
    <trkpt lat="48.456147" lon="2.661252">
      <ele>132.496</ele>
      <time>2016-06-05T08:26:45Z</time>
    </trkpt>
    <trkpt lat="48.456161" lon="2.661061">
      <ele>131.494</ele>
      <time>2016-06-05T08:26:49Z</time>
    </trkpt>
    <trkpt lat="48.456159" lon="2.660888">
      <ele>131.621</ele>
      <time>2016-06-05T08:26:52Z</time>
    </trkpt>
    <trkpt lat="48.456208" lon="2.660741">
      <ele>131.418</ele>
      <time>2016-06-05T08:26:55Z</time>
    </trkpt>
    <trkpt lat="48.45623" lon="2.660553">
      <ele>131.585</ele>
      <time>2016-06-05T08:26:58Z</time>
    </trkpt>
    <trkpt lat="48.456255" lon="2.660383">
      <ele>132.425</ele>
      <time>2016-06-05T08:27:02Z</time>
    </trkpt>
    <trkpt lat="48.456247" lon="2.660226">
      <ele>133.091</ele>
      <time>2016-06-05T08:27:05Z</time>
    </trkpt>
    <trkpt lat="48.45626" lon="2.660083">
      <ele>133.376</ele>
      <time>2016-06-05T08:27:08Z</time>
    </trkpt>
    <trkpt lat="48.456288" lon="2.659909">
      <ele>133.756</ele>
      <time>2016-06-05T08:27:11Z</time>
    </trkpt>
    <trkpt lat="48.456313" lon="2.659714">
      <ele>133.962</ele>
      <time>2016-06-05T08:27:14Z</time>
    </trkpt>
    <trkpt lat="48.456334" lon="2.659551">
      <ele>133.262</ele>
      <time>2016-06-05T08:27:17Z</time>
    </trkpt>
    <trkpt lat="48.456382" lon="2.659368">
      <ele>132.707</ele>
      <time>2016-06-05T08:27:20Z</time>
    </trkpt>
    <trkpt lat="48.456418" lon="2.659162">
      <ele>132.0</ele>
      <time>2016-06-05T08:27:23Z</time>
    </trkpt>
    <trkpt lat="48.456464" lon="2.659044">
      <ele>132.0</ele>
      <time>2016-06-05T08:27:25Z</time>
    </trkpt>
    <trkpt lat="48.456505" lon="2.65889">
      <ele>132.0</ele>
      <time>2016-06-05T08:27:27Z</time>
    </trkpt>
    <trkpt lat="48.456542" lon="2.658716">
      <ele>131.721</ele>
      <time>2016-06-05T08:27:29Z</time>
    </trkpt>
    <trkpt lat="48.456572" lon="2.658502">
      <ele>131.4</ele>
      <time>2016-06-05T08:27:32Z</time>
    </trkpt>
    <trkpt lat="48.456617" lon="2.658345">
      <ele>131.034</ele>
      <time>2016-06-05T08:27:34Z</time>
    </trkpt>
    <trkpt lat="48.456649" lon="2.658174">
      <ele>129.889</ele>
      <time>2016-06-05T08:27:36Z</time>
    </trkpt>
    <trkpt lat="48.456695" lon="2.658017">
      <ele>129.0</ele>
      <time>2016-06-05T08:27:38Z</time>
    </trkpt>
    <trkpt lat="48.456797" lon="2.657964">
      <ele>129.0</ele>
      <time>2016-06-05T08:27:40Z</time>
    </trkpt>
    <trkpt lat="48.456891" lon="2.657891">
      <ele>129.0</ele>
      <time>2016-06-05T08:27:42Z</time>
    </trkpt>
    <trkpt lat="48.456983" lon="2.657838">
      <ele>128.861</ele>
      <time>2016-06-05T08:27:44Z</time>
    </trkpt>
    <trkpt lat="48.457097" lon="2.657804">
      <ele>128.451</ele>
      <time>2016-06-05T08:27:46Z</time>
    </trkpt>
    <trkpt lat="48.457174" lon="2.657705">
      <ele>128.436</ele>
      <time>2016-06-05T08:27:48Z</time>
    </trkpt>
    <trkpt lat="48.457275" lon="2.657688">
      <ele>128.262</ele>
      <time>2016-06-05T08:27:50Z</time>
    </trkpt>
    <trkpt lat="48.457389" lon="2.657639">
      <ele>128.2</ele>
      <time>2016-06-05T08:27:52Z</time>
    </trkpt>
    <trkpt lat="48.457478" lon="2.657576">
      <ele>128.058</ele>
      <time>2016-06-05T08:27:54Z</time>
    </trkpt>
    <trkpt lat="48.457587" lon="2.657532">
      <ele>128.0</ele>
      <time>2016-06-05T08:27:57Z</time>
    </trkpt>
    <trkpt lat="48.45768" lon="2.65749">
      <ele>128.036</ele>
      <time>2016-06-05T08:27:59Z</time>
    </trkpt>
    <trkpt lat="48.457783" lon="2.657454">
      <ele>128.184</ele>
      <time>2016-06-05T08:28:02Z</time>
    </trkpt>
    <trkpt lat="48.457894" lon="2.657452">
      <ele>128.591</ele>
      <time>2016-06-05T08:28:04Z</time>
    </trkpt>
    <trkpt lat="48.457996" lon="2.657424">
      <ele>129.059</ele>
      <time>2016-06-05T08:28:07Z</time>
    </trkpt>
    <trkpt lat="48.458119" lon="2.657401">
      <ele>129.585</ele>
      <time>2016-06-05T08:28:10Z</time>
    </trkpt>
    <trkpt lat="48.458208" lon="2.657361">
      <ele>130.049</ele>
      <time>2016-06-05T08:28:14Z</time>
    </trkpt>
    <trkpt lat="48.458323" lon="2.657368">
      <ele>130.438</ele>
      <time>2016-06-05T08:28:17Z</time>
    </trkpt>
    <trkpt lat="48.458418" lon="2.657316">
      <ele>130.559</ele>
      <time>2016-06-05T08:28:20Z</time>
    </trkpt>
    <trkpt lat="48.458498" lon="2.657225">
      <ele>130.984</ele>
      <time>2016-06-05T08:28:23Z</time>
    </trkpt>
    <trkpt lat="48.458556" lon="2.657054">
      <ele>131.606</ele>
      <time>2016-06-05T08:28:27Z</time>
    </trkpt>
    <trkpt lat="48.458583" lon="2.656872">
      <ele>132.0</ele>
      <time>2016-06-05T08:28:30Z</time>
    </trkpt>
    <trkpt lat="48.458648" lon="2.656755">
      <ele>131.909</ele>
      <time>2016-06-05T08:28:33Z</time>
    </trkpt>
    <trkpt lat="48.458717" lon="2.656626">
      <ele>131.528</ele>
      <time>2016-06-05T08:28:36Z</time>
    </trkpt>
    <trkpt lat="48.458813" lon="2.656511">
      <ele>131.12</ele>
      <time>2016-06-05T08:28:39Z</time>
    </trkpt>
    <trkpt lat="48.458873" lon="2.656372">
      <ele>130.943</ele>
      <time>2016-06-05T08:28:42Z</time>
    </trkpt>
    <trkpt lat="48.458948" lon="2.656232">
      <ele>129.917</ele>
      <time>2016-06-05T08:28:45Z</time>
    </trkpt>
    <trkpt lat="48.458987" lon="2.656103">
      <ele>129.333</ele>
      <time>2016-06-05T08:28:47Z</time>
    </trkpt>
    <trkpt lat="48.459085" lon="2.655973">
      <ele>129.436</ele>
      <time>2016-06-05T08:28:50Z</time>
    </trkpt>
    <trkpt lat="48.459155" lon="2.655814">
      <ele>130.178</ele>
      <time>2016-06-05T08:28:53Z</time>
    </trkpt>
    <trkpt lat="48.459227" lon="2.655713">
      <ele>130.526</ele>
      <time>2016-06-05T08:28:55Z</time>
    </trkpt>
    <trkpt lat="48.459269" lon="2.65559">
      <ele>131.338</ele>
      <time>2016-06-05T08:28:57Z</time>
    </trkpt>
    <trkpt lat="48.459333" lon="2.655448">
      <ele>132.02</ele>
      <time>2016-06-05T08:29:00Z</time>
    </trkpt>
    <trkpt lat="48.459378" lon="2.655314">
      <ele>132.77</ele>
      <time>2016-06-05T08:29:02Z</time>
    </trkpt>
    <trkpt lat="48.459437" lon="2.655157">
      <ele>133.0</ele>
      <time>2016-06-05T08:29:04Z</time>
    </trkpt>
    <trkpt lat="48.459426" lon="2.654983">
      <ele>132.939</ele>
      <time>2016-06-05T08:29:07Z</time>
    </trkpt>
    <trkpt lat="48.459444" lon="2.654833">
      <ele>132.399</ele>
      <time>2016-06-05T08:29:10Z</time>
    </trkpt>
    <trkpt lat="48.459484" lon="2.654665">
      <ele>131.745</ele>
      <time>2016-06-05T08:29:13Z</time>
    </trkpt>
    <trkpt lat="48.459512" lon="2.654536">
      <ele>131.677</ele>
      <time>2016-06-05T08:29:15Z</time>
    </trkpt>
    <trkpt lat="48.45954" lon="2.654346">
      <ele>131.534</ele>
      <time>2016-06-05T08:29:18Z</time>
    </trkpt>
    <trkpt lat="48.459579" lon="2.654222">
      <ele>131.128</ele>
      <time>2016-06-05T08:29:20Z</time>
    </trkpt>
    <trkpt lat="48.459605" lon="2.654032">
      <ele>130.639</ele>
      <time>2016-06-05T08:29:23Z</time>
    </trkpt>
    <trkpt lat="48.459603" lon="2.653849">
      <ele>130.286</ele>
      <time>2016-06-05T08:29:26Z</time>
    </trkpt>
    <trkpt lat="48.459545" lon="2.653744">
      <ele>130.116</ele>
      <time>2016-06-05T08:29:28Z</time>
    </trkpt>
    <trkpt lat="48.459477" lon="2.65365">
      <ele>130.023</ele>
      <time>2016-06-05T08:29:31Z</time>
    </trkpt>
    <trkpt lat="48.45939" lon="2.653557">
      <ele>129.805</ele>
      <time>2016-06-05T08:29:34Z</time>
    </trkpt>
    <trkpt lat="48.459285" lon="2.653511">
      <ele>129.64</ele>
      <time>2016-06-05T08:29:37Z</time>
    </trkpt>
    <trkpt lat="48.459171" lon="2.653529">
      <ele>129.704</ele>
      <time>2016-06-05T08:29:40Z</time>
    </trkpt>
    <trkpt lat="48.459056" lon="2.653527">
      <ele>129.697</ele>
      <time>2016-06-05T08:29:42Z</time>
    </trkpt>
    <trkpt lat="48.458905" lon="2.653492">
      <ele>129.571</ele>
      <time>2016-06-05T08:29:44Z</time>
    </trkpt>
    <trkpt lat="48.458768" lon="2.653485">
      <ele>130.179</ele>
      <time>2016-06-05T08:29:46Z</time>
    </trkpt>
    <trkpt lat="48.458663" lon="2.653466">
      <ele>130.716</ele>
      <time>2016-06-05T08:29:48Z</time>
    </trkpt>
    <trkpt lat="48.458567" lon="2.653487">
      <ele>131.0</ele>
      <time>2016-06-05T08:29:50Z</time>
    </trkpt>
    <trkpt lat="48.458444" lon="2.653453">
      <ele>131.0</ele>
      <time>2016-06-05T08:29:52Z</time>
    </trkpt>
    <trkpt lat="48.458343" lon="2.653497">
      <ele>131.0</ele>
      <time>2016-06-05T08:29:54Z</time>
    </trkpt>
    <trkpt lat="48.458242" lon="2.653526">
      <ele>131.0</ele>
      <time>2016-06-05T08:29:57Z</time>
    </trkpt>
    <trkpt lat="48.458112" lon="2.653466">
      <ele>131.0</ele>
      <time>2016-06-05T08:30:00Z</time>
    </trkpt>
    <trkpt lat="48.458035" lon="2.653388">
      <ele>131.0</ele>
      <time>2016-06-05T08:30:02Z</time>
    </trkpt>
    <trkpt lat="48.457942" lon="2.653262">
      <ele>131.0</ele>
      <time>2016-06-05T08:30:04Z</time>
    </trkpt>
    <trkpt lat="48.457869" lon="2.653133">
      <ele>131.0</ele>
      <time>2016-06-05T08:30:06Z</time>
    </trkpt>
    <trkpt lat="48.457771" lon="2.65301">
      <ele>131.184</ele>
      <time>2016-06-05T08:30:08Z</time>
    </trkpt>
    <trkpt lat="48.457707" lon="2.652883">
      <ele>131.718</ele>
      <time>2016-06-05T08:30:10Z</time>
    </trkpt>
    <trkpt lat="48.457672" lon="2.652688">
      <ele>132.0</ele>
      <time>2016-06-05T08:30:13Z</time>
    </trkpt>
    <trkpt lat="48.457674" lon="2.652549">
      <ele>132.0</ele>
      <time>2016-06-05T08:30:15Z</time>
    </trkpt>
    <trkpt lat="48.457698" lon="2.652353">
      <ele>132.0</ele>
      <time>2016-06-05T08:30:18Z</time>
    </trkpt>
    <trkpt lat="48.457715" lon="2.652161">
      <ele>132.0</ele>
      <time>2016-06-05T08:30:20Z</time>
    </trkpt>
    <trkpt lat="48.457766" lon="2.652025">
      <ele>132.0</ele>
      <time>2016-06-05T08:30:22Z</time>
    </trkpt>
    <trkpt lat="48.457838" lon="2.651852">
      <ele>131.523</ele>
      <time>2016-06-05T08:30:24Z</time>
    </trkpt>
    <trkpt lat="48.4579" lon="2.651694">
      <ele>131.055</ele>
      <time>2016-06-05T08:30:26Z</time>
    </trkpt>
    <trkpt lat="48.457988" lon="2.651597">
      <ele>131.0</ele>
      <time>2016-06-05T08:30:28Z</time>
    </trkpt>
    <trkpt lat="48.458072" lon="2.651544">
      <ele>130.967</ele>
      <time>2016-06-05T08:30:30Z</time>
    </trkpt>
    <trkpt lat="48.458196" lon="2.651519">
      <ele>130.763</ele>
      <time>2016-06-05T08:30:33Z</time>
    </trkpt>
    <trkpt lat="48.458298" lon="2.651491">
      <ele>130.679</ele>
      <time>2016-06-05T08:30:35Z</time>
    </trkpt>
    <trkpt lat="48.458412" lon="2.651406">
      <ele>130.638</ele>
      <time>2016-06-05T08:30:38Z</time>
    </trkpt>
    <trkpt lat="48.458524" lon="2.651295">
      <ele>130.314</ele>
      <time>2016-06-05T08:30:40Z</time>
    </trkpt>
    <trkpt lat="48.458627" lon="2.651152">
      <ele>129.877</ele>
      <time>2016-06-05T08:30:42Z</time>
    </trkpt>
    <trkpt lat="48.458649" lon="2.650978">
      <ele>130.141</ele>
      <time>2016-06-05T08:30:45Z</time>
    </trkpt>
    <trkpt lat="48.458652" lon="2.650767">
      <ele>130.355</ele>
      <time>2016-06-05T08:30:48Z</time>
    </trkpt>
    <trkpt lat="48.458584" lon="2.650589">
      <ele>130.206</ele>
      <time>2016-06-05T08:30:50Z</time>
    </trkpt>
    <trkpt lat="48.458557" lon="2.650426">
      <ele>130.195</ele>
      <time>2016-06-05T08:30:53Z</time>
    </trkpt>
    <trkpt lat="48.458483" lon="2.650283">
      <ele>130.461</ele>
      <time>2016-06-05T08:30:56Z</time>
    </trkpt>
    <trkpt lat="48.45844" lon="2.650143">
      <ele>130.43</ele>
      <time>2016-06-05T08:30:58Z</time>
    </trkpt>
    <trkpt lat="48.458362" lon="2.649997">
      <ele>130.792</ele>
      <time>2016-06-05T08:31:01Z</time>
    </trkpt>
    <trkpt lat="48.458299" lon="2.649853">
      <ele>131.124</ele>
      <time>2016-06-05T08:31:03Z</time>
    </trkpt>
    <trkpt lat="48.458223" lon="2.649737">
      <ele>131.397</ele>
      <time>2016-06-05T08:31:05Z</time>
    </trkpt>
    <trkpt lat="48.458167" lon="2.64962">
      <ele>131.819</ele>
      <time>2016-06-05T08:31:07Z</time>
    </trkpt>
    <trkpt lat="48.458108" lon="2.649497">
      <ele>132.469</ele>
      <time>2016-06-05T08:31:10Z</time>
    </trkpt>
    <trkpt lat="48.458055" lon="2.649324">
      <ele>132.999</ele>
      <time>2016-06-05T08:31:12Z</time>
    </trkpt>
    <trkpt lat="48.45802" lon="2.64913">
      <ele>132.872</ele>
      <time>2016-06-05T08:31:15Z</time>
    </trkpt>
    <trkpt lat="48.458045" lon="2.648949">
      <ele>132.962</ele>
      <time>2016-06-05T08:31:18Z</time>
    </trkpt>
    <trkpt lat="48.458103" lon="2.648786">
      <ele>132.522</ele>
      <time>2016-06-05T08:31:21Z</time>
    </trkpt>
    <trkpt lat="48.458111" lon="2.648604">
      <ele>132.0</ele>
      <time>2016-06-05T08:31:23Z</time>
    </trkpt>
    <trkpt lat="48.458227" lon="2.648555">
      <ele>132.0</ele>
      <time>2016-06-05T08:31:26Z</time>
    </trkpt>
    <trkpt lat="48.458349" lon="2.648505">
      <ele>131.887</ele>
      <time>2016-06-05T08:31:28Z</time>
    </trkpt>
    <trkpt lat="48.45846" lon="2.648424">
      <ele>131.088</ele>
      <time>2016-06-05T08:31:30Z</time>
    </trkpt>
    <trkpt lat="48.458539" lon="2.648324">
      <ele>130.535</ele>
      <time>2016-06-05T08:31:32Z</time>
    </trkpt>
    <trkpt lat="48.458661" lon="2.648261">
      <ele>129.948</ele>
      <time>2016-06-05T08:31:34Z</time>
    </trkpt>
    <trkpt lat="48.458778" lon="2.648179">
      <ele>129.688</ele>
      <time>2016-06-05T08:31:37Z</time>
    </trkpt>
    <trkpt lat="48.458895" lon="2.648129">
      <ele>129.427</ele>
      <time>2016-06-05T08:31:39Z</time>
    </trkpt>
    <trkpt lat="48.459059" lon="2.64811">
      <ele>128.383</ele>
      <time>2016-06-05T08:31:41Z</time>
    </trkpt>
    <trkpt lat="48.459196" lon="2.648062">
      <ele>127.848</ele>
      <time>2016-06-05T08:31:43Z</time>
    </trkpt>
    <trkpt lat="48.459324" lon="2.648">
      <ele>127.72</ele>
      <time>2016-06-05T08:31:45Z</time>
    </trkpt>
    <trkpt lat="48.459432" lon="2.647849">
      <ele>127.822</ele>
      <time>2016-06-05T08:31:47Z</time>
    </trkpt>
    <trkpt lat="48.459479" lon="2.64771">
      <ele>127.84</ele>
      <time>2016-06-05T08:31:49Z</time>
    </trkpt>
    <trkpt lat="48.459533" lon="2.647533">
      <ele>127.644</ele>
      <time>2016-06-05T08:31:51Z</time>
    </trkpt>
    <trkpt lat="48.459514" lon="2.647381">
      <ele>127.998</ele>
      <time>2016-06-05T08:31:53Z</time>
    </trkpt>
    <trkpt lat="48.459545" lon="2.64725">
      <ele>127.552</ele>
      <time>2016-06-05T08:31:55Z</time>
    </trkpt>
    <trkpt lat="48.459556" lon="2.6471">
      <ele>127.394</ele>
      <time>2016-06-05T08:31:57Z</time>
    </trkpt>
    <trkpt lat="48.459554" lon="2.646952">
      <ele>127.422</ele>
      <time>2016-06-05T08:31:59Z</time>
    </trkpt>
    <trkpt lat="48.459533" lon="2.646773">
      <ele>127.725</ele>
      <time>2016-06-05T08:32:01Z</time>
    </trkpt>
    <trkpt lat="48.459536" lon="2.646621">
      <ele>127.79</ele>
      <time>2016-06-05T08:32:03Z</time>
    </trkpt>
    <trkpt lat="48.459495" lon="2.646477">
      <ele>128.521</ele>
      <time>2016-06-05T08:32:05Z</time>
    </trkpt>
    <trkpt lat="48.459471" lon="2.646341">
      <ele>128.981</ele>
      <time>2016-06-05T08:32:07Z</time>
    </trkpt>
    <trkpt lat="48.459427" lon="2.646191">
      <ele>129.749</ele>
      <time>2016-06-05T08:32:09Z</time>
    </trkpt>
    <trkpt lat="48.459412" lon="2.646016">
      <ele>130.04</ele>
      <time>2016-06-05T08:32:13Z</time>
    </trkpt>
    <trkpt lat="48.459366" lon="2.645899">
      <ele>130.216</ele>
      <time>2016-06-05T08:32:15Z</time>
    </trkpt>
    <trkpt lat="48.459313" lon="2.64578">
      <ele>130.372</ele>
      <time>2016-06-05T08:32:17Z</time>
    </trkpt>
    <trkpt lat="48.459243" lon="2.645619">
      <ele>130.513</ele>
      <time>2016-06-05T08:32:20Z</time>
    </trkpt>
    <trkpt lat="48.459162" lon="2.64545">
      <ele>131.0</ele>
      <time>2016-06-05T08:32:22Z</time>
    </trkpt>
    <trkpt lat="48.459103" lon="2.64524">
      <ele>130.895</ele>
      <time>2016-06-05T08:32:24Z</time>
    </trkpt>
    <trkpt lat="48.4591" lon="2.645059">
      <ele>130.401</ele>
      <time>2016-06-05T08:32:26Z</time>
    </trkpt>
    <trkpt lat="48.45911" lon="2.644886">
      <ele>130.12</ele>
      <time>2016-06-05T08:32:28Z</time>
    </trkpt>
    <trkpt lat="48.459132" lon="2.644729">
      <ele>130.003</ele>
      <time>2016-06-05T08:32:30Z</time>
    </trkpt>
    <trkpt lat="48.459106" lon="2.644522">
      <ele>130.0</ele>
      <time>2016-06-05T08:32:32Z</time>
    </trkpt>
    <trkpt lat="48.459094" lon="2.644302">
      <ele>129.866</ele>
      <time>2016-06-05T08:32:34Z</time>
    </trkpt>
    <trkpt lat="48.459084" lon="2.644101">
      <ele>129.773</ele>
      <time>2016-06-05T08:32:36Z</time>
    </trkpt>
    <trkpt lat="48.459091" lon="2.643959">
      <ele>129.931</ele>
      <time>2016-06-05T08:32:38Z</time>
    </trkpt>
    <trkpt lat="48.459091" lon="2.643774">
      <ele>130.0</ele>
      <time>2016-06-05T08:32:40Z</time>
    </trkpt>
    <trkpt lat="48.459128" lon="2.643601">
      <ele>130.005</ele>
      <time>2016-06-05T08:32:42Z</time>
    </trkpt>
    <trkpt lat="48.459151" lon="2.643426">
      <ele>130.038</ele>
      <time>2016-06-05T08:32:44Z</time>
    </trkpt>
    <trkpt lat="48.459194" lon="2.643283">
      <ele>129.738</ele>
      <time>2016-06-05T08:32:46Z</time>
    </trkpt>
    <trkpt lat="48.459217" lon="2.643126">
      <ele>129.208</ele>
      <time>2016-06-05T08:32:48Z</time>
    </trkpt>
    <trkpt lat="48.459311" lon="2.642973">
      <ele>128.846</ele>
      <time>2016-06-05T08:32:51Z</time>
    </trkpt>
    <trkpt lat="48.45934" lon="2.642776">
      <ele>128.372</ele>
      <time>2016-06-05T08:32:53Z</time>
    </trkpt>
    <trkpt lat="48.459353" lon="2.642608">
      <ele>127.919</ele>
      <time>2016-06-05T08:32:56Z</time>
    </trkpt>
    <trkpt lat="48.459346" lon="2.642396">
      <ele>127.709</ele>
      <time>2016-06-05T08:32:59Z</time>
    </trkpt>
    <trkpt lat="48.459328" lon="2.642223">
      <ele>127.838</ele>
      <time>2016-06-05T08:33:01Z</time>
    </trkpt>
    <trkpt lat="48.459379" lon="2.642032">
      <ele>127.471</ele>
      <time>2016-06-05T08:33:04Z</time>
    </trkpt>
    <trkpt lat="48.459409" lon="2.641871">
      <ele>127.025</ele>
      <time>2016-06-05T08:33:06Z</time>
    </trkpt>
    <trkpt lat="48.459426" lon="2.641715">
      <ele>126.362</ele>
      <time>2016-06-05T08:33:08Z</time>
    </trkpt>
    <trkpt lat="48.459426" lon="2.641554">
      <ele>125.821</ele>
      <time>2016-06-05T08:33:10Z</time>
    </trkpt>
    <trkpt lat="48.459423" lon="2.641404">
      <ele>125.359</ele>
      <time>2016-06-05T08:33:13Z</time>
    </trkpt>
    <trkpt lat="48.459374" lon="2.641282">
      <ele>125.819</ele>
      <time>2016-06-05T08:33:15Z</time>
    </trkpt>
    <trkpt lat="48.459252" lon="2.641182">
      <ele>126.739</ele>
      <time>2016-06-05T08:33:18Z</time>
    </trkpt>
    <trkpt lat="48.459158" lon="2.641202">
      <ele>127.769</ele>
      <time>2016-06-05T08:33:22Z</time>
    </trkpt>
    <trkpt lat="48.459051" lon="2.641194">
      <ele>129.138</ele>
      <time>2016-06-05T08:33:26Z</time>
    </trkpt>
    <trkpt lat="48.458937" lon="2.641164">
      <ele>130.531</ele>
      <time>2016-06-05T08:33:31Z</time>
    </trkpt>
    <trkpt lat="48.45884" lon="2.641134">
      <ele>131.258</ele>
      <time>2016-06-05T08:33:35Z</time>
    </trkpt>
    <trkpt lat="48.458745" lon="2.641133">
      <ele>131.597</ele>
      <time>2016-06-05T08:33:39Z</time>
    </trkpt>
    <trkpt lat="48.458646" lon="2.641136">
      <ele>131.964</ele>
      <time>2016-06-05T08:33:42Z</time>
    </trkpt>
    <trkpt lat="48.458554" lon="2.641151">
      <ele>132.379</ele>
      <time>2016-06-05T08:33:45Z</time>
    </trkpt>
    <trkpt lat="48.45844" lon="2.64115">
      <ele>132.842</ele>
      <time>2016-06-05T08:33:48Z</time>
    </trkpt>
    <trkpt lat="48.458326" lon="2.641171">
      <ele>133.478</ele>
      <time>2016-06-05T08:33:51Z</time>
    </trkpt>
    <trkpt lat="48.458208" lon="2.641161">
      <ele>134.181</ele>
      <time>2016-06-05T08:33:54Z</time>
    </trkpt>
    <trkpt lat="48.458112" lon="2.641161">
      <ele>134.81</ele>
      <time>2016-06-05T08:33:56Z</time>
    </trkpt>
    <trkpt lat="48.458023" lon="2.641092">
      <ele>135.105</ele>
      <time>2016-06-05T08:33:58Z</time>
    </trkpt>
    <trkpt lat="48.457909" lon="2.641028">
      <ele>135.615</ele>
      <time>2016-06-05T08:34:01Z</time>
    </trkpt>
    <trkpt lat="48.457849" lon="2.640872">
      <ele>135.406</ele>
      <time>2016-06-05T08:34:05Z</time>
    </trkpt>
    <trkpt lat="48.457793" lon="2.64075">
      <ele>135.236</ele>
      <time>2016-06-05T08:34:07Z</time>
    </trkpt>
    <trkpt lat="48.457742" lon="2.640615">
      <ele>134.658</ele>
      <time>2016-06-05T08:34:09Z</time>
    </trkpt>
    <trkpt lat="48.457693" lon="2.640494">
      <ele>134.456</ele>
      <time>2016-06-05T08:34:12Z</time>
    </trkpt>
    <trkpt lat="48.457635" lon="2.640345">
      <ele>134.66</ele>
      <time>2016-06-05T08:34:16Z</time>
    </trkpt>
    <trkpt lat="48.457584" lon="2.640222">
      <ele>135.233</ele>
      <time>2016-06-05T08:34:18Z</time>
    </trkpt>
    <trkpt lat="48.457523" lon="2.640062">
      <ele>136.464</ele>
      <time>2016-06-05T08:34:22Z</time>
    </trkpt>
    <trkpt lat="48.45753" lon="2.639899">
      <ele>136.568</ele>
      <time>2016-06-05T08:34:26Z</time>
    </trkpt>
    <trkpt lat="48.457587" lon="2.639736">
      <ele>135.747</ele>
      <time>2016-06-05T08:34:29Z</time>
    </trkpt>
    <trkpt lat="48.457582" lon="2.63953">
      <ele>135.127</ele>
      <time>2016-06-05T08:34:32Z</time>
    </trkpt>
    <trkpt lat="48.457575" lon="2.639379">
      <ele>134.684</ele>
      <time>2016-06-05T08:34:34Z</time>
    </trkpt>
    <trkpt lat="48.457579" lon="2.639198">
      <ele>133.975</ele>
      <time>2016-06-05T08:34:37Z</time>
    </trkpt>
    <trkpt lat="48.457591" lon="2.639025">
      <ele>133.18</ele>
      <time>2016-06-05T08:34:39Z</time>
    </trkpt>
    <trkpt lat="48.457631" lon="2.638876">
      <ele>132.043</ele>
      <time>2016-06-05T08:34:41Z</time>
    </trkpt>
    <trkpt lat="48.457667" lon="2.638726">
      <ele>130.775</ele>
      <time>2016-06-05T08:34:43Z</time>
    </trkpt>
    <trkpt lat="48.457704" lon="2.63857">
      <ele>129.501</ele>
      <time>2016-06-05T08:34:45Z</time>
    </trkpt>
    <trkpt lat="48.457667" lon="2.638435">
      <ele>128.928</ele>
      <time>2016-06-05T08:34:49Z</time>
    </trkpt>
    <trkpt lat="48.457589" lon="2.63832">
      <ele>128.814</ele>
      <time>2016-06-05T08:34:52Z</time>
    </trkpt>
    <trkpt lat="48.457462" lon="2.638313">
      <ele>129.507</ele>
      <time>2016-06-05T08:34:54Z</time>
    </trkpt>
    <trkpt lat="48.457325" lon="2.638357">
      <ele>129.594</ele>
      <time>2016-06-05T08:34:56Z</time>
    </trkpt>
    <trkpt lat="48.457242" lon="2.638504">
      <ele>130.871</ele>
      <time>2016-06-05T08:34:59Z</time>
    </trkpt>
    <trkpt lat="48.45722" lon="2.638659">
      <ele>132.338</ele>
      <time>2016-06-05T08:35:01Z</time>
    </trkpt>
    <trkpt lat="48.457153" lon="2.638813">
      <ele>133.386</ele>
      <time>2016-06-05T08:35:04Z</time>
    </trkpt>
    <trkpt lat="48.457123" lon="2.638997">
      <ele>134.389</ele>
      <time>2016-06-05T08:35:07Z</time>
    </trkpt>
    <trkpt lat="48.457017" lon="2.639121">
      <ele>134.836</ele>
      <time>2016-06-05T08:35:10Z</time>
    </trkpt>
    <trkpt lat="48.456942" lon="2.639197">
      <ele>135.235</ele>
      <time>2016-06-05T08:35:13Z</time>
    </trkpt>
    <trkpt lat="48.456843" lon="2.63927">
      <ele>136.339</ele>
      <time>2016-06-05T08:35:17Z</time>
    </trkpt>
    <trkpt lat="48.456715" lon="2.639321">
      <ele>137.304</ele>
      <time>2016-06-05T08:35:20Z</time>
    </trkpt>
    <trkpt lat="48.456604" lon="2.639318">
      <ele>137.319</ele>
      <time>2016-06-05T08:35:22Z</time>
    </trkpt>
    <trkpt lat="48.456502" lon="2.639287">
      <ele>136.84</ele>
      <time>2016-06-05T08:35:24Z</time>
    </trkpt>
    <trkpt lat="48.456404" lon="2.639243">
      <ele>136.329</ele>
      <time>2016-06-05T08:35:26Z</time>
    </trkpt>
    <trkpt lat="48.456322" lon="2.639181">
      <ele>135.823</ele>
      <time>2016-06-05T08:35:28Z</time>
    </trkpt>
    <trkpt lat="48.456251" lon="2.639042">
      <ele>135.055</ele>
      <time>2016-06-05T08:35:31Z</time>
    </trkpt>
    <trkpt lat="48.456212" lon="2.638914">
      <ele>134.454</ele>
      <time>2016-06-05T08:35:33Z</time>
    </trkpt>
    <trkpt lat="48.456111" lon="2.638753">
      <ele>133.022</ele>
      <time>2016-06-05T08:35:36Z</time>
    </trkpt>
    <trkpt lat="48.455996" lon="2.638721">
      <ele>132.791</ele>
      <time>2016-06-05T08:35:38Z</time>
    </trkpt>
    <trkpt lat="48.45585" lon="2.638731">
      <ele>132.863</ele>
      <time>2016-06-05T08:35:40Z</time>
    </trkpt>
    <trkpt lat="48.455731" lon="2.638806">
      <ele>133.513</ele>
      <time>2016-06-05T08:35:43Z</time>
    </trkpt>
    <trkpt lat="48.455622" lon="2.638785">
      <ele>133.537</ele>
      <time>2016-06-05T08:35:46Z</time>
    </trkpt>
    <trkpt lat="48.455544" lon="2.638671">
      <ele>133.257</ele>
      <time>2016-06-05T08:35:51Z</time>
    </trkpt>
    <trkpt lat="48.455396" lon="2.638628">
      <ele>133.635</ele>
      <time>2016-06-05T08:35:54Z</time>
    </trkpt>
    <trkpt lat="48.455285" lon="2.638571">
      <ele>133.685</ele>
      <time>2016-06-05T08:35:56Z</time>
    </trkpt>
    <trkpt lat="48.455167" lon="2.638528">
      <ele>134.319</ele>
      <time>2016-06-05T08:35:58Z</time>
    </trkpt>
    <trkpt lat="48.455034" lon="2.638522">
      <ele>135.395</ele>
      <time>2016-06-05T08:36:01Z</time>
    </trkpt>
    <trkpt lat="48.454913" lon="2.638474">
      <ele>136.287</ele>
      <time>2016-06-05T08:36:04Z</time>
    </trkpt>
    <trkpt lat="48.454864" lon="2.63834">
      <ele>136.481</ele>
      <time>2016-06-05T08:36:08Z</time>
    </trkpt>
    <trkpt lat="48.454791" lon="2.638234">
      <ele>136.9</ele>
      <time>2016-06-05T08:36:11Z</time>
    </trkpt>
    <trkpt lat="48.454728" lon="2.638127">
      <ele>137.195</ele>
      <time>2016-06-05T08:36:14Z</time>
    </trkpt>
    <trkpt lat="48.454628" lon="2.638003">
      <ele>137.025</ele>
      <time>2016-06-05T08:36:16Z</time>
    </trkpt>
    <trkpt lat="48.454549" lon="2.637858">
      <ele>136.645</ele>
      <time>2016-06-05T08:36:18Z</time>
    </trkpt>
    <trkpt lat="48.454487" lon="2.637731">
      <ele>136.499</ele>
      <time>2016-06-05T08:36:20Z</time>
    </trkpt>
    <trkpt lat="48.454458" lon="2.637571">
      <ele>136.122</ele>
      <time>2016-06-05T08:36:23Z</time>
    </trkpt>
    <trkpt lat="48.454394" lon="2.637388">
      <ele>135.778</ele>
      <time>2016-06-05T08:36:25Z</time>
    </trkpt>
    <trkpt lat="48.454338" lon="2.637197">
      <ele>135.236</ele>
      <time>2016-06-05T08:36:27Z</time>
    </trkpt>
    <trkpt lat="48.454332" lon="2.637058">
      <ele>134.462</ele>
      <time>2016-06-05T08:36:29Z</time>
    </trkpt>
    <trkpt lat="48.454299" lon="2.636926">
      <ele>134.012</ele>
      <time>2016-06-05T08:36:31Z</time>
    </trkpt>
    <trkpt lat="48.45426" lon="2.636794">
      <ele>133.968</ele>
      <time>2016-06-05T08:36:33Z</time>
    </trkpt>
    <trkpt lat="48.454226" lon="2.636621">
      <ele>133.458</ele>
      <time>2016-06-05T08:36:37Z</time>
    </trkpt>
    <trkpt lat="48.454134" lon="2.636539">
      <ele>133.198</ele>
      <time>2016-06-05T08:36:41Z</time>
    </trkpt>
    <trkpt lat="48.45403" lon="2.636482">
      <ele>133.162</ele>
      <time>2016-06-05T08:36:44Z</time>
    </trkpt>
    <trkpt lat="48.453898" lon="2.636462">
      <ele>133.494</ele>
      <time>2016-06-05T08:36:46Z</time>
    </trkpt>
    <trkpt lat="48.453743" lon="2.636425">
      <ele>133.328</ele>
      <time>2016-06-05T08:36:48Z</time>
    </trkpt>
    <trkpt lat="48.453592" lon="2.636442">
      <ele>133.574</ele>
      <time>2016-06-05T08:36:50Z</time>
    </trkpt>
    <trkpt lat="48.453495" lon="2.636485">
      <ele>134.038</ele>
      <time>2016-06-05T08:36:52Z</time>
    </trkpt>
    <trkpt lat="48.453385" lon="2.636504">
      <ele>134.243</ele>
      <time>2016-06-05T08:36:54Z</time>
    </trkpt>
    <trkpt lat="48.45327" lon="2.636573">
      <ele>135.065</ele>
      <time>2016-06-05T08:36:57Z</time>
    </trkpt>
    <trkpt lat="48.453169" lon="2.636656">
      <ele>135.908</ele>
      <time>2016-06-05T08:37:01Z</time>
    </trkpt>
    <trkpt lat="48.453055" lon="2.636658">
      <ele>135.936</ele>
      <time>2016-06-05T08:37:04Z</time>
    </trkpt>
    <trkpt lat="48.452962" lon="2.6366">
      <ele>135.345</ele>
      <time>2016-06-05T08:37:07Z</time>
    </trkpt>
    <trkpt lat="48.45289" lon="2.636516">
      <ele>134.966</ele>
      <time>2016-06-05T08:37:09Z</time>
    </trkpt>
    <trkpt lat="48.452807" lon="2.636405">
      <ele>134.907</ele>
      <time>2016-06-05T08:37:11Z</time>
    </trkpt>
    <trkpt lat="48.452719" lon="2.636339">
      <ele>134.82</ele>
      <time>2016-06-05T08:37:13Z</time>
    </trkpt>
    <trkpt lat="48.452658" lon="2.63621">
      <ele>134.356</ele>
      <time>2016-06-05T08:37:17Z</time>
    </trkpt>
    <trkpt lat="48.452572" lon="2.636171">
      <ele>134.216</ele>
      <time>2016-06-05T08:37:18Z</time>
    </trkpt>
    <trkpt lat="48.452463" lon="2.636145">
      <ele>134.388</ele>
      <time>2016-06-05T08:37:20Z</time>
    </trkpt>
    <trkpt lat="48.45235" lon="2.636107">
      <ele>135.05</ele>
      <time>2016-06-05T08:37:22Z</time>
    </trkpt>
    <trkpt lat="48.452229" lon="2.636124">
      <ele>135.998</ele>
      <time>2016-06-05T08:37:25Z</time>
    </trkpt>
    <trkpt lat="48.452084" lon="2.636101">
      <ele>136.922</ele>
      <time>2016-06-05T08:37:28Z</time>
    </trkpt>
    <trkpt lat="48.452015" lon="2.635925">
      <ele>136.152</ele>
      <time>2016-06-05T08:37:30Z</time>
    </trkpt>
    <trkpt lat="48.451943" lon="2.635769">
      <ele>135.542</ele>
      <time>2016-06-05T08:37:33Z</time>
    </trkpt>
    <trkpt lat="48.451929" lon="2.635535">
      <ele>133.899</ele>
      <time>2016-06-05T08:37:36Z</time>
    </trkpt>
    <trkpt lat="48.451935" lon="2.6354">
      <ele>132.876</ele>
      <time>2016-06-05T08:37:38Z</time>
    </trkpt>
    <trkpt lat="48.451912" lon="2.635238">
      <ele>131.723</ele>
      <time>2016-06-05T08:37:40Z</time>
    </trkpt>
    <trkpt lat="48.451933" lon="2.635074">
      <ele>131.195</ele>
      <time>2016-06-05T08:37:42Z</time>
    </trkpt>
    <trkpt lat="48.451968" lon="2.634945">
      <ele>130.932</ele>
      <time>2016-06-05T08:37:44Z</time>
    </trkpt>
    <trkpt lat="48.451978" lon="2.634774">
      <ele>130.977</ele>
      <time>2016-06-05T08:37:46Z</time>
    </trkpt>
    <trkpt lat="48.452016" lon="2.634603">
      <ele>130.889</ele>
      <time>2016-06-05T08:37:49Z</time>
    </trkpt>
    <trkpt lat="48.452026" lon="2.634468">
      <ele>130.731</ele>
      <time>2016-06-05T08:37:51Z</time>
    </trkpt>
    <trkpt lat="48.452037" lon="2.634326">
      <ele>130.24</ele>
      <time>2016-06-05T08:37:53Z</time>
    </trkpt>
    <trkpt lat="48.45204" lon="2.634168">
      <ele>129.661</ele>
      <time>2016-06-05T08:37:55Z</time>
    </trkpt>
    <trkpt lat="48.452043" lon="2.634017">
      <ele>128.22</ele>
      <time>2016-06-05T08:37:57Z</time>
    </trkpt>
    <trkpt lat="48.452048" lon="2.633881">
      <ele>126.915</ele>
      <time>2016-06-05T08:37:59Z</time>
    </trkpt>
    <trkpt lat="48.452108" lon="2.633727">
      <ele>125.252</ele>
      <time>2016-06-05T08:38:03Z</time>
    </trkpt>
    <trkpt lat="48.45202" lon="2.633681">
      <ele>124.755</ele>
      <time>2016-06-05T08:38:25Z</time>
    </trkpt>
    <trkpt lat="48.451949" lon="2.633827">
      <ele>126.332</ele>
      <time>2016-06-05T08:38:30Z</time>
    </trkpt>
    <trkpt lat="48.451959" lon="2.634003">
      <ele>128.211</ele>
      <time>2016-06-05T08:38:33Z</time>
    </trkpt>
    <trkpt lat="48.45193" lon="2.63417">
      <ele>129.7</ele>
      <time>2016-06-05T08:38:36Z</time>
    </trkpt>
    <trkpt lat="48.451943" lon="2.634305">
      <ele>130.467</ele>
      <time>2016-06-05T08:38:38Z</time>
    </trkpt>
    <trkpt lat="48.451927" lon="2.634442">
      <ele>130.614</ele>
      <time>2016-06-05T08:38:41Z</time>
    </trkpt>
    <trkpt lat="48.45188" lon="2.634563">
      <ele>129.806</ele>
      <time>2016-06-05T08:38:44Z</time>
    </trkpt>
    <trkpt lat="48.451875" lon="2.634736">
      <ele>130.025</ele>
      <time>2016-06-05T08:38:47Z</time>
    </trkpt>
    <trkpt lat="48.451892" lon="2.634889">
      <ele>130.472</ele>
      <time>2016-06-05T08:38:49Z</time>
    </trkpt>
    <trkpt lat="48.451879" lon="2.635031">
      <ele>130.667</ele>
      <time>2016-06-05T08:38:51Z</time>
    </trkpt>
    <trkpt lat="48.451895" lon="2.635198">
      <ele>131.484</ele>
      <time>2016-06-05T08:38:53Z</time>
    </trkpt>
    <trkpt lat="48.451884" lon="2.635374">
      <ele>132.626</ele>
      <time>2016-06-05T08:38:55Z</time>
    </trkpt>
    <trkpt lat="48.451858" lon="2.635557">
      <ele>134.322</ele>
      <time>2016-06-05T08:38:58Z</time>
    </trkpt>
    <trkpt lat="48.451831" lon="2.635716">
      <ele>135.564</ele>
      <time>2016-06-05T08:39:02Z</time>
    </trkpt>
    <trkpt lat="48.451758" lon="2.635804">
      <ele>136.46</ele>
      <time>2016-06-05T08:39:06Z</time>
    </trkpt>
    <trkpt lat="48.451817" lon="2.635966">
      <ele>137.414</ele>
      <time>2016-06-05T08:39:09Z</time>
    </trkpt>
    <trkpt lat="48.451739" lon="2.636128">
      <ele>138.8</ele>
      <time>2016-06-05T08:39:12Z</time>
    </trkpt>
    <trkpt lat="48.451659" lon="2.636191">
      <ele>139.24</ele>
      <time>2016-06-05T08:39:14Z</time>
    </trkpt>
    <trkpt lat="48.451578" lon="2.636326">
      <ele>139.382</ele>
      <time>2016-06-05T08:39:17Z</time>
    </trkpt>
    <trkpt lat="48.451493" lon="2.636445">
      <ele>139.577</ele>
      <time>2016-06-05T08:39:19Z</time>
    </trkpt>
    <trkpt lat="48.451418" lon="2.636536">
      <ele>139.634</ele>
      <time>2016-06-05T08:39:21Z</time>
    </trkpt>
    <trkpt lat="48.451327" lon="2.636591">
      <ele>138.999</ele>
      <time>2016-06-05T08:39:23Z</time>
    </trkpt>
    <trkpt lat="48.451229" lon="2.636641">
      <ele>138.128</ele>
      <time>2016-06-05T08:39:25Z</time>
    </trkpt>
    <trkpt lat="48.451206" lon="2.63681">
      <ele>138.365</ele>
      <time>2016-06-05T08:39:27Z</time>
    </trkpt>
    <trkpt lat="48.45116" lon="2.636929">
      <ele>138.306</ele>
      <time>2016-06-05T08:39:29Z</time>
    </trkpt>
    <trkpt lat="48.451109" lon="2.637043">
      <ele>137.967</ele>
      <time>2016-06-05T08:39:31Z</time>
    </trkpt>
    <trkpt lat="48.451013" lon="2.637121">
      <ele>136.683</ele>
      <time>2016-06-05T08:39:33Z</time>
    </trkpt>
    <trkpt lat="48.450939" lon="2.637296">
      <ele>136.306</ele>
      <time>2016-06-05T08:39:36Z</time>
    </trkpt>
    <trkpt lat="48.45088" lon="2.637476">
      <ele>136.264</ele>
      <time>2016-06-05T08:39:39Z</time>
    </trkpt>
    <trkpt lat="48.450838" lon="2.6376">
      <ele>136.394</ele>
      <time>2016-06-05T08:39:41Z</time>
    </trkpt>
    <trkpt lat="48.45084" lon="2.637741">
      <ele>136.916</ele>
      <time>2016-06-05T08:39:43Z</time>
    </trkpt>
    <trkpt lat="48.45084" lon="2.637877">
      <ele>137.057</ele>
      <time>2016-06-05T08:39:45Z</time>
    </trkpt>
    <trkpt lat="48.450813" lon="2.638072">
      <ele>136.707</ele>
      <time>2016-06-05T08:39:47Z</time>
    </trkpt>
    <trkpt lat="48.450785" lon="2.638269">
      <ele>136.304</ele>
      <time>2016-06-05T08:39:49Z</time>
    </trkpt>
    <trkpt lat="48.450779" lon="2.63844">
      <ele>135.834</ele>
      <time>2016-06-05T08:39:51Z</time>
    </trkpt>
    <trkpt lat="48.450767" lon="2.638582">
      <ele>135.15</ele>
      <time>2016-06-05T08:39:54Z</time>
    </trkpt>
    <trkpt lat="48.45079" lon="2.638803">
      <ele>134.685</ele>
      <time>2016-06-05T08:39:57Z</time>
    </trkpt>
    <trkpt lat="48.450784" lon="2.638994">
      <ele>133.911</ele>
      <time>2016-06-05T08:40:00Z</time>
    </trkpt>
    <trkpt lat="48.450836" lon="2.63914">
      <ele>134.133</ele>
      <time>2016-06-05T08:40:03Z</time>
    </trkpt>
    <trkpt lat="48.450893" lon="2.639329">
      <ele>134.859</ele>
      <time>2016-06-05T08:40:06Z</time>
    </trkpt>
    <trkpt lat="48.450955" lon="2.639515">
      <ele>136.006</ele>
      <time>2016-06-05T08:40:08Z</time>
    </trkpt>
    <trkpt lat="48.450997" lon="2.639693">
      <ele>137.252</ele>
      <time>2016-06-05T08:40:10Z</time>
    </trkpt>
    <trkpt lat="48.451057" lon="2.639875">
      <ele>138.328</ele>
      <time>2016-06-05T08:40:12Z</time>
    </trkpt>
    <trkpt lat="48.451099" lon="2.640064">
      <ele>138.879</ele>
      <time>2016-06-05T08:40:14Z</time>
    </trkpt>
    <trkpt lat="48.451054" lon="2.640184">
      <ele>138.519</ele>
      <time>2016-06-05T08:40:16Z</time>
    </trkpt>
    <trkpt lat="48.450982" lon="2.640384">
      <ele>138.248</ele>
      <time>2016-06-05T08:40:18Z</time>
    </trkpt>
    <trkpt lat="48.450882" lon="2.640594">
      <ele>138.199</ele>
      <time>2016-06-05T08:40:20Z</time>
    </trkpt>
    <trkpt lat="48.450785" lon="2.640727">
      <ele>137.759</ele>
      <time>2016-06-05T08:40:22Z</time>
    </trkpt>
    <trkpt lat="48.450742" lon="2.640917">
      <ele>138.175</ele>
      <time>2016-06-05T08:40:25Z</time>
    </trkpt>
    <trkpt lat="48.450676" lon="2.641057">
      <ele>138.588</ele>
      <time>2016-06-05T08:40:28Z</time>
    </trkpt>
    <trkpt lat="48.450563" lon="2.641177">
      <ele>138.522</ele>
      <time>2016-06-05T08:40:31Z</time>
    </trkpt>
    <trkpt lat="48.450459" lon="2.641234">
      <ele>138.537</ele>
      <time>2016-06-05T08:40:33Z</time>
    </trkpt>
    <trkpt lat="48.450377" lon="2.641342">
      <ele>139.02</ele>
      <time>2016-06-05T08:40:35Z</time>
    </trkpt>
    <trkpt lat="48.450287" lon="2.641441">
      <ele>139.408</ele>
      <time>2016-06-05T08:40:37Z</time>
    </trkpt>
    <trkpt lat="48.450209" lon="2.641541">
      <ele>140.207</ele>
      <time>2016-06-05T08:40:39Z</time>
    </trkpt>
    <trkpt lat="48.450181" lon="2.641679">
      <ele>141.073</ele>
      <time>2016-06-05T08:40:42Z</time>
    </trkpt>
    <trkpt lat="48.450119" lon="2.641787">
      <ele>141.619</ele>
      <time>2016-06-05T08:40:44Z</time>
    </trkpt>
    <trkpt lat="48.450046" lon="2.641888">
      <ele>141.929</ele>
      <time>2016-06-05T08:40:47Z</time>
    </trkpt>
    <trkpt lat="48.449975" lon="2.642017">
      <ele>142.261</ele>
      <time>2016-06-05T08:40:50Z</time>
    </trkpt>
    <trkpt lat="48.449883" lon="2.642049">
      <ele>142.376</ele>
      <time>2016-06-05T08:40:52Z</time>
    </trkpt>
    <trkpt lat="48.449813" lon="2.642189">
      <ele>142.88</ele>
      <time>2016-06-05T08:40:55Z</time>
    </trkpt>
    <trkpt lat="48.449737" lon="2.642306">
      <ele>143.0</ele>
      <time>2016-06-05T08:40:58Z</time>
    </trkpt>
    <trkpt lat="48.449667" lon="2.642458">
      <ele>143.0</ele>
      <time>2016-06-05T08:41:01Z</time>
    </trkpt>
    <trkpt lat="48.449599" lon="2.642579">
      <ele>142.874</ele>
      <time>2016-06-05T08:41:04Z</time>
    </trkpt>
    <trkpt lat="48.449514" lon="2.642741">
      <ele>142.35</ele>
      <time>2016-06-05T08:41:07Z</time>
    </trkpt>
    <trkpt lat="48.44942" lon="2.64286">
      <ele>141.824</ele>
      <time>2016-06-05T08:41:10Z</time>
    </trkpt>
    <trkpt lat="48.449318" lon="2.642961">
      <ele>141.09</ele>
      <time>2016-06-05T08:41:13Z</time>
    </trkpt>
    <trkpt lat="48.449276" lon="2.643143">
      <ele>140.596</ele>
      <time>2016-06-05T08:41:16Z</time>
    </trkpt>
    <trkpt lat="48.44923" lon="2.64333">
      <ele>139.693</ele>
      <time>2016-06-05T08:41:18Z</time>
    </trkpt>
    <trkpt lat="48.44928" lon="2.643509">
      <ele>139.966</ele>
      <time>2016-06-05T08:41:22Z</time>
    </trkpt>
    <trkpt lat="48.449326" lon="2.643633">
      <ele>140.114</ele>
      <time>2016-06-05T08:41:26Z</time>
    </trkpt>
    <trkpt lat="48.449393" lon="2.643772">
      <ele>140.522</ele>
      <time>2016-06-05T08:41:28Z</time>
    </trkpt>
    <trkpt lat="48.44946" lon="2.64388">
      <ele>141.112</ele>
      <time>2016-06-05T08:41:30Z</time>
    </trkpt>
    <trkpt lat="48.449545" lon="2.64405">
      <ele>141.564</ele>
      <time>2016-06-05T08:41:32Z</time>
    </trkpt>
    <trkpt lat="48.449569" lon="2.644249">
      <ele>141.927</ele>
      <time>2016-06-05T08:41:34Z</time>
    </trkpt>
    <trkpt lat="48.449517" lon="2.644419">
      <ele>141.282</ele>
      <time>2016-06-05T08:41:37Z</time>
    </trkpt>
    <trkpt lat="48.449529" lon="2.644633">
      <ele>141.315</ele>
      <time>2016-06-05T08:41:40Z</time>
    </trkpt>
    <trkpt lat="48.449523" lon="2.644834">
      <ele>140.843</ele>
      <time>2016-06-05T08:41:43Z</time>
    </trkpt>
    <trkpt lat="48.449529" lon="2.645004">
      <ele>140.518</ele>
      <time>2016-06-05T08:41:46Z</time>
    </trkpt>
    <trkpt lat="48.449519" lon="2.645157">
      <ele>140.19</ele>
      <time>2016-06-05T08:41:49Z</time>
    </trkpt>
    <trkpt lat="48.44949" lon="2.645358">
      <ele>139.415</ele>
      <time>2016-06-05T08:41:52Z</time>
    </trkpt>
    <trkpt lat="48.449473" lon="2.64554">
      <ele>138.564</ele>
      <time>2016-06-05T08:41:55Z</time>
    </trkpt>
    <trkpt lat="48.449515" lon="2.645771">
      <ele>138.494</ele>
      <time>2016-06-05T08:41:57Z</time>
    </trkpt>
    <trkpt lat="48.449556" lon="2.645996">
      <ele>139.358</ele>
      <time>2016-06-05T08:41:59Z</time>
    </trkpt>
    <trkpt lat="48.44957" lon="2.646141">
      <ele>139.916</ele>
      <time>2016-06-05T08:42:00Z</time>
    </trkpt>
    <trkpt lat="48.449615" lon="2.646278">
      <ele>141.057</ele>
      <time>2016-06-05T08:42:01Z</time>
    </trkpt>
    <trkpt lat="48.449581" lon="2.646425">
      <ele>141.226</ele>
      <time>2016-06-05T08:42:03Z</time>
    </trkpt>
    <trkpt lat="48.449538" lon="2.646599">
      <ele>141.86</ele>
      <time>2016-06-05T08:42:06Z</time>
    </trkpt>
    <trkpt lat="48.44947" lon="2.64672">
      <ele>141.368</ele>
      <time>2016-06-05T08:42:08Z</time>
    </trkpt>
    <trkpt lat="48.449408" lon="2.646831">
      <ele>140.946</ele>
      <time>2016-06-05T08:42:12Z</time>
    </trkpt>
    <trkpt lat="48.449456" lon="2.64696">
      <ele>141.218</ele>
      <time>2016-06-05T08:42:14Z</time>
    </trkpt>
    <trkpt lat="48.449352" lon="2.647014">
      <ele>141.167</ele>
      <time>2016-06-05T08:42:17Z</time>
    </trkpt>
    <trkpt lat="48.44923" lon="2.647022">
      <ele>141.064</ele>
      <time>2016-06-05T08:42:21Z</time>
    </trkpt>
    <trkpt lat="48.449124" lon="2.647099">
      <ele>141.239</ele>
      <time>2016-06-05T08:42:24Z</time>
    </trkpt>
    <trkpt lat="48.449034" lon="2.647224">
      <ele>141.959</ele>
      <time>2016-06-05T08:42:27Z</time>
    </trkpt>
    <trkpt lat="48.448969" lon="2.647341">
      <ele>142.547</ele>
      <time>2016-06-05T08:42:30Z</time>
    </trkpt>
    <trkpt lat="48.448886" lon="2.647489">
      <ele>142.999</ele>
      <time>2016-06-05T08:42:34Z</time>
    </trkpt>
    <trkpt lat="48.448841" lon="2.64764">
      <ele>143.504</ele>
      <time>2016-06-05T08:42:37Z</time>
    </trkpt>
    <trkpt lat="48.448771" lon="2.647781">
      <ele>144.012</ele>
      <time>2016-06-05T08:42:39Z</time>
    </trkpt>
    <trkpt lat="48.448723" lon="2.647896">
      <ele>144.426</ele>
      <time>2016-06-05T08:42:42Z</time>
    </trkpt>
    <trkpt lat="48.44866" lon="2.648006">
      <ele>144.822</ele>
      <time>2016-06-05T08:42:44Z</time>
    </trkpt>
    <trkpt lat="48.448626" lon="2.648132">
      <ele>145.275</ele>
      <time>2016-06-05T08:42:46Z</time>
    </trkpt>
    <trkpt lat="48.448543" lon="2.648247">
      <ele>145.275</ele>
      <time>2016-06-05T08:42:48Z</time>
    </trkpt>
    <trkpt lat="48.448485" lon="2.648387">
      <ele>145.092</ele>
      <time>2016-06-05T08:42:50Z</time>
    </trkpt>
    <trkpt lat="48.448422" lon="2.648526">
      <ele>144.638</ele>
      <time>2016-06-05T08:42:52Z</time>
    </trkpt>
    <trkpt lat="48.44846" lon="2.648748">
      <ele>144.644</ele>
      <time>2016-06-05T08:42:54Z</time>
    </trkpt>
    <trkpt lat="48.448385" lon="2.648869">
      <ele>143.616</ele>
      <time>2016-06-05T08:42:57Z</time>
    </trkpt>
    <trkpt lat="48.448336" lon="2.649002">
      <ele>143.025</ele>
      <time>2016-06-05T08:42:59Z</time>
    </trkpt>
    <trkpt lat="48.448326" lon="2.649157">
      <ele>142.921</ele>
      <time>2016-06-05T08:43:01Z</time>
    </trkpt>
    <trkpt lat="48.448314" lon="2.649321">
      <ele>142.313</ele>
      <time>2016-06-05T08:43:03Z</time>
    </trkpt>
    <trkpt lat="48.448274" lon="2.649464">
      <ele>141.786</ele>
      <time>2016-06-05T08:43:05Z</time>
    </trkpt>
    <trkpt lat="48.448199" lon="2.649584">
      <ele>141.516</ele>
      <time>2016-06-05T08:43:07Z</time>
    </trkpt>
    <trkpt lat="48.44815" lon="2.649784">
      <ele>141.34</ele>
      <time>2016-06-05T08:43:09Z</time>
    </trkpt>
    <trkpt lat="48.448077" lon="2.649961">
      <ele>141.077</ele>
      <time>2016-06-05T08:43:11Z</time>
    </trkpt>
    <trkpt lat="48.448013" lon="2.650112">
      <ele>141.341</ele>
      <time>2016-06-05T08:43:13Z</time>
    </trkpt>
    <trkpt lat="48.447962" lon="2.650224">
      <ele>141.535</ele>
      <time>2016-06-05T08:43:15Z</time>
    </trkpt>
    <trkpt lat="48.447901" lon="2.650417">
      <ele>141.444</ele>
      <time>2016-06-05T08:43:18Z</time>
    </trkpt>
    <trkpt lat="48.44786" lon="2.650606">
      <ele>141.296</ele>
      <time>2016-06-05T08:43:20Z</time>
    </trkpt>
    <trkpt lat="48.447779" lon="2.650711">
      <ele>141.004</ele>
      <time>2016-06-05T08:43:24Z</time>
    </trkpt>
    <trkpt lat="48.447738" lon="2.650857">
      <ele>140.845</ele>
      <time>2016-06-05T08:43:27Z</time>
    </trkpt>
    <trkpt lat="48.447814" lon="2.65101">
      <ele>141.047</ele>
      <time>2016-06-05T08:43:30Z</time>
    </trkpt>
    <trkpt lat="48.447876" lon="2.651146">
      <ele>141.0</ele>
      <time>2016-06-05T08:43:31Z</time>
    </trkpt>
    <trkpt lat="48.447924" lon="2.651294">
      <ele>141.0</ele>
      <time>2016-06-05T08:43:33Z</time>
    </trkpt>
    <trkpt lat="48.44794" lon="2.651435">
      <ele>141.0</ele>
      <time>2016-06-05T08:43:36Z</time>
    </trkpt>
    <trkpt lat="48.448015" lon="2.651564">
      <ele>141.0</ele>
      <time>2016-06-05T08:43:38Z</time>
    </trkpt>
    <trkpt lat="48.448099" lon="2.65176">
      <ele>141.0</ele>
      <time>2016-06-05T08:43:41Z</time>
    </trkpt>
    <trkpt lat="48.448143" lon="2.651895">
      <ele>141.0</ele>
      <time>2016-06-05T08:43:44Z</time>
    </trkpt>
    <trkpt lat="48.44817" lon="2.65208">
      <ele>140.799</ele>
      <time>2016-06-05T08:43:48Z</time>
    </trkpt>
    <trkpt lat="48.448218" lon="2.652266">
      <ele>140.35</ele>
      <time>2016-06-05T08:43:51Z</time>
    </trkpt>
    <trkpt lat="48.448291" lon="2.652435">
      <ele>140.036</ele>
      <time>2016-06-05T08:43:53Z</time>
    </trkpt>
    <trkpt lat="48.448376" lon="2.65259">
      <ele>139.78</ele>
      <time>2016-06-05T08:43:55Z</time>
    </trkpt>
    <trkpt lat="48.448429" lon="2.652713">
      <ele>139.314</ele>
      <time>2016-06-05T08:43:58Z</time>
    </trkpt>
    <trkpt lat="48.44852" lon="2.652823">
      <ele>138.947</ele>
      <time>2016-06-05T08:44:00Z</time>
    </trkpt>
    <trkpt lat="48.448597" lon="2.652929">
      <ele>138.972</ele>
      <time>2016-06-05T08:44:01Z</time>
    </trkpt>
    <trkpt lat="48.44868" lon="2.653024">
      <ele>139.772</ele>
      <time>2016-06-05T08:44:02Z</time>
    </trkpt>
    <trkpt lat="48.448752" lon="2.65312">
      <ele>140.286</ele>
      <time>2016-06-05T08:44:03Z</time>
    </trkpt>
    <trkpt lat="48.448852" lon="2.653278">
      <ele>140.213</ele>
      <time>2016-06-05T08:44:07Z</time>
    </trkpt>
    <trkpt lat="48.448897" lon="2.65345">
      <ele>139.218</ele>
      <time>2016-06-05T08:44:12Z</time>
    </trkpt>
    <trkpt lat="48.448861" lon="2.653592">
      <ele>138.131</ele>
      <time>2016-06-05T08:44:16Z</time>
    </trkpt>
    <trkpt lat="48.448894" lon="2.653768">
      <ele>137.472</ele>
      <time>2016-06-05T08:44:18Z</time>
    </trkpt>
    <trkpt lat="48.448948" lon="2.653902">
      <ele>137.388</ele>
      <time>2016-06-05T08:44:20Z</time>
    </trkpt>
    <trkpt lat="48.448915" lon="2.654075">
      <ele>136.581</ele>
      <time>2016-06-05T08:44:23Z</time>
    </trkpt>
    <trkpt lat="48.448862" lon="2.65425">
      <ele>136.368</ele>
      <time>2016-06-05T08:44:25Z</time>
    </trkpt>
    <trkpt lat="48.448841" lon="2.654409">
      <ele>136.894</ele>
      <time>2016-06-05T08:44:27Z</time>
    </trkpt>
    <trkpt lat="48.448825" lon="2.654556">
      <ele>136.908</ele>
      <time>2016-06-05T08:44:29Z</time>
    </trkpt>
    <trkpt lat="48.448807" lon="2.654704">
      <ele>136.725</ele>
      <time>2016-06-05T08:44:31Z</time>
    </trkpt>
    <trkpt lat="48.448763" lon="2.654893">
      <ele>137.162</ele>
      <time>2016-06-05T08:44:34Z</time>
    </trkpt>
    <trkpt lat="48.448676" lon="2.655035">
      <ele>137.389</ele>
      <time>2016-06-05T08:44:37Z</time>
    </trkpt>
    <trkpt lat="48.44863" lon="2.655216">
      <ele>137.898</ele>
      <time>2016-06-05T08:44:39Z</time>
    </trkpt>
    <trkpt lat="48.448585" lon="2.655403">
      <ele>138.305</ele>
      <time>2016-06-05T08:44:41Z</time>
    </trkpt>
    <trkpt lat="48.448584" lon="2.655561">
      <ele>138.922</ele>
      <time>2016-06-05T08:44:43Z</time>
    </trkpt>
    <trkpt lat="48.448532" lon="2.655706">
      <ele>139.257</ele>
      <time>2016-06-05T08:44:45Z</time>
    </trkpt>
    <trkpt lat="48.448439" lon="2.655811">
      <ele>139.3</ele>
      <time>2016-06-05T08:44:47Z</time>
    </trkpt>
    <trkpt lat="48.448365" lon="2.655919">
      <ele>139.422</ele>
      <time>2016-06-05T08:44:49Z</time>
    </trkpt>
    <trkpt lat="48.448369" lon="2.656118">
      <ele>140.104</ele>
      <time>2016-06-05T08:44:51Z</time>
    </trkpt>
    <trkpt lat="48.448359" lon="2.656264">
      <ele>139.542</ele>
      <time>2016-06-05T08:44:53Z</time>
    </trkpt>
    <trkpt lat="48.448326" lon="2.656397">
      <ele>138.893</ele>
      <time>2016-06-05T08:44:55Z</time>
    </trkpt>
    <trkpt lat="48.448273" lon="2.656521">
      <ele>138.079</ele>
      <time>2016-06-05T08:44:57Z</time>
    </trkpt>
    <trkpt lat="48.448211" lon="2.656681">
      <ele>137.611</ele>
      <time>2016-06-05T08:44:59Z</time>
    </trkpt>
    <trkpt lat="48.448151" lon="2.656846">
      <ele>137.989</ele>
      <time>2016-06-05T08:45:01Z</time>
    </trkpt>
    <trkpt lat="48.448212" lon="2.657068">
      <ele>139.202</ele>
      <time>2016-06-05T08:45:03Z</time>
    </trkpt>
    <trkpt lat="48.448135" lon="2.657167">
      <ele>139.659</ele>
      <time>2016-06-05T08:45:05Z</time>
    </trkpt>
    <trkpt lat="48.448103" lon="2.657336">
      <ele>140.41</ele>
      <time>2016-06-05T08:45:07Z</time>
    </trkpt>
    <trkpt lat="48.448097" lon="2.65749">
      <ele>140.964</ele>
      <time>2016-06-05T08:45:09Z</time>
    </trkpt>
    <trkpt lat="48.448023" lon="2.657589">
      <ele>140.803</ele>
      <time>2016-06-05T08:45:12Z</time>
    </trkpt>
    <trkpt lat="48.447942" lon="2.65771">
      <ele>140.491</ele>
      <time>2016-06-05T08:45:16Z</time>
    </trkpt>
    <trkpt lat="48.447929" lon="2.657908">
      <ele>141.013</ele>
      <time>2016-06-05T08:45:19Z</time>
    </trkpt>
    <trkpt lat="48.447906" lon="2.658108">
      <ele>141.374</ele>
      <time>2016-06-05T08:45:21Z</time>
    </trkpt>
    <trkpt lat="48.447831" lon="2.658242">
      <ele>141.063</ele>
      <time>2016-06-05T08:45:23Z</time>
    </trkpt>
    <trkpt lat="48.447714" lon="2.658361">
      <ele>140.311</ele>
      <time>2016-06-05T08:45:25Z</time>
    </trkpt>
    <trkpt lat="48.447713" lon="2.658559">
      <ele>140.3</ele>
      <time>2016-06-05T08:45:27Z</time>
    </trkpt>
    <trkpt lat="48.447657" lon="2.658751">
      <ele>139.411</ele>
      <time>2016-06-05T08:45:29Z</time>
    </trkpt>
    <trkpt lat="48.447608" lon="2.658938">
      <ele>138.709</ele>
      <time>2016-06-05T08:45:32Z</time>
    </trkpt>
    <trkpt lat="48.447552" lon="2.659065">
      <ele>138.256</ele>
      <time>2016-06-05T08:45:35Z</time>
    </trkpt>
    <trkpt lat="48.447506" lon="2.659183">
      <ele>138.02</ele>
      <time>2016-06-05T08:45:37Z</time>
    </trkpt>
    <trkpt lat="48.447499" lon="2.6594">
      <ele>138.002</ele>
      <time>2016-06-05T08:45:39Z</time>
    </trkpt>
    <trkpt lat="48.447449" lon="2.659572">
      <ele>138.184</ele>
      <time>2016-06-05T08:45:42Z</time>
    </trkpt>
    <trkpt lat="48.447451" lon="2.659708">
      <ele>138.176</ele>
      <time>2016-06-05T08:45:44Z</time>
    </trkpt>
    <trkpt lat="48.447399" lon="2.659828">
      <ele>138.744</ele>
      <time>2016-06-05T08:45:46Z</time>
    </trkpt>
    <trkpt lat="48.447358" lon="2.660008">
      <ele>139.54</ele>
      <time>2016-06-05T08:45:50Z</time>
    </trkpt>
    <trkpt lat="48.447323" lon="2.660134">
      <ele>140.12</ele>
      <time>2016-06-05T08:45:53Z</time>
    </trkpt>
    <trkpt lat="48.447275" lon="2.66025">
      <ele>140.71</ele>
      <time>2016-06-05T08:45:55Z</time>
    </trkpt>
    <trkpt lat="48.447198" lon="2.660327">
      <ele>141.177</ele>
      <time>2016-06-05T08:45:57Z</time>
    </trkpt>
    <trkpt lat="48.447142" lon="2.660471">
      <ele>141.696</ele>
      <time>2016-06-05T08:46:00Z</time>
    </trkpt>
    <trkpt lat="48.447052" lon="2.660539">
      <ele>141.94</ele>
      <time>2016-06-05T08:46:02Z</time>
    </trkpt>
    <trkpt lat="48.446957" lon="2.660658">
      <ele>142.369</ele>
      <time>2016-06-05T08:46:05Z</time>
    </trkpt>
    <trkpt lat="48.446871" lon="2.660706">
      <ele>142.542</ele>
      <time>2016-06-05T08:46:07Z</time>
    </trkpt>
    <trkpt lat="48.446738" lon="2.660758">
      <ele>142.729</ele>
      <time>2016-06-05T08:46:10Z</time>
    </trkpt>
    <trkpt lat="48.446648" lon="2.660807">
      <ele>142.905</ele>
      <time>2016-06-05T08:46:12Z</time>
    </trkpt>
    <trkpt lat="48.44655" lon="2.660845">
      <ele>143.024</ele>
      <time>2016-06-05T08:46:14Z</time>
    </trkpt>
    <trkpt lat="48.446427" lon="2.66092">
      <ele>143.043</ele>
      <time>2016-06-05T08:46:17Z</time>
    </trkpt>
    <trkpt lat="48.446306" lon="2.661005">
      <ele>142.886</ele>
      <time>2016-06-05T08:46:20Z</time>
    </trkpt>
    <trkpt lat="48.44619" lon="2.661082">
      <ele>142.925</ele>
      <time>2016-06-05T08:46:23Z</time>
    </trkpt>
    <trkpt lat="48.446092" lon="2.661133">
      <ele>142.947</ele>
      <time>2016-06-05T08:46:25Z</time>
    </trkpt>
    <trkpt lat="48.446004" lon="2.661188">
      <ele>142.612</ele>
      <time>2016-06-05T08:46:27Z</time>
    </trkpt>
    <trkpt lat="48.445885" lon="2.661206">
      <ele>141.992</ele>
      <time>2016-06-05T08:46:29Z</time>
    </trkpt>
    <trkpt lat="48.445787" lon="2.661255">
      <ele>141.869</ele>
      <time>2016-06-05T08:46:31Z</time>
    </trkpt>
    <trkpt lat="48.445666" lon="2.661284">
      <ele>141.642</ele>
      <time>2016-06-05T08:46:33Z</time>
    </trkpt>
    <trkpt lat="48.445589" lon="2.66138">
      <ele>142.056</ele>
      <time>2016-06-05T08:46:36Z</time>
    </trkpt>
    <trkpt lat="48.445472" lon="2.661503">
      <ele>142.11</ele>
      <time>2016-06-05T08:46:40Z</time>
    </trkpt>
    <trkpt lat="48.445385" lon="2.661614">
      <ele>142.196</ele>
      <time>2016-06-05T08:46:43Z</time>
    </trkpt>
    <trkpt lat="48.445311" lon="2.661705">
      <ele>142.258</ele>
      <time>2016-06-05T08:46:46Z</time>
    </trkpt>
    <trkpt lat="48.445219" lon="2.661748">
      <ele>142.019</ele>
      <time>2016-06-05T08:46:48Z</time>
    </trkpt>
    <trkpt lat="48.44512" lon="2.661797">
      <ele>141.635</ele>
      <time>2016-06-05T08:46:50Z</time>
    </trkpt>
    <trkpt lat="48.444993" lon="2.661856">
      <ele>141.0</ele>
      <time>2016-06-05T08:46:53Z</time>
    </trkpt>
    <trkpt lat="48.44494" lon="2.661997">
      <ele>141.189</ele>
      <time>2016-06-05T08:46:56Z</time>
    </trkpt>
    <trkpt lat="48.444856" lon="2.662069">
      <ele>141.448</ele>
      <time>2016-06-05T08:46:58Z</time>
    </trkpt>
    <trkpt lat="48.444714" lon="2.662092">
      <ele>141.531</ele>
      <time>2016-06-05T08:47:00Z</time>
    </trkpt>
    <trkpt lat="48.44458" lon="2.662059">
      <ele>141.412</ele>
      <time>2016-06-05T08:47:01Z</time>
    </trkpt>
    <trkpt lat="48.444527" lon="2.662196">
      <ele>141.906</ele>
      <time>2016-06-05T08:47:05Z</time>
    </trkpt>
    <trkpt lat="48.444451" lon="2.662358">
      <ele>142.012</ele>
      <time>2016-06-05T08:47:08Z</time>
    </trkpt>
    <trkpt lat="48.444405" lon="2.662501">
      <ele>142.0</ele>
      <time>2016-06-05T08:47:10Z</time>
    </trkpt>
    <trkpt lat="48.44432" lon="2.662675">
      <ele>142.0</ele>
      <time>2016-06-05T08:47:13Z</time>
    </trkpt>
    <trkpt lat="48.44425" lon="2.662785">
      <ele>141.982</ele>
      <time>2016-06-05T08:47:16Z</time>
    </trkpt>
    <trkpt lat="48.44418" lon="2.662915">
      <ele>141.53</ele>
      <time>2016-06-05T08:47:19Z</time>
    </trkpt>
    <trkpt lat="48.44411" lon="2.66301">
      <ele>141.131</ele>
      <time>2016-06-05T08:47:21Z</time>
    </trkpt>
    <trkpt lat="48.44405" lon="2.663116">
      <ele>141.0</ele>
      <time>2016-06-05T08:47:23Z</time>
    </trkpt>
    <trkpt lat="48.443974" lon="2.663235">
      <ele>141.0</ele>
      <time>2016-06-05T08:47:27Z</time>
    </trkpt>
    <trkpt lat="48.443957" lon="2.66338">
      <ele>141.0</ele>
      <time>2016-06-05T08:47:32Z</time>
    </trkpt>
    <trkpt lat="48.443977" lon="2.663524">
      <ele>141.0</ele>
      <time>2016-06-05T08:47:35Z</time>
    </trkpt>
    <trkpt lat="48.443951" lon="2.663666">
      <ele>141.0</ele>
      <time>2016-06-05T08:47:38Z</time>
    </trkpt>
    <trkpt lat="48.443873" lon="2.663735">
      <ele>141.057</ele>
      <time>2016-06-05T08:47:42Z</time>
    </trkpt>
    <trkpt lat="48.443924" lon="2.663851">
      <ele>141.0</ele>
      <time>2016-06-05T08:47:45Z</time>
    </trkpt>
    <trkpt lat="48.443867" lon="2.66399">
      <ele>141.079</ele>
      <time>2016-06-05T08:47:49Z</time>
    </trkpt>
    <trkpt lat="48.443882" lon="2.664163">
      <ele>141.025</ele>
      <time>2016-06-05T08:47:52Z</time>
    </trkpt>
    <trkpt lat="48.443897" lon="2.664319">
      <ele>141.562</ele>
      <time>2016-06-05T08:47:55Z</time>
    </trkpt>
    <trkpt lat="48.443896" lon="2.664456">
      <ele>142.042</ele>
      <time>2016-06-05T08:47:58Z</time>
    </trkpt>
    <trkpt lat="48.443939" lon="2.664578">
      <ele>142.481</ele>
      <time>2016-06-05T08:48:03Z</time>
    </trkpt>
    <trkpt lat="48.443936" lon="2.66472">
      <ele>142.992</ele>
      <time>2016-06-05T08:48:05Z</time>
    </trkpt>
    <trkpt lat="48.443882" lon="2.664868">
      <ele>143.525</ele>
      <time>2016-06-05T08:48:08Z</time>
    </trkpt>
    <trkpt lat="48.443904" lon="2.665096">
      <ele>144.0</ele>
      <time>2016-06-05T08:48:11Z</time>
    </trkpt>
    <trkpt lat="48.443941" lon="2.66525">
      <ele>144.0</ele>
      <time>2016-06-05T08:48:13Z</time>
    </trkpt>
    <trkpt lat="48.443938" lon="2.665423">
      <ele>144.0</ele>
      <time>2016-06-05T08:48:15Z</time>
    </trkpt>
    <trkpt lat="48.443898" lon="2.665601">
      <ele>143.842</ele>
      <time>2016-06-05T08:48:19Z</time>
    </trkpt>
    <trkpt lat="48.443888" lon="2.665738">
      <ele>143.34</ele>
      <time>2016-06-05T08:48:21Z</time>
    </trkpt>
    <trkpt lat="48.443891" lon="2.665886">
      <ele>143.197</ele>
      <time>2016-06-05T08:48:23Z</time>
    </trkpt>
    <trkpt lat="48.443867" lon="2.666042">
      <ele>143.613</ele>
      <time>2016-06-05T08:48:25Z</time>
    </trkpt>
    <trkpt lat="48.443826" lon="2.666182">
      <ele>143.547</ele>
      <time>2016-06-05T08:48:28Z</time>
    </trkpt>
    <trkpt lat="48.443805" lon="2.666363">
      <ele>143.396</ele>
      <time>2016-06-05T08:48:31Z</time>
    </trkpt>
    <trkpt lat="48.443825" lon="2.666527">
      <ele>143.654</ele>
      <time>2016-06-05T08:48:33Z</time>
    </trkpt>
    <trkpt lat="48.443818" lon="2.666705">
      <ele>143.78</ele>
      <time>2016-06-05T08:48:35Z</time>
    </trkpt>
    <trkpt lat="48.443816" lon="2.666865">
      <ele>143.925</ele>
      <time>2016-06-05T08:48:39Z</time>
    </trkpt>
    <trkpt lat="48.443787" lon="2.667005">
      <ele>144.356</ele>
      <time>2016-06-05T08:48:44Z</time>
    </trkpt>
    <trkpt lat="48.443784" lon="2.667202">
      <ele>145.504</ele>
      <time>2016-06-05T08:48:49Z</time>
    </trkpt>
    <trkpt lat="48.443772" lon="2.667376">
      <ele>145.812</ele>
      <time>2016-06-05T08:48:52Z</time>
    </trkpt>
    <trkpt lat="48.443748" lon="2.667536">
      <ele>146.064</ele>
      <time>2016-06-05T08:48:55Z</time>
    </trkpt>
    <trkpt lat="48.443724" lon="2.667759">
      <ele>146.379</ele>
      <time>2016-06-05T08:48:57Z</time>
    </trkpt>
    <trkpt lat="48.443732" lon="2.667907">
      <ele>146.233</ele>
      <time>2016-06-05T08:48:59Z</time>
    </trkpt>
    <trkpt lat="48.443755" lon="2.668112">
      <ele>145.902</ele>
      <time>2016-06-05T08:49:01Z</time>
    </trkpt>
    <trkpt lat="48.443755" lon="2.668275">
      <ele>145.619</ele>
      <time>2016-06-05T08:49:04Z</time>
    </trkpt>
    <trkpt lat="48.443712" lon="2.6684">
      <ele>145.21</ele>
      <time>2016-06-05T08:49:07Z</time>
    </trkpt>
    <trkpt lat="48.443715" lon="2.668568">
      <ele>144.845</ele>
      <time>2016-06-05T08:49:10Z</time>
    </trkpt>
    <trkpt lat="48.443799" lon="2.66879">
      <ele>145.353</ele>
      <time>2016-06-05T08:49:14Z</time>
    </trkpt>
    <trkpt lat="48.443845" lon="2.668946">
      <ele>145.684</ele>
      <time>2016-06-05T08:49:17Z</time>
    </trkpt>
    <trkpt lat="48.443824" lon="2.669089">
      <ele>145.533</ele>
      <time>2016-06-05T08:49:20Z</time>
    </trkpt>
    <trkpt lat="48.443743" lon="2.669205">
      <ele>144.884</ele>
      <time>2016-06-05T08:49:24Z</time>
    </trkpt>
    <trkpt lat="48.443612" lon="2.669161">
      <ele>144.006</ele>
      <time>2016-06-05T08:49:27Z</time>
    </trkpt>
    <trkpt lat="48.443494" lon="2.669144">
      <ele>144.0</ele>
      <time>2016-06-05T08:49:30Z</time>
    </trkpt>
    <trkpt lat="48.443373" lon="2.669124">
      <ele>144.0</ele>
      <time>2016-06-05T08:49:32Z</time>
    </trkpt>
    <trkpt lat="48.443279" lon="2.669118">
      <ele>143.804</ele>
      <time>2016-06-05T08:49:34Z</time>
    </trkpt>
    <trkpt lat="48.443185" lon="2.669125">
      <ele>143.466</ele>
      <time>2016-06-05T08:49:37Z</time>
    </trkpt>
    <trkpt lat="48.443089" lon="2.669134">
      <ele>143.12</ele>
      <time>2016-06-05T08:49:39Z</time>
    </trkpt>
    <trkpt lat="48.442982" lon="2.669141">
      <ele>142.735</ele>
      <time>2016-06-05T08:49:42Z</time>
    </trkpt>
    <trkpt lat="48.442839" lon="2.669101">
      <ele>142.22</ele>
      <time>2016-06-05T08:49:45Z</time>
    </trkpt>
    <trkpt lat="48.442732" lon="2.66908">
      <ele>141.949</ele>
      <time>2016-06-05T08:49:47Z</time>
    </trkpt>
    <trkpt lat="48.44264" lon="2.669063">
      <ele>141.815</ele>
      <time>2016-06-05T08:49:49Z</time>
    </trkpt>
    <trkpt lat="48.442545" lon="2.66904">
      <ele>141.618</ele>
      <time>2016-06-05T08:49:51Z</time>
    </trkpt>
    <trkpt lat="48.442454" lon="2.669024">
      <ele>141.321</ele>
      <time>2016-06-05T08:49:53Z</time>
    </trkpt>
    <trkpt lat="48.442357" lon="2.66897">
      <ele>140.777</ele>
      <time>2016-06-05T08:49:55Z</time>
    </trkpt>
    <trkpt lat="48.442231" lon="2.668961">
      <ele>140.291</ele>
      <time>2016-06-05T08:49:58Z</time>
    </trkpt>
    <trkpt lat="48.442138" lon="2.668941">
      <ele>140.131</ele>
      <time>2016-06-05T08:50:00Z</time>
    </trkpt>
    <trkpt lat="48.442045" lon="2.668897">
      <ele>140.011</ele>
      <time>2016-06-05T08:50:02Z</time>
    </trkpt>
    <trkpt lat="48.441915" lon="2.668851">
      <ele>140.014</ele>
      <time>2016-06-05T08:50:05Z</time>
    </trkpt>
    <trkpt lat="48.441813" lon="2.668767">
      <ele>140.208</ele>
      <time>2016-06-05T08:50:07Z</time>
    </trkpt>
    <trkpt lat="48.441727" lon="2.668723">
      <ele>140.467</ele>
      <time>2016-06-05T08:50:09Z</time>
    </trkpt>
    <trkpt lat="48.441641" lon="2.668657">
      <ele>140.942</ele>
      <time>2016-06-05T08:50:11Z</time>
    </trkpt>
    <trkpt lat="48.441556" lon="2.668592">
      <ele>141.398</ele>
      <time>2016-06-05T08:50:13Z</time>
    </trkpt>
    <trkpt lat="48.441571" lon="2.668442">
      <ele>141.344</ele>
      <time>2016-06-05T08:50:19Z</time>
    </trkpt>
    <trkpt lat="48.441532" lon="2.6683">
      <ele>141.485</ele>
      <time>2016-06-05T08:50:24Z</time>
    </trkpt>
    <trkpt lat="48.441563" lon="2.668164">
      <ele>141.373</ele>
      <time>2016-06-05T08:50:28Z</time>
    </trkpt>
    <trkpt lat="48.441562" lon="2.668012">
      <ele>141.436</ele>
      <time>2016-06-05T08:50:31Z</time>
    </trkpt>
    <trkpt lat="48.441554" lon="2.667803">
      <ele>141.774</ele>
      <time>2016-06-05T08:50:34Z</time>
    </trkpt>
    <trkpt lat="48.441539" lon="2.667627">
      <ele>141.919</ele>
      <time>2016-06-05T08:50:37Z</time>
    </trkpt>
    <trkpt lat="48.441525" lon="2.667457">
      <ele>141.786</ele>
      <time>2016-06-05T08:50:40Z</time>
    </trkpt>
    <trkpt lat="48.441522" lon="2.667311">
      <ele>141.007</ele>
      <time>2016-06-05T08:50:43Z</time>
    </trkpt>
    <trkpt lat="48.441526" lon="2.667175">
      <ele>140.42</ele>
      <time>2016-06-05T08:50:46Z</time>
    </trkpt>
    <trkpt lat="48.441564" lon="2.667011">
      <ele>140.089</ele>
      <time>2016-06-05T08:50:50Z</time>
    </trkpt>
    <trkpt lat="48.441561" lon="2.666861">
      <ele>139.886</ele>
      <time>2016-06-05T08:50:52Z</time>
    </trkpt>
    <trkpt lat="48.441509" lon="2.666705">
      <ele>139.511</ele>
      <time>2016-06-05T08:50:55Z</time>
    </trkpt>
    <trkpt lat="48.441498" lon="2.666508">
      <ele>138.822</ele>
      <time>2016-06-05T08:51:01Z</time>
    </trkpt>
    <trkpt lat="48.441489" lon="2.666344">
      <ele>138.302</ele>
      <time>2016-06-05T08:51:03Z</time>
    </trkpt>
    <trkpt lat="48.441485" lon="2.666174">
      <ele>138.078</ele>
      <time>2016-06-05T08:51:06Z</time>
    </trkpt>
    <trkpt lat="48.441444" lon="2.666003">
      <ele>137.688</ele>
      <time>2016-06-05T08:51:08Z</time>
    </trkpt>
    <trkpt lat="48.441425" lon="2.665833">
      <ele>137.13</ele>
      <time>2016-06-05T08:51:12Z</time>
    </trkpt>
    <trkpt lat="48.441378" lon="2.665683">
      <ele>137.039</ele>
      <time>2016-06-05T08:51:15Z</time>
    </trkpt>
    <trkpt lat="48.44133" lon="2.665472">
      <ele>137.148</ele>
      <time>2016-06-05T08:51:18Z</time>
    </trkpt>
    <trkpt lat="48.441309" lon="2.665312">
      <ele>137.035</ele>
      <time>2016-06-05T08:51:20Z</time>
    </trkpt>
    <trkpt lat="48.441269" lon="2.665142">
      <ele>136.511</ele>
      <time>2016-06-05T08:51:23Z</time>
    </trkpt>
    <trkpt lat="48.441215" lon="2.665031">
      <ele>136.112</ele>
      <time>2016-06-05T08:51:25Z</time>
    </trkpt>
    <trkpt lat="48.441159" lon="2.664889">
      <ele>136.0</ele>
      <time>2016-06-05T08:51:28Z</time>
    </trkpt>
    <trkpt lat="48.441137" lon="2.664744">
      <ele>136.0</ele>
      <time>2016-06-05T08:51:30Z</time>
    </trkpt>
    <trkpt lat="48.441092" lon="2.664504">
      <ele>136.069</ele>
      <time>2016-06-05T08:51:32Z</time>
    </trkpt>
    <trkpt lat="48.441035" lon="2.664344">
      <ele>135.912</ele>
      <time>2016-06-05T08:51:34Z</time>
    </trkpt>
    <trkpt lat="48.440996" lon="2.664188">
      <ele>135.491</ele>
      <time>2016-06-05T08:51:36Z</time>
    </trkpt>
    <trkpt lat="48.44089" lon="2.664072">
      <ele>134.774</ele>
      <time>2016-06-05T08:51:39Z</time>
    </trkpt>
    <trkpt lat="48.440808" lon="2.664174">
      <ele>136.026</ele>
      <time>2016-06-05T08:51:43Z</time>
    </trkpt>
    <trkpt lat="48.440722" lon="2.664269">
      <ele>136.368</ele>
      <time>2016-06-05T08:51:46Z</time>
    </trkpt>
    <trkpt lat="48.440611" lon="2.66433">
      <ele>136.588</ele>
      <time>2016-06-05T08:51:49Z</time>
    </trkpt>
    <trkpt lat="48.440504" lon="2.664255">
      <ele>136.132</ele>
      <time>2016-06-05T08:51:51Z</time>
    </trkpt>
    <trkpt lat="48.440414" lon="2.664188">
      <ele>135.567</ele>
      <time>2016-06-05T08:51:54Z</time>
    </trkpt>
    <trkpt lat="48.440294" lon="2.664143">
      <ele>134.968</ele>
      <time>2016-06-05T08:51:58Z</time>
    </trkpt>
    <trkpt lat="48.440175" lon="2.664035">
      <ele>134.331</ele>
      <time>2016-06-05T08:52:01Z</time>
    </trkpt>
    <trkpt lat="48.440068" lon="2.663847">
      <ele>133.775</ele>
      <time>2016-06-05T08:52:03Z</time>
    </trkpt>
    <trkpt lat="48.439934" lon="2.663754">
      <ele>133.752</ele>
      <time>2016-06-05T08:52:06Z</time>
    </trkpt>
    <trkpt lat="48.439862" lon="2.663657">
      <ele>133.662</ele>
      <time>2016-06-05T08:52:11Z</time>
    </trkpt>
    <trkpt lat="48.43984" lon="2.663519">
      <ele>133.435</ele>
      <time>2016-06-05T08:52:13Z</time>
    </trkpt>
    <trkpt lat="48.43983" lon="2.663373">
      <ele>133.279</ele>
      <time>2016-06-05T08:52:15Z</time>
    </trkpt>
    <trkpt lat="48.439797" lon="2.663227">
      <ele>133.182</ele>
      <time>2016-06-05T08:52:20Z</time>
    </trkpt>
    <trkpt lat="48.439798" lon="2.663082">
      <ele>132.796</ele>
      <time>2016-06-05T08:52:25Z</time>
    </trkpt>
    <trkpt lat="48.439821" lon="2.662869">
      <ele>131.973</ele>
      <time>2016-06-05T08:52:29Z</time>
    </trkpt>
    <trkpt lat="48.43985" lon="2.662723">
      <ele>131.449</ele>
      <time>2016-06-05T08:52:31Z</time>
    </trkpt>
    <trkpt lat="48.439826" lon="2.662572">
      <ele>131.35</ele>
      <time>2016-06-05T08:52:33Z</time>
    </trkpt>
    <trkpt lat="48.439813" lon="2.662404">
      <ele>130.423</ele>
      <time>2016-06-05T08:52:35Z</time>
    </trkpt>
    <trkpt lat="48.439735" lon="2.662314">
      <ele>129.93</ele>
      <time>2016-06-05T08:52:38Z</time>
    </trkpt>
    <trkpt lat="48.43961" lon="2.662317">
      <ele>130.694</ele>
      <time>2016-06-05T08:52:41Z</time>
    </trkpt>
    <trkpt lat="48.439522" lon="2.662348">
      <ele>131.474</ele>
      <time>2016-06-05T08:52:44Z</time>
    </trkpt>
    <trkpt lat="48.439413" lon="2.662391">
      <ele>132.373</ele>
      <time>2016-06-05T08:52:48Z</time>
    </trkpt>
    <trkpt lat="48.439347" lon="2.662495">
      <ele>133.321</ele>
      <time>2016-06-05T08:52:52Z</time>
    </trkpt>
    <trkpt lat="48.439269" lon="2.662568">
      <ele>133.876</ele>
      <time>2016-06-05T08:52:57Z</time>
    </trkpt>
    <trkpt lat="48.43915" lon="2.662588">
      <ele>134.377</ele>
      <time>2016-06-05T08:52:59Z</time>
    </trkpt>
    <trkpt lat="48.439044" lon="2.662598">
      <ele>134.794</ele>
      <time>2016-06-05T08:53:02Z</time>
    </trkpt>
    <trkpt lat="48.438953" lon="2.662571">
      <ele>135.025</ele>
      <time>2016-06-05T08:53:04Z</time>
    </trkpt>
    <trkpt lat="48.438857" lon="2.662523">
      <ele>135.303</ele>
      <time>2016-06-05T08:53:07Z</time>
    </trkpt>
    <trkpt lat="48.438773" lon="2.662601">
      <ele>136.046</ele>
      <time>2016-06-05T08:53:14Z</time>
    </trkpt>
    <trkpt lat="48.438676" lon="2.662544">
      <ele>136.57</ele>
      <time>2016-06-05T08:53:17Z</time>
    </trkpt>
    <trkpt lat="48.438586" lon="2.662472">
      <ele>137.09</ele>
      <time>2016-06-05T08:53:20Z</time>
    </trkpt>
    <trkpt lat="48.438541" lon="2.662312">
      <ele>137.252</ele>
      <time>2016-06-05T08:53:27Z</time>
    </trkpt>
    <trkpt lat="48.438648" lon="2.662284">
      <ele>136.734</ele>
      <time>2016-06-05T08:53:47Z</time>
    </trkpt>
    <trkpt lat="48.438792" lon="2.662285">
      <ele>135.698</ele>
      <time>2016-06-05T08:53:50Z</time>
    </trkpt>
    <trkpt lat="48.438915" lon="2.662258">
      <ele>134.824</ele>
      <time>2016-06-05T08:53:53Z</time>
    </trkpt>
    <trkpt lat="48.439031" lon="2.662201">
      <ele>133.9</ele>
      <time>2016-06-05T08:53:58Z</time>
    </trkpt>
    <trkpt lat="48.43909" lon="2.662093">
      <ele>133.087</ele>
      <time>2016-06-05T08:54:00Z</time>
    </trkpt>
    <trkpt lat="48.439194" lon="2.661962">
      <ele>131.774</ele>
      <time>2016-06-05T08:54:02Z</time>
    </trkpt>
    <trkpt lat="48.439305" lon="2.661842">
      <ele>129.768</ele>
      <time>2016-06-05T08:54:04Z</time>
    </trkpt>
    <trkpt lat="48.439406" lon="2.661771">
      <ele>128.166</ele>
      <time>2016-06-05T08:54:06Z</time>
    </trkpt>
    <trkpt lat="48.439494" lon="2.661675">
      <ele>126.173</ele>
      <time>2016-06-05T08:54:08Z</time>
    </trkpt>
    <trkpt lat="48.43955" lon="2.661482">
      <ele>123.358</ele>
      <time>2016-06-05T08:54:10Z</time>
    </trkpt>
    <trkpt lat="48.439646" lon="2.661384">
      <ele>121.07</ele>
      <time>2016-06-05T08:54:12Z</time>
    </trkpt>
    <trkpt lat="48.439769" lon="2.661324">
      <ele>119.766</ele>
      <time>2016-06-05T08:54:14Z</time>
    </trkpt>
    <trkpt lat="48.439877" lon="2.661178">
      <ele>119.241</ele>
      <time>2016-06-05T08:54:16Z</time>
    </trkpt>
    <trkpt lat="48.439993" lon="2.661118">
      <ele>119.025</ele>
      <time>2016-06-05T08:54:17Z</time>
    </trkpt>
    <trkpt lat="48.440072" lon="2.66093">
      <ele>118.403</ele>
      <time>2016-06-05T08:54:19Z</time>
    </trkpt>
    <trkpt lat="48.440174" lon="2.660833">
      <ele>117.122</ele>
      <time>2016-06-05T08:54:21Z</time>
    </trkpt>
    <trkpt lat="48.440325" lon="2.660742">
      <ele>115.933</ele>
      <time>2016-06-05T08:54:23Z</time>
    </trkpt>
    <trkpt lat="48.44042" lon="2.660723">
      <ele>115.17</ele>
      <time>2016-06-05T08:54:24Z</time>
    </trkpt>
    <trkpt lat="48.440517" lon="2.660594">
      <ele>114.397</ele>
      <time>2016-06-05T08:54:26Z</time>
    </trkpt>
    <trkpt lat="48.440611" lon="2.660431">
      <ele>114.359</ele>
      <time>2016-06-05T08:54:28Z</time>
    </trkpt>
    <trkpt lat="48.440692" lon="2.660324">
      <ele>114.424</ele>
      <time>2016-06-05T08:54:30Z</time>
    </trkpt>
    <trkpt lat="48.440805" lon="2.660221">
      <ele>114.144</ele>
      <time>2016-06-05T08:54:32Z</time>
    </trkpt>
    <trkpt lat="48.440917" lon="2.660137">
      <ele>113.245</ele>
      <time>2016-06-05T08:54:34Z</time>
    </trkpt>
    <trkpt lat="48.441015" lon="2.66004">
      <ele>112.132</ele>
      <time>2016-06-05T08:54:36Z</time>
    </trkpt>
    <trkpt lat="48.44111" lon="2.659907">
      <ele>110.679</ele>
      <time>2016-06-05T08:54:38Z</time>
    </trkpt>
    <trkpt lat="48.441215" lon="2.65982">
      <ele>109.978</ele>
      <time>2016-06-05T08:54:40Z</time>
    </trkpt>
    <trkpt lat="48.441283" lon="2.659674">
      <ele>109.166</ele>
      <time>2016-06-05T08:54:42Z</time>
    </trkpt>
    <trkpt lat="48.441383" lon="2.659608">
      <ele>108.216</ele>
      <time>2016-06-05T08:54:44Z</time>
    </trkpt>
    <trkpt lat="48.441468" lon="2.659511">
      <ele>107.411</ele>
      <time>2016-06-05T08:54:46Z</time>
    </trkpt>
    <trkpt lat="48.441566" lon="2.659451">
      <ele>107.032</ele>
      <time>2016-06-05T08:54:48Z</time>
    </trkpt>
    <trkpt lat="48.441668" lon="2.65938">
      <ele>106.546</ele>
      <time>2016-06-05T08:54:50Z</time>
    </trkpt>
    <trkpt lat="48.441762" lon="2.659264">
      <ele>106.387</ele>
      <time>2016-06-05T08:54:53Z</time>
    </trkpt>
    <trkpt lat="48.441872" lon="2.659262">
      <ele>107.165</ele>
      <time>2016-06-05T08:54:56Z</time>
    </trkpt>
    <trkpt lat="48.44198" lon="2.659286">
      <ele>108.371</ele>
      <time>2016-06-05T08:55:01Z</time>
    </trkpt>
    <trkpt lat="48.442074" lon="2.659256">
      <ele>109.509</ele>
      <time>2016-06-05T08:55:05Z</time>
    </trkpt>
    <trkpt lat="48.442133" lon="2.659139">
      <ele>109.616</ele>
      <time>2016-06-05T08:55:08Z</time>
    </trkpt>
    <trkpt lat="48.442136" lon="2.658944">
      <ele>108.957</ele>
      <time>2016-06-05T08:55:10Z</time>
    </trkpt>
    <trkpt lat="48.442235" lon="2.658841">
      <ele>110.222</ele>
      <time>2016-06-05T08:55:13Z</time>
    </trkpt>
    <trkpt lat="48.442306" lon="2.658687">
      <ele>111.289</ele>
      <time>2016-06-05T08:55:16Z</time>
    </trkpt>
    <trkpt lat="48.442323" lon="2.65855">
      <ele>111.231</ele>
      <time>2016-06-05T08:55:17Z</time>
    </trkpt>
    <trkpt lat="48.442347" lon="2.658346">
      <ele>110.842</ele>
      <time>2016-06-05T08:55:19Z</time>
    </trkpt>
    <trkpt lat="48.442385" lon="2.658121">
      <ele>110.448</ele>
      <time>2016-06-05T08:55:22Z</time>
    </trkpt>
    <trkpt lat="48.442388" lon="2.657954">
      <ele>109.828</ele>
      <time>2016-06-05T08:55:24Z</time>
    </trkpt>
    <trkpt lat="48.442429" lon="2.657806">
      <ele>109.59</ele>
      <time>2016-06-05T08:55:26Z</time>
    </trkpt>
    <trkpt lat="48.442516" lon="2.657675">
      <ele>109.803</ele>
      <time>2016-06-05T08:55:29Z</time>
    </trkpt>
    <trkpt lat="48.442572" lon="2.657478">
      <ele>109.698</ele>
      <time>2016-06-05T08:55:32Z</time>
    </trkpt>
    <trkpt lat="48.442616" lon="2.657357">
      <ele>109.738</ele>
      <time>2016-06-05T08:55:34Z</time>
    </trkpt>
    <trkpt lat="48.442608" lon="2.657131">
      <ele>108.51</ele>
      <time>2016-06-05T08:55:36Z</time>
    </trkpt>
    <trkpt lat="48.442694" lon="2.657038">
      <ele>108.769</ele>
      <time>2016-06-05T08:55:38Z</time>
    </trkpt>
    <trkpt lat="48.442734" lon="2.656901">
      <ele>108.239</ele>
      <time>2016-06-05T08:55:40Z</time>
    </trkpt>
    <trkpt lat="48.442817" lon="2.656742">
      <ele>108.107</ele>
      <time>2016-06-05T08:55:43Z</time>
    </trkpt>
    <trkpt lat="48.44285" lon="2.656602">
      <ele>107.514</ele>
      <time>2016-06-05T08:55:45Z</time>
    </trkpt>
    <trkpt lat="48.442835" lon="2.656391">
      <ele>105.635</ele>
      <time>2016-06-05T08:55:47Z</time>
    </trkpt>
    <trkpt lat="48.4429" lon="2.656231">
      <ele>104.933</ele>
      <time>2016-06-05T08:55:50Z</time>
    </trkpt>
    <trkpt lat="48.44294" lon="2.656091">
      <ele>104.096</ele>
      <time>2016-06-05T08:55:52Z</time>
    </trkpt>
    <trkpt lat="48.442982" lon="2.655869">
      <ele>103.599</ele>
      <time>2016-06-05T08:55:55Z</time>
    </trkpt>
    <trkpt lat="48.44302" lon="2.655696">
      <ele>103.313</ele>
      <time>2016-06-05T08:55:57Z</time>
    </trkpt>
    <trkpt lat="48.443032" lon="2.655544">
      <ele>102.915</ele>
      <time>2016-06-05T08:55:59Z</time>
    </trkpt>
    <trkpt lat="48.443068" lon="2.655371">
      <ele>103.194</ele>
      <time>2016-06-05T08:56:02Z</time>
    </trkpt>
    <trkpt lat="48.443141" lon="2.655201">
      <ele>104.145</ele>
      <time>2016-06-05T08:56:05Z</time>
    </trkpt>
    <trkpt lat="48.443202" lon="2.655018">
      <ele>104.616</ele>
      <time>2016-06-05T08:56:08Z</time>
    </trkpt>
    <trkpt lat="48.443206" lon="2.654781">
      <ele>103.475</ele>
      <time>2016-06-05T08:56:10Z</time>
    </trkpt>
    <trkpt lat="48.443268" lon="2.654657">
      <ele>103.59</ele>
      <time>2016-06-05T08:56:12Z</time>
    </trkpt>
    <trkpt lat="48.443265" lon="2.65444">
      <ele>102.016</ele>
      <time>2016-06-05T08:56:14Z</time>
    </trkpt>
    <trkpt lat="48.443318" lon="2.654227">
      <ele>102.779</ele>
      <time>2016-06-05T08:56:17Z</time>
    </trkpt>
    <trkpt lat="48.443314" lon="2.653996">
      <ele>102.15</ele>
      <time>2016-06-05T08:56:19Z</time>
    </trkpt>
    <trkpt lat="48.443371" lon="2.65382">
      <ele>102.611</ele>
      <time>2016-06-05T08:56:22Z</time>
    </trkpt>
    <trkpt lat="48.443387" lon="2.653608">
      <ele>102.568</ele>
      <time>2016-06-05T08:56:24Z</time>
    </trkpt>
    <trkpt lat="48.443407" lon="2.653388">
      <ele>101.992</ele>
      <time>2016-06-05T08:56:26Z</time>
    </trkpt>
    <trkpt lat="48.443388" lon="2.653238">
      <ele>101.247</ele>
      <time>2016-06-05T08:56:28Z</time>
    </trkpt>
    <trkpt lat="48.443399" lon="2.653049">
      <ele>100.686</ele>
      <time>2016-06-05T08:56:30Z</time>
    </trkpt>
    <trkpt lat="48.443471" lon="2.652895">
      <ele>100.909</ele>
      <time>2016-06-05T08:56:33Z</time>
    </trkpt>
    <trkpt lat="48.443511" lon="2.652659">
      <ele>100.491</ele>
      <time>2016-06-05T08:56:36Z</time>
    </trkpt>
    <trkpt lat="48.443556" lon="2.652541">
      <ele>100.552</ele>
      <time>2016-06-05T08:56:38Z</time>
    </trkpt>
    <trkpt lat="48.443599" lon="2.652315">
      <ele>100.203</ele>
      <time>2016-06-05T08:56:41Z</time>
    </trkpt>
    <trkpt lat="48.443596" lon="2.652165">
      <ele>99.826</ele>
      <time>2016-06-05T08:56:43Z</time>
    </trkpt>
    <trkpt lat="48.443703" lon="2.652074">
      <ele>100.992</ele>
      <time>2016-06-05T08:56:45Z</time>
    </trkpt>
    <trkpt lat="48.443735" lon="2.651918">
      <ele>101.338</ele>
      <time>2016-06-05T08:56:47Z</time>
    </trkpt>
    <trkpt lat="48.443799" lon="2.651803">
      <ele>102.029</ele>
      <time>2016-06-05T08:56:49Z</time>
    </trkpt>
    <trkpt lat="48.443914" lon="2.651664">
      <ele>103.082</ele>
      <time>2016-06-05T08:56:52Z</time>
    </trkpt>
    <trkpt lat="48.443924" lon="2.651518">
      <ele>102.659</ele>
      <time>2016-06-05T08:56:54Z</time>
    </trkpt>
    <trkpt lat="48.443913" lon="2.651347">
      <ele>102.036</ele>
      <time>2016-06-05T08:56:56Z</time>
    </trkpt>
    <trkpt lat="48.443901" lon="2.651154">
      <ele>101.278</ele>
      <time>2016-06-05T08:56:58Z</time>
    </trkpt>
    <trkpt lat="48.443943" lon="2.650951">
      <ele>101.008</ele>
      <time>2016-06-05T08:57:02Z</time>
    </trkpt>
    <trkpt lat="48.443958" lon="2.650778">
      <ele>100.547</ele>
      <time>2016-06-05T08:57:04Z</time>
    </trkpt>
    <trkpt lat="48.443987" lon="2.650571">
      <ele>100.115</ele>
      <time>2016-06-05T08:57:07Z</time>
    </trkpt>
    <trkpt lat="48.443994" lon="2.650416">
      <ele>99.945</ele>
      <time>2016-06-05T08:57:09Z</time>
    </trkpt>
    <trkpt lat="48.444078" lon="2.650472">
      <ele>100.838</ele>
      <time>2016-06-05T08:57:11Z</time>
    </trkpt>
    <trkpt lat="48.444081" lon="2.650287">
      <ele>100.406</ele>
      <time>2016-06-05T08:57:15Z</time>
    </trkpt>
    <trkpt lat="48.444099" lon="2.650104">
      <ele>101.138</ele>
      <time>2016-06-05T08:57:17Z</time>
    </trkpt>
    <trkpt lat="48.444142" lon="2.649903">
      <ele>101.853</ele>
      <time>2016-06-05T08:57:20Z</time>
    </trkpt>
    <trkpt lat="48.444172" lon="2.649766">
      <ele>102.055</ele>
      <time>2016-06-05T08:57:22Z</time>
    </trkpt>
    <trkpt lat="48.444183" lon="2.649579">
      <ele>102.176</ele>
      <time>2016-06-05T08:57:24Z</time>
    </trkpt>
    <trkpt lat="48.44421" lon="2.649435">
      <ele>102.463</ele>
      <time>2016-06-05T08:57:26Z</time>
    </trkpt>
    <trkpt lat="48.444278" lon="2.649278">
      <ele>102.962</ele>
      <time>2016-06-05T08:57:29Z</time>
    </trkpt>
    <trkpt lat="48.444358" lon="2.649138">
      <ele>103.274</ele>
      <time>2016-06-05T08:57:32Z</time>
    </trkpt>
    <trkpt lat="48.444403" lon="2.64901">
      <ele>103.138</ele>
      <time>2016-06-05T08:57:34Z</time>
    </trkpt>
    <trkpt lat="48.444426" lon="2.648874">
      <ele>102.864</ele>
      <time>2016-06-05T08:57:36Z</time>
    </trkpt>
    <trkpt lat="48.444446" lon="2.648711">
      <ele>103.03</ele>
      <time>2016-06-05T08:57:39Z</time>
    </trkpt>
    <trkpt lat="48.444442" lon="2.648535">
      <ele>102.971</ele>
      <time>2016-06-05T08:57:41Z</time>
    </trkpt>
    <trkpt lat="48.444443" lon="2.648345">
      <ele>102.979</ele>
      <time>2016-06-05T08:57:44Z</time>
    </trkpt>
    <trkpt lat="48.444449" lon="2.648175">
      <ele>102.512</ele>
      <time>2016-06-05T08:57:46Z</time>
    </trkpt>
    <trkpt lat="48.444449" lon="2.647967">
      <ele>101.45</ele>
      <time>2016-06-05T08:57:49Z</time>
    </trkpt>
    <trkpt lat="48.444383" lon="2.647747">
      <ele>99.644</ele>
      <time>2016-06-05T08:57:51Z</time>
    </trkpt>
    <trkpt lat="48.444396" lon="2.64758">
      <ele>100.239</ele>
      <time>2016-06-05T08:57:53Z</time>
    </trkpt>
    <trkpt lat="48.444428" lon="2.647418">
      <ele>100.822</ele>
      <time>2016-06-05T08:57:56Z</time>
    </trkpt>
    <trkpt lat="48.444456" lon="2.64722">
      <ele>101.216</ele>
      <time>2016-06-05T08:57:59Z</time>
    </trkpt>
    <trkpt lat="48.444478" lon="2.647036">
      <ele>102.274</ele>
      <time>2016-06-05T08:58:02Z</time>
    </trkpt>
    <trkpt lat="48.444533" lon="2.64684">
      <ele>103.098</ele>
      <time>2016-06-05T08:58:05Z</time>
    </trkpt>
    <trkpt lat="48.444602" lon="2.646691">
      <ele>103.406</ele>
      <time>2016-06-05T08:58:10Z</time>
    </trkpt>
    <trkpt lat="48.444637" lon="2.646561">
      <ele>103.245</ele>
      <time>2016-06-05T08:58:13Z</time>
    </trkpt>
    <trkpt lat="48.444725" lon="2.64643">
      <ele>103.355</ele>
      <time>2016-06-05T08:58:17Z</time>
    </trkpt>
    <trkpt lat="48.444782" lon="2.646313">
      <ele>103.959</ele>
      <time>2016-06-05T08:58:20Z</time>
    </trkpt>
    <trkpt lat="48.444751" lon="2.646164">
      <ele>102.728</ele>
      <time>2016-06-05T08:58:21Z</time>
    </trkpt>
    <trkpt lat="48.444769" lon="2.64599">
      <ele>102.622</ele>
      <time>2016-06-05T08:58:23Z</time>
    </trkpt>
    <trkpt lat="48.44481" lon="2.645796">
      <ele>102.413</ele>
      <time>2016-06-05T08:58:27Z</time>
    </trkpt>
    <trkpt lat="48.444837" lon="2.645633">
      <ele>101.509</ele>
      <time>2016-06-05T08:58:30Z</time>
    </trkpt>
    <trkpt lat="48.444902" lon="2.645512">
      <ele>100.945</ele>
      <time>2016-06-05T08:58:33Z</time>
    </trkpt>
    <trkpt lat="48.444924" lon="2.645313">
      <ele>100.761</ele>
      <time>2016-06-05T08:58:36Z</time>
    </trkpt>
    <trkpt lat="48.44495" lon="2.645123">
      <ele>101.277</ele>
      <time>2016-06-05T08:58:38Z</time>
    </trkpt>
    <trkpt lat="48.444998" lon="2.644956">
      <ele>101.986</ele>
      <time>2016-06-05T08:58:41Z</time>
    </trkpt>
    <trkpt lat="48.445079" lon="2.644811">
      <ele>102.478</ele>
      <time>2016-06-05T08:58:44Z</time>
    </trkpt>
    <trkpt lat="48.445062" lon="2.644638">
      <ele>102.379</ele>
      <time>2016-06-05T08:58:45Z</time>
    </trkpt>
    <trkpt lat="48.445083" lon="2.644457">
      <ele>102.312</ele>
      <time>2016-06-05T08:58:47Z</time>
    </trkpt>
    <trkpt lat="48.445131" lon="2.644291">
      <ele>101.627</ele>
      <time>2016-06-05T08:58:50Z</time>
    </trkpt>
    <trkpt lat="48.445175" lon="2.644158">
      <ele>101.198</ele>
      <time>2016-06-05T08:58:52Z</time>
    </trkpt>
    <trkpt lat="48.445239" lon="2.644035">
      <ele>100.773</ele>
      <time>2016-06-05T08:58:54Z</time>
    </trkpt>
    <trkpt lat="48.445327" lon="2.643888">
      <ele>99.823</ele>
      <time>2016-06-05T08:58:57Z</time>
    </trkpt>
    <trkpt lat="48.445327" lon="2.643647">
      <ele>99.977</ele>
      <time>2016-06-05T08:58:59Z</time>
    </trkpt>
    <trkpt lat="48.445407" lon="2.64353">
      <ele>100.272</ele>
      <time>2016-06-05T08:59:01Z</time>
    </trkpt>
    <trkpt lat="48.445436" lon="2.64338">
      <ele>100.948</ele>
      <time>2016-06-05T08:59:03Z</time>
    </trkpt>
    <trkpt lat="48.445419" lon="2.643163">
      <ele>101.017</ele>
      <time>2016-06-05T08:59:05Z</time>
    </trkpt>
    <trkpt lat="48.445422" lon="2.642966">
      <ele>101.038</ele>
      <time>2016-06-05T08:59:08Z</time>
    </trkpt>
    <trkpt lat="48.445419" lon="2.642823">
      <ele>101.017</ele>
      <time>2016-06-05T08:59:10Z</time>
    </trkpt>
    <trkpt lat="48.445424" lon="2.642674">
      <ele>100.679</ele>
      <time>2016-06-05T08:59:12Z</time>
    </trkpt>
    <trkpt lat="48.445416" lon="2.642453">
      <ele>99.826</ele>
      <time>2016-06-05T08:59:15Z</time>
    </trkpt>
    <trkpt lat="48.445424" lon="2.642246">
      <ele>99.138</ele>
      <time>2016-06-05T08:59:18Z</time>
    </trkpt>
    <trkpt lat="48.445437" lon="2.642066">
      <ele>98.584</ele>
      <time>2016-06-05T08:59:21Z</time>
    </trkpt>
    <trkpt lat="48.44542" lon="2.641845">
      <ele>98.024</ele>
      <time>2016-06-05T08:59:25Z</time>
    </trkpt>
    <trkpt lat="48.445464" lon="2.641613">
      <ele>98.277</ele>
      <time>2016-06-05T08:59:28Z</time>
    </trkpt>
    <trkpt lat="48.445529" lon="2.641507">
      <ele>98.754</ele>
      <time>2016-06-05T08:59:31Z</time>
    </trkpt>
    <trkpt lat="48.445531" lon="2.641275">
      <ele>98.361</ele>
      <time>2016-06-05T08:59:33Z</time>
    </trkpt>
    <trkpt lat="48.445567" lon="2.641138">
      <ele>98.216</ele>
      <time>2016-06-05T08:59:35Z</time>
    </trkpt>
    <trkpt lat="48.445587" lon="2.640984">
      <ele>98.288</ele>
      <time>2016-06-05T08:59:37Z</time>
    </trkpt>
    <trkpt lat="48.445601" lon="2.640848">
      <ele>98.336</ele>
      <time>2016-06-05T08:59:39Z</time>
    </trkpt>
    <trkpt lat="48.445644" lon="2.640683">
      <ele>98.096</ele>
      <time>2016-06-05T08:59:42Z</time>
    </trkpt>
    <trkpt lat="48.44567" lon="2.640511">
      <ele>97.664</ele>
      <time>2016-06-05T08:59:45Z</time>
    </trkpt>
    <trkpt lat="48.445752" lon="2.640373">
      <ele>97.757</ele>
      <time>2016-06-05T08:59:47Z</time>
    </trkpt>
    <trkpt lat="48.445787" lon="2.640195">
      <ele>97.368</ele>
      <time>2016-06-05T08:59:49Z</time>
    </trkpt>
    <trkpt lat="48.4458" lon="2.639997">
      <ele>96.74</ele>
      <time>2016-06-05T08:59:51Z</time>
    </trkpt>
    <trkpt lat="48.445844" lon="2.639866">
      <ele>96.074</ele>
      <time>2016-06-05T08:59:53Z</time>
    </trkpt>
    <trkpt lat="48.445894" lon="2.639728">
      <ele>95.26</ele>
      <time>2016-06-05T08:59:55Z</time>
    </trkpt>
    <trkpt lat="48.445956" lon="2.639627">
      <ele>95.099</ele>
      <time>2016-06-05T08:59:57Z</time>
    </trkpt>
    <trkpt lat="48.445978" lon="2.639446">
      <ele>94.526</ele>
      <time>2016-06-05T08:59:59Z</time>
    </trkpt>
    <trkpt lat="48.445984" lon="2.639244">
      <ele>94.542</ele>
      <time>2016-06-05T09:00:01Z</time>
    </trkpt>
    <trkpt lat="48.445996" lon="2.639101">
      <ele>94.586</ele>
      <time>2016-06-05T09:00:03Z</time>
    </trkpt>
    <trkpt lat="48.446035" lon="2.638938">
      <ele>94.726</ele>
      <time>2016-06-05T09:00:05Z</time>
    </trkpt>
    <trkpt lat="48.446084" lon="2.638815">
      <ele>94.396</ele>
      <time>2016-06-05T09:00:08Z</time>
    </trkpt>
    <trkpt lat="48.446102" lon="2.638665">
      <ele>93.382</ele>
      <time>2016-06-05T09:00:10Z</time>
    </trkpt>
    <trkpt lat="48.446126" lon="2.638511">
      <ele>92.747</ele>
      <time>2016-06-05T09:00:12Z</time>
    </trkpt>
    <trkpt lat="48.44616" lon="2.638282">
      <ele>92.135</ele>
      <time>2016-06-05T09:00:15Z</time>
    </trkpt>
    <trkpt lat="48.446157" lon="2.638088">
      <ele>91.301</ele>
      <time>2016-06-05T09:00:18Z</time>
    </trkpt>
    <trkpt lat="48.44615" lon="2.637939">
      <ele>90.72</ele>
      <time>2016-06-05T09:00:19Z</time>
    </trkpt>
    <trkpt lat="48.446041" lon="2.637871">
      <ele>90.168</ele>
      <time>2016-06-05T09:00:22Z</time>
    </trkpt>
    <trkpt lat="48.445996" lon="2.637688">
      <ele>89.262</ele>
      <time>2016-06-05T09:00:25Z</time>
    </trkpt>
    <trkpt lat="48.445932" lon="2.637537">
      <ele>88.488</ele>
      <time>2016-06-05T09:00:28Z</time>
    </trkpt>
    <trkpt lat="48.445834" lon="2.637398">
      <ele>87.635</ele>
      <time>2016-06-05T09:00:33Z</time>
    </trkpt>
    <trkpt lat="48.445735" lon="2.637423">
      <ele>87.723</ele>
      <time>2016-06-05T09:00:35Z</time>
    </trkpt>
    <trkpt lat="48.445364" lon="2.637326">
      <ele>88.753</ele>
      <time>2016-06-05T09:00:46Z</time>
    </trkpt>
    <trkpt lat="48.445264" lon="2.637341">
      <ele>89.576</ele>
      <time>2016-06-05T09:00:49Z</time>
    </trkpt>
    <trkpt lat="48.445173" lon="2.637347">
      <ele>90.581</ele>
      <time>2016-06-05T09:00:55Z</time>
    </trkpt>
    <trkpt lat="48.44513" lon="2.637201">
      <ele>90.555</ele>
      <time>2016-06-05T09:00:59Z</time>
    </trkpt>
    <trkpt lat="48.445181" lon="2.63708">
      <ele>89.867</ele>
      <time>2016-06-05T09:01:01Z</time>
    </trkpt>
    <trkpt lat="48.445241" lon="2.636958">
      <ele>89.271</ele>
      <time>2016-06-05T09:01:03Z</time>
    </trkpt>
    <trkpt lat="48.445277" lon="2.636766">
      <ele>89.004</ele>
      <time>2016-06-05T09:01:06Z</time>
    </trkpt>
    <trkpt lat="48.445308" lon="2.636622">
      <ele>88.891</ele>
      <time>2016-06-05T09:01:08Z</time>
    </trkpt>
    <trkpt lat="48.445225" lon="2.6365">
      <ele>89.19</ele>
      <time>2016-06-05T09:01:11Z</time>
    </trkpt>
    <trkpt lat="48.445172" lon="2.636339">
      <ele>89.09</ele>
      <time>2016-06-05T09:01:13Z</time>
    </trkpt>
    <trkpt lat="48.445126" lon="2.636219">
      <ele>88.657</ele>
      <time>2016-06-05T09:01:15Z</time>
    </trkpt>
    <trkpt lat="48.445066" lon="2.63608">
      <ele>88.498</ele>
      <time>2016-06-05T09:01:17Z</time>
    </trkpt>
    <trkpt lat="48.445014" lon="2.635946">
      <ele>88.869</ele>
      <time>2016-06-05T09:01:19Z</time>
    </trkpt>
    <trkpt lat="48.444977" lon="2.635819">
      <ele>89.28</ele>
      <time>2016-06-05T09:01:22Z</time>
    </trkpt>
    <trkpt lat="48.444929" lon="2.635676">
      <ele>89.456</ele>
      <time>2016-06-05T09:01:24Z</time>
    </trkpt>
    <trkpt lat="48.444854" lon="2.635509">
      <ele>89.935</ele>
      <time>2016-06-05T09:01:28Z</time>
    </trkpt>
    <trkpt lat="48.444787" lon="2.635408">
      <ele>90.536</ele>
      <time>2016-06-05T09:01:30Z</time>
    </trkpt>
    <trkpt lat="48.444754" lon="2.635282">
      <ele>90.558</ele>
      <time>2016-06-05T09:01:33Z</time>
    </trkpt>
    <trkpt lat="48.444665" lon="2.635078">
      <ele>91.047</ele>
      <time>2016-06-05T09:01:37Z</time>
    </trkpt>
    <trkpt lat="48.444608" lon="2.634974">
      <ele>91.458</ele>
      <time>2016-06-05T09:01:40Z</time>
    </trkpt>
    <trkpt lat="48.444594" lon="2.634834">
      <ele>90.651</ele>
      <time>2016-06-05T09:01:42Z</time>
    </trkpt>
    <trkpt lat="48.444537" lon="2.634664">
      <ele>90.318</ele>
      <time>2016-06-05T09:01:44Z</time>
    </trkpt>
    <trkpt lat="48.444465" lon="2.634533">
      <ele>90.392</ele>
      <time>2016-06-05T09:01:46Z</time>
    </trkpt>
    <trkpt lat="48.444419" lon="2.634384">
      <ele>90.24</ele>
      <time>2016-06-05T09:01:47Z</time>
    </trkpt>
    <trkpt lat="48.444385" lon="2.634246">
      <ele>90.356</ele>
      <time>2016-06-05T09:01:49Z</time>
    </trkpt>
    <trkpt lat="48.444324" lon="2.634123">
      <ele>90.922</ele>
      <time>2016-06-05T09:01:52Z</time>
    </trkpt>
    <trkpt lat="48.444272" lon="2.633938">
      <ele>90.969</ele>
      <time>2016-06-05T09:01:54Z</time>
    </trkpt>
    <trkpt lat="48.444221" lon="2.633803">
      <ele>91.578</ele>
      <time>2016-06-05T09:01:56Z</time>
    </trkpt>
    <trkpt lat="48.444216" lon="2.633556">
      <ele>90.914</ele>
      <time>2016-06-05T09:02:02Z</time>
    </trkpt>
    <trkpt lat="48.4442" lon="2.633384">
      <ele>90.582</ele>
      <time>2016-06-05T09:02:04Z</time>
    </trkpt>
    <trkpt lat="48.444174" lon="2.633248">
      <ele>90.569</ele>
      <time>2016-06-05T09:02:06Z</time>
    </trkpt>
    <trkpt lat="48.444142" lon="2.633049">
      <ele>90.308</ele>
      <time>2016-06-05T09:02:09Z</time>
    </trkpt>
    <trkpt lat="48.444108" lon="2.632902">
      <ele>89.739</ele>
      <time>2016-06-05T09:02:11Z</time>
    </trkpt>
    <trkpt lat="48.444067" lon="2.632747">
      <ele>89.364</ele>
      <time>2016-06-05T09:02:13Z</time>
    </trkpt>
    <trkpt lat="48.44404" lon="2.632519">
      <ele>89.317</ele>
      <time>2016-06-05T09:02:15Z</time>
    </trkpt>
    <trkpt lat="48.443991" lon="2.632383">
      <ele>90.162</ele>
      <time>2016-06-05T09:02:17Z</time>
    </trkpt>
    <trkpt lat="48.443972" lon="2.632201">
      <ele>90.45</ele>
      <time>2016-06-05T09:02:20Z</time>
    </trkpt>
    <trkpt lat="48.443898" lon="2.632041">
      <ele>91.205</ele>
      <time>2016-06-05T09:02:22Z</time>
    </trkpt>
    <trkpt lat="48.443834" lon="2.631896">
      <ele>91.582</ele>
      <time>2016-06-05T09:02:24Z</time>
    </trkpt>
    <trkpt lat="48.443757" lon="2.631772">
      <ele>91.984</ele>
      <time>2016-06-05T09:02:27Z</time>
    </trkpt>
    <trkpt lat="48.443683" lon="2.631608">
      <ele>91.801</ele>
      <time>2016-06-05T09:02:29Z</time>
    </trkpt>
    <trkpt lat="48.443618" lon="2.631512">
      <ele>91.812</ele>
      <time>2016-06-05T09:02:33Z</time>
    </trkpt>
    <trkpt lat="48.443567" lon="2.631312">
      <ele>90.893</ele>
      <time>2016-06-05T09:02:35Z</time>
    </trkpt>
    <trkpt lat="48.443524" lon="2.63109">
      <ele>89.73</ele>
      <time>2016-06-05T09:02:37Z</time>
    </trkpt>
    <trkpt lat="48.44345" lon="2.630915">
      <ele>90.068</ele>
      <time>2016-06-05T09:02:39Z</time>
    </trkpt>
    <trkpt lat="48.443381" lon="2.63078">
      <ele>90.493</ele>
      <time>2016-06-05T09:02:42Z</time>
    </trkpt>
    <trkpt lat="48.443302" lon="2.630604">
      <ele>90.273</ele>
      <time>2016-06-05T09:02:45Z</time>
    </trkpt>
    <trkpt lat="48.443235" lon="2.630504">
      <ele>91.347</ele>
      <time>2016-06-05T09:02:48Z</time>
    </trkpt>
    <trkpt lat="48.443152" lon="2.630425">
      <ele>92.956</ele>
      <time>2016-06-05T09:02:51Z</time>
    </trkpt>
    <trkpt lat="48.443072" lon="2.63035">
      <ele>94.193</ele>
      <time>2016-06-05T09:02:53Z</time>
    </trkpt>
    <trkpt lat="48.442979" lon="2.630193">
      <ele>94.271</ele>
      <time>2016-06-05T09:02:55Z</time>
    </trkpt>
    <trkpt lat="48.442915" lon="2.630068">
      <ele>94.141</ele>
      <time>2016-06-05T09:02:57Z</time>
    </trkpt>
    <trkpt lat="48.442824" lon="2.629933">
      <ele>94.203</ele>
      <time>2016-06-05T09:03:00Z</time>
    </trkpt>
    <trkpt lat="48.442727" lon="2.629792">
      <ele>93.644</ele>
      <time>2016-06-05T09:03:03Z</time>
    </trkpt>
    <trkpt lat="48.44268" lon="2.629668">
      <ele>92.696</ele>
      <time>2016-06-05T09:03:04Z</time>
    </trkpt>
    <trkpt lat="48.442638" lon="2.629514">
      <ele>91.392</ele>
      <time>2016-06-05T09:03:06Z</time>
    </trkpt>
    <trkpt lat="48.442596" lon="2.629386">
      <ele>90.778</ele>
      <time>2016-06-05T09:03:07Z</time>
    </trkpt>
    <trkpt lat="48.442533" lon="2.629261">
      <ele>91.007</ele>
      <time>2016-06-05T09:03:10Z</time>
    </trkpt>
    <trkpt lat="48.442499" lon="2.629117">
      <ele>90.66</ele>
      <time>2016-06-05T09:03:11Z</time>
    </trkpt>
    <trkpt lat="48.442425" lon="2.628867">
      <ele>90.25</ele>
      <time>2016-06-05T09:03:13Z</time>
    </trkpt>
    <trkpt lat="48.442374" lon="2.628707">
      <ele>90.316</ele>
      <time>2016-06-05T09:03:15Z</time>
    </trkpt>
    <trkpt lat="48.442323" lon="2.628528">
      <ele>89.76</ele>
      <time>2016-06-05T09:03:18Z</time>
    </trkpt>
    <trkpt lat="48.44228" lon="2.628391">
      <ele>88.956</ele>
      <time>2016-06-05T09:03:21Z</time>
    </trkpt>
    <trkpt lat="48.442266" lon="2.628255">
      <ele>87.726</ele>
      <time>2016-06-05T09:03:25Z</time>
    </trkpt>
    <trkpt lat="48.442228" lon="2.628127">
      <ele>86.725</ele>
      <time>2016-06-05T09:03:27Z</time>
    </trkpt>
    <trkpt lat="48.44217" lon="2.627961">
      <ele>86.323</ele>
      <time>2016-06-05T09:03:30Z</time>
    </trkpt>
    <trkpt lat="48.4421" lon="2.62771">
      <ele>86.425</ele>
      <time>2016-06-05T09:03:32Z</time>
    </trkpt>
    <trkpt lat="48.442048" lon="2.627567">
      <ele>86.811</ele>
      <time>2016-06-05T09:03:36Z</time>
    </trkpt>
    <trkpt lat="48.441985" lon="2.62737">
      <ele>86.617</ele>
      <time>2016-06-05T09:03:37Z</time>
    </trkpt>
    <trkpt lat="48.441942" lon="2.627228">
      <ele>86.094</ele>
      <time>2016-06-05T09:03:38Z</time>
    </trkpt>
    <trkpt lat="48.441912" lon="2.627084">
      <ele>86.203</ele>
      <time>2016-06-05T09:03:39Z</time>
    </trkpt>
    <trkpt lat="48.441868" lon="2.626955">
      <ele>86.689</ele>
      <time>2016-06-05T09:03:41Z</time>
    </trkpt>
    <trkpt lat="48.441828" lon="2.626833">
      <ele>87.515</ele>
      <time>2016-06-05T09:03:43Z</time>
    </trkpt>
    <trkpt lat="48.441743" lon="2.626647">
      <ele>89.3</ele>
      <time>2016-06-05T09:03:47Z</time>
    </trkpt>
    <trkpt lat="48.44167" lon="2.626491">
      <ele>90.303</ele>
      <time>2016-06-05T09:03:50Z</time>
    </trkpt>
    <trkpt lat="48.441614" lon="2.626308">
      <ele>90.569</ele>
      <time>2016-06-05T09:03:53Z</time>
    </trkpt>
    <trkpt lat="48.441545" lon="2.626203">
      <ele>91.314</ele>
      <time>2016-06-05T09:03:55Z</time>
    </trkpt>
    <trkpt lat="48.44155" lon="2.626067">
      <ele>91.193</ele>
      <time>2016-06-05T09:03:58Z</time>
    </trkpt>
    <trkpt lat="48.441494" lon="2.625942">
      <ele>91.486</ele>
      <time>2016-06-05T09:04:03Z</time>
    </trkpt>
    <trkpt lat="48.441445" lon="2.625759">
      <ele>91.65</ele>
      <time>2016-06-05T09:04:05Z</time>
    </trkpt>
    <trkpt lat="48.441384" lon="2.62565">
      <ele>92.024</ele>
      <time>2016-06-05T09:04:07Z</time>
    </trkpt>
    <trkpt lat="48.44134" lon="2.625496">
      <ele>92.138</ele>
      <time>2016-06-05T09:04:10Z</time>
    </trkpt>
    <trkpt lat="48.441279" lon="2.625262">
      <ele>91.943</ele>
      <time>2016-06-05T09:04:13Z</time>
    </trkpt>
    <trkpt lat="48.441235" lon="2.625144">
      <ele>91.518</ele>
      <time>2016-06-05T09:04:15Z</time>
    </trkpt>
    <trkpt lat="48.441153" lon="2.624936">
      <ele>90.804</ele>
      <time>2016-06-05T09:04:18Z</time>
    </trkpt>
    <trkpt lat="48.4411" lon="2.624653">
      <ele>89.771</ele>
      <time>2016-06-05T09:04:21Z</time>
    </trkpt>
    <trkpt lat="48.441073" lon="2.624494">
      <ele>89.404</ele>
      <time>2016-06-05T09:04:23Z</time>
    </trkpt>
    <trkpt lat="48.441054" lon="2.624337">
      <ele>89.718</ele>
      <time>2016-06-05T09:04:25Z</time>
    </trkpt>
    <trkpt lat="48.441015" lon="2.624189">
      <ele>90.293</ele>
      <time>2016-06-05T09:04:28Z</time>
    </trkpt>
    <trkpt lat="48.440955" lon="2.624073">
      <ele>90.941</ele>
      <time>2016-06-05T09:04:31Z</time>
    </trkpt>
    <trkpt lat="48.440844" lon="2.623917">
      <ele>92.69</ele>
      <time>2016-06-05T09:04:35Z</time>
    </trkpt>
    <trkpt lat="48.440932" lon="2.623825">
      <ele>92.313</ele>
      <time>2016-06-05T09:04:42Z</time>
    </trkpt>
    <trkpt lat="48.440878" lon="2.62365">
      <ele>94.099</ele>
      <time>2016-06-05T09:04:46Z</time>
    </trkpt>
    <trkpt lat="48.440905" lon="2.623423">
      <ele>94.82</ele>
      <time>2016-06-05T09:04:49Z</time>
    </trkpt>
    <trkpt lat="48.440994" lon="2.623309">
      <ele>94.352</ele>
      <time>2016-06-05T09:04:52Z</time>
    </trkpt>
    <trkpt lat="48.44102" lon="2.623063">
      <ele>94.957</ele>
      <time>2016-06-05T09:04:54Z</time>
    </trkpt>
    <trkpt lat="48.441039" lon="2.622858">
      <ele>96.017</ele>
      <time>2016-06-05T09:04:57Z</time>
    </trkpt>
    <trkpt lat="48.441144" lon="2.622798">
      <ele>95.618</ele>
      <time>2016-06-05T09:05:01Z</time>
    </trkpt>
    <trkpt lat="48.441168" lon="2.622603">
      <ele>96.22</ele>
      <time>2016-06-05T09:05:05Z</time>
    </trkpt>
    <trkpt lat="48.441209" lon="2.62244">
      <ele>96.511</ele>
      <time>2016-06-05T09:05:09Z</time>
    </trkpt>
    <trkpt lat="48.441168" lon="2.622292">
      <ele>97.339</ele>
      <time>2016-06-05T09:05:13Z</time>
    </trkpt>
    <trkpt lat="48.441138" lon="2.622121">
      <ele>97.842</ele>
      <time>2016-06-05T09:05:17Z</time>
    </trkpt>
    <trkpt lat="48.441069" lon="2.621963">
      <ele>98.0</ele>
      <time>2016-06-05T09:05:21Z</time>
    </trkpt>
    <trkpt lat="48.441006" lon="2.62185">
      <ele>98.0</ele>
      <time>2016-06-05T09:05:25Z</time>
    </trkpt>
    <trkpt lat="48.440948" lon="2.621736">
      <ele>98.0</ele>
      <time>2016-06-05T09:05:28Z</time>
    </trkpt>
    <trkpt lat="48.440878" lon="2.621585">
      <ele>98.047</ele>
      <time>2016-06-05T09:05:32Z</time>
    </trkpt>
    <trkpt lat="48.440798" lon="2.621478">
      <ele>98.127</ele>
      <time>2016-06-05T09:05:35Z</time>
    </trkpt>
    <trkpt lat="48.44071" lon="2.621329">
      <ele>98.348</ele>
      <time>2016-06-05T09:05:39Z</time>
    </trkpt>
    <trkpt lat="48.440644" lon="2.62113">
      <ele>98.046</ele>
      <time>2016-06-05T09:05:42Z</time>
    </trkpt>
    <trkpt lat="48.440586" lon="2.62097">
      <ele>98.0</ele>
      <time>2016-06-05T09:05:48Z</time>
    </trkpt>
    <trkpt lat="48.440518" lon="2.62085">
      <ele>98.279</ele>
      <time>2016-06-05T09:05:53Z</time>
    </trkpt>
    <trkpt lat="48.440438" lon="2.620786">
      <ele>98.873</ele>
      <time>2016-06-05T09:05:59Z</time>
    </trkpt>
    <trkpt lat="48.440379" lon="2.620638">
      <ele>99.08</ele>
      <time>2016-06-05T09:06:03Z</time>
    </trkpt>
    <trkpt lat="48.440325" lon="2.62049">
      <ele>99.0</ele>
      <time>2016-06-05T09:06:06Z</time>
    </trkpt>
    <trkpt lat="48.440263" lon="2.620284">
      <ele>99.056</ele>
      <time>2016-06-05T09:06:10Z</time>
    </trkpt>
    <trkpt lat="48.440168" lon="2.620296">
      <ele>99.447</ele>
      <time>2016-06-05T09:06:58Z</time>
    </trkpt>
    <trkpt lat="48.440069" lon="2.620269">
      <ele>99.728</ele>
      <time>2016-06-05T09:07:15Z</time>
    </trkpt>
    <trkpt lat="48.439997" lon="2.620175">
      <ele>99.648</ele>
      <time>2016-06-05T09:07:21Z</time>
    </trkpt>
    <trkpt lat="48.439935" lon="2.619991">
      <ele>99.226</ele>
      <time>2016-06-05T09:07:48Z</time>
    </trkpt>
    <trkpt lat="48.439877" lon="2.619886">
      <ele>99.261</ele>
      <time>2016-06-05T09:07:49Z</time>
    </trkpt>
    <trkpt lat="48.439792" lon="2.619829">
      <ele>99.288</ele>
      <time>2016-06-05T09:07:50Z</time>
    </trkpt>
    <trkpt lat="48.439681" lon="2.619697">
      <ele>99.077</ele>
      <time>2016-06-05T09:07:52Z</time>
    </trkpt>
    <trkpt lat="48.439588" lon="2.619549">
      <ele>99.322</ele>
      <time>2016-06-05T09:07:54Z</time>
    </trkpt>
    <trkpt lat="48.439499" lon="2.61948">
      <ele>99.171</ele>
      <time>2016-06-05T09:07:56Z</time>
    </trkpt>
    <trkpt lat="48.439396" lon="2.619412">
      <ele>99.039</ele>
      <time>2016-06-05T09:07:58Z</time>
    </trkpt>
    <trkpt lat="48.439281" lon="2.619241">
      <ele>99.445</ele>
      <time>2016-06-05T09:08:00Z</time>
    </trkpt>
    <trkpt lat="48.439178" lon="2.619141">
      <ele>99.17</ele>
      <time>2016-06-05T09:08:05Z</time>
    </trkpt>
    <trkpt lat="48.439071" lon="2.619088">
      <ele>98.594</ele>
      <time>2016-06-05T09:08:08Z</time>
    </trkpt>
    <trkpt lat="48.43895" lon="2.618982">
      <ele>98.105</ele>
      <time>2016-06-05T09:08:10Z</time>
    </trkpt>
    <trkpt lat="48.438867" lon="2.618865">
      <ele>98.0</ele>
      <time>2016-06-05T09:08:12Z</time>
    </trkpt>
    <trkpt lat="48.438763" lon="2.618789">
      <ele>97.743</ele>
      <time>2016-06-05T09:08:14Z</time>
    </trkpt>
    <trkpt lat="48.438661" lon="2.618702">
      <ele>97.3</ele>
      <time>2016-06-05T09:08:16Z</time>
    </trkpt>
    <trkpt lat="48.43855" lon="2.618724">
      <ele>96.78</ele>
      <time>2016-06-05T09:08:19Z</time>
    </trkpt>
    <trkpt lat="48.438461" lon="2.61868">
      <ele>96.46</ele>
      <time>2016-06-05T09:08:21Z</time>
    </trkpt>
    <trkpt lat="48.438338" lon="2.618664">
      <ele>96.017</ele>
      <time>2016-06-05T09:08:23Z</time>
    </trkpt>
    <trkpt lat="48.438225" lon="2.61857">
      <ele>95.61</ele>
      <time>2016-06-05T09:08:25Z</time>
    </trkpt>
    <trkpt lat="48.438109" lon="2.618355">
      <ele>95.192</ele>
      <time>2016-06-05T09:08:28Z</time>
    </trkpt>
    <trkpt lat="48.438012" lon="2.618263">
      <ele>94.59</ele>
      <time>2016-06-05T09:08:30Z</time>
    </trkpt>
    <trkpt lat="48.437915" lon="2.618213">
      <ele>94.061</ele>
      <time>2016-06-05T09:08:32Z</time>
    </trkpt>
    <trkpt lat="48.437813" lon="2.61817">
      <ele>93.539</ele>
      <time>2016-06-05T09:08:35Z</time>
    </trkpt>
    <trkpt lat="48.437725" lon="2.618107">
      <ele>93.15</ele>
      <time>2016-06-05T09:08:37Z</time>
    </trkpt>
    <trkpt lat="48.43765" lon="2.618002">
      <ele>93.0</ele>
      <time>2016-06-05T09:08:40Z</time>
    </trkpt>
    <trkpt lat="48.437568" lon="2.617938">
      <ele>93.0</ele>
      <time>2016-06-05T09:08:42Z</time>
    </trkpt>
    <trkpt lat="48.437457" lon="2.617948">
      <ele>92.905</ele>
      <time>2016-06-05T09:08:45Z</time>
    </trkpt>
    <trkpt lat="48.43737" lon="2.617855">
      <ele>92.87</ele>
      <time>2016-06-05T09:08:47Z</time>
    </trkpt>
    <trkpt lat="48.437265" lon="2.617704">
      <ele>92.959</ele>
      <time>2016-06-05T09:08:49Z</time>
    </trkpt>
    <trkpt lat="48.437176" lon="2.617639">
      <ele>92.917</ele>
      <time>2016-06-05T09:08:51Z</time>
    </trkpt>
    <trkpt lat="48.437082" lon="2.617548">
      <ele>92.913</ele>
      <time>2016-06-05T09:08:53Z</time>
    </trkpt>
    <trkpt lat="48.436987" lon="2.617463">
      <ele>93.113</ele>
      <time>2016-06-05T09:08:55Z</time>
    </trkpt>
    <trkpt lat="48.4369" lon="2.617363">
      <ele>93.333</ele>
      <time>2016-06-05T09:08:58Z</time>
    </trkpt>
    <trkpt lat="48.436818" lon="2.617269">
      <ele>93.376</ele>
      <time>2016-06-05T09:09:00Z</time>
    </trkpt>
    <trkpt lat="48.436757" lon="2.617157">
      <ele>93.718</ele>
      <time>2016-06-05T09:09:03Z</time>
    </trkpt>
    <trkpt lat="48.436769" lon="2.617016">
      <ele>94.58</ele>
      <time>2016-06-05T09:09:09Z</time>
    </trkpt>
    <trkpt lat="48.436749" lon="2.616826">
      <ele>95.426</ele>
      <time>2016-06-05T09:09:12Z</time>
    </trkpt>
    <trkpt lat="48.436856" lon="2.616672">
      <ele>95.981</ele>
      <time>2016-06-05T09:09:15Z</time>
    </trkpt>
    <trkpt lat="48.436916" lon="2.616503">
      <ele>96.529</ele>
      <time>2016-06-05T09:09:17Z</time>
    </trkpt>
    <trkpt lat="48.436932" lon="2.616356">
      <ele>96.961</ele>
      <time>2016-06-05T09:09:19Z</time>
    </trkpt>
    <trkpt lat="48.436953" lon="2.616017">
      <ele>96.672</ele>
      <time>2016-06-05T09:09:22Z</time>
    </trkpt>
    <trkpt lat="48.436925" lon="2.61587">
      <ele>96.132</ele>
      <time>2016-06-05T09:09:26Z</time>
    </trkpt>
    <trkpt lat="48.436936" lon="2.615656">
      <ele>95.381</ele>
      <time>2016-06-05T09:09:30Z</time>
    </trkpt>
    <trkpt lat="48.436907" lon="2.615521">
      <ele>95.242</ele>
      <time>2016-06-05T09:09:32Z</time>
    </trkpt>
    <trkpt lat="48.436887" lon="2.61536">
      <ele>95.765</ele>
      <time>2016-06-05T09:09:34Z</time>
    </trkpt>
    <trkpt lat="48.43685" lon="2.615186">
      <ele>96.218</ele>
      <time>2016-06-05T09:09:38Z</time>
    </trkpt>
    <trkpt lat="48.436811" lon="2.614988">
      <ele>96.563</ele>
      <time>2016-06-05T09:09:41Z</time>
    </trkpt>
    <trkpt lat="48.436852" lon="2.614858">
      <ele>97.178</ele>
      <time>2016-06-05T09:09:42Z</time>
    </trkpt>
    <trkpt lat="48.436869" lon="2.614694">
      <ele>97.83</ele>
      <time>2016-06-05T09:09:47Z</time>
    </trkpt>
    <trkpt lat="48.436944" lon="2.614818">
      <ele>97.654</ele>
      <time>2016-06-05T09:09:51Z</time>
    </trkpt>
    <trkpt lat="48.437007" lon="2.614685">
      <ele>98.329</ele>
      <time>2016-06-05T09:09:57Z</time>
    </trkpt>
    <trkpt lat="48.437024" lon="2.614506">
      <ele>98.842</ele>
      <time>2016-06-05T09:10:00Z</time>
    </trkpt>
    <trkpt lat="48.43711" lon="2.614429">
      <ele>99.056</ele>
      <time>2016-06-05T09:10:10Z</time>
    </trkpt>
    <trkpt lat="48.437091" lon="2.614294">
      <ele>99.542</ele>
      <time>2016-06-05T09:10:15Z</time>
    </trkpt>
    <trkpt lat="48.437013" lon="2.614153">
      <ele>100.061</ele>
      <time>2016-06-05T09:10:24Z</time>
    </trkpt>
    <trkpt lat="48.437011" lon="2.613994">
      <ele>100.771</ele>
      <time>2016-06-05T09:10:28Z</time>
    </trkpt>
    <trkpt lat="48.436988" lon="2.613799">
      <ele>101.531</ele>
      <time>2016-06-05T09:10:31Z</time>
    </trkpt>
    <trkpt lat="48.436922" lon="2.61367">
      <ele>101.869</ele>
      <time>2016-06-05T09:10:34Z</time>
    </trkpt>
    <trkpt lat="48.436926" lon="2.613513">
      <ele>102.443</ele>
      <time>2016-06-05T09:10:44Z</time>
    </trkpt>
    <trkpt lat="48.437011" lon="2.613557">
      <ele>102.721</ele>
      <time>2016-06-05T09:10:53Z</time>
    </trkpt>
    <trkpt lat="48.436954" lon="2.613438">
      <ele>102.713</ele>
      <time>2016-06-05T09:10:57Z</time>
    </trkpt>
    <trkpt lat="48.436907" lon="2.61331">
      <ele>103.354</ele>
      <time>2016-06-05T09:10:59Z</time>
    </trkpt>
    <trkpt lat="48.43687" lon="2.61317">
      <ele>104.124</ele>
      <time>2016-06-05T09:11:01Z</time>
    </trkpt>
    <trkpt lat="48.43681" lon="2.613047">
      <ele>105.045</ele>
      <time>2016-06-05T09:11:09Z</time>
    </trkpt>
    <trkpt lat="48.436737" lon="2.612915">
      <ele>106.883</ele>
      <time>2016-06-05T09:11:17Z</time>
    </trkpt>
    <trkpt lat="48.436695" lon="2.612739">
      <ele>109.224</ele>
      <time>2016-06-05T09:11:22Z</time>
    </trkpt>
    <trkpt lat="48.436654" lon="2.612418">
      <ele>113.437</ele>
      <time>2016-06-05T09:12:24Z</time>
    </trkpt>
    <trkpt lat="48.436634" lon="2.612221">
      <ele>114.301</ele>
      <time>2016-06-05T09:12:25Z</time>
    </trkpt>
    <trkpt lat="48.436632" lon="2.612026">
      <ele>115.521</ele>
      <time>2016-06-05T09:12:27Z</time>
    </trkpt>
    <trkpt lat="48.436605" lon="2.611845">
      <ele>116.497</ele>
      <time>2016-06-05T09:12:28Z</time>
    </trkpt>
    <trkpt lat="48.436602" lon="2.611675">
      <ele>116.118</ele>
      <time>2016-06-05T09:12:29Z</time>
    </trkpt>
    <trkpt lat="48.436616" lon="2.61152">
      <ele>114.921</ele>
      <time>2016-06-05T09:12:31Z</time>
    </trkpt>
    <trkpt lat="48.436617" lon="2.611339">
      <ele>114.252</ele>
      <time>2016-06-05T09:12:33Z</time>
    </trkpt>
    <trkpt lat="48.436629" lon="2.611044">
      <ele>114.191</ele>
      <time>2016-06-05T09:13:27Z</time>
    </trkpt>
    <trkpt lat="48.43669" lon="2.610923">
      <ele>113.677</ele>
      <time>2016-06-05T09:13:30Z</time>
    </trkpt>
    <trkpt lat="48.436744" lon="2.610812">
      <ele>114.055</ele>
      <time>2016-06-05T09:13:39Z</time>
    </trkpt>
    <trkpt lat="48.43683" lon="2.610751">
      <ele>114.122</ele>
      <time>2016-06-05T09:13:48Z</time>
    </trkpt>
    <trkpt lat="48.436918" lon="2.610687">
      <ele>114.05</ele>
      <time>2016-06-05T09:13:55Z</time>
    </trkpt>
    <trkpt lat="48.43702" lon="2.610735">
      <ele>114.544</ele>
      <time>2016-06-05T09:14:25Z</time>
    </trkpt>
    <trkpt lat="48.437051" lon="2.61054">
      <ele>114.724</ele>
      <time>2016-06-05T09:14:34Z</time>
    </trkpt>
    <trkpt lat="48.437143" lon="2.6105">
      <ele>115.144</ele>
      <time>2016-06-05T09:14:46Z</time>
    </trkpt>
    <trkpt lat="48.437132" lon="2.610336">
      <ele>114.283</ele>
      <time>2016-06-05T09:14:58Z</time>
    </trkpt>
    <trkpt lat="48.4372" lon="2.610241">
      <ele>113.735</ele>
      <time>2016-06-05T09:15:07Z</time>
    </trkpt>
    <trkpt lat="48.437213" lon="2.610048">
      <ele>112.346</ele>
      <time>2016-06-05T09:15:12Z</time>
    </trkpt>
    <trkpt lat="48.437208" lon="2.609868">
      <ele>110.574</ele>
      <time>2016-06-05T09:15:14Z</time>
    </trkpt>
    <trkpt lat="48.437209" lon="2.609726">
      <ele>109.041</ele>
      <time>2016-06-05T09:15:16Z</time>
    </trkpt>
    <trkpt lat="48.437304" lon="2.609725">
      <ele>108.444</ele>
      <time>2016-06-05T09:15:18Z</time>
    </trkpt>
    <trkpt lat="48.437246" lon="2.609543">
      <ele>106.893</ele>
      <time>2016-06-05T09:15:22Z</time>
    </trkpt>
    <trkpt lat="48.437171" lon="2.609439">
      <ele>106.168</ele>
      <time>2016-06-05T09:15:25Z</time>
    </trkpt>
    <trkpt lat="48.437125" lon="2.609313">
      <ele>106.042</ele>
      <time>2016-06-05T09:15:28Z</time>
    </trkpt>
    <trkpt lat="48.437234" lon="2.609342">
      <ele>105.531</ele>
      <time>2016-06-05T09:15:31Z</time>
    </trkpt>
    <trkpt lat="48.437349" lon="2.609271">
      <ele>104.178</ele>
      <time>2016-06-05T09:15:38Z</time>
    </trkpt>
    <trkpt lat="48.43734" lon="2.609104">
      <ele>103.502</ele>
      <time>2016-06-05T09:15:42Z</time>
    </trkpt>
    <trkpt lat="48.437424" lon="2.608986">
      <ele>102.17</ele>
      <time>2016-06-05T09:15:47Z</time>
    </trkpt>
    <trkpt lat="48.437464" lon="2.608844">
      <ele>101.389</ele>
      <time>2016-06-05T09:15:51Z</time>
    </trkpt>
    <trkpt lat="48.437562" lon="2.608811">
      <ele>100.839</ele>
      <time>2016-06-05T09:15:55Z</time>
    </trkpt>
    <trkpt lat="48.437587" lon="2.608668">
      <ele>100.936</ele>
      <time>2016-06-05T09:16:02Z</time>
    </trkpt>
    <trkpt lat="48.437625" lon="2.608371">
      <ele>100.611</ele>
      <time>2016-06-05T09:16:07Z</time>
    </trkpt>
    <trkpt lat="48.437722" lon="2.608381">
      <ele>100.338</ele>
      <time>2016-06-05T09:16:09Z</time>
    </trkpt>
    <trkpt lat="48.437799" lon="2.608304">
      <ele>99.992</ele>
      <time>2016-06-05T09:16:12Z</time>
    </trkpt>
    <trkpt lat="48.43787" lon="2.608067">
      <ele>99.682</ele>
      <time>2016-06-05T09:16:17Z</time>
    </trkpt>
    <trkpt lat="48.437901" lon="2.607934">
      <ele>99.119</ele>
      <time>2016-06-05T09:16:19Z</time>
    </trkpt>
    <trkpt lat="48.437925" lon="2.607786">
      <ele>98.5</ele>
      <time>2016-06-05T09:16:22Z</time>
    </trkpt>
    <trkpt lat="48.438019" lon="2.607846">
      <ele>98.377</ele>
      <time>2016-06-05T09:16:24Z</time>
    </trkpt>
    <trkpt lat="48.438129" lon="2.607756">
      <ele>97.657</ele>
      <time>2016-06-05T09:16:27Z</time>
    </trkpt>
    <trkpt lat="48.43822" lon="2.60769">
      <ele>97.092</ele>
      <time>2016-06-05T09:16:33Z</time>
    </trkpt>
    <trkpt lat="48.438222" lon="2.60755">
      <ele>96.581</ele>
      <time>2016-06-05T09:16:35Z</time>
    </trkpt>
    <trkpt lat="48.438299" lon="2.607428">
      <ele>95.864</ele>
      <time>2016-06-05T09:16:39Z</time>
    </trkpt>
    <trkpt lat="48.438278" lon="2.607234">
      <ele>95.242</ele>
      <time>2016-06-05T09:16:41Z</time>
    </trkpt>
    <trkpt lat="48.438363" lon="2.607164">
      <ele>95.107</ele>
      <time>2016-06-05T09:16:44Z</time>
    </trkpt>
    <trkpt lat="48.438362" lon="2.607016">
      <ele>95.103</ele>
      <time>2016-06-05T09:16:47Z</time>
    </trkpt>
    <trkpt lat="48.438491" lon="2.606994">
      <ele>95.568</ele>
      <time>2016-06-05T09:16:52Z</time>
    </trkpt>
    <trkpt lat="48.438564" lon="2.606848">
      <ele>95.601</ele>
      <time>2016-06-05T09:16:55Z</time>
    </trkpt>
    <trkpt lat="48.438661" lon="2.606809">
      <ele>95.512</ele>
      <time>2016-06-05T09:16:58Z</time>
    </trkpt>
    <trkpt lat="48.438716" lon="2.60664">
      <ele>94.964</ele>
      <time>2016-06-05T09:17:01Z</time>
    </trkpt>
    <trkpt lat="48.438737" lon="2.606504">
      <ele>94.735</ele>
      <time>2016-06-05T09:17:05Z</time>
    </trkpt>
    <trkpt lat="48.438834" lon="2.606391">
      <ele>94.204</ele>
      <time>2016-06-05T09:17:09Z</time>
    </trkpt>
    <trkpt lat="48.438867" lon="2.606149">
      <ele>93.283</ele>
      <time>2016-06-05T09:17:12Z</time>
    </trkpt>
    <trkpt lat="48.438886" lon="2.605952">
      <ele>93.015</ele>
      <time>2016-06-05T09:17:14Z</time>
    </trkpt>
    <trkpt lat="48.438852" lon="2.605734">
      <ele>93.085</ele>
      <time>2016-06-05T09:17:16Z</time>
    </trkpt>
    <trkpt lat="48.438931" lon="2.605512">
      <ele>92.872</ele>
      <time>2016-06-05T09:17:17Z</time>
    </trkpt>
    <trkpt lat="48.438972" lon="2.605376">
      <ele>92.894</ele>
      <time>2016-06-05T09:17:21Z</time>
    </trkpt>
    <trkpt lat="48.438954" lon="2.60513">
      <ele>93.249</ele>
      <time>2016-06-05T09:17:24Z</time>
    </trkpt>
    <trkpt lat="48.438937" lon="2.604855">
      <ele>93.346</ele>
      <time>2016-06-05T09:17:27Z</time>
    </trkpt>
    <trkpt lat="48.4389" lon="2.604619">
      <ele>93.437</ele>
      <time>2016-06-05T09:17:29Z</time>
    </trkpt>
    <trkpt lat="48.438808" lon="2.604518">
      <ele>93.23</ele>
      <time>2016-06-05T09:17:31Z</time>
    </trkpt>
    <trkpt lat="48.438733" lon="2.604421">
      <ele>92.925</ele>
      <time>2016-06-05T09:17:32Z</time>
    </trkpt>
    <trkpt lat="48.438665" lon="2.604269">
      <ele>92.897</ele>
      <time>2016-06-05T09:17:34Z</time>
    </trkpt>
    <trkpt lat="48.438801" lon="2.60418">
      <ele>93.668</ele>
      <time>2016-06-05T09:17:37Z</time>
    </trkpt>
    <trkpt lat="48.438734" lon="2.604022">
      <ele>94.023</ele>
      <time>2016-06-05T09:17:38Z</time>
    </trkpt>
    <trkpt lat="48.438754" lon="2.603848">
      <ele>94.486</ele>
      <time>2016-06-05T09:17:43Z</time>
    </trkpt>
    <trkpt lat="48.438875" lon="2.603746">
      <ele>94.05</ele>
      <time>2016-06-05T09:17:46Z</time>
    </trkpt>
    <trkpt lat="48.438833" lon="2.603531">
      <ele>94.49</ele>
      <time>2016-06-05T09:17:49Z</time>
    </trkpt>
    <trkpt lat="48.438724" lon="2.603543">
      <ele>94.839</ele>
      <time>2016-06-05T09:17:56Z</time>
    </trkpt>
    <trkpt lat="48.438633" lon="2.603546">
      <ele>95.156</ele>
      <time>2016-06-05T09:18:03Z</time>
    </trkpt>
    <trkpt lat="48.43853" lon="2.603579">
      <ele>95.666</ele>
      <time>2016-06-05T09:18:09Z</time>
    </trkpt>
    <trkpt lat="48.438426" lon="2.6036">
      <ele>96.346</ele>
      <time>2016-06-05T09:18:12Z</time>
    </trkpt>
    <trkpt lat="48.438316" lon="2.603588">
      <ele>97.068</ele>
      <time>2016-06-05T09:18:17Z</time>
    </trkpt>
    <trkpt lat="48.438186" lon="2.603625">
      <ele>97.48</ele>
      <time>2016-06-05T09:18:22Z</time>
    </trkpt>
    <trkpt lat="48.438144" lon="2.603746">
      <ele>97.196</ele>
      <time>2016-06-05T09:18:25Z</time>
    </trkpt>
    <trkpt lat="48.43806" lon="2.603662">
      <ele>97.801</ele>
      <time>2016-06-05T09:18:29Z</time>
    </trkpt>
    <trkpt lat="48.438043" lon="2.603797">
      <ele>97.421</ele>
      <time>2016-06-05T09:18:34Z</time>
    </trkpt>
    <trkpt lat="48.437954" lon="2.603756">
      <ele>98.21</ele>
      <time>2016-06-05T09:18:37Z</time>
    </trkpt>
    <trkpt lat="48.437837" lon="2.603744">
      <ele>99.095</ele>
      <time>2016-06-05T09:18:45Z</time>
    </trkpt>
    <trkpt lat="48.437746" lon="2.603771">
      <ele>99.653</ele>
      <time>2016-06-05T09:18:50Z</time>
    </trkpt>
    <trkpt lat="48.437639" lon="2.603696">
      <ele>100.694</ele>
      <time>2016-06-05T09:18:53Z</time>
    </trkpt>
    <trkpt lat="48.437528" lon="2.603706">
      <ele>101.457</ele>
      <time>2016-06-05T09:18:58Z</time>
    </trkpt>
    <trkpt lat="48.437479" lon="2.603842">
      <ele>101.471</ele>
      <time>2016-06-05T09:19:02Z</time>
    </trkpt>
    <trkpt lat="48.437386" lon="2.603829">
      <ele>102.857</ele>
      <time>2016-06-05T09:19:10Z</time>
    </trkpt>
    <trkpt lat="48.437301" lon="2.603734">
      <ele>104.423</ele>
      <time>2016-06-05T09:19:14Z</time>
    </trkpt>
    <trkpt lat="48.437213" lon="2.603784">
      <ele>105.49</ele>
      <time>2016-06-05T09:19:23Z</time>
    </trkpt>
    <trkpt lat="48.437125" lon="2.603872">
      <ele>106.132</ele>
      <time>2016-06-05T09:19:30Z</time>
    </trkpt>
    <trkpt lat="48.437046" lon="2.60377">
      <ele>107.603</ele>
      <time>2016-06-05T09:19:32Z</time>
    </trkpt>
    <trkpt lat="48.436926" lon="2.60372">
      <ele>109.216</ele>
      <time>2016-06-05T09:19:34Z</time>
    </trkpt>
    <trkpt lat="48.436892" lon="2.603561">
      <ele>110.293</ele>
      <time>2016-06-05T09:19:37Z</time>
    </trkpt>
    <trkpt lat="48.436834" lon="2.60367">
      <ele>109.576</ele>
      <time>2016-06-05T09:19:44Z</time>
    </trkpt>
    <trkpt lat="48.436796" lon="2.603817">
      <ele>108.518</ele>
      <time>2016-06-05T09:19:55Z</time>
    </trkpt>
    <trkpt lat="48.436759" lon="2.603978">
      <ele>107.358</ele>
      <time>2016-06-05T09:20:00Z</time>
    </trkpt>
    <trkpt lat="48.436768" lon="2.604153">
      <ele>106.098</ele>
      <time>2016-06-05T09:20:09Z</time>
    </trkpt>
    <trkpt lat="48.436719" lon="2.604303">
      <ele>105.417</ele>
      <time>2016-06-05T09:20:15Z</time>
    </trkpt>
    <trkpt lat="48.436699" lon="2.604459">
      <ele>104.837</ele>
      <time>2016-06-05T09:20:17Z</time>
    </trkpt>
    <trkpt lat="48.436587" lon="2.604477">
      <ele>104.343</ele>
      <time>2016-06-05T09:20:20Z</time>
    </trkpt>
    <trkpt lat="48.436492" lon="2.604519">
      <ele>103.643</ele>
      <time>2016-06-05T09:20:24Z</time>
    </trkpt>
    <trkpt lat="48.436399" lon="2.604537">
      <ele>103.061</ele>
      <time>2016-06-05T09:20:27Z</time>
    </trkpt>
    <trkpt lat="48.436316" lon="2.604669">
      <ele>102.475</ele>
      <time>2016-06-05T09:20:30Z</time>
    </trkpt>
    <trkpt lat="48.436219" lon="2.604792">
      <ele>101.972</ele>
      <time>2016-06-05T09:20:33Z</time>
    </trkpt>
    <trkpt lat="48.436166" lon="2.604937">
      <ele>101.701</ele>
      <time>2016-06-05T09:20:35Z</time>
    </trkpt>
    <trkpt lat="48.436106" lon="2.605062">
      <ele>101.665</ele>
      <time>2016-06-05T09:20:37Z</time>
    </trkpt>
    <trkpt lat="48.436057" lon="2.605226">
      <ele>103.282</ele>
      <time>2016-06-05T09:20:39Z</time>
    </trkpt>
    <trkpt lat="48.435965" lon="2.605361">
      <ele>104.215</ele>
      <time>2016-06-05T09:20:44Z</time>
    </trkpt>
    <trkpt lat="48.43593" lon="2.60554">
      <ele>105.565</ele>
      <time>2016-06-05T09:20:46Z</time>
    </trkpt>
    <trkpt lat="48.435851" lon="2.60566">
      <ele>105.527</ele>
      <time>2016-06-05T09:20:49Z</time>
    </trkpt>
    <trkpt lat="48.435803" lon="2.605799">
      <ele>105.767</ele>
      <time>2016-06-05T09:20:52Z</time>
    </trkpt>
    <trkpt lat="48.43578" lon="2.605946">
      <ele>106.214</ele>
      <time>2016-06-05T09:20:55Z</time>
    </trkpt>
    <trkpt lat="48.435727" lon="2.60608">
      <ele>106.505</ele>
      <time>2016-06-05T09:20:58Z</time>
    </trkpt>
    <trkpt lat="48.435689" lon="2.606233">
      <ele>106.919</ele>
      <time>2016-06-05T09:21:01Z</time>
    </trkpt>
    <trkpt lat="48.435599" lon="2.606269">
      <ele>106.725</ele>
      <time>2016-06-05T09:21:06Z</time>
    </trkpt>
    <trkpt lat="48.435524" lon="2.606402">
      <ele>107.435</ele>
      <time>2016-06-05T09:21:12Z</time>
    </trkpt>
    <trkpt lat="48.435435" lon="2.606463">
      <ele>108.836</ele>
      <time>2016-06-05T09:21:18Z</time>
    </trkpt>
    <trkpt lat="48.435323" lon="2.606528">
      <ele>110.513</ele>
      <time>2016-06-05T09:21:22Z</time>
    </trkpt>
    <trkpt lat="48.435235" lon="2.606574">
      <ele>111.846</ele>
      <time>2016-06-05T09:21:28Z</time>
    </trkpt>
    <trkpt lat="48.435121" lon="2.60663">
      <ele>113.504</ele>
      <time>2016-06-05T09:21:33Z</time>
    </trkpt>
    <trkpt lat="48.435026" lon="2.606691">
      <ele>114.727</ele>
      <time>2016-06-05T09:21:42Z</time>
    </trkpt>
    <trkpt lat="48.434989" lon="2.606826">
      <ele>115.119</ele>
      <time>2016-06-05T09:21:50Z</time>
    </trkpt>
    <trkpt lat="48.434876" lon="2.606784">
      <ele>116.339</ele>
      <time>2016-06-05T09:21:55Z</time>
    </trkpt>
    <trkpt lat="48.43485" lon="2.60692">
      <ele>116.62</ele>
      <time>2016-06-05T09:21:59Z</time>
    </trkpt>
    <trkpt lat="48.434944" lon="2.606957">
      <ele>115.605</ele>
      <time>2016-06-05T09:22:13Z</time>
    </trkpt>
    <trkpt lat="48.434892" lon="2.606845">
      <ele>116.166</ele>
      <time>2016-06-05T09:22:39Z</time>
    </trkpt>
    <trkpt lat="48.434781" lon="2.606873">
      <ele>117.365</ele>
      <time>2016-06-05T09:23:38Z</time>
    </trkpt>
    <trkpt lat="48.434664" lon="2.606899">
      <ele>118.697</ele>
      <time>2016-06-05T09:23:41Z</time>
    </trkpt>
    <trkpt lat="48.43457" lon="2.606962">
      <ele>119.679</ele>
      <time>2016-06-05T09:23:48Z</time>
    </trkpt>
    <trkpt lat="48.434449" lon="2.607018">
      <ele>121.211</ele>
      <time>2016-06-05T09:23:52Z</time>
    </trkpt>
    <trkpt lat="48.434356" lon="2.607011">
      <ele>122.437</ele>
      <time>2016-06-05T09:23:58Z</time>
    </trkpt>
    <trkpt lat="48.434244" lon="2.607067">
      <ele>124.009</ele>
      <time>2016-06-05T09:24:01Z</time>
    </trkpt>
    <trkpt lat="48.434145" lon="2.606983">
      <ele>125.089</ele>
      <time>2016-06-05T09:24:13Z</time>
    </trkpt>
    <trkpt lat="48.434065" lon="2.606908">
      <ele>125.366</ele>
      <time>2016-06-05T09:24:23Z</time>
    </trkpt>
    <trkpt lat="48.433983" lon="2.607038">
      <ele>125.884</ele>
      <time>2016-06-05T09:24:28Z</time>
    </trkpt>
    <trkpt lat="48.433921" lon="2.606913">
      <ele>125.884</ele>
      <time>2016-06-05T09:24:30Z</time>
    </trkpt>
    <trkpt lat="48.433814" lon="2.606937">
      <ele>125.993</ele>
      <time>2016-06-05T09:24:50Z</time>
    </trkpt>
    <trkpt lat="48.43373" lon="2.60688">
      <ele>125.867</ele>
      <time>2016-06-05T09:24:58Z</time>
    </trkpt>
    <trkpt lat="48.433641" lon="2.606829">
      <ele>125.629</ele>
      <time>2016-06-05T09:25:30Z</time>
    </trkpt>
    <trkpt lat="48.433525" lon="2.606771">
      <ele>125.066</ele>
      <time>2016-06-05T09:25:34Z</time>
    </trkpt>
    <trkpt lat="48.433424" lon="2.606661">
      <ele>124.313</ele>
      <time>2016-06-05T09:25:37Z</time>
    </trkpt>
    <trkpt lat="48.433329" lon="2.606577">
      <ele>123.657</ele>
      <time>2016-06-05T09:25:39Z</time>
    </trkpt>
    <trkpt lat="48.433214" lon="2.606552">
      <ele>122.98</ele>
      <time>2016-06-05T09:25:41Z</time>
    </trkpt>
    <trkpt lat="48.433137" lon="2.606402">
      <ele>121.667</ele>
      <time>2016-06-05T09:25:43Z</time>
    </trkpt>
    <trkpt lat="48.43312" lon="2.606266">
      <ele>120.682</ele>
      <time>2016-06-05T09:25:45Z</time>
    </trkpt>
    <trkpt lat="48.433049" lon="2.60616">
      <ele>119.281</ele>
      <time>2016-06-05T09:25:47Z</time>
    </trkpt>
    <trkpt lat="48.432992" lon="2.606052">
      <ele>118.149</ele>
      <time>2016-06-05T09:25:49Z</time>
    </trkpt>
    <trkpt lat="48.43293" lon="2.605919">
      <ele>117.265</ele>
      <time>2016-06-05T09:25:51Z</time>
    </trkpt>
    <trkpt lat="48.432899" lon="2.605777">
      <ele>116.759</ele>
      <time>2016-06-05T09:25:53Z</time>
    </trkpt>
    <trkpt lat="48.432849" lon="2.605618">
      <ele>115.936</ele>
      <time>2016-06-05T09:25:55Z</time>
    </trkpt>
    <trkpt lat="48.432804" lon="2.60546">
      <ele>115.283</ele>
      <time>2016-06-05T09:25:57Z</time>
    </trkpt>
    <trkpt lat="48.432729" lon="2.60531">
      <ele>115.196</ele>
      <time>2016-06-05T09:25:59Z</time>
    </trkpt>
    <trkpt lat="48.432656" lon="2.605163">
      <ele>115.257</ele>
      <time>2016-06-05T09:26:01Z</time>
    </trkpt>
    <trkpt lat="48.432593" lon="2.605025">
      <ele>115.06</ele>
      <time>2016-06-05T09:26:03Z</time>
    </trkpt>
    <trkpt lat="48.432535" lon="2.604886">
      <ele>114.59</ele>
      <time>2016-06-05T09:26:05Z</time>
    </trkpt>
    <trkpt lat="48.432476" lon="2.604734">
      <ele>114.129</ele>
      <time>2016-06-05T09:26:07Z</time>
    </trkpt>
    <trkpt lat="48.432422" lon="2.604594">
      <ele>113.819</ele>
      <time>2016-06-05T09:26:09Z</time>
    </trkpt>
    <trkpt lat="48.432335" lon="2.604465">
      <ele>113.668</ele>
      <time>2016-06-05T09:26:12Z</time>
    </trkpt>
    <trkpt lat="48.432251" lon="2.604412">
      <ele>113.78</ele>
      <time>2016-06-05T09:26:15Z</time>
    </trkpt>
    <trkpt lat="48.432175" lon="2.604488">
      <ele>114.21</ele>
      <time>2016-06-05T09:26:19Z</time>
    </trkpt>
    <trkpt lat="48.432105" lon="2.604593">
      <ele>114.986</ele>
      <time>2016-06-05T09:26:25Z</time>
    </trkpt>
    <trkpt lat="48.432006" lon="2.60473">
      <ele>116.607</ele>
      <time>2016-06-05T09:26:31Z</time>
    </trkpt>
    <trkpt lat="48.431933" lon="2.604811">
      <ele>117.778</ele>
      <time>2016-06-05T09:26:37Z</time>
    </trkpt>
    <trkpt lat="48.431837" lon="2.604885">
      <ele>119.266</ele>
      <time>2016-06-05T09:26:40Z</time>
    </trkpt>
    <trkpt lat="48.431756" lon="2.604954">
      <ele>120.25</ele>
      <time>2016-06-05T09:26:44Z</time>
    </trkpt>
    <trkpt lat="48.431669" lon="2.605073">
      <ele>121.244</ele>
      <time>2016-06-05T09:26:52Z</time>
    </trkpt>
    <trkpt lat="48.43159" lon="2.605152">
      <ele>122.5</ele>
      <time>2016-06-05T09:26:56Z</time>
    </trkpt>
    <trkpt lat="48.431521" lon="2.605254">
      <ele>123.532</ele>
      <time>2016-06-05T09:27:02Z</time>
    </trkpt>
    <trkpt lat="48.431437" lon="2.605353">
      <ele>124.48</ele>
      <time>2016-06-05T09:27:09Z</time>
    </trkpt>
    <trkpt lat="48.431372" lon="2.605447">
      <ele>125.304</ele>
      <time>2016-06-05T09:27:14Z</time>
    </trkpt>
    <trkpt lat="48.431293" lon="2.605535">
      <ele>126.726</ele>
      <time>2016-06-05T09:27:21Z</time>
    </trkpt>
    <trkpt lat="48.431212" lon="2.605601">
      <ele>128.303</ele>
      <time>2016-06-05T09:27:27Z</time>
    </trkpt>
    <trkpt lat="48.431131" lon="2.605705">
      <ele>129.719</ele>
      <time>2016-06-05T09:27:35Z</time>
    </trkpt>
    <trkpt lat="48.431086" lon="2.605824">
      <ele>130.181</ele>
      <time>2016-06-05T09:27:43Z</time>
    </trkpt>
    <trkpt lat="48.431043" lon="2.605946">
      <ele>131.202</ele>
      <time>2016-06-05T09:27:49Z</time>
    </trkpt>
    <trkpt lat="48.431008" lon="2.606072">
      <ele>132.142</ele>
      <time>2016-06-05T09:27:55Z</time>
    </trkpt>
    <trkpt lat="48.430991" lon="2.606207">
      <ele>132.778</ele>
      <time>2016-06-05T09:28:04Z</time>
    </trkpt>
    <trkpt lat="48.430972" lon="2.606346">
      <ele>133.346</ele>
      <time>2016-06-05T09:28:14Z</time>
    </trkpt>
    <trkpt lat="48.430956" lon="2.60648">
      <ele>133.886</ele>
      <time>2016-06-05T09:28:22Z</time>
    </trkpt>
    <trkpt lat="48.430912" lon="2.606616">
      <ele>134.534</ele>
      <time>2016-06-05T09:28:30Z</time>
    </trkpt>
    <trkpt lat="48.430924" lon="2.606761">
      <ele>135.131</ele>
      <time>2016-06-05T09:28:38Z</time>
    </trkpt>
    <trkpt lat="48.430887" lon="2.606899">
      <ele>136.156</ele>
      <time>2016-06-05T09:28:45Z</time>
    </trkpt>
    <trkpt lat="48.430799" lon="2.606935">
      <ele>137.056</ele>
      <time>2016-06-05T09:28:52Z</time>
    </trkpt>
    <trkpt lat="48.430708" lon="2.606877">
      <ele>136.966</ele>
      <time>2016-06-05T09:28:59Z</time>
    </trkpt>
    <trkpt lat="48.430596" lon="2.606809">
      <ele>136.879</ele>
      <time>2016-06-05T09:29:04Z</time>
    </trkpt>
    <trkpt lat="48.430493" lon="2.606732">
      <ele>136.643</ele>
      <time>2016-06-05T09:29:09Z</time>
    </trkpt>
    <trkpt lat="48.430392" lon="2.606639">
      <ele>136.489</ele>
      <time>2016-06-05T09:29:13Z</time>
    </trkpt>
    <trkpt lat="48.4303" lon="2.606609">
      <ele>136.712</ele>
      <time>2016-06-05T09:29:16Z</time>
    </trkpt>
    <trkpt lat="48.430218" lon="2.606529">
      <ele>136.72</ele>
      <time>2016-06-05T09:29:20Z</time>
    </trkpt>
    <trkpt lat="48.43014" lon="2.60646">
      <ele>136.752</ele>
      <time>2016-06-05T09:29:23Z</time>
    </trkpt>
    <trkpt lat="48.430058" lon="2.606401">
      <ele>136.835</ele>
      <time>2016-06-05T09:29:25Z</time>
    </trkpt>
    <trkpt lat="48.429989" lon="2.606299">
      <ele>136.716</ele>
      <time>2016-06-05T09:29:29Z</time>
    </trkpt>
    <trkpt lat="48.42989" lon="2.606206">
      <ele>136.738</ele>
      <time>2016-06-05T09:29:33Z</time>
    </trkpt>
    <trkpt lat="48.429797" lon="2.606202">
      <ele>137.058</ele>
      <time>2016-06-05T09:29:35Z</time>
    </trkpt>
    <trkpt lat="48.429681" lon="2.606114">
      <ele>137.01</ele>
      <time>2016-06-05T09:29:39Z</time>
    </trkpt>
    <trkpt lat="48.429579" lon="2.60606">
      <ele>136.816</ele>
      <time>2016-06-05T09:29:43Z</time>
    </trkpt>
    <trkpt lat="48.429464" lon="2.605987">
      <ele>136.553</ele>
      <time>2016-06-05T09:29:46Z</time>
    </trkpt>
    <trkpt lat="48.429402" lon="2.605887">
      <ele>136.07</ele>
      <time>2016-06-05T09:29:48Z</time>
    </trkpt>
    <trkpt lat="48.429303" lon="2.605812">
      <ele>135.376</ele>
      <time>2016-06-05T09:29:51Z</time>
    </trkpt>
    <trkpt lat="48.429207" lon="2.605752">
      <ele>134.81</ele>
      <time>2016-06-05T09:29:54Z</time>
    </trkpt>
    <trkpt lat="48.429091" lon="2.605678">
      <ele>134.713</ele>
      <time>2016-06-05T09:29:57Z</time>
    </trkpt>
    <trkpt lat="48.429007" lon="2.605616">
      <ele>134.792</ele>
      <time>2016-06-05T09:30:00Z</time>
    </trkpt>
    <trkpt lat="48.428898" lon="2.605531">
      <ele>134.788</ele>
      <time>2016-06-05T09:30:03Z</time>
    </trkpt>
    <trkpt lat="48.428794" lon="2.605472">
      <ele>134.501</ele>
      <time>2016-06-05T09:30:06Z</time>
    </trkpt>
    <trkpt lat="48.428703" lon="2.605433">
      <ele>134.413</ele>
      <time>2016-06-05T09:30:08Z</time>
    </trkpt>
    <trkpt lat="48.428604" lon="2.605338">
      <ele>134.197</ele>
      <time>2016-06-05T09:30:11Z</time>
    </trkpt>
    <trkpt lat="48.428493" lon="2.605262">
      <ele>133.429</ele>
      <time>2016-06-05T09:30:14Z</time>
    </trkpt>
    <trkpt lat="48.428402" lon="2.605216">
      <ele>132.747</ele>
      <time>2016-06-05T09:30:17Z</time>
    </trkpt>
    <trkpt lat="48.42831" lon="2.605249">
      <ele>132.55</ele>
      <time>2016-06-05T09:30:21Z</time>
    </trkpt>
    <trkpt lat="48.428197" lon="2.605277">
      <ele>131.523</ele>
      <time>2016-06-05T09:30:24Z</time>
    </trkpt>
    <trkpt lat="48.428095" lon="2.605329">
      <ele>130.795</ele>
      <time>2016-06-05T09:30:27Z</time>
    </trkpt>
    <trkpt lat="48.427996" lon="2.605389">
      <ele>129.943</ele>
      <time>2016-06-05T09:30:30Z</time>
    </trkpt>
    <trkpt lat="48.427891" lon="2.60545">
      <ele>128.87</ele>
      <time>2016-06-05T09:30:33Z</time>
    </trkpt>
    <trkpt lat="48.427805" lon="2.60549">
      <ele>127.92</ele>
      <time>2016-06-05T09:30:36Z</time>
    </trkpt>
    <trkpt lat="48.427707" lon="2.605574">
      <ele>127.878</ele>
      <time>2016-06-05T09:31:31Z</time>
    </trkpt>
    <trkpt lat="48.42774" lon="2.605726">
      <ele>129.091</ele>
      <time>2016-06-05T09:31:37Z</time>
    </trkpt>
    <trkpt lat="48.427763" lon="2.605862">
      <ele>130.153</ele>
      <time>2016-06-05T09:31:41Z</time>
    </trkpt>
    <trkpt lat="48.42779" lon="2.606034">
      <ele>131.545</ele>
      <time>2016-06-05T09:31:45Z</time>
    </trkpt>
    <trkpt lat="48.427822" lon="2.606183">
      <ele>132.577</ele>
      <time>2016-06-05T09:31:49Z</time>
    </trkpt>
    <trkpt lat="48.427799" lon="2.606333">
      <ele>132.952</ele>
      <time>2016-06-05T09:31:51Z</time>
    </trkpt>
    <trkpt lat="48.42784" lon="2.606462">
      <ele>133.711</ele>
      <time>2016-06-05T09:31:55Z</time>
    </trkpt>
    <trkpt lat="48.427894" lon="2.606603">
      <ele>134.608</ele>
      <time>2016-06-05T09:31:58Z</time>
    </trkpt>
    <trkpt lat="48.427923" lon="2.606792">
      <ele>135.261</ele>
      <time>2016-06-05T09:32:02Z</time>
    </trkpt>
    <trkpt lat="48.427949" lon="2.606963">
      <ele>135.616</ele>
      <time>2016-06-05T09:32:05Z</time>
    </trkpt>
    <trkpt lat="48.427984" lon="2.607094">
      <ele>135.742</ele>
      <time>2016-06-05T09:32:08Z</time>
    </trkpt>
    <trkpt lat="48.428017" lon="2.607239">
      <ele>135.922</ele>
      <time>2016-06-05T09:32:11Z</time>
    </trkpt>
    <trkpt lat="48.428002" lon="2.607384">
      <ele>136.39</ele>
      <time>2016-06-05T09:32:13Z</time>
    </trkpt>
    <trkpt lat="48.42804" lon="2.607539">
      <ele>136.936</ele>
      <time>2016-06-05T09:32:16Z</time>
    </trkpt>
    <trkpt lat="48.428078" lon="2.607706">
      <ele>137.141</ele>
      <time>2016-06-05T09:32:19Z</time>
    </trkpt>
    <trkpt lat="48.428104" lon="2.607866">
      <ele>137.293</ele>
      <time>2016-06-05T09:32:22Z</time>
    </trkpt>
    <trkpt lat="48.428083" lon="2.608073">
      <ele>137.042</ele>
      <time>2016-06-05T09:32:25Z</time>
    </trkpt>
    <trkpt lat="48.428088" lon="2.608222">
      <ele>136.588</ele>
      <time>2016-06-05T09:32:27Z</time>
    </trkpt>
    <trkpt lat="48.428066" lon="2.608383">
      <ele>136.075</ele>
      <time>2016-06-05T09:32:29Z</time>
    </trkpt>
    <trkpt lat="48.428079" lon="2.608525">
      <ele>136.169</ele>
      <time>2016-06-05T09:32:32Z</time>
    </trkpt>
    <trkpt lat="48.42801" lon="2.608614">
      <ele>135.341</ele>
      <time>2016-06-05T09:32:52Z</time>
    </trkpt>
    <trkpt lat="48.427979" lon="2.608745">
      <ele>134.632</ele>
      <time>2016-06-05T09:32:57Z</time>
    </trkpt>
    <trkpt lat="48.427924" lon="2.608862">
      <ele>133.25</ele>
      <time>2016-06-05T09:33:02Z</time>
    </trkpt>
    <trkpt lat="48.427897" lon="2.609026">
      <ele>132.787</ele>
      <time>2016-06-05T09:33:27Z</time>
    </trkpt>
    <trkpt lat="48.427867" lon="2.609205">
      <ele>132.48</ele>
      <time>2016-06-05T09:33:30Z</time>
    </trkpt>
    <trkpt lat="48.427823" lon="2.609343">
      <ele>132.306</ele>
      <time>2016-06-05T09:33:35Z</time>
    </trkpt>
    <trkpt lat="48.427876" lon="2.609215">
      <ele>132.762</ele>
      <time>2016-06-05T09:33:54Z</time>
    </trkpt>
    <trkpt lat="48.427883" lon="2.609062">
      <ele>132.509</ele>
      <time>2016-06-05T09:33:59Z</time>
    </trkpt>
    <trkpt lat="48.427905" lon="2.608897">
      <ele>132.761</ele>
      <time>2016-06-05T09:34:03Z</time>
    </trkpt>
    <trkpt lat="48.427923" lon="2.60871">
      <ele>133.751</ele>
      <time>2016-06-05T09:34:07Z</time>
    </trkpt>
    <trkpt lat="48.427911" lon="2.608531">
      <ele>134.068</ele>
      <time>2016-06-05T09:34:10Z</time>
    </trkpt>
    <trkpt lat="48.427876" lon="2.60836">
      <ele>133.999</ele>
      <time>2016-06-05T09:34:13Z</time>
    </trkpt>
    <trkpt lat="48.427764" lon="2.608395">
      <ele>132.657</ele>
      <time>2016-06-05T09:34:16Z</time>
    </trkpt>
    <trkpt lat="48.427693" lon="2.608485">
      <ele>131.51</ele>
      <time>2016-06-05T09:34:21Z</time>
    </trkpt>
    <trkpt lat="48.427765" lon="2.608625">
      <ele>131.716</ele>
      <time>2016-06-05T09:34:29Z</time>
    </trkpt>
    <trkpt lat="48.427685" lon="2.608693">
      <ele>130.074</ele>
      <time>2016-06-05T09:34:33Z</time>
    </trkpt>
    <trkpt lat="48.427647" lon="2.608847">
      <ele>128.418</ele>
      <time>2016-06-05T09:34:43Z</time>
    </trkpt>
    <trkpt lat="48.427545" lon="2.60885">
      <ele>126.928</ele>
      <time>2016-06-05T09:34:45Z</time>
    </trkpt>
    <trkpt lat="48.427447" lon="2.608926">
      <ele>125.243</ele>
      <time>2016-06-05T09:34:48Z</time>
    </trkpt>
    <trkpt lat="48.427379" lon="2.609065">
      <ele>123.507</ele>
      <time>2016-06-05T09:34:51Z</time>
    </trkpt>
    <trkpt lat="48.427248" lon="2.609179">
      <ele>120.468</ele>
      <time>2016-06-05T09:34:54Z</time>
    </trkpt>
    <trkpt lat="48.427149" lon="2.609223">
      <ele>118.946</ele>
      <time>2016-06-05T09:34:56Z</time>
    </trkpt>
    <trkpt lat="48.427058" lon="2.609256">
      <ele>117.635</ele>
      <time>2016-06-05T09:34:57Z</time>
    </trkpt>
    <trkpt lat="48.426922" lon="2.609298">
      <ele>115.719</ele>
      <time>2016-06-05T09:34:59Z</time>
    </trkpt>
    <trkpt lat="48.426811" lon="2.609343">
      <ele>114.254</ele>
      <time>2016-06-05T09:35:01Z</time>
    </trkpt>
    <trkpt lat="48.426691" lon="2.609288">
      <ele>112.864</ele>
      <time>2016-06-05T09:35:04Z</time>
    </trkpt>
    <trkpt lat="48.426561" lon="2.609357">
      <ele>111.554</ele>
      <time>2016-06-05T09:35:06Z</time>
    </trkpt>
    <trkpt lat="48.426441" lon="2.609367">
      <ele>110.654</ele>
      <time>2016-06-05T09:35:08Z</time>
    </trkpt>
    <trkpt lat="48.426309" lon="2.609458">
      <ele>109.376</ele>
      <time>2016-06-05T09:35:10Z</time>
    </trkpt>
    <trkpt lat="48.42622" lon="2.609475">
      <ele>108.674</ele>
      <time>2016-06-05T09:35:12Z</time>
    </trkpt>
    <trkpt lat="48.42611" lon="2.609543">
      <ele>107.639</ele>
      <time>2016-06-05T09:35:15Z</time>
    </trkpt>
    <trkpt lat="48.426005" lon="2.609658">
      <ele>106.761</ele>
      <time>2016-06-05T09:35:17Z</time>
    </trkpt>
    <trkpt lat="48.425891" lon="2.609773">
      <ele>106.208</ele>
      <time>2016-06-05T09:35:19Z</time>
    </trkpt>
    <trkpt lat="48.425764" lon="2.60991">
      <ele>105.501</ele>
      <time>2016-06-05T09:35:21Z</time>
    </trkpt>
    <trkpt lat="48.425637" lon="2.610017">
      <ele>104.586</ele>
      <time>2016-06-05T09:35:23Z</time>
    </trkpt>
    <trkpt lat="48.425537" lon="2.610172">
      <ele>103.892</ele>
      <time>2016-06-05T09:35:25Z</time>
    </trkpt>
    <trkpt lat="48.425404" lon="2.610363">
      <ele>103.216</ele>
      <time>2016-06-05T09:35:28Z</time>
    </trkpt>
    <trkpt lat="48.425298" lon="2.610509">
      <ele>102.978</ele>
      <time>2016-06-05T09:35:30Z</time>
    </trkpt>
    <trkpt lat="48.42519" lon="2.610657">
      <ele>102.733</ele>
      <time>2016-06-05T09:35:32Z</time>
    </trkpt>
    <trkpt lat="48.425089" lon="2.610704">
      <ele>102.175</ele>
      <time>2016-06-05T09:35:34Z</time>
    </trkpt>
    <trkpt lat="48.425024" lon="2.610828">
      <ele>102.154</ele>
      <time>2016-06-05T09:35:36Z</time>
    </trkpt>
    <trkpt lat="48.424924" lon="2.610948">
      <ele>101.866</ele>
      <time>2016-06-05T09:35:38Z</time>
    </trkpt>
    <trkpt lat="48.424834" lon="2.611043">
      <ele>101.56</ele>
      <time>2016-06-05T09:35:40Z</time>
    </trkpt>
    <trkpt lat="48.424735" lon="2.611145">
      <ele>101.214</ele>
      <time>2016-06-05T09:35:42Z</time>
    </trkpt>
    <trkpt lat="48.424625" lon="2.611267">
      <ele>101.211</ele>
      <time>2016-06-05T09:35:45Z</time>
    </trkpt>
    <trkpt lat="48.424546" lon="2.611373">
      <ele>101.308</ele>
      <time>2016-06-05T09:35:48Z</time>
    </trkpt>
    <trkpt lat="48.424456" lon="2.611484">
      <ele>101.398</ele>
      <time>2016-06-05T09:35:51Z</time>
    </trkpt>
    <trkpt lat="48.424365" lon="2.611598">
      <ele>101.467</ele>
      <time>2016-06-05T09:35:54Z</time>
    </trkpt>
    <trkpt lat="48.424276" lon="2.611726">
      <ele>101.394</ele>
      <time>2016-06-05T09:35:57Z</time>
    </trkpt>
    <trkpt lat="48.424254" lon="2.611872">
      <ele>101.314</ele>
      <time>2016-06-05T09:36:01Z</time>
    </trkpt>
    <trkpt lat="48.424319" lon="2.611981">
      <ele>101.489</ele>
      <time>2016-06-05T09:36:07Z</time>
    </trkpt>
    <trkpt lat="48.424283" lon="2.61183">
      <ele>101.419</ele>
      <time>2016-06-05T09:36:27Z</time>
    </trkpt>
    <trkpt lat="48.424186" lon="2.611855">
      <ele>101.07</ele>
      <time>2016-06-05T09:36:31Z</time>
    </trkpt>
    <trkpt lat="48.424169" lon="2.612013">
      <ele>100.764</ele>
      <time>2016-06-05T09:36:35Z</time>
    </trkpt>
    <trkpt lat="48.424167" lon="2.612154">
      <ele>100.248</ele>
      <time>2016-06-05T09:36:38Z</time>
    </trkpt>
    <trkpt lat="48.424146" lon="2.612307">
      <ele>99.828</ele>
      <time>2016-06-05T09:36:41Z</time>
    </trkpt>
    <trkpt lat="48.424093" lon="2.61248">
      <ele>99.223</ele>
      <time>2016-06-05T09:36:44Z</time>
    </trkpt>
    <trkpt lat="48.424076" lon="2.612615">
      <ele>98.742</ele>
      <time>2016-06-05T09:36:46Z</time>
    </trkpt>
    <trkpt lat="48.424072" lon="2.612773">
      <ele>98.33</ele>
      <time>2016-06-05T09:36:49Z</time>
    </trkpt>
    <trkpt lat="48.424055" lon="2.61292">
      <ele>97.89</ele>
      <time>2016-06-05T09:36:52Z</time>
    </trkpt>
    <trkpt lat="48.424025" lon="2.61305">
      <ele>97.5</ele>
      <time>2016-06-05T09:36:54Z</time>
    </trkpt>
    <trkpt lat="48.424009" lon="2.613235">
      <ele>97.153</ele>
      <time>2016-06-05T09:36:57Z</time>
    </trkpt>
    <trkpt lat="48.424017" lon="2.613385">
      <ele>96.914</ele>
      <time>2016-06-05T09:37:01Z</time>
    </trkpt>
    <trkpt lat="48.424029" lon="2.613556">
      <ele>96.596</ele>
      <time>2016-06-05T09:37:04Z</time>
    </trkpt>
    <trkpt lat="48.424002" lon="2.613691">
      <ele>96.539</ele>
      <time>2016-06-05T09:37:06Z</time>
    </trkpt>
    <trkpt lat="48.423984" lon="2.613836">
      <ele>96.402</ele>
      <time>2016-06-05T09:37:08Z</time>
    </trkpt>
    <trkpt lat="48.424003" lon="2.613981">
      <ele>96.742</ele>
      <time>2016-06-05T09:37:11Z</time>
    </trkpt>
    <trkpt lat="48.423948" lon="2.614162">
      <ele>97.196</ele>
      <time>2016-06-05T09:37:14Z</time>
    </trkpt>
    <trkpt lat="48.423943" lon="2.614327">
      <ele>97.772</ele>
      <time>2016-06-05T09:37:18Z</time>
    </trkpt>
    <trkpt lat="48.423928" lon="2.61448">
      <ele>98.269</ele>
      <time>2016-06-05T09:37:22Z</time>
    </trkpt>
    <trkpt lat="48.423896" lon="2.614628">
      <ele>98.686</ele>
      <time>2016-06-05T09:37:25Z</time>
    </trkpt>
    <trkpt lat="48.423868" lon="2.614875">
      <ele>99.509</ele>
      <time>2016-06-05T09:37:29Z</time>
    </trkpt>
    <trkpt lat="48.423864" lon="2.615029">
      <ele>99.91</ele>
      <time>2016-06-05T09:37:32Z</time>
    </trkpt>
    <trkpt lat="48.42382" lon="2.615172">
      <ele>99.752</ele>
      <time>2016-06-05T09:37:37Z</time>
    </trkpt>
    <trkpt lat="48.42379" lon="2.615309">
      <ele>99.684</ele>
      <time>2016-06-05T09:37:41Z</time>
    </trkpt>
    <trkpt lat="48.423741" lon="2.615446">
      <ele>99.79</ele>
      <time>2016-06-05T09:37:46Z</time>
    </trkpt>
    <trkpt lat="48.423703" lon="2.615576">
      <ele>100.0</ele>
      <time>2016-06-05T09:37:51Z</time>
    </trkpt>
    <trkpt lat="48.423686" lon="2.615715">
      <ele>100.0</ele>
      <time>2016-06-05T09:37:56Z</time>
    </trkpt>
    <trkpt lat="48.423633" lon="2.615833">
      <ele>100.0</ele>
      <time>2016-06-05T09:37:58Z</time>
    </trkpt>
    <trkpt lat="48.423588" lon="2.616001">
      <ele>100.47</ele>
      <time>2016-06-05T09:38:02Z</time>
    </trkpt>
    <trkpt lat="48.423549" lon="2.616155">
      <ele>100.553</ele>
      <time>2016-06-05T09:38:05Z</time>
    </trkpt>
    <trkpt lat="48.423501" lon="2.61632">
      <ele>100.207</ele>
      <time>2016-06-05T09:38:08Z</time>
    </trkpt>
    <trkpt lat="48.423462" lon="2.616506">
      <ele>100.153</ele>
      <time>2016-06-05T09:38:11Z</time>
    </trkpt>
    <trkpt lat="48.423438" lon="2.616675">
      <ele>100.377</ele>
      <time>2016-06-05T09:38:14Z</time>
    </trkpt>
    <trkpt lat="48.423384" lon="2.616804">
      <ele>100.182</ele>
      <time>2016-06-05T09:38:17Z</time>
    </trkpt>
    <trkpt lat="48.423313" lon="2.617005">
      <ele>99.927</ele>
      <time>2016-06-05T09:38:20Z</time>
    </trkpt>
    <trkpt lat="48.423242" lon="2.617159">
      <ele>99.671</ele>
      <time>2016-06-05T09:38:22Z</time>
    </trkpt>
    <trkpt lat="48.42321" lon="2.617305">
      <ele>99.556</ele>
      <time>2016-06-05T09:38:24Z</time>
    </trkpt>
    <trkpt lat="48.423169" lon="2.617465">
      <ele>99.408</ele>
      <time>2016-06-05T09:38:27Z</time>
    </trkpt>
    <trkpt lat="48.423124" lon="2.617625">
      <ele>99.246</ele>
      <time>2016-06-05T09:38:30Z</time>
    </trkpt>
    <trkpt lat="48.423082" lon="2.617779">
      <ele>99.099</ele>
      <time>2016-06-05T09:38:32Z</time>
    </trkpt>
    <trkpt lat="48.423018" lon="2.61796">
      <ele>99.567</ele>
      <time>2016-06-05T09:38:35Z</time>
    </trkpt>
    <trkpt lat="48.422992" lon="2.618117">
      <ele>99.942</ele>
      <time>2016-06-05T09:38:37Z</time>
    </trkpt>
    <trkpt lat="48.422927" lon="2.618247">
      <ele>99.907</ele>
      <time>2016-06-05T09:38:40Z</time>
    </trkpt>
    <trkpt lat="48.422891" lon="2.618401">
      <ele>99.914</ele>
      <time>2016-06-05T09:38:43Z</time>
    </trkpt>
    <trkpt lat="48.422819" lon="2.618512">
      <ele>99.392</ele>
      <time>2016-06-05T09:38:46Z</time>
    </trkpt>
    <trkpt lat="48.422769" lon="2.618689">
      <ele>98.937</ele>
      <time>2016-06-05T09:38:49Z</time>
    </trkpt>
    <trkpt lat="48.422753" lon="2.618888">
      <ele>98.822</ele>
      <time>2016-06-05T09:38:52Z</time>
    </trkpt>
    <trkpt lat="48.422706" lon="2.619028">
      <ele>98.483</ele>
      <time>2016-06-05T09:38:54Z</time>
    </trkpt>
    <trkpt lat="48.42264" lon="2.619196">
      <ele>98.008</ele>
      <time>2016-06-05T09:38:57Z</time>
    </trkpt>
    <trkpt lat="48.4226" lon="2.619366">
      <ele>97.72</ele>
      <time>2016-06-05T09:39:00Z</time>
    </trkpt>
    <trkpt lat="48.422571" lon="2.619495">
      <ele>97.693</ele>
      <time>2016-06-05T09:39:03Z</time>
    </trkpt>
    <trkpt lat="48.422513" lon="2.619654">
      <ele>97.848</ele>
      <time>2016-06-05T09:39:06Z</time>
    </trkpt>
    <trkpt lat="48.42246" lon="2.619781">
      <ele>97.886</ele>
      <time>2016-06-05T09:39:09Z</time>
    </trkpt>
    <trkpt lat="48.422418" lon="2.619932">
      <ele>97.928</ele>
      <time>2016-06-05T09:39:13Z</time>
    </trkpt>
    <trkpt lat="48.422364" lon="2.620121">
      <ele>98.222</ele>
      <time>2016-06-05T09:39:17Z</time>
    </trkpt>
    <trkpt lat="48.422292" lon="2.620281">
      <ele>98.251</ele>
      <time>2016-06-05T09:39:20Z</time>
    </trkpt>
    <trkpt lat="48.422233" lon="2.620434">
      <ele>98.039</ele>
      <time>2016-06-05T09:39:23Z</time>
    </trkpt>
    <trkpt lat="48.422181" lon="2.620557">
      <ele>97.995</ele>
      <time>2016-06-05T09:39:25Z</time>
    </trkpt>
    <trkpt lat="48.42214" lon="2.620705">
      <ele>97.462</ele>
      <time>2016-06-05T09:39:28Z</time>
    </trkpt>
    <trkpt lat="48.422074" lon="2.620845">
      <ele>96.98</ele>
      <time>2016-06-05T09:39:31Z</time>
    </trkpt>
    <trkpt lat="48.422025" lon="2.621004">
      <ele>96.822</ele>
      <time>2016-06-05T09:39:34Z</time>
    </trkpt>
    <trkpt lat="48.421989" lon="2.621139">
      <ele>96.755</ele>
      <time>2016-06-05T09:39:37Z</time>
    </trkpt>
    <trkpt lat="48.421932" lon="2.621281">
      <ele>96.398</ele>
      <time>2016-06-05T09:39:39Z</time>
    </trkpt>
    <trkpt lat="48.421878" lon="2.621401">
      <ele>96.272</ele>
      <time>2016-06-05T09:39:41Z</time>
    </trkpt>
    <trkpt lat="48.421833" lon="2.621575">
      <ele>96.802</ele>
      <time>2016-06-05T09:39:44Z</time>
    </trkpt>
    <trkpt lat="48.421799" lon="2.621737">
      <ele>97.133</ele>
      <time>2016-06-05T09:39:47Z</time>
    </trkpt>
    <trkpt lat="48.421759" lon="2.621883">
      <ele>97.52</ele>
      <time>2016-06-05T09:39:51Z</time>
    </trkpt>
    <trkpt lat="48.421696" lon="2.622056">
      <ele>97.937</ele>
      <time>2016-06-05T09:39:54Z</time>
    </trkpt>
    <trkpt lat="48.421639" lon="2.622234">
      <ele>98.1</ele>
      <time>2016-06-05T09:39:57Z</time>
    </trkpt>
    <trkpt lat="48.421585" lon="2.622375">
      <ele>98.294</ele>
      <time>2016-06-05T09:40:00Z</time>
    </trkpt>
    <trkpt lat="48.421532" lon="2.622504">
      <ele>98.492</ele>
      <time>2016-06-05T09:40:02Z</time>
    </trkpt>
    <trkpt lat="48.421476" lon="2.622637">
      <ele>98.841</ele>
      <time>2016-06-05T09:40:05Z</time>
    </trkpt>
    <trkpt lat="48.421442" lon="2.622764">
      <ele>98.991</ele>
      <time>2016-06-05T09:40:08Z</time>
    </trkpt>
    <trkpt lat="48.421388" lon="2.622917">
      <ele>99.5</ele>
      <time>2016-06-05T09:40:11Z</time>
    </trkpt>
    <trkpt lat="48.421364" lon="2.623055">
      <ele>99.909</ele>
      <time>2016-06-05T09:40:14Z</time>
    </trkpt>
    <trkpt lat="48.421314" lon="2.623209">
      <ele>100.283</ele>
      <time>2016-06-05T09:40:17Z</time>
    </trkpt>
    <trkpt lat="48.421245" lon="2.623332">
      <ele>100.477</ele>
      <time>2016-06-05T09:40:19Z</time>
    </trkpt>
    <trkpt lat="48.421208" lon="2.623462">
      <ele>100.672</ele>
      <time>2016-06-05T09:40:22Z</time>
    </trkpt>
    <trkpt lat="48.421176" lon="2.623592">
      <ele>100.669</ele>
      <time>2016-06-05T09:40:25Z</time>
    </trkpt>
    <trkpt lat="48.421122" lon="2.623731">
      <ele>100.118</ele>
      <time>2016-06-05T09:40:28Z</time>
    </trkpt>
    <trkpt lat="48.421068" lon="2.623905">
      <ele>100.058</ele>
      <time>2016-06-05T09:40:32Z</time>
    </trkpt>
    <trkpt lat="48.421006" lon="2.624051">
      <ele>100.584</ele>
      <time>2016-06-05T09:40:36Z</time>
    </trkpt>
    <trkpt lat="48.42094" lon="2.624157">
      <ele>100.965</ele>
      <time>2016-06-05T09:41:10Z</time>
    </trkpt>
    <trkpt lat="48.420915" lon="2.624292">
      <ele>101.0</ele>
      <time>2016-06-05T09:41:16Z</time>
    </trkpt>
    <trkpt lat="48.420892" lon="2.624426">
      <ele>101.0</ele>
      <time>2016-06-05T09:41:19Z</time>
    </trkpt>
    <trkpt lat="48.420881" lon="2.624568">
      <ele>101.445</ele>
      <time>2016-06-05T09:41:23Z</time>
    </trkpt>
    <trkpt lat="48.420924" lon="2.624694">
      <ele>101.898</ele>
      <time>2016-06-05T09:41:27Z</time>
    </trkpt>
    <trkpt lat="48.420969" lon="2.624844">
      <ele>102.438</ele>
      <time>2016-06-05T09:41:30Z</time>
    </trkpt>
    <trkpt lat="48.420926" lon="2.625011">
      <ele>103.0</ele>
      <time>2016-06-05T09:41:33Z</time>
    </trkpt>
    <trkpt lat="48.420899" lon="2.625196">
      <ele>103.0</ele>
      <time>2016-06-05T09:41:36Z</time>
    </trkpt>
    <trkpt lat="48.420894" lon="2.625368">
      <ele>103.254</ele>
      <time>2016-06-05T09:41:42Z</time>
    </trkpt>
    <trkpt lat="48.420869" lon="2.625513">
      <ele>103.738</ele>
      <time>2016-06-05T09:41:45Z</time>
    </trkpt>
    <trkpt lat="48.420822" lon="2.625669">
      <ele>104.0</ele>
      <time>2016-06-05T09:41:48Z</time>
    </trkpt>
    <trkpt lat="48.420827" lon="2.625808">
      <ele>104.0</ele>
      <time>2016-06-05T09:41:51Z</time>
    </trkpt>
    <trkpt lat="48.420801" lon="2.625957">
      <ele>104.052</ele>
      <time>2016-06-05T09:41:55Z</time>
    </trkpt>
    <trkpt lat="48.420781" lon="2.626092">
      <ele>104.175</ele>
      <time>2016-06-05T09:41:59Z</time>
    </trkpt>
    <trkpt lat="48.420771" lon="2.626253">
      <ele>104.621</ele>
      <time>2016-06-05T09:42:02Z</time>
    </trkpt>
    <trkpt lat="48.420749" lon="2.626436">
      <ele>104.882</ele>
      <time>2016-06-05T09:42:08Z</time>
    </trkpt>
    <trkpt lat="48.420757" lon="2.626582">
      <ele>104.496</ele>
      <time>2016-06-05T09:42:11Z</time>
    </trkpt>
    <trkpt lat="48.420737" lon="2.626716">
      <ele>104.347</ele>
      <time>2016-06-05T09:42:14Z</time>
    </trkpt>
    <trkpt lat="48.42075" lon="2.626888">
      <ele>104.3</ele>
      <time>2016-06-05T09:42:18Z</time>
    </trkpt>
    <trkpt lat="48.420724" lon="2.62702">
      <ele>104.122</ele>
      <time>2016-06-05T09:42:21Z</time>
    </trkpt>
    <trkpt lat="48.420736" lon="2.627165">
      <ele>103.556</ele>
      <time>2016-06-05T09:42:25Z</time>
    </trkpt>
    <trkpt lat="48.42075" lon="2.627322">
      <ele>103.444</ele>
      <time>2016-06-05T09:42:29Z</time>
    </trkpt>
    <trkpt lat="48.420711" lon="2.627452">
      <ele>103.539</ele>
      <time>2016-06-05T09:42:32Z</time>
    </trkpt>
    <trkpt lat="48.420672" lon="2.627579">
      <ele>103.584</ele>
      <time>2016-06-05T09:42:35Z</time>
    </trkpt>
    <trkpt lat="48.420671" lon="2.627726">
      <ele>103.891</ele>
      <time>2016-06-05T09:42:40Z</time>
    </trkpt>
    <trkpt lat="48.420656" lon="2.627866">
      <ele>104.115</ele>
      <time>2016-06-05T09:42:44Z</time>
    </trkpt>
    <trkpt lat="48.420642" lon="2.628039">
      <ele>104.293</ele>
      <time>2016-06-05T09:42:49Z</time>
    </trkpt>
    <trkpt lat="48.4206" lon="2.628187">
      <ele>104.482</ele>
      <time>2016-06-05T09:42:52Z</time>
    </trkpt>
    <trkpt lat="48.420598" lon="2.628337">
      <ele>104.856</ele>
      <time>2016-06-05T09:42:56Z</time>
    </trkpt>
    <trkpt lat="48.420608" lon="2.628473">
      <ele>105.124</ele>
      <time>2016-06-05T09:43:01Z</time>
    </trkpt>
    <trkpt lat="48.420558" lon="2.628631">
      <ele>105.974</ele>
      <time>2016-06-05T09:43:04Z</time>
    </trkpt>
    <trkpt lat="48.420585" lon="2.628771">
      <ele>105.682</ele>
      <time>2016-06-05T09:43:09Z</time>
    </trkpt>
    <trkpt lat="48.420544" lon="2.628896">
      <ele>106.25</ele>
      <time>2016-06-05T09:43:13Z</time>
    </trkpt>
    <trkpt lat="48.42052" lon="2.62903">
      <ele>106.768</ele>
      <time>2016-06-05T09:43:16Z</time>
    </trkpt>
    <trkpt lat="48.420531" lon="2.62917">
      <ele>106.553</ele>
      <time>2016-06-05T09:43:20Z</time>
    </trkpt>
    <trkpt lat="48.420435" lon="2.629128">
      <ele>108.604</ele>
      <time>2016-06-05T09:43:25Z</time>
    </trkpt>
    <trkpt lat="48.42034" lon="2.629036">
      <ele>110.656</ele>
      <time>2016-06-05T09:43:30Z</time>
    </trkpt>
    <trkpt lat="48.420258" lon="2.628953">
      <ele>112.214</ele>
      <time>2016-06-05T09:43:34Z</time>
    </trkpt>
    <trkpt lat="48.420171" lon="2.628891">
      <ele>113.153</ele>
      <time>2016-06-05T09:43:39Z</time>
    </trkpt>
    <trkpt lat="48.42009" lon="2.628819">
      <ele>113.865</ele>
      <time>2016-06-05T09:43:45Z</time>
    </trkpt>
    <trkpt lat="48.420019" lon="2.628707">
      <ele>114.705</ele>
      <time>2016-06-05T09:43:52Z</time>
    </trkpt>
    <trkpt lat="48.419928" lon="2.628685">
      <ele>115.709</ele>
      <time>2016-06-05T09:43:58Z</time>
    </trkpt>
    <trkpt lat="48.419845" lon="2.628595">
      <ele>116.616</ele>
      <time>2016-06-05T09:44:06Z</time>
    </trkpt>
    <trkpt lat="48.419748" lon="2.628587">
      <ele>117.635</ele>
      <time>2016-06-05T09:44:11Z</time>
    </trkpt>
    <trkpt lat="48.419663" lon="2.628523">
      <ele>118.816</ele>
      <time>2016-06-05T09:44:19Z</time>
    </trkpt>
    <trkpt lat="48.41958" lon="2.628603">
      <ele>120.546</ele>
      <time>2016-06-05T09:44:32Z</time>
    </trkpt>
    <trkpt lat="48.41952" lon="2.628754">
      <ele>121.875</ele>
      <time>2016-06-05T09:44:41Z</time>
    </trkpt>
    <trkpt lat="48.419463" lon="2.628883">
      <ele>123.514</ele>
      <time>2016-06-05T09:44:54Z</time>
    </trkpt>
    <trkpt lat="48.41939" lon="2.628964">
      <ele>125.372</ele>
      <time>2016-06-05T09:45:01Z</time>
    </trkpt>
    <trkpt lat="48.419314" lon="2.629041">
      <ele>127.287</ele>
      <time>2016-06-05T09:45:21Z</time>
    </trkpt>
    <trkpt lat="48.419208" lon="2.629026">
      <ele>129.958</ele>
      <time>2016-06-05T09:45:33Z</time>
    </trkpt>
    <trkpt lat="48.419111" lon="2.629037">
      <ele>131.695</ele>
      <time>2016-06-05T09:45:37Z</time>
    </trkpt>
    <trkpt lat="48.419026" lon="2.628958">
      <ele>132.9</ele>
      <time>2016-06-05T09:45:46Z</time>
    </trkpt>
    <trkpt lat="48.418941" lon="2.62886">
      <ele>134.25</ele>
      <time>2016-06-05T09:45:53Z</time>
    </trkpt>
    <trkpt lat="48.418858" lon="2.628782">
      <ele>135.111</ele>
      <time>2016-06-05T09:46:00Z</time>
    </trkpt>
    <trkpt lat="48.418752" lon="2.628717">
      <ele>135.493</ele>
      <time>2016-06-05T09:46:07Z</time>
    </trkpt>
    <trkpt lat="48.418653" lon="2.628687">
      <ele>135.849</ele>
      <time>2016-06-05T09:46:12Z</time>
    </trkpt>
    <trkpt lat="48.418541" lon="2.62866">
      <ele>136.46</ele>
      <time>2016-06-05T09:46:17Z</time>
    </trkpt>
    <trkpt lat="48.418447" lon="2.628656">
      <ele>137.086</ele>
      <time>2016-06-05T09:46:21Z</time>
    </trkpt>
    <trkpt lat="48.418356" lon="2.628599">
      <ele>137.84</ele>
      <time>2016-06-05T09:46:27Z</time>
    </trkpt>
    <trkpt lat="48.418262" lon="2.628608">
      <ele>138.257</ele>
      <time>2016-06-05T09:46:31Z</time>
    </trkpt>
    <trkpt lat="48.41817" lon="2.62858">
      <ele>138.588</ele>
      <time>2016-06-05T09:46:36Z</time>
    </trkpt>
    <trkpt lat="48.418086" lon="2.628507">
      <ele>138.89</ele>
      <time>2016-06-05T09:46:41Z</time>
    </trkpt>
    <trkpt lat="48.417976" lon="2.628449">
      <ele>139.0</ele>
      <time>2016-06-05T09:46:45Z</time>
    </trkpt>
    <trkpt lat="48.417889" lon="2.628378">
      <ele>139.0</ele>
      <time>2016-06-05T09:46:51Z</time>
    </trkpt>
    <trkpt lat="48.417794" lon="2.628391">
      <ele>139.0</ele>
      <time>2016-06-05T09:46:53Z</time>
    </trkpt>
    <trkpt lat="48.417704" lon="2.628393">
      <ele>138.791</ele>
      <time>2016-06-05T09:46:55Z</time>
    </trkpt>
    <trkpt lat="48.41759" lon="2.62836">
      <ele>138.389</ele>
      <time>2016-06-05T09:46:58Z</time>
    </trkpt>
    <trkpt lat="48.417472" lon="2.62829">
      <ele>137.658</ele>
      <time>2016-06-05T09:47:02Z</time>
    </trkpt>
    <trkpt lat="48.417378" lon="2.628249">
      <ele>136.951</ele>
      <time>2016-06-05T09:47:05Z</time>
    </trkpt>
    <trkpt lat="48.417266" lon="2.628164">
      <ele>136.219</ele>
      <time>2016-06-05T09:47:08Z</time>
    </trkpt>
    <trkpt lat="48.417148" lon="2.628104">
      <ele>135.466</ele>
      <time>2016-06-05T09:47:11Z</time>
    </trkpt>
    <trkpt lat="48.417071" lon="2.627998">
      <ele>135.024</ele>
      <time>2016-06-05T09:47:14Z</time>
    </trkpt>
    <trkpt lat="48.416964" lon="2.627918">
      <ele>134.601</ele>
      <time>2016-06-05T09:47:16Z</time>
    </trkpt>
    <trkpt lat="48.416857" lon="2.627879">
      <ele>134.121</ele>
      <time>2016-06-05T09:47:18Z</time>
    </trkpt>
    <trkpt lat="48.416766" lon="2.627881">
      <ele>133.582</ele>
      <time>2016-06-05T09:47:19Z</time>
    </trkpt>
    <trkpt lat="48.416655" lon="2.627811">
      <ele>132.832</ele>
      <time>2016-06-05T09:47:21Z</time>
    </trkpt>
    <trkpt lat="48.416511" lon="2.627794">
      <ele>130.758</ele>
      <time>2016-06-05T09:47:23Z</time>
    </trkpt>
    <trkpt lat="48.416392" lon="2.627746">
      <ele>129.045</ele>
      <time>2016-06-05T09:47:25Z</time>
    </trkpt>
    <trkpt lat="48.416311" lon="2.627604">
      <ele>127.423</ele>
      <time>2016-06-05T09:47:28Z</time>
    </trkpt>
    <trkpt lat="48.41625" lon="2.627441">
      <ele>125.894</ele>
      <time>2016-06-05T09:47:31Z</time>
    </trkpt>
    <trkpt lat="48.416185" lon="2.62734">
      <ele>124.443</ele>
      <time>2016-06-05T09:47:33Z</time>
    </trkpt>
    <trkpt lat="48.416098" lon="2.62727">
      <ele>122.772</ele>
      <time>2016-06-05T09:47:35Z</time>
    </trkpt>
    <trkpt lat="48.415998" lon="2.62715">
      <ele>121.07</ele>
      <time>2016-06-05T09:47:38Z</time>
    </trkpt>
    <trkpt lat="48.415923" lon="2.627003">
      <ele>120.148</ele>
      <time>2016-06-05T09:47:41Z</time>
    </trkpt>
    <trkpt lat="48.415885" lon="2.626822">
      <ele>118.862</ele>
      <time>2016-06-05T09:47:44Z</time>
    </trkpt>
    <trkpt lat="48.415925" lon="2.626671">
      <ele>118.351</ele>
      <time>2016-06-05T09:47:46Z</time>
    </trkpt>
    <trkpt lat="48.415918" lon="2.626501">
      <ele>116.248</ele>
      <time>2016-06-05T09:47:49Z</time>
    </trkpt>
    <trkpt lat="48.415934" lon="2.626284">
      <ele>114.058</ele>
      <time>2016-06-05T09:47:52Z</time>
    </trkpt>
    <trkpt lat="48.415954" lon="2.626142">
      <ele>112.753</ele>
      <time>2016-06-05T09:47:54Z</time>
    </trkpt>
    <trkpt lat="48.415966" lon="2.625929">
      <ele>110.511</ele>
      <time>2016-06-05T09:47:57Z</time>
    </trkpt>
    <trkpt lat="48.415943" lon="2.625783">
      <ele>108.961</ele>
      <time>2016-06-05T09:47:59Z</time>
    </trkpt>
    <trkpt lat="48.415927" lon="2.625625">
      <ele>107.584</ele>
      <time>2016-06-05T09:48:01Z</time>
    </trkpt>
    <trkpt lat="48.415865" lon="2.625413">
      <ele>105.974</ele>
      <time>2016-06-05T09:48:03Z</time>
    </trkpt>
    <trkpt lat="48.415771" lon="2.625259">
      <ele>105.396</ele>
      <time>2016-06-05T09:48:05Z</time>
    </trkpt>
    <trkpt lat="48.415717" lon="2.625136">
      <ele>105.541</ele>
      <time>2016-06-05T09:48:07Z</time>
    </trkpt>
    <trkpt lat="48.415616" lon="2.625131">
      <ele>106.45</ele>
      <time>2016-06-05T09:48:18Z</time>
    </trkpt>
    <trkpt lat="48.415688" lon="2.625037">
      <ele>105.633</ele>
      <time>2016-06-05T09:48:20Z</time>
    </trkpt>
    <trkpt lat="48.415763" lon="2.624956">
      <ele>104.719</ele>
      <time>2016-06-05T09:48:24Z</time>
    </trkpt>
    <trkpt lat="48.415753" lon="2.624814">
      <ele>104.674</ele>
      <time>2016-06-05T09:48:55Z</time>
    </trkpt>
    <trkpt lat="48.415678" lon="2.624723">
      <ele>105.12</ele>
      <time>2016-06-05T09:49:00Z</time>
    </trkpt>
    <trkpt lat="48.415585" lon="2.624705">
      <ele>105.788</ele>
      <time>2016-06-05T09:49:04Z</time>
    </trkpt>
    <trkpt lat="48.415496" lon="2.624649">
      <ele>106.372</ele>
      <time>2016-06-05T09:49:11Z</time>
    </trkpt>
    <trkpt lat="48.415382" lon="2.624663">
      <ele>107.116</ele>
      <time>2016-06-05T09:49:49Z</time>
    </trkpt>
    <trkpt lat="48.415274" lon="2.62466">
      <ele>107.82</ele>
      <time>2016-06-05T09:49:55Z</time>
    </trkpt>
    <trkpt lat="48.41518" lon="2.624679">
      <ele>108.955</ele>
      <time>2016-06-05T09:50:02Z</time>
    </trkpt>
    <trkpt lat="48.415085" lon="2.624744">
      <ele>110.082</ele>
      <time>2016-06-05T09:50:10Z</time>
    </trkpt>
    <trkpt lat="48.414981" lon="2.624786">
      <ele>111.258</ele>
      <time>2016-06-05T09:50:17Z</time>
    </trkpt>
    <trkpt lat="48.41488" lon="2.624828">
      <ele>112.563</ele>
      <time>2016-06-05T09:50:23Z</time>
    </trkpt>
    <trkpt lat="48.414779" lon="2.624878">
      <ele>113.736</ele>
      <time>2016-06-05T09:50:29Z</time>
    </trkpt>
    <trkpt lat="48.414688" lon="2.624932">
      <ele>114.984</ele>
      <time>2016-06-05T09:50:35Z</time>
    </trkpt>
    <trkpt lat="48.414597" lon="2.624973">
      <ele>116.802</ele>
      <time>2016-06-05T09:50:44Z</time>
    </trkpt>
    <trkpt lat="48.414498" lon="2.625025">
      <ele>118.771</ele>
      <time>2016-06-05T09:50:50Z</time>
    </trkpt>
    <trkpt lat="48.414389" lon="2.625058">
      <ele>120.39</ele>
      <time>2016-06-05T09:50:55Z</time>
    </trkpt>
    <trkpt lat="48.414306" lon="2.625152">
      <ele>120.948</ele>
      <time>2016-06-05T09:51:06Z</time>
    </trkpt>
    <trkpt lat="48.414234" lon="2.625254">
      <ele>121.358</ele>
      <time>2016-06-05T09:51:14Z</time>
    </trkpt>
    <trkpt lat="48.414123" lon="2.625297">
      <ele>122.618</ele>
      <time>2016-06-05T09:51:20Z</time>
    </trkpt>
    <trkpt lat="48.41403" lon="2.625348">
      <ele>123.844</ele>
      <time>2016-06-05T09:51:22Z</time>
    </trkpt>
    <trkpt lat="48.413962" lon="2.625446">
      <ele>124.501</ele>
      <time>2016-06-05T09:51:25Z</time>
    </trkpt>
    <trkpt lat="48.413875" lon="2.625491">
      <ele>125.421</ele>
      <time>2016-06-05T09:51:33Z</time>
    </trkpt>
    <trkpt lat="48.413791" lon="2.62555">
      <ele>126.423</ele>
      <time>2016-06-05T09:51:40Z</time>
    </trkpt>
    <trkpt lat="48.413725" lon="2.625657">
      <ele>126.845</ele>
      <time>2016-06-05T09:51:50Z</time>
    </trkpt>
    <trkpt lat="48.413662" lon="2.625766">
      <ele>127.371</ele>
      <time>2016-06-05T09:51:55Z</time>
    </trkpt>
    <trkpt lat="48.413577" lon="2.625851">
      <ele>128.19</ele>
      <time>2016-06-05T09:52:02Z</time>
    </trkpt>
    <trkpt lat="48.413497" lon="2.625946">
      <ele>128.583</ele>
      <time>2016-06-05T09:52:07Z</time>
    </trkpt>
    <trkpt lat="48.413427" lon="2.626052">
      <ele>129.06</ele>
      <time>2016-06-05T09:52:13Z</time>
    </trkpt>
    <trkpt lat="48.413329" lon="2.62614">
      <ele>129.929</ele>
      <time>2016-06-05T09:52:21Z</time>
    </trkpt>
    <trkpt lat="48.413265" lon="2.626242">
      <ele>130.137</ele>
      <time>2016-06-05T09:52:27Z</time>
    </trkpt>
    <trkpt lat="48.413193" lon="2.626341">
      <ele>130.601</ele>
      <time>2016-06-05T09:52:32Z</time>
    </trkpt>
    <trkpt lat="48.413126" lon="2.626444">
      <ele>131.091</ele>
      <time>2016-06-05T09:52:37Z</time>
    </trkpt>
    <trkpt lat="48.413076" lon="2.62656">
      <ele>131.209</ele>
      <time>2016-06-05T09:52:43Z</time>
    </trkpt>
    <trkpt lat="48.413" lon="2.626663">
      <ele>131.611</ele>
      <time>2016-06-05T09:52:47Z</time>
    </trkpt>
    <trkpt lat="48.412935" lon="2.626763">
      <ele>132.498</ele>
      <time>2016-06-05T09:52:55Z</time>
    </trkpt>
    <trkpt lat="48.412838" lon="2.626876">
      <ele>133.513</ele>
      <time>2016-06-05T09:53:00Z</time>
    </trkpt>
    <trkpt lat="48.412763" lon="2.626973">
      <ele>134.048</ele>
      <time>2016-06-05T09:53:03Z</time>
    </trkpt>
    <trkpt lat="48.412684" lon="2.627057">
      <ele>134.201</ele>
      <time>2016-06-05T09:53:07Z</time>
    </trkpt>
    <trkpt lat="48.412613" lon="2.627157">
      <ele>134.139</ele>
      <time>2016-06-05T09:53:12Z</time>
    </trkpt>
    <trkpt lat="48.412536" lon="2.627267">
      <ele>133.839</ele>
      <time>2016-06-05T09:53:15Z</time>
    </trkpt>
    <trkpt lat="48.412465" lon="2.627363">
      <ele>133.619</ele>
      <time>2016-06-05T09:53:20Z</time>
    </trkpt>
    <trkpt lat="48.412378" lon="2.62748">
      <ele>133.511</ele>
      <time>2016-06-05T09:53:25Z</time>
    </trkpt>
    <trkpt lat="48.412289" lon="2.627596">
      <ele>133.76</ele>
      <time>2016-06-05T09:53:29Z</time>
    </trkpt>
    <trkpt lat="48.412235" lon="2.627739">
      <ele>133.954</ele>
      <time>2016-06-05T09:53:33Z</time>
    </trkpt>
    <trkpt lat="48.412155" lon="2.627849">
      <ele>133.986</ele>
      <time>2016-06-05T09:53:36Z</time>
    </trkpt>
    <trkpt lat="48.412089" lon="2.627955">
      <ele>133.842</ele>
      <time>2016-06-05T09:53:40Z</time>
    </trkpt>
    <trkpt lat="48.412013" lon="2.628083">
      <ele>133.778</ele>
      <time>2016-06-05T09:53:43Z</time>
    </trkpt>
    <trkpt lat="48.41194" lon="2.628212">
      <ele>134.016</ele>
      <time>2016-06-05T09:53:47Z</time>
    </trkpt>
    <trkpt lat="48.411856" lon="2.628296">
      <ele>134.318</ele>
      <time>2016-06-05T09:53:50Z</time>
    </trkpt>
    <trkpt lat="48.41177" lon="2.628428">
      <ele>134.628</ele>
      <time>2016-06-05T09:53:54Z</time>
    </trkpt>
    <trkpt lat="48.411698" lon="2.628529">
      <ele>134.887</ele>
      <time>2016-06-05T09:53:57Z</time>
    </trkpt>
    <trkpt lat="48.411626" lon="2.628625">
      <ele>135.146</ele>
      <time>2016-06-05T09:54:00Z</time>
    </trkpt>
    <trkpt lat="48.41154" lon="2.628737">
      <ele>135.456</ele>
      <time>2016-06-05T09:54:04Z</time>
    </trkpt>
    <trkpt lat="48.41145" lon="2.62886">
      <ele>135.78</ele>
      <time>2016-06-05T09:54:07Z</time>
    </trkpt>
    <trkpt lat="48.411374" lon="2.628961">
      <ele>136.054</ele>
      <time>2016-06-05T09:54:11Z</time>
    </trkpt>
    <trkpt lat="48.4113" lon="2.629059">
      <ele>136.32</ele>
      <time>2016-06-05T09:54:13Z</time>
    </trkpt>
    <trkpt lat="48.411227" lon="2.629145">
      <ele>136.583</ele>
      <time>2016-06-05T09:54:15Z</time>
    </trkpt>
    <trkpt lat="48.411152" lon="2.629273">
      <ele>136.853</ele>
      <time>2016-06-05T09:54:19Z</time>
    </trkpt>
    <trkpt lat="48.411048" lon="2.629403">
      <ele>136.773</ele>
      <time>2016-06-05T09:54:22Z</time>
    </trkpt>
    <trkpt lat="48.410957" lon="2.629496">
      <ele>136.548</ele>
      <time>2016-06-05T09:54:25Z</time>
    </trkpt>
    <trkpt lat="48.410898" lon="2.629621">
      <ele>136.72</ele>
      <time>2016-06-05T09:54:29Z</time>
    </trkpt>
    <trkpt lat="48.410823" lon="2.629713">
      <ele>136.966</ele>
      <time>2016-06-05T09:54:32Z</time>
    </trkpt>
    <trkpt lat="48.410763" lon="2.62982">
      <ele>137.352</ele>
      <time>2016-06-05T09:54:35Z</time>
    </trkpt>
    <trkpt lat="48.410701" lon="2.62993">
      <ele>137.748</ele>
      <time>2016-06-05T09:54:38Z</time>
    </trkpt>
    <trkpt lat="48.410625" lon="2.630057">
      <ele>138.359</ele>
      <time>2016-06-05T09:54:42Z</time>
    </trkpt>
    <trkpt lat="48.410514" lon="2.630206">
      <ele>139.223</ele>
      <time>2016-06-05T09:54:46Z</time>
    </trkpt>
    <trkpt lat="48.410433" lon="2.630308">
      <ele>139.166</ele>
      <time>2016-06-05T09:54:50Z</time>
    </trkpt>
    <trkpt lat="48.410349" lon="2.630449">
      <ele>138.971</ele>
      <time>2016-06-05T09:54:54Z</time>
    </trkpt>
    <trkpt lat="48.410258" lon="2.630552">
      <ele>138.846</ele>
      <time>2016-06-05T09:54:57Z</time>
    </trkpt>
    <trkpt lat="48.410154" lon="2.630667">
      <ele>138.51</ele>
      <time>2016-06-05T09:55:00Z</time>
    </trkpt>
    <trkpt lat="48.410071" lon="2.63078">
      <ele>138.319</ele>
      <time>2016-06-05T09:55:02Z</time>
    </trkpt>
    <trkpt lat="48.410007" lon="2.630875">
      <ele>138.197</ele>
      <time>2016-06-05T09:55:04Z</time>
    </trkpt>
    <trkpt lat="48.40994" lon="2.630989">
      <ele>137.912</ele>
      <time>2016-06-05T09:55:07Z</time>
    </trkpt>
    <trkpt lat="48.409867" lon="2.631078">
      <ele>137.444</ele>
      <time>2016-06-05T09:55:09Z</time>
    </trkpt>
    <trkpt lat="48.409788" lon="2.631152">
      <ele>136.97</ele>
      <time>2016-06-05T09:55:11Z</time>
    </trkpt>
    <trkpt lat="48.409707" lon="2.631243">
      <ele>136.788</ele>
      <time>2016-06-05T09:55:13Z</time>
    </trkpt>
    <trkpt lat="48.409628" lon="2.631323">
      <ele>136.33</ele>
      <time>2016-06-05T09:55:15Z</time>
    </trkpt>
    <trkpt lat="48.409531" lon="2.631441">
      <ele>135.563</ele>
      <time>2016-06-05T09:55:18Z</time>
    </trkpt>
    <trkpt lat="48.409437" lon="2.631538">
      <ele>135.018</ele>
      <time>2016-06-05T09:55:21Z</time>
    </trkpt>
    <trkpt lat="48.40938" lon="2.631687">
      <ele>135.36</ele>
      <time>2016-06-05T09:55:24Z</time>
    </trkpt>
    <trkpt lat="48.409325" lon="2.631796">
      <ele>134.975</ele>
      <time>2016-06-05T09:55:27Z</time>
    </trkpt>
    <trkpt lat="48.409243" lon="2.631858">
      <ele>134.014</ele>
      <time>2016-06-05T09:55:30Z</time>
    </trkpt>
    <trkpt lat="48.409158" lon="2.631927">
      <ele>132.971</ele>
      <time>2016-06-05T09:55:33Z</time>
    </trkpt>
    <trkpt lat="48.409061" lon="2.631996">
      <ele>132.735</ele>
      <time>2016-06-05T09:55:36Z</time>
    </trkpt>
    <trkpt lat="48.408957" lon="2.63208">
      <ele>132.365</ele>
      <time>2016-06-05T09:55:39Z</time>
    </trkpt>
    <trkpt lat="48.408853" lon="2.632186">
      <ele>132.129</ele>
      <time>2016-06-05T09:55:42Z</time>
    </trkpt>
    <trkpt lat="48.408756" lon="2.632283">
      <ele>132.811</ele>
      <time>2016-06-05T09:55:45Z</time>
    </trkpt>
    <trkpt lat="48.408704" lon="2.632433">
      <ele>133.678</ele>
      <time>2016-06-05T09:55:49Z</time>
    </trkpt>
    <trkpt lat="48.408635" lon="2.632545">
      <ele>134.162</ele>
      <time>2016-06-05T09:55:52Z</time>
    </trkpt>
    <trkpt lat="48.408524" lon="2.632711">
      <ele>134.76</ele>
      <time>2016-06-05T09:55:56Z</time>
    </trkpt>
    <trkpt lat="48.408462" lon="2.632827">
      <ele>135.082</ele>
      <time>2016-06-05T09:55:59Z</time>
    </trkpt>
    <trkpt lat="48.408433" lon="2.632985">
      <ele>135.268</ele>
      <time>2016-06-05T09:56:02Z</time>
    </trkpt>
    <trkpt lat="48.408386" lon="2.633139">
      <ele>135.49</ele>
      <time>2016-06-05T09:56:05Z</time>
    </trkpt>
    <trkpt lat="48.408287" lon="2.63323">
      <ele>135.69</ele>
      <time>2016-06-05T09:56:08Z</time>
    </trkpt>
    <trkpt lat="48.408208" lon="2.633312">
      <ele>135.958</ele>
      <time>2016-06-05T09:56:10Z</time>
    </trkpt>
    <trkpt lat="48.408155" lon="2.633426">
      <ele>136.0</ele>
      <time>2016-06-05T09:56:15Z</time>
    </trkpt>
    <trkpt lat="48.408101" lon="2.633535">
      <ele>136.0</ele>
      <time>2016-06-05T09:56:18Z</time>
    </trkpt>
    <trkpt lat="48.408045" lon="2.633643">
      <ele>136.0</ele>
      <time>2016-06-05T09:56:21Z</time>
    </trkpt>
    <trkpt lat="48.407993" lon="2.633805">
      <ele>136.0</ele>
      <time>2016-06-05T09:56:25Z</time>
    </trkpt>
    <trkpt lat="48.407979" lon="2.633978">
      <ele>136.0</ele>
      <time>2016-06-05T09:56:29Z</time>
    </trkpt>
    <trkpt lat="48.407957" lon="2.634121">
      <ele>136.0</ele>
      <time>2016-06-05T09:56:32Z</time>
    </trkpt>
    <trkpt lat="48.407906" lon="2.634278">
      <ele>135.784</ele>
      <time>2016-06-05T09:56:36Z</time>
    </trkpt>
    <trkpt lat="48.407836" lon="2.634383">
      <ele>135.384</ele>
      <time>2016-06-05T09:56:40Z</time>
    </trkpt>
    <trkpt lat="48.407751" lon="2.634495">
      <ele>135.278</ele>
      <time>2016-06-05T09:56:44Z</time>
    </trkpt>
    <trkpt lat="48.407683" lon="2.634604">
      <ele>135.916</ele>
      <time>2016-06-05T09:56:49Z</time>
    </trkpt>
    <trkpt lat="48.407631" lon="2.634742">
      <ele>136.562</ele>
      <time>2016-06-05T09:56:54Z</time>
    </trkpt>
    <trkpt lat="48.407584" lon="2.634929">
      <ele>136.923</ele>
      <time>2016-06-05T09:57:00Z</time>
    </trkpt>
    <trkpt lat="48.407567" lon="2.635076">
      <ele>137.208</ele>
      <time>2016-06-05T09:57:04Z</time>
    </trkpt>
    <trkpt lat="48.407517" lon="2.635189">
      <ele>137.639</ele>
      <time>2016-06-05T09:57:08Z</time>
    </trkpt>
    <trkpt lat="48.407451" lon="2.635322">
      <ele>138.159</ele>
      <time>2016-06-05T09:57:16Z</time>
    </trkpt>
    <trkpt lat="48.40741" lon="2.635454">
      <ele>138.634</ele>
      <time>2016-06-05T09:57:20Z</time>
    </trkpt>
    <trkpt lat="48.407356" lon="2.635578">
      <ele>139.0</ele>
      <time>2016-06-05T09:57:26Z</time>
    </trkpt>
    <trkpt lat="48.407285" lon="2.635695">
      <ele>139.0</ele>
      <time>2016-06-05T09:57:29Z</time>
    </trkpt>
    <trkpt lat="48.407212" lon="2.635827">
      <ele>138.963</ele>
      <time>2016-06-05T09:57:32Z</time>
    </trkpt>
    <trkpt lat="48.407163" lon="2.635968">
      <ele>138.787</ele>
      <time>2016-06-05T09:57:37Z</time>
    </trkpt>
    <trkpt lat="48.40708" lon="2.636062">
      <ele>138.488</ele>
      <time>2016-06-05T09:57:41Z</time>
    </trkpt>
    <trkpt lat="48.406974" lon="2.636096">
      <ele>138.106</ele>
      <time>2016-06-05T09:57:46Z</time>
    </trkpt>
    <trkpt lat="48.406887" lon="2.63616">
      <ele>137.447</ele>
      <time>2016-06-05T09:57:48Z</time>
    </trkpt>
    <trkpt lat="48.406798" lon="2.636199">
      <ele>136.796</ele>
      <time>2016-06-05T09:57:52Z</time>
    </trkpt>
    <trkpt lat="48.406697" lon="2.636222">
      <ele>136.175</ele>
      <time>2016-06-05T09:57:56Z</time>
    </trkpt>
    <trkpt lat="48.406645" lon="2.636371">
      <ele>135.927</ele>
      <time>2016-06-05T09:58:03Z</time>
    </trkpt>
    <trkpt lat="48.4066" lon="2.6365">
      <ele>135.456</ele>
      <time>2016-06-05T09:58:06Z</time>
    </trkpt>
    <trkpt lat="48.406564" lon="2.636626">
      <ele>135.092</ele>
      <time>2016-06-05T09:58:10Z</time>
    </trkpt>
    <trkpt lat="48.40646" lon="2.636719">
      <ele>135.0</ele>
      <time>2016-06-05T09:58:15Z</time>
    </trkpt>
    <trkpt lat="48.406367" lon="2.636766">
      <ele>134.921</ele>
      <time>2016-06-05T09:58:18Z</time>
    </trkpt>
    <trkpt lat="48.406229" lon="2.636833">
      <ele>134.424</ele>
      <time>2016-06-05T09:58:22Z</time>
    </trkpt>
    <trkpt lat="48.406133" lon="2.636867">
      <ele>134.079</ele>
      <time>2016-06-05T09:58:25Z</time>
    </trkpt>
    <trkpt lat="48.406023" lon="2.636881">
      <ele>134.317</ele>
      <time>2016-06-05T09:58:28Z</time>
    </trkpt>
    <trkpt lat="48.405934" lon="2.636924">
      <ele>134.638</ele>
      <time>2016-06-05T09:58:31Z</time>
    </trkpt>
    <trkpt lat="48.405851" lon="2.636987">
      <ele>135.09</ele>
      <time>2016-06-05T09:58:34Z</time>
    </trkpt>
    <trkpt lat="48.405798" lon="2.637103">
      <ele>135.88</ele>
      <time>2016-06-05T09:58:38Z</time>
    </trkpt>
    <trkpt lat="48.405789" lon="2.637254">
      <ele>136.415</ele>
      <time>2016-06-05T09:58:44Z</time>
    </trkpt>
    <trkpt lat="48.405789" lon="2.637399">
      <ele>136.854</ele>
      <time>2016-06-05T09:58:46Z</time>
    </trkpt>
    <trkpt lat="48.40578" lon="2.637549">
      <ele>137.016</ele>
      <time>2016-06-05T09:58:49Z</time>
    </trkpt>
    <trkpt lat="48.405785" lon="2.637708">
      <ele>136.425</ele>
      <time>2016-06-05T09:58:52Z</time>
    </trkpt>
    <trkpt lat="48.405764" lon="2.637876">
      <ele>136.073</ele>
      <time>2016-06-05T09:58:56Z</time>
    </trkpt>
    <trkpt lat="48.405761" lon="2.638065">
      <ele>135.706</ele>
      <time>2016-06-05T09:59:00Z</time>
    </trkpt>
    <trkpt lat="48.405825" lon="2.638194">
      <ele>135.472</ele>
      <time>2016-06-05T09:59:03Z</time>
    </trkpt>
    <trkpt lat="48.405853" lon="2.638347">
      <ele>135.022</ele>
      <time>2016-06-05T09:59:06Z</time>
    </trkpt>
    <trkpt lat="48.405841" lon="2.638546">
      <ele>134.262</ele>
      <time>2016-06-05T09:59:09Z</time>
    </trkpt>
    <trkpt lat="48.405885" lon="2.638696">
      <ele>134.243</ele>
      <time>2016-06-05T09:59:13Z</time>
    </trkpt>
    <trkpt lat="48.405906" lon="2.638828">
      <ele>134.466</ele>
      <time>2016-06-05T09:59:18Z</time>
    </trkpt>
    <trkpt lat="48.405869" lon="2.638972">
      <ele>134.218</ele>
      <time>2016-06-05T09:59:44Z</time>
    </trkpt>
    <trkpt lat="48.405939" lon="2.639137">
      <ele>134.421</ele>
      <time>2016-06-05T09:59:47Z</time>
    </trkpt>
    <trkpt lat="48.405997" lon="2.639288">
      <ele>134.847</ele>
      <time>2016-06-05T09:59:50Z</time>
    </trkpt>
    <trkpt lat="48.406014" lon="2.63943">
      <ele>135.267</ele>
      <time>2016-06-05T09:59:53Z</time>
    </trkpt>
    <trkpt lat="48.406002" lon="2.639575">
      <ele>134.929</ele>
      <time>2016-06-05T09:59:55Z</time>
    </trkpt>
    <trkpt lat="48.406043" lon="2.639699">
      <ele>134.818</ele>
      <time>2016-06-05T09:59:57Z</time>
    </trkpt>
    <trkpt lat="48.40605" lon="2.639841">
      <ele>134.686</ele>
      <time>2016-06-05T10:00:00Z</time>
    </trkpt>
    <trkpt lat="48.4061" lon="2.640039">
      <ele>134.92</ele>
      <time>2016-06-05T10:00:04Z</time>
    </trkpt>
    <trkpt lat="48.406088" lon="2.640241">
      <ele>134.834</ele>
      <time>2016-06-05T10:00:07Z</time>
    </trkpt>
    <trkpt lat="48.406141" lon="2.640403">
      <ele>135.049</ele>
      <time>2016-06-05T10:00:10Z</time>
    </trkpt>
    <trkpt lat="48.406209" lon="2.640521">
      <ele>135.309</ele>
      <time>2016-06-05T10:00:14Z</time>
    </trkpt>
    <trkpt lat="48.406219" lon="2.64073">
      <ele>135.772</ele>
      <time>2016-06-05T10:00:17Z</time>
    </trkpt>
    <trkpt lat="48.406281" lon="2.640883">
      <ele>136.179</ele>
      <time>2016-06-05T10:00:20Z</time>
    </trkpt>
    <trkpt lat="48.406298" lon="2.641038">
      <ele>136.737</ele>
      <time>2016-06-05T10:00:23Z</time>
    </trkpt>
    <trkpt lat="48.406343" lon="2.641163">
      <ele>137.0</ele>
      <time>2016-06-05T10:00:26Z</time>
    </trkpt>
    <trkpt lat="48.406339" lon="2.641302">
      <ele>137.0</ele>
      <time>2016-06-05T10:00:30Z</time>
    </trkpt>
    <trkpt lat="48.406333" lon="2.64144">
      <ele>136.963</ele>
      <time>2016-06-05T10:00:35Z</time>
    </trkpt>
    <trkpt lat="48.406393" lon="2.641544">
      <ele>137.015</ele>
      <time>2016-06-05T10:00:39Z</time>
    </trkpt>
    <trkpt lat="48.406453" lon="2.641739">
      <ele>136.97</ele>
      <time>2016-06-05T10:00:43Z</time>
    </trkpt>
    <trkpt lat="48.406493" lon="2.64188">
      <ele>136.607</ele>
      <time>2016-06-05T10:00:46Z</time>
    </trkpt>
    <trkpt lat="48.406513" lon="2.642053">
      <ele>136.272</ele>
      <time>2016-06-05T10:00:51Z</time>
    </trkpt>
    <trkpt lat="48.406526" lon="2.642235">
      <ele>135.954</ele>
      <time>2016-06-05T10:00:54Z</time>
    </trkpt>
    <trkpt lat="48.406535" lon="2.642386">
      <ele>135.41</ele>
      <time>2016-06-05T10:00:57Z</time>
    </trkpt>
    <trkpt lat="48.406503" lon="2.642524">
      <ele>135.0</ele>
      <time>2016-06-05T10:01:00Z</time>
    </trkpt>
    <trkpt lat="48.406425" lon="2.642677">
      <ele>135.0</ele>
      <time>2016-06-05T10:01:04Z</time>
    </trkpt>
    <trkpt lat="48.406326" lon="2.642732">
      <ele>134.811</ele>
      <time>2016-06-05T10:01:08Z</time>
    </trkpt>
    <trkpt lat="48.40635" lon="2.642919">
      <ele>134.423</ele>
      <time>2016-06-05T10:01:12Z</time>
    </trkpt>
    <trkpt lat="48.406334" lon="2.643114">
      <ele>133.831</ele>
      <time>2016-06-05T10:01:15Z</time>
    </trkpt>
    <trkpt lat="48.406347" lon="2.643261">
      <ele>133.372</ele>
      <time>2016-06-05T10:01:18Z</time>
    </trkpt>
    <trkpt lat="48.406373" lon="2.643466">
      <ele>132.552</ele>
      <time>2016-06-05T10:01:21Z</time>
    </trkpt>
    <trkpt lat="48.406388" lon="2.643604">
      <ele>132.026</ele>
      <time>2016-06-05T10:01:23Z</time>
    </trkpt>
    <trkpt lat="48.406405" lon="2.643743">
      <ele>131.641</ele>
      <time>2016-06-05T10:01:25Z</time>
    </trkpt>
    <trkpt lat="48.406351" lon="2.64394">
      <ele>130.655</ele>
      <time>2016-06-05T10:01:27Z</time>
    </trkpt>
    <trkpt lat="48.406312" lon="2.644118">
      <ele>129.67</ele>
      <time>2016-06-05T10:01:30Z</time>
    </trkpt>
    <trkpt lat="48.406179" lon="2.644252">
      <ele>128.182</ele>
      <time>2016-06-05T10:01:32Z</time>
    </trkpt>
    <trkpt lat="48.406111" lon="2.644367">
      <ele>127.279</ele>
      <time>2016-06-05T10:01:35Z</time>
    </trkpt>
    <trkpt lat="48.406007" lon="2.644538">
      <ele>126.874</ele>
      <time>2016-06-05T10:01:38Z</time>
    </trkpt>
    <trkpt lat="48.405942" lon="2.644745">
      <ele>126.391</ele>
      <time>2016-06-05T10:01:40Z</time>
    </trkpt>
    <trkpt lat="48.405932" lon="2.644979">
      <ele>126.355</ele>
      <time>2016-06-05T10:01:42Z</time>
    </trkpt>
    <trkpt lat="48.405963" lon="2.645216">
      <ele>126.104</ele>
      <time>2016-06-05T10:01:44Z</time>
    </trkpt>
    <trkpt lat="48.405983" lon="2.645448">
      <ele>125.34</ele>
      <time>2016-06-05T10:01:46Z</time>
    </trkpt>
    <trkpt lat="48.406036" lon="2.645634">
      <ele>124.052</ele>
      <time>2016-06-05T10:01:48Z</time>
    </trkpt>
    <trkpt lat="48.406073" lon="2.645786">
      <ele>122.729</ele>
      <time>2016-06-05T10:01:50Z</time>
    </trkpt>
    <trkpt lat="48.406073" lon="2.64595">
      <ele>122.239</ele>
      <time>2016-06-05T10:01:53Z</time>
    </trkpt>
    <trkpt lat="48.406075" lon="2.646107">
      <ele>122.006</ele>
      <time>2016-06-05T10:01:55Z</time>
    </trkpt>
    <trkpt lat="48.406148" lon="2.646242">
      <ele>122.391</ele>
      <time>2016-06-05T10:01:59Z</time>
    </trkpt>
    <trkpt lat="48.40612" lon="2.646415">
      <ele>122.222</ele>
      <time>2016-06-05T10:02:04Z</time>
    </trkpt>
    <trkpt lat="48.406114" lon="2.646665">
      <ele>123.036</ele>
      <time>2016-06-05T10:02:06Z</time>
    </trkpt>
    <trkpt lat="48.40609" lon="2.646884">
      <ele>122.848</ele>
      <time>2016-06-05T10:02:08Z</time>
    </trkpt>
    <trkpt lat="48.406036" lon="2.647075">
      <ele>121.519</ele>
      <time>2016-06-05T10:02:10Z</time>
    </trkpt>
    <trkpt lat="48.405991" lon="2.647212">
      <ele>120.209</ele>
      <time>2016-06-05T10:02:12Z</time>
    </trkpt>
    <trkpt lat="48.405965" lon="2.647436">
      <ele>118.814</ele>
      <time>2016-06-05T10:02:15Z</time>
    </trkpt>
    <trkpt lat="48.405923" lon="2.64759">
      <ele>118.103</ele>
      <time>2016-06-05T10:02:17Z</time>
    </trkpt>
    <trkpt lat="48.405924" lon="2.647745">
      <ele>117.732</ele>
      <time>2016-06-05T10:02:19Z</time>
    </trkpt>
    <trkpt lat="48.405904" lon="2.647929">
      <ele>117.647</ele>
      <time>2016-06-05T10:02:21Z</time>
    </trkpt>
    <trkpt lat="48.405819" lon="2.648139">
      <ele>116.984</ele>
      <time>2016-06-05T10:02:23Z</time>
    </trkpt>
    <trkpt lat="48.405764" lon="2.648313">
      <ele>116.769</ele>
      <time>2016-06-05T10:02:25Z</time>
    </trkpt>
    <trkpt lat="48.405771" lon="2.648501">
      <ele>116.172</ele>
      <time>2016-06-05T10:02:27Z</time>
    </trkpt>
    <trkpt lat="48.405772" lon="2.648643">
      <ele>115.639</ele>
      <time>2016-06-05T10:02:29Z</time>
    </trkpt>
    <trkpt lat="48.405689" lon="2.648734">
      <ele>114.808</ele>
      <time>2016-06-05T10:02:30Z</time>
    </trkpt>
    <trkpt lat="48.405612" lon="2.648867">
      <ele>113.548</ele>
      <time>2016-06-05T10:02:32Z</time>
    </trkpt>
    <trkpt lat="48.405548" lon="2.648984">
      <ele>112.648</ele>
      <time>2016-06-05T10:02:34Z</time>
    </trkpt>
    <trkpt lat="48.405462" lon="2.649175">
      <ele>111.633</ele>
      <time>2016-06-05T10:02:36Z</time>
    </trkpt>
    <trkpt lat="48.405367" lon="2.649281">
      <ele>110.91</ele>
      <time>2016-06-05T10:02:37Z</time>
    </trkpt>
    <trkpt lat="48.405284" lon="2.649408">
      <ele>110.154</ele>
      <time>2016-06-05T10:02:39Z</time>
    </trkpt>
    <trkpt lat="48.405229" lon="2.649554">
      <ele>110.0</ele>
      <time>2016-06-05T10:02:41Z</time>
    </trkpt>
    <trkpt lat="48.405147" lon="2.649675">
      <ele>110.0</ele>
      <time>2016-06-05T10:02:43Z</time>
    </trkpt>
    <trkpt lat="48.405068" lon="2.649797">
      <ele>109.863</ele>
      <time>2016-06-05T10:03:37Z</time>
    </trkpt>
    <trkpt lat="48.404948" lon="2.649916">
      <ele>109.359</ele>
      <time>2016-06-05T10:03:40Z</time>
    </trkpt>
    <trkpt lat="48.404828" lon="2.650099">
      <ele>108.644</ele>
      <time>2016-06-05T10:03:44Z</time>
    </trkpt>
    <trkpt lat="48.404751" lon="2.650237">
      <ele>108.147</ele>
      <time>2016-06-05T10:03:46Z</time>
    </trkpt>
    <trkpt lat="48.404635" lon="2.650356">
      <ele>106.897</ele>
      <time>2016-06-05T10:03:48Z</time>
    </trkpt>
    <trkpt lat="48.40457" lon="2.650482">
      <ele>105.836</ele>
      <time>2016-06-05T10:03:50Z</time>
    </trkpt>
    <trkpt lat="48.404505" lon="2.650586">
      <ele>105.108</ele>
      <time>2016-06-05T10:03:54Z</time>
    </trkpt>
    <trkpt lat="48.404459" lon="2.650779">
      <ele>104.248</ele>
      <time>2016-06-05T10:03:56Z</time>
    </trkpt>
    <trkpt lat="48.404416" lon="2.650936">
      <ele>103.261</ele>
      <time>2016-06-05T10:03:58Z</time>
    </trkpt>
    <trkpt lat="48.404404" lon="2.651107">
      <ele>102.03</ele>
      <time>2016-06-05T10:04:00Z</time>
    </trkpt>
    <trkpt lat="48.404376" lon="2.651255">
      <ele>101.482</ele>
      <time>2016-06-05T10:04:02Z</time>
    </trkpt>
    <trkpt lat="48.404333" lon="2.651436">
      <ele>100.932</ele>
      <time>2016-06-05T10:04:04Z</time>
    </trkpt>
    <trkpt lat="48.404276" lon="2.651543">
      <ele>100.664</ele>
      <time>2016-06-05T10:04:06Z</time>
    </trkpt>
    <trkpt lat="48.404276" lon="2.651699">
      <ele>100.439</ele>
      <time>2016-06-05T10:04:10Z</time>
    </trkpt>
    <trkpt lat="48.404249" lon="2.651887">
      <ele>100.532</ele>
      <time>2016-06-05T10:04:12Z</time>
    </trkpt>
    <trkpt lat="48.404223" lon="2.652074">
      <ele>99.939</ele>
      <time>2016-06-05T10:04:15Z</time>
    </trkpt>
    <trkpt lat="48.404213" lon="2.652221">
      <ele>99.338</ele>
      <time>2016-06-05T10:04:17Z</time>
    </trkpt>
    <trkpt lat="48.404227" lon="2.652386">
      <ele>99.434</ele>
      <time>2016-06-05T10:04:19Z</time>
    </trkpt>
    <trkpt lat="48.404184" lon="2.652529">
      <ele>99.131</ele>
      <time>2016-06-05T10:04:21Z</time>
    </trkpt>
    <trkpt lat="48.404153" lon="2.652709">
      <ele>98.865</ele>
      <time>2016-06-05T10:04:23Z</time>
    </trkpt>
    <trkpt lat="48.404163" lon="2.652869">
      <ele>98.96</ele>
      <time>2016-06-05T10:04:25Z</time>
    </trkpt>
    <trkpt lat="48.404125" lon="2.653043">
      <ele>98.55</ele>
      <time>2016-06-05T10:04:27Z</time>
    </trkpt>
    <trkpt lat="48.404094" lon="2.653206">
      <ele>97.815</ele>
      <time>2016-06-05T10:04:29Z</time>
    </trkpt>
    <trkpt lat="48.404111" lon="2.653388">
      <ele>97.206</ele>
      <time>2016-06-05T10:04:32Z</time>
    </trkpt>
    <trkpt lat="48.40411" lon="2.653549">
      <ele>96.039</ele>
      <time>2016-06-05T10:04:34Z</time>
    </trkpt>
    <trkpt lat="48.404097" lon="2.65373">
      <ele>95.07</ele>
      <time>2016-06-05T10:04:36Z</time>
    </trkpt>
    <trkpt lat="48.40405" lon="2.653966">
      <ele>94.321</ele>
      <time>2016-06-05T10:04:40Z</time>
    </trkpt>
    <trkpt lat="48.403991" lon="2.654135">
      <ele>94.061</ele>
      <time>2016-06-05T10:04:42Z</time>
    </trkpt>
    <trkpt lat="48.403926" lon="2.654358">
      <ele>94.09</ele>
      <time>2016-06-05T10:04:44Z</time>
    </trkpt>
    <trkpt lat="48.403922" lon="2.654575">
      <ele>94.828</ele>
      <time>2016-06-05T10:04:47Z</time>
    </trkpt>
    <trkpt lat="48.403941" lon="2.654731">
      <ele>95.594</ele>
      <time>2016-06-05T10:04:49Z</time>
    </trkpt>
    <trkpt lat="48.403904" lon="2.654895">
      <ele>95.785</ele>
      <time>2016-06-05T10:04:52Z</time>
    </trkpt>
    <trkpt lat="48.403907" lon="2.655047">
      <ele>96.196</ele>
      <time>2016-06-05T10:04:54Z</time>
    </trkpt>
    <trkpt lat="48.403891" lon="2.65521">
      <ele>96.023</ele>
      <time>2016-06-05T10:04:57Z</time>
    </trkpt>
    <trkpt lat="48.403856" lon="2.655369">
      <ele>95.961</ele>
      <time>2016-06-05T10:05:01Z</time>
    </trkpt>
    <trkpt lat="48.403855" lon="2.655505">
      <ele>95.9</ele>
      <time>2016-06-05T10:05:03Z</time>
    </trkpt>
    <trkpt lat="48.403864" lon="2.655644">
      <ele>95.882</ele>
      <time>2016-06-05T10:05:06Z</time>
    </trkpt>
    <trkpt lat="48.403876" lon="2.65579">
      <ele>95.914</ele>
      <time>2016-06-05T10:05:09Z</time>
    </trkpt>
    <trkpt lat="48.403921" lon="2.655943">
      <ele>96.417</ele>
      <time>2016-06-05T10:05:12Z</time>
    </trkpt>
    <trkpt lat="48.403954" lon="2.6561">
      <ele>96.713</ele>
      <time>2016-06-05T10:05:15Z</time>
    </trkpt>
    <trkpt lat="48.404034" lon="2.656219">
      <ele>97.753</ele>
      <time>2016-06-05T10:05:18Z</time>
    </trkpt>
    <trkpt lat="48.404029" lon="2.656391">
      <ele>98.005</ele>
      <time>2016-06-05T10:05:21Z</time>
    </trkpt>
    <trkpt lat="48.404034" lon="2.65655">
      <ele>97.742</ele>
      <time>2016-06-05T10:05:24Z</time>
    </trkpt>
    <trkpt lat="48.404112" lon="2.656654">
      <ele>97.84</ele>
      <time>2016-06-05T10:05:29Z</time>
    </trkpt>
    <trkpt lat="48.404198" lon="2.656745">
      <ele>98.363</ele>
      <time>2016-06-05T10:05:33Z</time>
    </trkpt>
    <trkpt lat="48.404252" lon="2.656861">
      <ele>98.792</ele>
      <time>2016-06-05T10:05:36Z</time>
    </trkpt>
    <trkpt lat="48.40431" lon="2.656983">
      <ele>99.0</ele>
      <time>2016-06-05T10:05:39Z</time>
    </trkpt>
    <trkpt lat="48.404371" lon="2.657091">
      <ele>99.0</ele>
      <time>2016-06-05T10:05:42Z</time>
    </trkpt>
    <trkpt lat="48.404444" lon="2.657189">
      <ele>99.0</ele>
      <time>2016-06-05T10:05:47Z</time>
    </trkpt>
    <trkpt lat="48.404532" lon="2.65727">
      <ele>99.92</ele>
      <time>2016-06-05T10:05:51Z</time>
    </trkpt>
    <trkpt lat="48.404602" lon="2.65738">
      <ele>100.948</ele>
      <time>2016-06-05T10:05:55Z</time>
    </trkpt>
    <trkpt lat="48.404671" lon="2.657478">
      <ele>101.722</ele>
      <time>2016-06-05T10:06:01Z</time>
    </trkpt>
    <trkpt lat="48.404756" lon="2.657529">
      <ele>102.322</ele>
      <time>2016-06-05T10:06:06Z</time>
    </trkpt>
    <trkpt lat="48.404826" lon="2.657619">
      <ele>102.855</ele>
      <time>2016-06-05T10:06:11Z</time>
    </trkpt>
    <trkpt lat="48.404914" lon="2.657652">
      <ele>103.172</ele>
      <time>2016-06-05T10:06:15Z</time>
    </trkpt>
    <trkpt lat="48.404992" lon="2.65772">
      <ele>103.196</ele>
      <time>2016-06-05T10:06:19Z</time>
    </trkpt>
    <trkpt lat="48.405072" lon="2.657833">
      <ele>102.957</ele>
      <time>2016-06-05T10:06:24Z</time>
    </trkpt>
    <trkpt lat="48.40514" lon="2.65794">
      <ele>102.331</ele>
      <time>2016-06-05T10:06:28Z</time>
    </trkpt>
    <trkpt lat="48.405228" lon="2.657982">
      <ele>101.879</ele>
      <time>2016-06-05T10:06:31Z</time>
    </trkpt>
    <trkpt lat="48.405297" lon="2.658093">
      <ele>100.865</ele>
      <time>2016-06-05T10:06:35Z</time>
    </trkpt>
    <trkpt lat="48.405398" lon="2.658162">
      <ele>100.617</ele>
      <time>2016-06-05T10:06:38Z</time>
    </trkpt>
    <trkpt lat="48.40549" lon="2.658232">
      <ele>100.365</ele>
      <time>2016-06-05T10:06:42Z</time>
    </trkpt>
    <trkpt lat="48.40555" lon="2.658343">
      <ele>100.0</ele>
      <time>2016-06-05T10:06:44Z</time>
    </trkpt>
    <trkpt lat="48.405607" lon="2.658505">
      <ele>100.441</ele>
      <time>2016-06-05T10:06:46Z</time>
    </trkpt>
    <trkpt lat="48.405649" lon="2.658683">
      <ele>100.673</ele>
      <time>2016-06-05T10:06:49Z</time>
    </trkpt>
    <trkpt lat="48.405662" lon="2.658838">
      <ele>100.766</ele>
      <time>2016-06-05T10:06:52Z</time>
    </trkpt>
    <trkpt lat="48.405647" lon="2.659008">
      <ele>101.087</ele>
      <time>2016-06-05T10:06:55Z</time>
    </trkpt>
    <trkpt lat="48.405657" lon="2.659169">
      <ele>101.739</ele>
      <time>2016-06-05T10:06:58Z</time>
    </trkpt>
    <trkpt lat="48.405623" lon="2.659327">
      <ele>102.063</ele>
      <time>2016-06-05T10:07:01Z</time>
    </trkpt>
    <trkpt lat="48.405689" lon="2.659418">
      <ele>102.866</ele>
      <time>2016-06-05T10:07:06Z</time>
    </trkpt>
    <trkpt lat="48.405596" lon="2.659405">
      <ele>102.149</ele>
      <time>2016-06-05T10:07:11Z</time>
    </trkpt>
    <trkpt lat="48.40554" lon="2.659288">
      <ele>101.437</ele>
      <time>2016-06-05T10:07:14Z</time>
    </trkpt>
    <trkpt lat="48.405543" lon="2.659443">
      <ele>101.995</ele>
      <time>2016-06-05T10:07:19Z</time>
    </trkpt>
    <trkpt lat="48.40556" lon="2.65958">
      <ele>102.512</ele>
      <time>2016-06-05T10:07:32Z</time>
    </trkpt>
    <trkpt lat="48.405581" lon="2.659719">
      <ele>103.081</ele>
      <time>2016-06-05T10:07:36Z</time>
    </trkpt>
    <trkpt lat="48.405621" lon="2.659842">
      <ele>103.565</ele>
      <time>2016-06-05T10:07:40Z</time>
    </trkpt>
    <trkpt lat="48.405658" lon="2.659974">
      <ele>103.941</ele>
      <time>2016-06-05T10:07:43Z</time>
    </trkpt>
    <trkpt lat="48.405647" lon="2.660123">
      <ele>104.443</ele>
      <time>2016-06-05T10:07:46Z</time>
    </trkpt>
    <trkpt lat="48.40564" lon="2.660349">
      <ele>105.0</ele>
      <time>2016-06-05T10:07:49Z</time>
    </trkpt>
    <trkpt lat="48.4057" lon="2.660458">
      <ele>105.0</ele>
      <time>2016-06-05T10:07:52Z</time>
    </trkpt>
    <trkpt lat="48.405799" lon="2.660544">
      <ele>105.0</ele>
      <time>2016-06-05T10:07:56Z</time>
    </trkpt>
    <trkpt lat="48.405883" lon="2.660598">
      <ele>104.849</ele>
      <time>2016-06-05T10:08:02Z</time>
    </trkpt>
    <trkpt lat="48.405985" lon="2.66062">
      <ele>104.581</ele>
      <time>2016-06-05T10:08:08Z</time>
    </trkpt>
    <trkpt lat="48.40609" lon="2.660602">
      <ele>104.23</ele>
      <time>2016-06-05T10:08:13Z</time>
    </trkpt>
    <trkpt lat="48.406183" lon="2.660561">
      <ele>104.527</ele>
      <time>2016-06-05T10:08:18Z</time>
    </trkpt>
    <trkpt lat="48.406284" lon="2.660542">
      <ele>105.245</ele>
      <time>2016-06-05T10:08:25Z</time>
    </trkpt>
    <trkpt lat="48.406379" lon="2.660531">
      <ele>105.929</ele>
      <time>2016-06-05T10:08:31Z</time>
    </trkpt>
    <trkpt lat="48.406467" lon="2.660485">
      <ele>107.125</ele>
      <time>2016-06-05T10:08:38Z</time>
    </trkpt>
    <trkpt lat="48.40657" lon="2.66049">
      <ele>108.608</ele>
      <time>2016-06-05T10:08:45Z</time>
    </trkpt>
    <trkpt lat="48.406674" lon="2.660425">
      <ele>110.144</ele>
      <time>2016-06-05T10:08:51Z</time>
    </trkpt>
    <trkpt lat="48.406774" lon="2.660434">
      <ele>112.101</ele>
      <time>2016-06-05T10:09:00Z</time>
    </trkpt>
    <trkpt lat="48.406871" lon="2.660495">
      <ele>113.838</ele>
      <time>2016-06-05T10:09:10Z</time>
    </trkpt>
    <trkpt lat="48.406904" lon="2.66063">
      <ele>114.004</ele>
      <time>2016-06-05T10:09:21Z</time>
    </trkpt>
    <trkpt lat="48.40694" lon="2.660772">
      <ele>114.141</ele>
      <time>2016-06-05T10:09:35Z</time>
    </trkpt>
    <trkpt lat="48.407025" lon="2.660869">
      <ele>116.158</ele>
      <time>2016-06-05T10:10:38Z</time>
    </trkpt>
    <trkpt lat="48.407096" lon="2.66096">
      <ele>118.275</ele>
      <time>2016-06-05T10:10:41Z</time>
    </trkpt>
    <trkpt lat="48.407192" lon="2.660992">
      <ele>120.81</ele>
      <time>2016-06-05T10:10:48Z</time>
    </trkpt>
    <trkpt lat="48.407261" lon="2.66109">
      <ele>122.772</ele>
      <time>2016-06-05T10:10:55Z</time>
    </trkpt>
    <trkpt lat="48.407345" lon="2.661186">
      <ele>124.382</ele>
      <time>2016-06-05T10:11:04Z</time>
    </trkpt>
    <trkpt lat="48.407356" lon="2.661336">
      <ele>124.08</ele>
      <time>2016-06-05T10:11:12Z</time>
    </trkpt>
    <trkpt lat="48.407373" lon="2.661496">
      <ele>123.871</ele>
      <time>2016-06-05T10:11:20Z</time>
    </trkpt>
    <trkpt lat="48.407442" lon="2.661593">
      <ele>125.012</ele>
      <time>2016-06-05T10:11:32Z</time>
    </trkpt>
    <trkpt lat="48.407522" lon="2.661653">
      <ele>126.6</ele>
      <time>2016-06-05T10:11:54Z</time>
    </trkpt>
    <trkpt lat="48.407606" lon="2.661732">
      <ele>128.817</ele>
      <time>2016-06-05T10:12:11Z</time>
    </trkpt>
    <trkpt lat="48.40768" lon="2.661811">
      <ele>130.719</ele>
      <time>2016-06-05T10:12:17Z</time>
    </trkpt>
    <trkpt lat="48.407757" lon="2.661734">
      <ele>132.495</ele>
      <time>2016-06-05T10:12:47Z</time>
    </trkpt>
    <trkpt lat="48.407823" lon="2.661582">
      <ele>133.764</ele>
      <time>2016-06-05T10:13:16Z</time>
    </trkpt>
    <trkpt lat="48.407896" lon="2.661468">
      <ele>134.824</ele>
      <time>2016-06-05T10:13:19Z</time>
    </trkpt>
    <trkpt lat="48.407961" lon="2.661317">
      <ele>135.726</ele>
      <time>2016-06-05T10:13:24Z</time>
    </trkpt>
    <trkpt lat="48.408" lon="2.661187">
      <ele>136.345</ele>
      <time>2016-06-05T10:13:26Z</time>
    </trkpt>
    <trkpt lat="48.408061" lon="2.661022">
      <ele>137.033</ele>
      <time>2016-06-05T10:13:29Z</time>
    </trkpt>
    <trkpt lat="48.408111" lon="2.660906">
      <ele>137.252</ele>
      <time>2016-06-05T10:13:33Z</time>
    </trkpt>
    <trkpt lat="48.408156" lon="2.660734">
      <ele>137.59</ele>
      <time>2016-06-05T10:13:38Z</time>
    </trkpt>
    <trkpt lat="48.408231" lon="2.660591">
      <ele>137.953</ele>
      <time>2016-06-05T10:13:40Z</time>
    </trkpt>
    <trkpt lat="48.408304" lon="2.660445">
      <ele>137.958</ele>
      <time>2016-06-05T10:13:43Z</time>
    </trkpt>
    <trkpt lat="48.408371" lon="2.660336">
      <ele>138.136</ele>
      <time>2016-06-05T10:13:46Z</time>
    </trkpt>
    <trkpt lat="48.40842" lon="2.660211">
      <ele>138.312</ele>
      <time>2016-06-05T10:13:49Z</time>
    </trkpt>
    <trkpt lat="48.408462" lon="2.660079">
      <ele>138.463</ele>
      <time>2016-06-05T10:13:52Z</time>
    </trkpt>
    <trkpt lat="48.40849" lon="2.659941">
      <ele>138.564</ele>
      <time>2016-06-05T10:13:55Z</time>
    </trkpt>
    <trkpt lat="48.408562" lon="2.659816">
      <ele>138.823</ele>
      <time>2016-06-05T10:13:57Z</time>
    </trkpt>
    <trkpt lat="48.408623" lon="2.659694">
      <ele>138.991</ele>
      <time>2016-06-05T10:13:59Z</time>
    </trkpt>
    <trkpt lat="48.408693" lon="2.659594">
      <ele>138.728</ele>
      <time>2016-06-05T10:14:03Z</time>
    </trkpt>
    <trkpt lat="48.408779" lon="2.659508">
      <ele>138.068</ele>
      <time>2016-06-05T10:14:07Z</time>
    </trkpt>
    <trkpt lat="48.408877" lon="2.659522">
      <ele>137.62</ele>
      <time>2016-06-05T10:14:11Z</time>
    </trkpt>
    <trkpt lat="48.40901" lon="2.659499">
      <ele>136.957</ele>
      <time>2016-06-05T10:14:14Z</time>
    </trkpt>
    <trkpt lat="48.409107" lon="2.659494">
      <ele>136.572</ele>
      <time>2016-06-05T10:14:16Z</time>
    </trkpt>
    <trkpt lat="48.409202" lon="2.659518">
      <ele>136.623</ele>
      <time>2016-06-05T10:14:18Z</time>
    </trkpt>
    <trkpt lat="48.409319" lon="2.659508">
      <ele>136.881</ele>
      <time>2016-06-05T10:14:21Z</time>
    </trkpt>
    <trkpt lat="48.409431" lon="2.659486">
      <ele>137.108</ele>
      <time>2016-06-05T10:14:24Z</time>
    </trkpt>
    <trkpt lat="48.409563" lon="2.65946">
      <ele>136.629</ele>
      <time>2016-06-05T10:14:27Z</time>
    </trkpt>
    <trkpt lat="48.409667" lon="2.659458">
      <ele>136.248</ele>
      <time>2016-06-05T10:14:29Z</time>
    </trkpt>
    <trkpt lat="48.409776" lon="2.659446">
      <ele>135.812</ele>
      <time>2016-06-05T10:14:31Z</time>
    </trkpt>
    <trkpt lat="48.409881" lon="2.659445">
      <ele>135.43</ele>
      <time>2016-06-05T10:14:33Z</time>
    </trkpt>
    <trkpt lat="48.410016" lon="2.659477">
      <ele>135.06</ele>
      <time>2016-06-05T10:14:36Z</time>
    </trkpt>
    <trkpt lat="48.410122" lon="2.659466">
      <ele>134.638</ele>
      <time>2016-06-05T10:14:38Z</time>
    </trkpt>
    <trkpt lat="48.410215" lon="2.659458">
      <ele>134.275</ele>
      <time>2016-06-05T10:14:40Z</time>
    </trkpt>
    <trkpt lat="48.410329" lon="2.659468">
      <ele>134.085</ele>
      <time>2016-06-05T10:14:43Z</time>
    </trkpt>
    <trkpt lat="48.410422" lon="2.659399">
      <ele>133.921</ele>
      <time>2016-06-05T10:14:46Z</time>
    </trkpt>
    <trkpt lat="48.410472" lon="2.659261">
      <ele>133.801</ele>
      <time>2016-06-05T10:14:51Z</time>
    </trkpt>
    <trkpt lat="48.410559" lon="2.659079">
      <ele>134.0</ele>
      <time>2016-06-05T10:14:54Z</time>
    </trkpt>
    <trkpt lat="48.410628" lon="2.658919">
      <ele>134.0</ele>
      <time>2016-06-05T10:14:57Z</time>
    </trkpt>
    <trkpt lat="48.4107" lon="2.658777">
      <ele>133.404</ele>
      <time>2016-06-05T10:15:00Z</time>
    </trkpt>
    <trkpt lat="48.410768" lon="2.65866">
      <ele>132.982</ele>
      <time>2016-06-05T10:15:02Z</time>
    </trkpt>
    <trkpt lat="48.41085" lon="2.658522">
      <ele>132.679</ele>
      <time>2016-06-05T10:15:05Z</time>
    </trkpt>
    <trkpt lat="48.410903" lon="2.658412">
      <ele>132.283</ele>
      <time>2016-06-05T10:15:07Z</time>
    </trkpt>
    <trkpt lat="48.410974" lon="2.658277">
      <ele>131.797</ele>
      <time>2016-06-05T10:15:10Z</time>
    </trkpt>
    <trkpt lat="48.411021" lon="2.658142">
      <ele>131.311</ele>
      <time>2016-06-05T10:15:12Z</time>
    </trkpt>
    <trkpt lat="48.411072" lon="2.658027">
      <ele>131.0</ele>
      <time>2016-06-05T10:15:14Z</time>
    </trkpt>
    <trkpt lat="48.411129" lon="2.65792">
      <ele>131.033</ele>
      <time>2016-06-05T10:15:16Z</time>
    </trkpt>
    <trkpt lat="48.411204" lon="2.657764">
      <ele>131.0</ele>
      <time>2016-06-05T10:15:19Z</time>
    </trkpt>
    <trkpt lat="48.411274" lon="2.65763">
      <ele>131.0</ele>
      <time>2016-06-05T10:15:22Z</time>
    </trkpt>
    <trkpt lat="48.411343" lon="2.657483">
      <ele>131.051</ele>
      <time>2016-06-05T10:15:25Z</time>
    </trkpt>
    <trkpt lat="48.411406" lon="2.657371">
      <ele>131.464</ele>
      <time>2016-06-05T10:15:28Z</time>
    </trkpt>
    <trkpt lat="48.411461" lon="2.657234">
      <ele>131.958</ele>
      <time>2016-06-05T10:15:31Z</time>
    </trkpt>
    <trkpt lat="48.41154" lon="2.657109">
      <ele>132.629</ele>
      <time>2016-06-05T10:15:37Z</time>
    </trkpt>
    <trkpt lat="48.411613" lon="2.657017">
      <ele>133.335</ele>
      <time>2016-06-05T10:15:41Z</time>
    </trkpt>
    <trkpt lat="48.411645" lon="2.65689">
      <ele>133.937</ele>
      <time>2016-06-05T10:15:47Z</time>
    </trkpt>
    <trkpt lat="48.411706" lon="2.656783">
      <ele>133.858</ele>
      <time>2016-06-05T10:15:53Z</time>
    </trkpt>
    <trkpt lat="48.411769" lon="2.656684">
      <ele>133.632</ele>
      <time>2016-06-05T10:15:56Z</time>
    </trkpt>
    <trkpt lat="48.411856" lon="2.656741">
      <ele>133.318</ele>
      <time>2016-06-05T10:16:00Z</time>
    </trkpt>
    <trkpt lat="48.411935" lon="2.656834">
      <ele>133.034</ele>
      <time>2016-06-05T10:16:03Z</time>
    </trkpt>
    <trkpt lat="48.412009" lon="2.656958">
      <ele>132.486</ele>
      <time>2016-06-05T10:16:06Z</time>
    </trkpt>
    <trkpt lat="48.412092" lon="2.657083">
      <ele>131.439</ele>
      <time>2016-06-05T10:16:09Z</time>
    </trkpt>
    <trkpt lat="48.41215" lon="2.657213">
      <ele>130.553</ele>
      <time>2016-06-05T10:16:12Z</time>
    </trkpt>
    <trkpt lat="48.412211" lon="2.657318">
      <ele>130.412</ele>
      <time>2016-06-05T10:16:15Z</time>
    </trkpt>
    <trkpt lat="48.412283" lon="2.657419">
      <ele>130.49</ele>
      <time>2016-06-05T10:16:18Z</time>
    </trkpt>
    <trkpt lat="48.412364" lon="2.657534">
      <ele>130.55</ele>
      <time>2016-06-05T10:16:22Z</time>
    </trkpt>
    <trkpt lat="48.412424" lon="2.657653">
      <ele>130.424</ele>
      <time>2016-06-05T10:16:25Z</time>
    </trkpt>
    <trkpt lat="48.412483" lon="2.657758">
      <ele>130.118</ele>
      <time>2016-06-05T10:16:28Z</time>
    </trkpt>
    <trkpt lat="48.412551" lon="2.657887">
      <ele>130.321</ele>
      <time>2016-06-05T10:16:31Z</time>
    </trkpt>
    <trkpt lat="48.412624" lon="2.658005">
      <ele>130.453</ele>
      <time>2016-06-05T10:16:34Z</time>
    </trkpt>
    <trkpt lat="48.412696" lon="2.658107">
      <ele>130.294</ele>
      <time>2016-06-05T10:16:37Z</time>
    </trkpt>
    <trkpt lat="48.412773" lon="2.658194">
      <ele>130.017</ele>
      <time>2016-06-05T10:16:40Z</time>
    </trkpt>
    <trkpt lat="48.412834" lon="2.6583">
      <ele>130.0</ele>
      <time>2016-06-05T10:16:43Z</time>
    </trkpt>
    <trkpt lat="48.4129" lon="2.658398">
      <ele>130.13</ele>
      <time>2016-06-05T10:16:46Z</time>
    </trkpt>
    <trkpt lat="48.412965" lon="2.658492">
      <ele>130.186</ele>
      <time>2016-06-05T10:16:49Z</time>
    </trkpt>
    <trkpt lat="48.413045" lon="2.658607">
      <ele>130.037</ele>
      <time>2016-06-05T10:16:53Z</time>
    </trkpt>
    <trkpt lat="48.413105" lon="2.658741">
      <ele>130.646</ele>
      <time>2016-06-05T10:16:57Z</time>
    </trkpt>
    <trkpt lat="48.413171" lon="2.658859">
      <ele>131.308</ele>
      <time>2016-06-05T10:17:01Z</time>
    </trkpt>
    <trkpt lat="48.41323" lon="2.658979">
      <ele>132.073</ele>
      <time>2016-06-05T10:17:04Z</time>
    </trkpt>
    <trkpt lat="48.413301" lon="2.659107">
      <ele>132.76</ele>
      <time>2016-06-05T10:17:08Z</time>
    </trkpt>
    <trkpt lat="48.41336" lon="2.659212">
      <ele>133.148</ele>
      <time>2016-06-05T10:17:11Z</time>
    </trkpt>
    <trkpt lat="48.413419" lon="2.659342">
      <ele>133.437</ele>
      <time>2016-06-05T10:17:14Z</time>
    </trkpt>
    <trkpt lat="48.413498" lon="2.659466">
      <ele>133.407</ele>
      <time>2016-06-05T10:17:17Z</time>
    </trkpt>
    <trkpt lat="48.413567" lon="2.659557">
      <ele>133.159</ele>
      <time>2016-06-05T10:17:20Z</time>
    </trkpt>
    <trkpt lat="48.413646" lon="2.65968">
      <ele>133.0</ele>
      <time>2016-06-05T10:17:23Z</time>
    </trkpt>
    <trkpt lat="48.413733" lon="2.65983">
      <ele>133.0</ele>
      <time>2016-06-05T10:17:26Z</time>
    </trkpt>
    <trkpt lat="48.413851" lon="2.659945">
      <ele>133.0</ele>
      <time>2016-06-05T10:17:29Z</time>
    </trkpt>
    <trkpt lat="48.413945" lon="2.660073">
      <ele>132.737</ele>
      <time>2016-06-05T10:17:32Z</time>
    </trkpt>
    <trkpt lat="48.414005" lon="2.660215">
      <ele>132.226</ele>
      <time>2016-06-05T10:17:35Z</time>
    </trkpt>
    <trkpt lat="48.414095" lon="2.660367">
      <ele>132.083</ele>
      <time>2016-06-05T10:17:38Z</time>
    </trkpt>
    <trkpt lat="48.414183" lon="2.660521">
      <ele>132.007</ele>
      <time>2016-06-05T10:17:41Z</time>
    </trkpt>
    <trkpt lat="48.414268" lon="2.660662">
      <ele>131.86</ele>
      <time>2016-06-05T10:17:44Z</time>
    </trkpt>
    <trkpt lat="48.414319" lon="2.660778">
      <ele>131.561</ele>
      <time>2016-06-05T10:17:46Z</time>
    </trkpt>
    <trkpt lat="48.414374" lon="2.660888">
      <ele>131.107</ele>
      <time>2016-06-05T10:17:48Z</time>
    </trkpt>
    <trkpt lat="48.414439" lon="2.661011">
      <ele>130.393</ele>
      <time>2016-06-05T10:17:50Z</time>
    </trkpt>
    <trkpt lat="48.414493" lon="2.661153">
      <ele>130.5</ele>
      <time>2016-06-05T10:17:52Z</time>
    </trkpt>
    <trkpt lat="48.414564" lon="2.661285">
      <ele>131.487</ele>
      <time>2016-06-05T10:17:55Z</time>
    </trkpt>
    <trkpt lat="48.414649" lon="2.661398">
      <ele>132.481</ele>
      <time>2016-06-05T10:17:58Z</time>
    </trkpt>
    <trkpt lat="48.414734" lon="2.661537">
      <ele>133.085</ele>
      <time>2016-06-05T10:18:01Z</time>
    </trkpt>
    <trkpt lat="48.41482" lon="2.661702">
      <ele>133.704</ele>
      <time>2016-06-05T10:18:04Z</time>
    </trkpt>
    <trkpt lat="48.414881" lon="2.661806">
      <ele>134.143</ele>
      <time>2016-06-05T10:18:06Z</time>
    </trkpt>
    <trkpt lat="48.414956" lon="2.661932">
      <ele>134.683</ele>
      <time>2016-06-05T10:18:08Z</time>
    </trkpt>
    <trkpt lat="48.415012" lon="2.662054">
      <ele>135.009</ele>
      <time>2016-06-05T10:18:10Z</time>
    </trkpt>
    <trkpt lat="48.415097" lon="2.662196">
      <ele>134.717</ele>
      <time>2016-06-05T10:18:13Z</time>
    </trkpt>
    <trkpt lat="48.415192" lon="2.662336">
      <ele>133.773</ele>
      <time>2016-06-05T10:18:16Z</time>
    </trkpt>
    <trkpt lat="48.415255" lon="2.662466">
      <ele>133.132</ele>
      <time>2016-06-05T10:18:19Z</time>
    </trkpt>
    <trkpt lat="48.415323" lon="2.662571">
      <ele>132.582</ele>
      <time>2016-06-05T10:18:21Z</time>
    </trkpt>
    <trkpt lat="48.415406" lon="2.662655">
      <ele>131.98</ele>
      <time>2016-06-05T10:18:24Z</time>
    </trkpt>
    <trkpt lat="48.415469" lon="2.662803">
      <ele>131.255</ele>
      <time>2016-06-05T10:18:26Z</time>
    </trkpt>
    <trkpt lat="48.415562" lon="2.662948">
      <ele>131.009</ele>
      <time>2016-06-05T10:18:29Z</time>
    </trkpt>
    <trkpt lat="48.415673" lon="2.663079">
      <ele>131.0</ele>
      <time>2016-06-05T10:18:32Z</time>
    </trkpt>
    <trkpt lat="48.41577" lon="2.663175">
      <ele>131.0</ele>
      <time>2016-06-05T10:18:34Z</time>
    </trkpt>
    <trkpt lat="48.415856" lon="2.663278">
      <ele>130.935</ele>
      <time>2016-06-05T10:18:37Z</time>
    </trkpt>
    <trkpt lat="48.415903" lon="2.6634">
      <ele>130.749</ele>
      <time>2016-06-05T10:18:39Z</time>
    </trkpt>
    <trkpt lat="48.415951" lon="2.66353">
      <ele>130.576</ele>
      <time>2016-06-05T10:18:41Z</time>
    </trkpt>
    <trkpt lat="48.416017" lon="2.663627">
      <ele>130.339</ele>
      <time>2016-06-05T10:18:43Z</time>
    </trkpt>
    <trkpt lat="48.416054" lon="2.663762">
      <ele>130.206</ele>
      <time>2016-06-05T10:18:45Z</time>
    </trkpt>
    <trkpt lat="48.416132" lon="2.663859">
      <ele>129.858</ele>
      <time>2016-06-05T10:18:47Z</time>
    </trkpt>
    <trkpt lat="48.416203" lon="2.663955">
      <ele>129.417</ele>
      <time>2016-06-05T10:18:49Z</time>
    </trkpt>
    <trkpt lat="48.416269" lon="2.664084">
      <ele>129.262</ele>
      <time>2016-06-05T10:18:51Z</time>
    </trkpt>
    <trkpt lat="48.416326" lon="2.664213">
      <ele>129.484</ele>
      <time>2016-06-05T10:18:53Z</time>
    </trkpt>
    <trkpt lat="48.416402" lon="2.664309">
      <ele>130.025</ele>
      <time>2016-06-05T10:18:55Z</time>
    </trkpt>
    <trkpt lat="48.416484" lon="2.664447">
      <ele>131.009</ele>
      <time>2016-06-05T10:18:57Z</time>
    </trkpt>
    <trkpt lat="48.416563" lon="2.664621">
      <ele>131.636</ele>
      <time>2016-06-05T10:19:00Z</time>
    </trkpt>
    <trkpt lat="48.416593" lon="2.66476">
      <ele>132.1</ele>
      <time>2016-06-05T10:19:02Z</time>
    </trkpt>
    <trkpt lat="48.416626" lon="2.664915">
      <ele>132.592</ele>
      <time>2016-06-05T10:19:06Z</time>
    </trkpt>
    <trkpt lat="48.416678" lon="2.665041">
      <ele>133.101</ele>
      <time>2016-06-05T10:19:10Z</time>
    </trkpt>
    <trkpt lat="48.416754" lon="2.665143">
      <ele>133.039</ele>
      <time>2016-06-05T10:19:14Z</time>
    </trkpt>
    <trkpt lat="48.416787" lon="2.665308">
      <ele>133.242</ele>
      <time>2016-06-05T10:19:18Z</time>
    </trkpt>
    <trkpt lat="48.416828" lon="2.665448">
      <ele>133.451</ele>
      <time>2016-06-05T10:19:21Z</time>
    </trkpt>
    <trkpt lat="48.416852" lon="2.66559">
      <ele>133.666</ele>
      <time>2016-06-05T10:19:24Z</time>
    </trkpt>
    <trkpt lat="48.416887" lon="2.665718">
      <ele>133.414</ele>
      <time>2016-06-05T10:19:27Z</time>
    </trkpt>
    <trkpt lat="48.41693" lon="2.665863">
      <ele>133.11</ele>
      <time>2016-06-05T10:19:30Z</time>
    </trkpt>
    <trkpt lat="48.416982" lon="2.666015">
      <ele>132.506</ele>
      <time>2016-06-05T10:19:33Z</time>
    </trkpt>
    <trkpt lat="48.417018" lon="2.666164">
      <ele>131.75</ele>
      <time>2016-06-05T10:19:36Z</time>
    </trkpt>
    <trkpt lat="48.417045" lon="2.666316">
      <ele>130.814</ele>
      <time>2016-06-05T10:19:39Z</time>
    </trkpt>
    <trkpt lat="48.417103" lon="2.666463">
      <ele>129.565</ele>
      <time>2016-06-05T10:19:42Z</time>
    </trkpt>
    <trkpt lat="48.417157" lon="2.666652">
      <ele>128.214</ele>
      <time>2016-06-05T10:19:45Z</time>
    </trkpt>
    <trkpt lat="48.417196" lon="2.666853">
      <ele>127.409</ele>
      <time>2016-06-05T10:19:48Z</time>
    </trkpt>
    <trkpt lat="48.417237" lon="2.666975">
      <ele>126.998</ele>
      <time>2016-06-05T10:19:50Z</time>
    </trkpt>
    <trkpt lat="48.417313" lon="2.667138">
      <ele>126.815</ele>
      <time>2016-06-05T10:19:53Z</time>
    </trkpt>
    <trkpt lat="48.41739" lon="2.667327">
      <ele>125.732</ele>
      <time>2016-06-05T10:19:55Z</time>
    </trkpt>
    <trkpt lat="48.41742" lon="2.667546">
      <ele>124.558</ele>
      <time>2016-06-05T10:19:57Z</time>
    </trkpt>
    <trkpt lat="48.417448" lon="2.6677">
      <ele>124.521</ele>
      <time>2016-06-05T10:19:58Z</time>
    </trkpt>
    <trkpt lat="48.417462" lon="2.667843">
      <ele>124.345</ele>
      <time>2016-06-05T10:19:59Z</time>
    </trkpt>
    <trkpt lat="48.4175" lon="2.668021">
      <ele>123.124</ele>
      <time>2016-06-05T10:20:01Z</time>
    </trkpt>
    <trkpt lat="48.417515" lon="2.668165">
      <ele>123.0</ele>
      <time>2016-06-05T10:20:02Z</time>
    </trkpt>
    <trkpt lat="48.41755" lon="2.668327">
      <ele>123.0</ele>
      <time>2016-06-05T10:20:03Z</time>
    </trkpt>
    <trkpt lat="48.417597" lon="2.668496">
      <ele>123.381</ele>
      <time>2016-06-05T10:20:04Z</time>
    </trkpt>
    <trkpt lat="48.417596" lon="2.668703">
      <ele>123.871</ele>
      <time>2016-06-05T10:20:05Z</time>
    </trkpt>
    <trkpt lat="48.417609" lon="2.668958">
      <ele>124.615</ele>
      <time>2016-06-05T10:20:07Z</time>
    </trkpt>
    <trkpt lat="48.417633" lon="2.66913">
      <ele>125.363</ele>
      <time>2016-06-05T10:20:09Z</time>
    </trkpt>
    <trkpt lat="48.417633" lon="2.669269">
      <ele>126.492</ele>
      <time>2016-06-05T10:20:11Z</time>
    </trkpt>
    <trkpt lat="48.417682" lon="2.66943">
      <ele>127.257</ele>
      <time>2016-06-05T10:20:14Z</time>
    </trkpt>
    <trkpt lat="48.417695" lon="2.669574">
      <ele>128.125</ele>
      <time>2016-06-05T10:20:18Z</time>
    </trkpt>
    <trkpt lat="48.417698" lon="2.669729">
      <ele>129.191</ele>
      <time>2016-06-05T10:20:23Z</time>
    </trkpt>
    <trkpt lat="48.41775" lon="2.669882">
      <ele>129.493</ele>
      <time>2016-06-05T10:20:32Z</time>
    </trkpt>
    <trkpt lat="48.417817" lon="2.669981">
      <ele>129.44</ele>
      <time>2016-06-05T10:20:38Z</time>
    </trkpt>
    <trkpt lat="48.417861" lon="2.670125">
      <ele>130.182</ele>
      <time>2016-06-05T10:20:44Z</time>
    </trkpt>
    <trkpt lat="48.417824" lon="2.670263">
      <ele>132.026</ele>
      <time>2016-06-05T10:20:52Z</time>
    </trkpt>
    <trkpt lat="48.417862" lon="2.670402">
      <ele>132.826</ele>
      <time>2016-06-05T10:21:01Z</time>
    </trkpt>
    <trkpt lat="48.417859" lon="2.67054">
      <ele>134.37</ele>
      <time>2016-06-05T10:21:08Z</time>
    </trkpt>
    <trkpt lat="48.417881" lon="2.670689">
      <ele>134.924</ele>
      <time>2016-06-05T10:21:14Z</time>
    </trkpt>
    <trkpt lat="48.417873" lon="2.670843">
      <ele>136.048</ele>
      <time>2016-06-05T10:21:20Z</time>
    </trkpt>
    <trkpt lat="48.417905" lon="2.670986">
      <ele>136.901</ele>
      <time>2016-06-05T10:21:26Z</time>
    </trkpt>
    <trkpt lat="48.417934" lon="2.671141">
      <ele>137.841</ele>
      <time>2016-06-05T10:21:31Z</time>
    </trkpt>
    <trkpt lat="48.417958" lon="2.671293">
      <ele>138.417</ele>
      <time>2016-06-05T10:21:36Z</time>
    </trkpt>
    <trkpt lat="48.417953" lon="2.671443">
      <ele>139.287</ele>
      <time>2016-06-05T10:21:40Z</time>
    </trkpt>
    <trkpt lat="48.417976" lon="2.671586">
      <ele>138.922</ele>
      <time>2016-06-05T10:21:44Z</time>
    </trkpt>
    <trkpt lat="48.417976" lon="2.671738">
      <ele>138.931</ele>
      <time>2016-06-05T10:21:48Z</time>
    </trkpt>
    <trkpt lat="48.41796" lon="2.671888">
      <ele>139.134</ele>
      <time>2016-06-05T10:21:52Z</time>
    </trkpt>
    <trkpt lat="48.417981" lon="2.672022">
      <ele>138.74</ele>
      <time>2016-06-05T10:21:55Z</time>
    </trkpt>
    <trkpt lat="48.417996" lon="2.672183">
      <ele>138.777</ele>
      <time>2016-06-05T10:21:59Z</time>
    </trkpt>
    <trkpt lat="48.41803" lon="2.672351">
      <ele>138.325</ele>
      <time>2016-06-05T10:22:03Z</time>
    </trkpt>
    <trkpt lat="48.418042" lon="2.672516">
      <ele>138.146</ele>
      <time>2016-06-05T10:22:07Z</time>
    </trkpt>
    <trkpt lat="48.41809" lon="2.672696">
      <ele>138.0</ele>
      <time>2016-06-05T10:22:12Z</time>
    </trkpt>
    <trkpt lat="48.418108" lon="2.672832">
      <ele>138.074</ele>
      <time>2016-06-05T10:22:14Z</time>
    </trkpt>
    <trkpt lat="48.418116" lon="2.672968">
      <ele>138.298</ele>
      <time>2016-06-05T10:22:16Z</time>
    </trkpt>
    <trkpt lat="48.418114" lon="2.673138">
      <ele>138.78</ele>
      <time>2016-06-05T10:22:18Z</time>
    </trkpt>
    <trkpt lat="48.418121" lon="2.673292">
      <ele>139.523</ele>
      <time>2016-06-05T10:22:20Z</time>
    </trkpt>
    <trkpt lat="48.418124" lon="2.673455">
      <ele>140.507</ele>
      <time>2016-06-05T10:22:23Z</time>
    </trkpt>
    <trkpt lat="48.418143" lon="2.673588">
      <ele>141.489</ele>
      <time>2016-06-05T10:22:25Z</time>
    </trkpt>
    <trkpt lat="48.418072" lon="2.673711">
      <ele>141.478</ele>
      <time>2016-06-05T10:22:27Z</time>
    </trkpt>
    <trkpt lat="48.418017" lon="2.673845">
      <ele>141.82</ele>
      <time>2016-06-05T10:22:30Z</time>
    </trkpt>
    <trkpt lat="48.417992" lon="2.673975">
      <ele>142.62</ele>
      <time>2016-06-05T10:22:34Z</time>
    </trkpt>
    <trkpt lat="48.417965" lon="2.674133">
      <ele>143.758</ele>
      <time>2016-06-05T10:22:39Z</time>
    </trkpt>
    <trkpt lat="48.41794" lon="2.674275">
      <ele>144.324</ele>
      <time>2016-06-05T10:22:45Z</time>
    </trkpt>
    <trkpt lat="48.417864" lon="2.674398">
      <ele>145.149</ele>
      <time>2016-06-05T10:22:49Z</time>
    </trkpt>
    <trkpt lat="48.417928" lon="2.67424">
      <ele>144.242</ele>
      <time>2016-06-05T10:22:58Z</time>
    </trkpt>
    <trkpt lat="48.417928" lon="2.674088">
      <ele>143.434</ele>
      <time>2016-06-05T10:23:02Z</time>
    </trkpt>
    <trkpt lat="48.418027" lon="2.673967">
      <ele>142.562</ele>
      <time>2016-06-05T10:23:04Z</time>
    </trkpt>
    <trkpt lat="48.418118" lon="2.673831">
      <ele>142.241</ele>
      <time>2016-06-05T10:23:07Z</time>
    </trkpt>
    <trkpt lat="48.418222" lon="2.673748">
      <ele>142.691</ele>
      <time>2016-06-05T10:23:11Z</time>
    </trkpt>
    <trkpt lat="48.418323" lon="2.673642">
      <ele>143.037</ele>
      <time>2016-06-05T10:23:14Z</time>
    </trkpt>
    <trkpt lat="48.418375" lon="2.673489">
      <ele>142.71</ele>
      <time>2016-06-05T10:23:17Z</time>
    </trkpt>
    <trkpt lat="48.418455" lon="2.67337">
      <ele>142.57</ele>
      <time>2016-06-05T10:23:20Z</time>
    </trkpt>
    <trkpt lat="48.418556" lon="2.673292">
      <ele>142.504</ele>
      <time>2016-06-05T10:23:22Z</time>
    </trkpt>
    <trkpt lat="48.418664" lon="2.673279">
      <ele>142.799</ele>
      <time>2016-06-05T10:23:25Z</time>
    </trkpt>
    <trkpt lat="48.418802" lon="2.673218">
      <ele>142.857</ele>
      <time>2016-06-05T10:23:29Z</time>
    </trkpt>
    <trkpt lat="48.418897" lon="2.67316">
      <ele>142.829</ele>
      <time>2016-06-05T10:23:31Z</time>
    </trkpt>
    <trkpt lat="48.418984" lon="2.673097">
      <ele>143.275</ele>
      <time>2016-06-05T10:23:33Z</time>
    </trkpt>
    <trkpt lat="48.419109" lon="2.673071">
      <ele>144.444</ele>
      <time>2016-06-05T10:23:36Z</time>
    </trkpt>
    <trkpt lat="48.419243" lon="2.672991">
      <ele>144.81</ele>
      <time>2016-06-05T10:23:39Z</time>
    </trkpt>
    <trkpt lat="48.419318" lon="2.672905">
      <ele>144.461</ele>
      <time>2016-06-05T10:23:41Z</time>
    </trkpt>
    <trkpt lat="48.419422" lon="2.672894">
      <ele>144.756</ele>
      <time>2016-06-05T10:23:44Z</time>
    </trkpt>
    <trkpt lat="48.419555" lon="2.672804">
      <ele>143.43</ele>
      <time>2016-06-05T10:23:46Z</time>
    </trkpt>
    <trkpt lat="48.41965" lon="2.672701">
      <ele>141.967</ele>
      <time>2016-06-05T10:23:49Z</time>
    </trkpt>
    <trkpt lat="48.419763" lon="2.672586">
      <ele>140.179</ele>
      <time>2016-06-05T10:23:52Z</time>
    </trkpt>
    <trkpt lat="48.41982" lon="2.672473">
      <ele>138.881</ele>
      <time>2016-06-05T10:23:55Z</time>
    </trkpt>
    <trkpt lat="48.419913" lon="2.672403">
      <ele>137.83</ele>
      <time>2016-06-05T10:23:56Z</time>
    </trkpt>
    <trkpt lat="48.420016" lon="2.672357">
      <ele>137.03</ele>
      <time>2016-06-05T10:23:59Z</time>
    </trkpt>
    <trkpt lat="48.420121" lon="2.672222">
      <ele>137.437</ele>
      <time>2016-06-05T10:24:05Z</time>
    </trkpt>
    <trkpt lat="48.420216" lon="2.67213">
      <ele>138.183</ele>
      <time>2016-06-05T10:24:09Z</time>
    </trkpt>
    <trkpt lat="48.420318" lon="2.672033">
      <ele>138.872</ele>
      <time>2016-06-05T10:24:12Z</time>
    </trkpt>
    <trkpt lat="48.420475" lon="2.671954">
      <ele>139.7</ele>
      <time>2016-06-05T10:24:14Z</time>
    </trkpt>
    <trkpt lat="48.42059" lon="2.671818">
      <ele>140.011</ele>
      <time>2016-06-05T10:24:17Z</time>
    </trkpt>
    <trkpt lat="48.420712" lon="2.671749">
      <ele>139.771</ele>
      <time>2016-06-05T10:24:20Z</time>
    </trkpt>
    <trkpt lat="48.420811" lon="2.671718">
      <ele>139.42</ele>
      <time>2016-06-05T10:24:22Z</time>
    </trkpt>
    <trkpt lat="48.420873" lon="2.671605">
      <ele>139.064</ele>
      <time>2016-06-05T10:24:24Z</time>
    </trkpt>
    <trkpt lat="48.420962" lon="2.671548">
      <ele>139.499</ele>
      <time>2016-06-05T10:24:28Z</time>
    </trkpt>
    <trkpt lat="48.421073" lon="2.67149">
      <ele>140.09</ele>
      <time>2016-06-05T10:24:31Z</time>
    </trkpt>
    <trkpt lat="48.4212" lon="2.671385">
      <ele>141.276</ele>
      <time>2016-06-05T10:24:33Z</time>
    </trkpt>
    <trkpt lat="48.421324" lon="2.67127">
      <ele>142.738</ele>
      <time>2016-06-05T10:24:36Z</time>
    </trkpt>
    <trkpt lat="48.42142" lon="2.671208">
      <ele>143.573</ele>
      <time>2016-06-05T10:24:39Z</time>
    </trkpt>
    <trkpt lat="48.421509" lon="2.67111">
      <ele>143.863</ele>
      <time>2016-06-05T10:24:41Z</time>
    </trkpt>
    <trkpt lat="48.421592" lon="2.671038">
      <ele>144.27</ele>
      <time>2016-06-05T10:24:43Z</time>
    </trkpt>
    <trkpt lat="48.421696" lon="2.670938">
      <ele>144.482</ele>
      <time>2016-06-05T10:24:45Z</time>
    </trkpt>
    <trkpt lat="48.421777" lon="2.67083">
      <ele>144.397</ele>
      <time>2016-06-05T10:24:48Z</time>
    </trkpt>
    <trkpt lat="48.421897" lon="2.67071">
      <ele>144.829</ele>
      <time>2016-06-05T10:24:50Z</time>
    </trkpt>
    <trkpt lat="48.421996" lon="2.670644">
      <ele>145.059</ele>
      <time>2016-06-05T10:24:53Z</time>
    </trkpt>
    <trkpt lat="48.422082" lon="2.670585">
      <ele>145.052</ele>
      <time>2016-06-05T10:24:55Z</time>
    </trkpt>
    <trkpt lat="48.422198" lon="2.670498">
      <ele>144.964</ele>
      <time>2016-06-05T10:24:58Z</time>
    </trkpt>
    <trkpt lat="48.422305" lon="2.670419">
      <ele>145.152</ele>
      <time>2016-06-05T10:25:01Z</time>
    </trkpt>
    <trkpt lat="48.422383" lon="2.670337">
      <ele>145.123</ele>
      <time>2016-06-05T10:25:03Z</time>
    </trkpt>
    <trkpt lat="48.422499" lon="2.670282">
      <ele>145.015</ele>
      <time>2016-06-05T10:25:06Z</time>
    </trkpt>
    <trkpt lat="48.422588" lon="2.670203">
      <ele>144.329</ele>
      <time>2016-06-05T10:25:09Z</time>
    </trkpt>
    <trkpt lat="48.422688" lon="2.67012">
      <ele>143.371</ele>
      <time>2016-06-05T10:25:12Z</time>
    </trkpt>
    <trkpt lat="48.422779" lon="2.670056">
      <ele>142.402</ele>
      <time>2016-06-05T10:25:15Z</time>
    </trkpt>
    <trkpt lat="48.422875" lon="2.669978">
      <ele>142.0</ele>
      <time>2016-06-05T10:25:20Z</time>
    </trkpt>
    <trkpt lat="48.42298" lon="2.669886">
      <ele>142.0</ele>
      <time>2016-06-05T10:25:23Z</time>
    </trkpt>
    <trkpt lat="48.42309" lon="2.669816">
      <ele>142.33</ele>
      <time>2016-06-05T10:25:26Z</time>
    </trkpt>
    <trkpt lat="48.423174" lon="2.669725">
      <ele>143.275</ele>
      <time>2016-06-05T10:25:28Z</time>
    </trkpt>
    <trkpt lat="48.423268" lon="2.669651">
      <ele>144.355</ele>
      <time>2016-06-05T10:25:32Z</time>
    </trkpt>
    <trkpt lat="48.423351" lon="2.669573">
      <ele>145.22</ele>
      <time>2016-06-05T10:25:35Z</time>
    </trkpt>
    <trkpt lat="48.423405" lon="2.669455">
      <ele>145.784</ele>
      <time>2016-06-05T10:25:38Z</time>
    </trkpt>
    <trkpt lat="48.423529" lon="2.669457">
      <ele>147.145</ele>
      <time>2016-06-05T10:25:40Z</time>
    </trkpt>
    <trkpt lat="48.423636" lon="2.669412">
      <ele>147.883</ele>
      <time>2016-06-05T10:25:42Z</time>
    </trkpt>
    <trkpt lat="48.423763" lon="2.669338">
      <ele>147.617</ele>
      <time>2016-06-05T10:25:45Z</time>
    </trkpt>
    <trkpt lat="48.423848" lon="2.669271">
      <ele>147.376</ele>
      <time>2016-06-05T10:25:47Z</time>
    </trkpt>
    <trkpt lat="48.423932" lon="2.669225">
      <ele>147.21</ele>
      <time>2016-06-05T10:25:49Z</time>
    </trkpt>
    <trkpt lat="48.424021" lon="2.66915">
      <ele>146.94</ele>
      <time>2016-06-05T10:25:52Z</time>
    </trkpt>
    <trkpt lat="48.424102" lon="2.669084">
      <ele>146.702</ele>
      <time>2016-06-05T10:25:54Z</time>
    </trkpt>
    <trkpt lat="48.424196" lon="2.669007">
      <ele>146.531</ele>
      <time>2016-06-05T10:25:57Z</time>
    </trkpt>
    <trkpt lat="48.424314" lon="2.668947">
      <ele>146.74</ele>
      <time>2016-06-05T10:26:01Z</time>
    </trkpt>
    <trkpt lat="48.424406" lon="2.668871">
      <ele>146.797</ele>
      <time>2016-06-05T10:26:04Z</time>
    </trkpt>
    <trkpt lat="48.424494" lon="2.668791">
      <ele>147.004</ele>
      <time>2016-06-05T10:26:06Z</time>
    </trkpt>
    <trkpt lat="48.424596" lon="2.668744">
      <ele>147.57</ele>
      <time>2016-06-05T10:26:09Z</time>
    </trkpt>
    <trkpt lat="48.42469" lon="2.668651">
      <ele>147.912</ele>
      <time>2016-06-05T10:26:12Z</time>
    </trkpt>
    <trkpt lat="48.424775" lon="2.668563">
      <ele>147.984</ele>
      <time>2016-06-05T10:26:16Z</time>
    </trkpt>
    <trkpt lat="48.424851" lon="2.668452">
      <ele>147.625</ele>
      <time>2016-06-05T10:26:18Z</time>
    </trkpt>
    <trkpt lat="48.424958" lon="2.668416">
      <ele>147.55</ele>
      <time>2016-06-05T10:26:20Z</time>
    </trkpt>
    <trkpt lat="48.425066" lon="2.668363">
      <ele>147.451</ele>
      <time>2016-06-05T10:26:22Z</time>
    </trkpt>
    <trkpt lat="48.425155" lon="2.668341">
      <ele>147.613</ele>
      <time>2016-06-05T10:26:24Z</time>
    </trkpt>
    <trkpt lat="48.425266" lon="2.668269">
      <ele>147.494</ele>
      <time>2016-06-05T10:26:27Z</time>
    </trkpt>
    <trkpt lat="48.425354" lon="2.668168">
      <ele>147.084</ele>
      <time>2016-06-05T10:26:31Z</time>
    </trkpt>
    <trkpt lat="48.425447" lon="2.66811">
      <ele>147.001</ele>
      <time>2016-06-05T10:26:33Z</time>
    </trkpt>
    <trkpt lat="48.425545" lon="2.668086">
      <ele>147.181</ele>
      <time>2016-06-05T10:26:36Z</time>
    </trkpt>
    <trkpt lat="48.425662" lon="2.668032">
      <ele>146.447</ele>
      <time>2016-06-05T10:26:39Z</time>
    </trkpt>
    <trkpt lat="48.425747" lon="2.66795">
      <ele>145.551</ele>
      <time>2016-06-05T10:26:41Z</time>
    </trkpt>
    <trkpt lat="48.425832" lon="2.6679">
      <ele>144.885</ele>
      <time>2016-06-05T10:26:43Z</time>
    </trkpt>
    <trkpt lat="48.42595" lon="2.667823">
      <ele>144.746</ele>
      <time>2016-06-05T10:26:45Z</time>
    </trkpt>
    <trkpt lat="48.426048" lon="2.667762">
      <ele>144.559</ele>
      <time>2016-06-05T10:26:47Z</time>
    </trkpt>
    <trkpt lat="48.426148" lon="2.667705">
      <ele>144.252</ele>
      <time>2016-06-05T10:26:51Z</time>
    </trkpt>
    <trkpt lat="48.426259" lon="2.667647">
      <ele>144.432</ele>
      <time>2016-06-05T10:26:54Z</time>
    </trkpt>
    <trkpt lat="48.426363" lon="2.667595">
      <ele>144.778</ele>
      <time>2016-06-05T10:26:56Z</time>
    </trkpt>
    <trkpt lat="48.426473" lon="2.667462">
      <ele>144.373</ele>
      <time>2016-06-05T10:26:59Z</time>
    </trkpt>
    <trkpt lat="48.426597" lon="2.667408">
      <ele>145.084</ele>
      <time>2016-06-05T10:27:01Z</time>
    </trkpt>
    <trkpt lat="48.426693" lon="2.667362">
      <ele>145.645</ele>
      <time>2016-06-05T10:27:03Z</time>
    </trkpt>
    <trkpt lat="48.426848" lon="2.667295">
      <ele>146.397</ele>
      <time>2016-06-05T10:27:06Z</time>
    </trkpt>
    <trkpt lat="48.426944" lon="2.667253">
      <ele>146.997</ele>
      <time>2016-06-05T10:27:08Z</time>
    </trkpt>
    <trkpt lat="48.427027" lon="2.667177">
      <ele>146.243</ele>
      <time>2016-06-05T10:27:11Z</time>
    </trkpt>
    <trkpt lat="48.427115" lon="2.667138">
      <ele>145.469</ele>
      <time>2016-06-05T10:27:13Z</time>
    </trkpt>
    <trkpt lat="48.427256" lon="2.667045">
      <ele>144.119</ele>
      <time>2016-06-05T10:27:15Z</time>
    </trkpt>
    <trkpt lat="48.427369" lon="2.666931">
      <ele>142.92</ele>
      <time>2016-06-05T10:27:17Z</time>
    </trkpt>
    <trkpt lat="48.42749" lon="2.666921">
      <ele>142.069</ele>
      <time>2016-06-05T10:27:20Z</time>
    </trkpt>
    <trkpt lat="48.427592" lon="2.666835">
      <ele>141.669</ele>
      <time>2016-06-05T10:27:22Z</time>
    </trkpt>
    <trkpt lat="48.427716" lon="2.666761">
      <ele>141.222</ele>
      <time>2016-06-05T10:27:25Z</time>
    </trkpt>
    <trkpt lat="48.427807" lon="2.666676">
      <ele>141.0</ele>
      <time>2016-06-05T10:27:28Z</time>
    </trkpt>
    <trkpt lat="48.427928" lon="2.66665">
      <ele>141.06</ele>
      <time>2016-06-05T10:27:31Z</time>
    </trkpt>
    <trkpt lat="48.427993" lon="2.666555">
      <ele>141.402</ele>
      <time>2016-06-05T10:27:35Z</time>
    </trkpt>
    <trkpt lat="48.428116" lon="2.666544">
      <ele>141.659</ele>
      <time>2016-06-05T10:27:38Z</time>
    </trkpt>
    <trkpt lat="48.428212" lon="2.666544">
      <ele>142.005</ele>
      <time>2016-06-05T10:27:40Z</time>
    </trkpt>
    <trkpt lat="48.428328" lon="2.666529">
      <ele>142.476</ele>
      <time>2016-06-05T10:27:43Z</time>
    </trkpt>
    <trkpt lat="48.428425" lon="2.666502">
      <ele>143.057</ele>
      <time>2016-06-05T10:27:46Z</time>
    </trkpt>
    <trkpt lat="48.428534" lon="2.666494">
      <ele>143.617</ele>
      <time>2016-06-05T10:27:50Z</time>
    </trkpt>
    <trkpt lat="48.428625" lon="2.666564">
      <ele>144.018</ele>
      <time>2016-06-05T10:27:54Z</time>
    </trkpt>
    <trkpt lat="48.428717" lon="2.666695">
      <ele>143.937</ele>
      <time>2016-06-05T10:27:57Z</time>
    </trkpt>
    <trkpt lat="48.428803" lon="2.666798">
      <ele>143.854</ele>
      <time>2016-06-05T10:28:00Z</time>
    </trkpt>
    <trkpt lat="48.428878" lon="2.666923">
      <ele>143.964</ele>
      <time>2016-06-05T10:28:05Z</time>
    </trkpt>
    <trkpt lat="48.42894" lon="2.667079">
      <ele>143.421</ele>
      <time>2016-06-05T10:28:08Z</time>
    </trkpt>
    <trkpt lat="48.429001" lon="2.667182">
      <ele>143.086</ele>
      <time>2016-06-05T10:28:10Z</time>
    </trkpt>
    <trkpt lat="48.429062" lon="2.667359">
      <ele>142.015</ele>
      <time>2016-06-05T10:28:16Z</time>
    </trkpt>
    <trkpt lat="48.429123" lon="2.667468">
      <ele>141.23</ele>
      <time>2016-06-05T10:28:21Z</time>
    </trkpt>
    <trkpt lat="48.429207" lon="2.667578">
      <ele>140.864</ele>
      <time>2016-06-05T10:28:24Z</time>
    </trkpt>
    <trkpt lat="48.4293" lon="2.667639">
      <ele>140.98</ele>
      <time>2016-06-05T10:28:30Z</time>
    </trkpt>
    <trkpt lat="48.429362" lon="2.667753">
      <ele>140.792</ele>
      <time>2016-06-05T10:28:34Z</time>
    </trkpt>
    <trkpt lat="48.429475" lon="2.667755">
      <ele>140.981</ele>
      <time>2016-06-05T10:28:37Z</time>
    </trkpt>
    <trkpt lat="48.429553" lon="2.667825">
      <ele>140.269</ele>
      <time>2016-06-05T10:28:43Z</time>
    </trkpt>
    <trkpt lat="48.429646" lon="2.667867">
      <ele>139.632</ele>
      <time>2016-06-05T10:28:46Z</time>
    </trkpt>
    <trkpt lat="48.429721" lon="2.667945">
      <ele>138.8</ele>
      <time>2016-06-05T10:28:53Z</time>
    </trkpt>
    <trkpt lat="48.429806" lon="2.668025">
      <ele>137.315</ele>
      <time>2016-06-05T10:29:03Z</time>
    </trkpt>
    <trkpt lat="48.429897" lon="2.668102">
      <ele>135.611</ele>
      <time>2016-06-05T10:29:12Z</time>
    </trkpt>
    <trkpt lat="48.429892" lon="2.667957">
      <ele>136.876</ele>
      <time>2016-06-05T10:29:34Z</time>
    </trkpt>
    <trkpt lat="48.429946" lon="2.667822">
      <ele>137.265</ele>
      <time>2016-06-05T10:29:43Z</time>
    </trkpt>
    <trkpt lat="48.429978" lon="2.667674">
      <ele>138.329</ele>
      <time>2016-06-05T10:29:54Z</time>
    </trkpt>
    <trkpt lat="48.430056" lon="2.667576">
      <ele>138.171</ele>
      <time>2016-06-05T10:29:56Z</time>
    </trkpt>
    <trkpt lat="48.430064" lon="2.667427">
      <ele>139.434</ele>
      <time>2016-06-05T10:30:01Z</time>
    </trkpt>
    <trkpt lat="48.429984" lon="2.667362">
      <ele>141.109</ele>
      <time>2016-06-05T10:30:06Z</time>
    </trkpt>
    <trkpt lat="48.429999" lon="2.667219">
      <ele>142.019</ele>
      <time>2016-06-05T10:30:15Z</time>
    </trkpt>
    <trkpt lat="48.429955" lon="2.667091">
      <ele>142.72</ele>
      <time>2016-06-05T10:30:20Z</time>
    </trkpt>
    <trkpt lat="48.429983" lon="2.666953">
      <ele>143.032</ele>
      <time>2016-06-05T10:30:24Z</time>
    </trkpt>
    <trkpt lat="48.430083" lon="2.66682">
      <ele>142.984</ele>
      <time>2016-06-05T10:30:28Z</time>
    </trkpt>
    <trkpt lat="48.430191" lon="2.666781">
      <ele>142.618</ele>
      <time>2016-06-05T10:30:34Z</time>
    </trkpt>
    <trkpt lat="48.430205" lon="2.666638">
      <ele>143.441</ele>
      <time>2016-06-05T10:30:47Z</time>
    </trkpt>
    <trkpt lat="48.430292" lon="2.666555">
      <ele>143.722</ele>
      <time>2016-06-05T10:30:53Z</time>
    </trkpt>
    <trkpt lat="48.430324" lon="2.666407">
      <ele>144.692</ele>
      <time>2016-06-05T10:31:02Z</time>
    </trkpt>
    <trkpt lat="48.430432" lon="2.666321">
      <ele>144.825</ele>
      <time>2016-06-05T10:31:05Z</time>
    </trkpt>
    <trkpt lat="48.430499" lon="2.666207">
      <ele>145.38</ele>
      <time>2016-06-05T10:31:10Z</time>
    </trkpt>
    <trkpt lat="48.43056" lon="2.666101">
      <ele>146.057</ele>
      <time>2016-06-05T10:31:15Z</time>
    </trkpt>
    <trkpt lat="48.430606" lon="2.665968">
      <ele>146.849</ele>
      <time>2016-06-05T10:31:24Z</time>
    </trkpt>
    <trkpt lat="48.430666" lon="2.665867">
      <ele>147.36</ele>
      <time>2016-06-05T10:31:29Z</time>
    </trkpt>
    <trkpt lat="48.430755" lon="2.66579">
      <ele>147.55</ele>
      <time>2016-06-05T10:31:33Z</time>
    </trkpt>
    <trkpt lat="48.430837" lon="2.665718">
      <ele>147.809</ele>
      <time>2016-06-05T10:31:38Z</time>
    </trkpt>
    <trkpt lat="48.430949" lon="2.665638">
      <ele>147.866</ele>
      <time>2016-06-05T10:31:45Z</time>
    </trkpt>
    <trkpt lat="48.431047" lon="2.665581">
      <ele>147.977</ele>
      <time>2016-06-05T10:31:49Z</time>
    </trkpt>
    <trkpt lat="48.431152" lon="2.665593">
      <ele>147.468</ele>
      <time>2016-06-05T10:31:52Z</time>
    </trkpt>
    <trkpt lat="48.431266" lon="2.665608">
      <ele>146.981</ele>
      <time>2016-06-05T10:31:56Z</time>
    </trkpt>
    <trkpt lat="48.431379" lon="2.665591">
      <ele>146.776</ele>
      <time>2016-06-05T10:31:59Z</time>
    </trkpt>
    <trkpt lat="48.431486" lon="2.665649">
      <ele>146.327</ele>
      <time>2016-06-05T10:32:02Z</time>
    </trkpt>
    <trkpt lat="48.431583" lon="2.665632">
      <ele>146.45</ele>
      <time>2016-06-05T10:32:05Z</time>
    </trkpt>
    <trkpt lat="48.4317" lon="2.665646">
      <ele>146.508</ele>
      <time>2016-06-05T10:32:09Z</time>
    </trkpt>
    <trkpt lat="48.431792" lon="2.665659">
      <ele>146.874</ele>
      <time>2016-06-05T10:32:11Z</time>
    </trkpt>
    <trkpt lat="48.431906" lon="2.665642">
      <ele>147.507</ele>
      <time>2016-06-05T10:32:14Z</time>
    </trkpt>
    <trkpt lat="48.432004" lon="2.66568">
      <ele>147.981</ele>
      <time>2016-06-05T10:32:17Z</time>
    </trkpt>
    <trkpt lat="48.432095" lon="2.665699">
      <ele>148.568</ele>
      <time>2016-06-05T10:32:20Z</time>
    </trkpt>
    <trkpt lat="48.432208" lon="2.665739">
      <ele>149.237</ele>
      <time>2016-06-05T10:32:23Z</time>
    </trkpt>
    <trkpt lat="48.432297" lon="2.665699">
      <ele>149.623</ele>
      <time>2016-06-05T10:32:25Z</time>
    </trkpt>
    <trkpt lat="48.432388" lon="2.665721">
      <ele>149.76</ele>
      <time>2016-06-05T10:32:27Z</time>
    </trkpt>
    <trkpt lat="48.432502" lon="2.665733">
      <ele>149.995</ele>
      <time>2016-06-05T10:32:29Z</time>
    </trkpt>
    <trkpt lat="48.432593" lon="2.665752">
      <ele>149.763</ele>
      <time>2016-06-05T10:32:31Z</time>
    </trkpt>
    <trkpt lat="48.432687" lon="2.66578">
      <ele>149.456</ele>
      <time>2016-06-05T10:32:34Z</time>
    </trkpt>
    <trkpt lat="48.432782" lon="2.665807">
      <ele>149.081</ele>
      <time>2016-06-05T10:32:37Z</time>
    </trkpt>
    <trkpt lat="48.432912" lon="2.665871">
      <ele>148.381</ele>
      <time>2016-06-05T10:32:41Z</time>
    </trkpt>
    <trkpt lat="48.433029" lon="2.665914">
      <ele>147.805</ele>
      <time>2016-06-05T10:32:43Z</time>
    </trkpt>
    <trkpt lat="48.433124" lon="2.665954">
      <ele>147.812</ele>
      <time>2016-06-05T10:32:45Z</time>
    </trkpt>
    <trkpt lat="48.433238" lon="2.665953">
      <ele>148.226</ele>
      <time>2016-06-05T10:32:47Z</time>
    </trkpt>
    <trkpt lat="48.43335" lon="2.665976">
      <ele>148.546</ele>
      <time>2016-06-05T10:32:50Z</time>
    </trkpt>
    <trkpt lat="48.433441" lon="2.665954">
      <ele>148.953</ele>
      <time>2016-06-05T10:32:53Z</time>
    </trkpt>
    <trkpt lat="48.433544" lon="2.665971">
      <ele>149.263</ele>
      <time>2016-06-05T10:32:55Z</time>
    </trkpt>
    <trkpt lat="48.433637" lon="2.666007">
      <ele>149.433</ele>
      <time>2016-06-05T10:32:57Z</time>
    </trkpt>
    <trkpt lat="48.433758" lon="2.666036">
      <ele>149.656</ele>
      <time>2016-06-05T10:33:00Z</time>
    </trkpt>
    <trkpt lat="48.433858" lon="2.666089">
      <ele>149.898</ele>
      <time>2016-06-05T10:33:02Z</time>
    </trkpt>
    <trkpt lat="48.433954" lon="2.666096">
      <ele>149.766</ele>
      <time>2016-06-05T10:33:04Z</time>
    </trkpt>
    <trkpt lat="48.434046" lon="2.666116">
      <ele>149.417</ele>
      <time>2016-06-05T10:33:06Z</time>
    </trkpt>
    <trkpt lat="48.434132" lon="2.66617">
      <ele>148.913</ele>
      <time>2016-06-05T10:33:08Z</time>
    </trkpt>
    <trkpt lat="48.434235" lon="2.666167">
      <ele>148.356</ele>
      <time>2016-06-05T10:33:11Z</time>
    </trkpt>
    <trkpt lat="48.434324" lon="2.666195">
      <ele>147.736</ele>
      <time>2016-06-05T10:33:13Z</time>
    </trkpt>
    <trkpt lat="48.434411" lon="2.666246">
      <ele>147.182</ele>
      <time>2016-06-05T10:33:15Z</time>
    </trkpt>
    <trkpt lat="48.434515" lon="2.666241">
      <ele>146.881</ele>
      <time>2016-06-05T10:33:17Z</time>
    </trkpt>
    <trkpt lat="48.434608" lon="2.666285">
      <ele>146.631</ele>
      <time>2016-06-05T10:33:19Z</time>
    </trkpt>
    <trkpt lat="48.434701" lon="2.666297">
      <ele>146.382</ele>
      <time>2016-06-05T10:33:21Z</time>
    </trkpt>
    <trkpt lat="48.434801" lon="2.666285">
      <ele>146.552</ele>
      <time>2016-06-05T10:33:23Z</time>
    </trkpt>
    <trkpt lat="48.434937" lon="2.666323">
      <ele>146.827</ele>
      <time>2016-06-05T10:33:26Z</time>
    </trkpt>
    <trkpt lat="48.435041" lon="2.666379">
      <ele>146.852</ele>
      <time>2016-06-05T10:33:29Z</time>
    </trkpt>
    <trkpt lat="48.435142" lon="2.666371">
      <ele>146.489</ele>
      <time>2016-06-05T10:33:31Z</time>
    </trkpt>
    <trkpt lat="48.435238" lon="2.666361">
      <ele>146.143</ele>
      <time>2016-06-05T10:33:33Z</time>
    </trkpt>
    <trkpt lat="48.43535" lon="2.666394">
      <ele>145.462</ele>
      <time>2016-06-05T10:33:36Z</time>
    </trkpt>
    <trkpt lat="48.435473" lon="2.666435">
      <ele>144.428</ele>
      <time>2016-06-05T10:33:39Z</time>
    </trkpt>
    <trkpt lat="48.435535" lon="2.666594">
      <ele>143.41</ele>
      <time>2016-06-05T10:33:42Z</time>
    </trkpt>
    <trkpt lat="48.435604" lon="2.666693">
      <ele>142.619</ele>
      <time>2016-06-05T10:33:45Z</time>
    </trkpt>
    <trkpt lat="48.435697" lon="2.666739">
      <ele>141.837</ele>
      <time>2016-06-05T10:33:49Z</time>
    </trkpt>
    <trkpt lat="48.435785" lon="2.666802">
      <ele>140.797</ele>
      <time>2016-06-05T10:34:00Z</time>
    </trkpt>
    <trkpt lat="48.435867" lon="2.666861">
      <ele>139.986</ele>
      <time>2016-06-05T10:34:03Z</time>
    </trkpt>
    <trkpt lat="48.435936" lon="2.666972">
      <ele>138.91</ele>
      <time>2016-06-05T10:34:06Z</time>
    </trkpt>
    <trkpt lat="48.436036" lon="2.666981">
      <ele>139.168</ele>
      <time>2016-06-05T10:34:11Z</time>
    </trkpt>
    <trkpt lat="48.436105" lon="2.667089">
      <ele>137.885</ele>
      <time>2016-06-05T10:34:14Z</time>
    </trkpt>
    <trkpt lat="48.436207" lon="2.667168">
      <ele>137.126</ele>
      <time>2016-06-05T10:34:18Z</time>
    </trkpt>
    <trkpt lat="48.436299" lon="2.667163">
      <ele>137.529</ele>
      <time>2016-06-05T10:34:21Z</time>
    </trkpt>
    <trkpt lat="48.436403" lon="2.667183">
      <ele>137.558</ele>
      <time>2016-06-05T10:34:24Z</time>
    </trkpt>
    <trkpt lat="48.436511" lon="2.667181">
      <ele>137.528</ele>
      <time>2016-06-05T10:34:27Z</time>
    </trkpt>
    <trkpt lat="48.436606" lon="2.667128">
      <ele>138.092</ele>
      <time>2016-06-05T10:34:31Z</time>
    </trkpt>
    <trkpt lat="48.436716" lon="2.667121">
      <ele>138.626</ele>
      <time>2016-06-05T10:34:36Z</time>
    </trkpt>
    <trkpt lat="48.436811" lon="2.667105">
      <ele>139.825</ele>
      <time>2016-06-05T10:34:40Z</time>
    </trkpt>
    <trkpt lat="48.436908" lon="2.667078">
      <ele>141.164</ele>
      <time>2016-06-05T10:34:44Z</time>
    </trkpt>
    <trkpt lat="48.437022" lon="2.667103">
      <ele>142.005</ele>
      <time>2016-06-05T10:34:48Z</time>
    </trkpt>
    <trkpt lat="48.437125" lon="2.667112">
      <ele>142.882</ele>
      <time>2016-06-05T10:34:51Z</time>
    </trkpt>
    <trkpt lat="48.437215" lon="2.667149">
      <ele>143.456</ele>
      <time>2016-06-05T10:34:55Z</time>
    </trkpt>
    <trkpt lat="48.437322" lon="2.667172">
      <ele>144.015</ele>
      <time>2016-06-05T10:34:58Z</time>
    </trkpt>
    <trkpt lat="48.437443" lon="2.667222">
      <ele>144.591</ele>
      <time>2016-06-05T10:35:01Z</time>
    </trkpt>
    <trkpt lat="48.43755" lon="2.667256">
      <ele>144.937</ele>
      <time>2016-06-05T10:35:04Z</time>
    </trkpt>
    <trkpt lat="48.437638" lon="2.667302">
      <ele>144.922</ele>
      <time>2016-06-05T10:35:06Z</time>
    </trkpt>
    <trkpt lat="48.437731" lon="2.667321">
      <ele>145.12</ele>
      <time>2016-06-05T10:35:08Z</time>
    </trkpt>
    <trkpt lat="48.437825" lon="2.667357">
      <ele>145.117</ele>
      <time>2016-06-05T10:35:11Z</time>
    </trkpt>
    <trkpt lat="48.437945" lon="2.667389">
      <ele>145.04</ele>
      <time>2016-06-05T10:35:14Z</time>
    </trkpt>
    <trkpt lat="48.438071" lon="2.667436">
      <ele>144.666</ele>
      <time>2016-06-05T10:35:17Z</time>
    </trkpt>
    <trkpt lat="48.438186" lon="2.667505">
      <ele>143.964</ele>
      <time>2016-06-05T10:35:20Z</time>
    </trkpt>
    <trkpt lat="48.438282" lon="2.6676">
      <ele>143.28</ele>
      <time>2016-06-05T10:35:22Z</time>
    </trkpt>
    <trkpt lat="48.438385" lon="2.667683">
      <ele>142.868</ele>
      <time>2016-06-05T10:35:25Z</time>
    </trkpt>
    <trkpt lat="48.438483" lon="2.66775">
      <ele>142.739</ele>
      <time>2016-06-05T10:35:27Z</time>
    </trkpt>
    <trkpt lat="48.438592" lon="2.667779">
      <ele>142.927</ele>
      <time>2016-06-05T10:35:29Z</time>
    </trkpt>
    <trkpt lat="48.438716" lon="2.667823">
      <ele>143.531</ele>
      <time>2016-06-05T10:35:32Z</time>
    </trkpt>
    <trkpt lat="48.438807" lon="2.667843">
      <ele>144.01</ele>
      <time>2016-06-05T10:35:34Z</time>
    </trkpt>
    <trkpt lat="48.43893" lon="2.667872">
      <ele>144.274</ele>
      <time>2016-06-05T10:35:38Z</time>
    </trkpt>
    <trkpt lat="48.439035" lon="2.667904">
      <ele>144.043</ele>
      <time>2016-06-05T10:35:41Z</time>
    </trkpt>
    <trkpt lat="48.439128" lon="2.667909">
      <ele>144.008</ele>
      <time>2016-06-05T10:35:43Z</time>
    </trkpt>
    <trkpt lat="48.439228" lon="2.66793">
      <ele>144.221</ele>
      <time>2016-06-05T10:35:46Z</time>
    </trkpt>
    <trkpt lat="48.439358" lon="2.667902">
      <ele>144.689</ele>
      <time>2016-06-05T10:35:49Z</time>
    </trkpt>
    <trkpt lat="48.439471" lon="2.667863">
      <ele>145.162</ele>
      <time>2016-06-05T10:35:53Z</time>
    </trkpt>
    <trkpt lat="48.439558" lon="2.6678">
      <ele>145.785</ele>
      <time>2016-06-05T10:35:57Z</time>
    </trkpt>
    <trkpt lat="48.439674" lon="2.667836">
      <ele>146.48</ele>
      <time>2016-06-05T10:36:00Z</time>
    </trkpt>
    <trkpt lat="48.439767" lon="2.667862">
      <ele>146.536</ele>
      <time>2016-06-05T10:36:03Z</time>
    </trkpt>
    <trkpt lat="48.439862" lon="2.667917">
      <ele>145.996</ele>
      <time>2016-06-05T10:36:06Z</time>
    </trkpt>
    <trkpt lat="48.439978" lon="2.667981">
      <ele>145.348</ele>
      <time>2016-06-05T10:36:09Z</time>
    </trkpt>
    <trkpt lat="48.44008" lon="2.668042">
      <ele>145.035</ele>
      <time>2016-06-05T10:36:12Z</time>
    </trkpt>
    <trkpt lat="48.440181" lon="2.668082">
      <ele>144.905</ele>
      <time>2016-06-05T10:36:15Z</time>
    </trkpt>
    <trkpt lat="48.440267" lon="2.668143">
      <ele>144.685</ele>
      <time>2016-06-05T10:36:18Z</time>
    </trkpt>
    <trkpt lat="48.440354" lon="2.668198">
      <ele>144.628</ele>
      <time>2016-06-05T10:36:21Z</time>
    </trkpt>
    <trkpt lat="48.440471" lon="2.66825">
      <ele>144.787</ele>
      <time>2016-06-05T10:36:24Z</time>
    </trkpt>
    <trkpt lat="48.4406" lon="2.668296">
      <ele>145.0</ele>
      <time>2016-06-05T10:36:27Z</time>
    </trkpt>
    <trkpt lat="48.440689" lon="2.668338">
      <ele>144.991</ele>
      <time>2016-06-05T10:36:29Z</time>
    </trkpt>
    <trkpt lat="48.440794" lon="2.668367">
      <ele>144.983</ele>
      <time>2016-06-05T10:36:33Z</time>
    </trkpt>
    <trkpt lat="48.440899" lon="2.668425">
      <ele>144.686</ele>
      <time>2016-06-05T10:36:36Z</time>
    </trkpt>
    <trkpt lat="48.440981" lon="2.668482">
      <ele>144.184</ele>
      <time>2016-06-05T10:36:38Z</time>
    </trkpt>
    <trkpt lat="48.441106" lon="2.66856">
      <ele>143.217</ele>
      <time>2016-06-05T10:36:41Z</time>
    </trkpt>
    <trkpt lat="48.441195" lon="2.668589">
      <ele>142.754</ele>
      <time>2016-06-05T10:36:43Z</time>
    </trkpt>
    <trkpt lat="48.441287" lon="2.668645">
      <ele>142.367</ele>
      <time>2016-06-05T10:36:45Z</time>
    </trkpt>
    <trkpt lat="48.441358" lon="2.668747">
      <ele>142.111</ele>
      <time>2016-06-05T10:36:47Z</time>
    </trkpt>
    <trkpt lat="48.441454" lon="2.668869">
      <ele>141.548</ele>
      <time>2016-06-05T10:36:50Z</time>
    </trkpt>
    <trkpt lat="48.441536" lon="2.668928">
      <ele>140.808</ele>
      <time>2016-06-05T10:36:52Z</time>
    </trkpt>
    <trkpt lat="48.441663" lon="2.668975">
      <ele>140.018</ele>
      <time>2016-06-05T10:36:55Z</time>
    </trkpt>
    <trkpt lat="48.441756" lon="2.669001">
      <ele>140.0</ele>
      <time>2016-06-05T10:36:57Z</time>
    </trkpt>
    <trkpt lat="48.441872" lon="2.669082">
      <ele>140.0</ele>
      <time>2016-06-05T10:37:00Z</time>
    </trkpt>
    <trkpt lat="48.441947" lon="2.669174">
      <ele>140.009</ele>
      <time>2016-06-05T10:37:03Z</time>
    </trkpt>
    <trkpt lat="48.442049" lon="2.669199">
      <ele>140.42</ele>
      <time>2016-06-05T10:37:07Z</time>
    </trkpt>
    <trkpt lat="48.442141" lon="2.669253">
      <ele>140.928</ele>
      <time>2016-06-05T10:37:15Z</time>
    </trkpt>
    <trkpt lat="48.442233" lon="2.669295">
      <ele>141.501</ele>
      <time>2016-06-05T10:37:21Z</time>
    </trkpt>
    <trkpt lat="48.442318" lon="2.669352">
      <ele>142.012</ele>
      <time>2016-06-05T10:37:26Z</time>
    </trkpt>
    <trkpt lat="48.442417" lon="2.669403">
      <ele>142.552</ele>
      <time>2016-06-05T10:37:33Z</time>
    </trkpt>
    <trkpt lat="48.442539" lon="2.669413">
      <ele>142.887</ele>
      <time>2016-06-05T10:37:37Z</time>
    </trkpt>
    <trkpt lat="48.44263" lon="2.669389">
      <ele>142.8</ele>
      <time>2016-06-05T10:37:40Z</time>
    </trkpt>
    <trkpt lat="48.442732" lon="2.669372">
      <ele>142.739</ele>
      <time>2016-06-05T10:37:43Z</time>
    </trkpt>
    <trkpt lat="48.442824" lon="2.669373">
      <ele>142.909</ele>
      <time>2016-06-05T10:37:47Z</time>
    </trkpt>
    <trkpt lat="48.442944" lon="2.669368">
      <ele>143.323</ele>
      <time>2016-06-05T10:37:52Z</time>
    </trkpt>
    <trkpt lat="48.443039" lon="2.669431">
      <ele>143.892</ele>
      <time>2016-06-05T10:37:56Z</time>
    </trkpt>
    <trkpt lat="48.44315" lon="2.669496">
      <ele>144.0</ele>
      <time>2016-06-05T10:38:00Z</time>
    </trkpt>
    <trkpt lat="48.443242" lon="2.669512">
      <ele>144.0</ele>
      <time>2016-06-05T10:38:04Z</time>
    </trkpt>
    <trkpt lat="48.443337" lon="2.669556">
      <ele>144.0</ele>
      <time>2016-06-05T10:38:10Z</time>
    </trkpt>
    <trkpt lat="48.443442" lon="2.669551">
      <ele>144.0</ele>
      <time>2016-06-05T10:38:13Z</time>
    </trkpt>
    <trkpt lat="48.443518" lon="2.669626">
      <ele>144.0</ele>
      <time>2016-06-05T10:38:17Z</time>
    </trkpt>
    <trkpt lat="48.443597" lon="2.669711">
      <ele>144.0</ele>
      <time>2016-06-05T10:38:21Z</time>
    </trkpt>
    <trkpt lat="48.443684" lon="2.669641">
      <ele>144.077</ele>
      <time>2016-06-05T10:38:24Z</time>
    </trkpt>
    <trkpt lat="48.443726" lon="2.66951">
      <ele>144.316</ele>
      <time>2016-06-05T10:38:27Z</time>
    </trkpt>
    <trkpt lat="48.443722" lon="2.669367">
      <ele>144.51</ele>
      <time>2016-06-05T10:38:32Z</time>
    </trkpt>
    <trkpt lat="48.443809" lon="2.669213">
      <ele>145.306</ele>
      <time>2016-06-05T10:38:58Z</time>
    </trkpt>
    <trkpt lat="48.443894" lon="2.669127">
      <ele>146.037</ele>
      <time>2016-06-05T10:39:00Z</time>
    </trkpt>
    <trkpt lat="48.443976" lon="2.669044">
      <ele>146.627</ele>
      <time>2016-06-05T10:39:02Z</time>
    </trkpt>
    <trkpt lat="48.444061" lon="2.668906">
      <ele>147.239</ele>
      <time>2016-06-05T10:39:05Z</time>
    </trkpt>
    <trkpt lat="48.444145" lon="2.668818">
      <ele>147.844</ele>
      <time>2016-06-05T10:39:08Z</time>
    </trkpt>
    <trkpt lat="48.444272" lon="2.668733">
      <ele>148.0</ele>
      <time>2016-06-05T10:39:10Z</time>
    </trkpt>
    <trkpt lat="48.444355" lon="2.668628">
      <ele>148.0</ele>
      <time>2016-06-05T10:39:13Z</time>
    </trkpt>
    <trkpt lat="48.444474" lon="2.668477">
      <ele>147.569</ele>
      <time>2016-06-05T10:39:15Z</time>
    </trkpt>
    <trkpt lat="48.444561" lon="2.668355">
      <ele>147.465</ele>
      <time>2016-06-05T10:39:17Z</time>
    </trkpt>
    <trkpt lat="48.444632" lon="2.668253">
      <ele>147.675</ele>
      <time>2016-06-05T10:39:19Z</time>
    </trkpt>
    <trkpt lat="48.444711" lon="2.66817">
      <ele>147.96</ele>
      <time>2016-06-05T10:39:21Z</time>
    </trkpt>
    <trkpt lat="48.444812" lon="2.668066">
      <ele>148.323</ele>
      <time>2016-06-05T10:39:23Z</time>
    </trkpt>
    <trkpt lat="48.444897" lon="2.667966">
      <ele>148.51</ele>
      <time>2016-06-05T10:39:25Z</time>
    </trkpt>
    <trkpt lat="48.444969" lon="2.667846">
      <ele>148.804</ele>
      <time>2016-06-05T10:39:28Z</time>
    </trkpt>
    <trkpt lat="48.445066" lon="2.667742">
      <ele>148.664</ele>
      <time>2016-06-05T10:39:30Z</time>
    </trkpt>
    <trkpt lat="48.445158" lon="2.667652">
      <ele>148.236</ele>
      <time>2016-06-05T10:39:33Z</time>
    </trkpt>
    <trkpt lat="48.445251" lon="2.667528">
      <ele>148.01</ele>
      <time>2016-06-05T10:39:36Z</time>
    </trkpt>
    <trkpt lat="48.445351" lon="2.667397">
      <ele>148.0</ele>
      <time>2016-06-05T10:39:39Z</time>
    </trkpt>
    <trkpt lat="48.445465" lon="2.667285">
      <ele>148.0</ele>
      <time>2016-06-05T10:39:42Z</time>
    </trkpt>
    <trkpt lat="48.445527" lon="2.667151">
      <ele>148.0</ele>
      <time>2016-06-05T10:39:45Z</time>
    </trkpt>
    <trkpt lat="48.4456" lon="2.667016">
      <ele>147.881</ele>
      <time>2016-06-05T10:39:48Z</time>
    </trkpt>
    <trkpt lat="48.445699" lon="2.666879">
      <ele>147.484</ele>
      <time>2016-06-05T10:39:50Z</time>
    </trkpt>
    <trkpt lat="48.445821" lon="2.666766">
      <ele>147.044</ele>
      <time>2016-06-05T10:39:52Z</time>
    </trkpt>
    <trkpt lat="48.445939" lon="2.666622">
      <ele>147.0</ele>
      <time>2016-06-05T10:39:54Z</time>
    </trkpt>
    <trkpt lat="48.44604" lon="2.666513">
      <ele>147.0</ele>
      <time>2016-06-05T10:39:57Z</time>
    </trkpt>
    <trkpt lat="48.44615" lon="2.666418">
      <ele>147.125</ele>
      <time>2016-06-05T10:39:59Z</time>
    </trkpt>
    <trkpt lat="48.446257" lon="2.66628">
      <ele>147.711</ele>
      <time>2016-06-05T10:40:02Z</time>
    </trkpt>
    <trkpt lat="48.446341" lon="2.666188">
      <ele>147.952</ele>
      <time>2016-06-05T10:40:05Z</time>
    </trkpt>
    <trkpt lat="48.446409" lon="2.666097">
      <ele>147.877</ele>
      <time>2016-06-05T10:40:07Z</time>
    </trkpt>
    <trkpt lat="48.446507" lon="2.666007">
      <ele>147.2</ele>
      <time>2016-06-05T10:40:10Z</time>
    </trkpt>
    <trkpt lat="48.446606" lon="2.665905">
      <ele>146.476</ele>
      <time>2016-06-05T10:40:12Z</time>
    </trkpt>
    <trkpt lat="48.446722" lon="2.665797">
      <ele>146.094</ele>
      <time>2016-06-05T10:40:14Z</time>
    </trkpt>
    <trkpt lat="48.446824" lon="2.66569">
      <ele>146.343</ele>
      <time>2016-06-05T10:40:16Z</time>
    </trkpt>
    <trkpt lat="48.446904" lon="2.6656">
      <ele>146.732</ele>
      <time>2016-06-05T10:40:18Z</time>
    </trkpt>
    <trkpt lat="48.447002" lon="2.665504">
      <ele>147.376</ele>
      <time>2016-06-05T10:40:20Z</time>
    </trkpt>
    <trkpt lat="48.447072" lon="2.665402">
      <ele>147.665</ele>
      <time>2016-06-05T10:40:22Z</time>
    </trkpt>
    <trkpt lat="48.447146" lon="2.665299">
      <ele>147.781</ele>
      <time>2016-06-05T10:40:24Z</time>
    </trkpt>
    <trkpt lat="48.447219" lon="2.665204">
      <ele>147.988</ele>
      <time>2016-06-05T10:40:27Z</time>
    </trkpt>
    <trkpt lat="48.447304" lon="2.665094">
      <ele>147.706</ele>
      <time>2016-06-05T10:40:30Z</time>
    </trkpt>
    <trkpt lat="48.447378" lon="2.664982">
      <ele>147.439</ele>
      <time>2016-06-05T10:40:32Z</time>
    </trkpt>
    <trkpt lat="48.447484" lon="2.664844">
      <ele>147.058</ele>
      <time>2016-06-05T10:40:36Z</time>
    </trkpt>
    <trkpt lat="48.447554" lon="2.664757">
      <ele>147.0</ele>
      <time>2016-06-05T10:40:38Z</time>
    </trkpt>
    <trkpt lat="48.44766" lon="2.664648">
      <ele>147.0</ele>
      <time>2016-06-05T10:40:40Z</time>
    </trkpt>
    <trkpt lat="48.447739" lon="2.664531">
      <ele>147.0</ele>
      <time>2016-06-05T10:40:42Z</time>
    </trkpt>
    <trkpt lat="48.447831" lon="2.664442">
      <ele>146.807</ele>
      <time>2016-06-05T10:40:44Z</time>
    </trkpt>
    <trkpt lat="48.447916" lon="2.664341">
      <ele>146.317</ele>
      <time>2016-06-05T10:40:46Z</time>
    </trkpt>
    <trkpt lat="48.448009" lon="2.664184">
      <ele>145.387</ele>
      <time>2016-06-05T10:40:49Z</time>
    </trkpt>
    <trkpt lat="48.448071" lon="2.664004">
      <ele>143.583</ele>
      <time>2016-06-05T10:40:53Z</time>
    </trkpt>
    <trkpt lat="48.448125" lon="2.663805">
      <ele>141.773</ele>
      <time>2016-06-05T10:40:56Z</time>
    </trkpt>
    <trkpt lat="48.448193" lon="2.663628">
      <ele>140.546</ele>
      <time>2016-06-05T10:40:59Z</time>
    </trkpt>
    <trkpt lat="48.448217" lon="2.663491">
      <ele>140.256</ele>
      <time>2016-06-05T10:41:01Z</time>
    </trkpt>
    <trkpt lat="48.448271" lon="2.663368">
      <ele>139.673</ele>
      <time>2016-06-05T10:41:03Z</time>
    </trkpt>
    <trkpt lat="48.448312" lon="2.663242">
      <ele>139.534</ele>
      <time>2016-06-05T10:41:05Z</time>
    </trkpt>
    <trkpt lat="48.448346" lon="2.663102">
      <ele>139.833</ele>
      <time>2016-06-05T10:41:07Z</time>
    </trkpt>
    <trkpt lat="48.448395" lon="2.66293">
      <ele>140.352</ele>
      <time>2016-06-05T10:41:09Z</time>
    </trkpt>
    <trkpt lat="48.448443" lon="2.662787">
      <ele>140.585</ele>
      <time>2016-06-05T10:41:11Z</time>
    </trkpt>
    <trkpt lat="48.448535" lon="2.662593">
      <ele>140.092</ele>
      <time>2016-06-05T10:41:14Z</time>
    </trkpt>
    <trkpt lat="48.448573" lon="2.662461">
      <ele>139.879</ele>
      <time>2016-06-05T10:41:16Z</time>
    </trkpt>
    <trkpt lat="48.44861" lon="2.662306">
      <ele>139.304</ele>
      <time>2016-06-05T10:41:18Z</time>
    </trkpt>
    <trkpt lat="48.44862" lon="2.662152">
      <ele>139.0</ele>
      <time>2016-06-05T10:41:21Z</time>
    </trkpt>
    <trkpt lat="48.448672" lon="2.661992">
      <ele>139.0</ele>
      <time>2016-06-05T10:41:23Z</time>
    </trkpt>
    <trkpt lat="48.44871" lon="2.661865">
      <ele>139.102</ele>
      <time>2016-06-05T10:41:26Z</time>
    </trkpt>
    <trkpt lat="48.448779" lon="2.661732">
      <ele>139.462</ele>
      <time>2016-06-05T10:41:28Z</time>
    </trkpt>
    <trkpt lat="48.448842" lon="2.661606">
      <ele>140.013</ele>
      <time>2016-06-05T10:41:30Z</time>
    </trkpt>
    <trkpt lat="48.448916" lon="2.661477">
      <ele>140.909</ele>
      <time>2016-06-05T10:41:32Z</time>
    </trkpt>
    <trkpt lat="48.448936" lon="2.661341">
      <ele>141.512</ele>
      <time>2016-06-05T10:41:34Z</time>
    </trkpt>
    <trkpt lat="48.448935" lon="2.661161">
      <ele>142.152</ele>
      <time>2016-06-05T10:41:37Z</time>
    </trkpt>
    <trkpt lat="48.448925" lon="2.661005">
      <ele>142.642</ele>
      <time>2016-06-05T10:41:41Z</time>
    </trkpt>
    <trkpt lat="48.449011" lon="2.660864">
      <ele>143.769</ele>
      <time>2016-06-05T10:41:44Z</time>
    </trkpt>
    <trkpt lat="48.449104" lon="2.660678">
      <ele>144.982</ele>
      <time>2016-06-05T10:41:47Z</time>
    </trkpt>
    <trkpt lat="48.449158" lon="2.660521">
      <ele>146.031</ele>
      <time>2016-06-05T10:41:50Z</time>
    </trkpt>
    <trkpt lat="48.449214" lon="2.660413">
      <ele>147.024</ele>
      <time>2016-06-05T10:41:53Z</time>
    </trkpt>
    <trkpt lat="48.449274" lon="2.660253">
      <ele>148.125</ele>
      <time>2016-06-05T10:41:57Z</time>
    </trkpt>
    <trkpt lat="48.449276" lon="2.660109">
      <ele>147.942</ele>
      <time>2016-06-05T10:42:01Z</time>
    </trkpt>
    <trkpt lat="48.449328" lon="2.659995">
      <ele>148.162</ele>
      <time>2016-06-05T10:42:05Z</time>
    </trkpt>
    <trkpt lat="48.449363" lon="2.659838">
      <ele>148.414</ele>
      <time>2016-06-05T10:42:08Z</time>
    </trkpt>
    <trkpt lat="48.449406" lon="2.659676">
      <ele>148.557</ele>
      <time>2016-06-05T10:42:13Z</time>
    </trkpt>
    <trkpt lat="48.449428" lon="2.659524">
      <ele>148.168</ele>
      <time>2016-06-05T10:42:16Z</time>
    </trkpt>
    <trkpt lat="48.44948" lon="2.659371">
      <ele>148.162</ele>
      <time>2016-06-05T10:42:20Z</time>
    </trkpt>
    <trkpt lat="48.449544" lon="2.659228">
      <ele>148.638</ele>
      <time>2016-06-05T10:42:23Z</time>
    </trkpt>
    <trkpt lat="48.449625" lon="2.659153">
      <ele>149.349</ele>
      <time>2016-06-05T10:42:26Z</time>
    </trkpt>
    <trkpt lat="48.449744" lon="2.659086">
      <ele>150.29</ele>
      <time>2016-06-05T10:42:29Z</time>
    </trkpt>
    <trkpt lat="48.449859" lon="2.659088">
      <ele>150.283</ele>
      <time>2016-06-05T10:42:32Z</time>
    </trkpt>
    <trkpt lat="48.449993" lon="2.659106">
      <ele>150.218</ele>
      <time>2016-06-05T10:42:35Z</time>
    </trkpt>
    <trkpt lat="48.450099" lon="2.659151">
      <ele>150.056</ele>
      <time>2016-06-05T10:42:38Z</time>
    </trkpt>
    <trkpt lat="48.450197" lon="2.659166">
      <ele>150.002</ele>
      <time>2016-06-05T10:42:41Z</time>
    </trkpt>
    <trkpt lat="48.4503" lon="2.659146">
      <ele>150.0</ele>
      <time>2016-06-05T10:42:43Z</time>
    </trkpt>
    <trkpt lat="48.45041" lon="2.659167">
      <ele>149.523</ele>
      <time>2016-06-05T10:42:46Z</time>
    </trkpt>
    <trkpt lat="48.450495" lon="2.659214">
      <ele>149.048</ele>
      <time>2016-06-05T10:42:48Z</time>
    </trkpt>
    <trkpt lat="48.450595" lon="2.659229">
      <ele>148.918</ele>
      <time>2016-06-05T10:42:51Z</time>
    </trkpt>
    <trkpt lat="48.450706" lon="2.659235">
      <ele>149.296</ele>
      <time>2016-06-05T10:42:54Z</time>
    </trkpt>
    <trkpt lat="48.450834" lon="2.659263">
      <ele>149.658</ele>
      <time>2016-06-05T10:42:57Z</time>
    </trkpt>
    <trkpt lat="48.450956" lon="2.659274">
      <ele>150.497</ele>
      <time>2016-06-05T10:43:00Z</time>
    </trkpt>
    <trkpt lat="48.451053" lon="2.65928">
      <ele>151.174</ele>
      <time>2016-06-05T10:43:02Z</time>
    </trkpt>
    <trkpt lat="48.451152" lon="2.659285">
      <ele>151.574</ele>
      <time>2016-06-05T10:43:04Z</time>
    </trkpt>
    <trkpt lat="48.451283" lon="2.65931">
      <ele>151.484</ele>
      <time>2016-06-05T10:43:07Z</time>
    </trkpt>
    <trkpt lat="48.451387" lon="2.659322">
      <ele>151.441</ele>
      <time>2016-06-05T10:43:09Z</time>
    </trkpt>
    <trkpt lat="48.451479" lon="2.659316">
      <ele>150.489</ele>
      <time>2016-06-05T10:43:11Z</time>
    </trkpt>
    <trkpt lat="48.451599" lon="2.659347">
      <ele>149.082</ele>
      <time>2016-06-05T10:43:14Z</time>
    </trkpt>
    <trkpt lat="48.451731" lon="2.659403">
      <ele>147.188</ele>
      <time>2016-06-05T10:43:17Z</time>
    </trkpt>
    <trkpt lat="48.451864" lon="2.659396">
      <ele>145.209</ele>
      <time>2016-06-05T10:43:19Z</time>
    </trkpt>
    <trkpt lat="48.451982" lon="2.659417">
      <ele>143.594</ele>
      <time>2016-06-05T10:43:21Z</time>
    </trkpt>
    <trkpt lat="48.452078" lon="2.659429">
      <ele>142.558</ele>
      <time>2016-06-05T10:43:23Z</time>
    </trkpt>
    <trkpt lat="48.45224" lon="2.659451">
      <ele>140.914</ele>
      <time>2016-06-05T10:43:26Z</time>
    </trkpt>
    <trkpt lat="48.452369" lon="2.659489">
      <ele>140.396</ele>
      <time>2016-06-05T10:43:28Z</time>
    </trkpt>
    <trkpt lat="48.452473" lon="2.659504">
      <ele>140.076</ele>
      <time>2016-06-05T10:43:30Z</time>
    </trkpt>
    <trkpt lat="48.452584" lon="2.659526">
      <ele>139.911</ele>
      <time>2016-06-05T10:43:32Z</time>
    </trkpt>
    <trkpt lat="48.452697" lon="2.659535">
      <ele>139.769</ele>
      <time>2016-06-05T10:43:34Z</time>
    </trkpt>
    <trkpt lat="48.452817" lon="2.659553">
      <ele>139.382</ele>
      <time>2016-06-05T10:43:36Z</time>
    </trkpt>
    <trkpt lat="48.452944" lon="2.65959">
      <ele>138.593</ele>
      <time>2016-06-05T10:43:39Z</time>
    </trkpt>
    <trkpt lat="48.453047" lon="2.659601">
      <ele>138.044</ele>
      <time>2016-06-05T10:43:41Z</time>
    </trkpt>
    <trkpt lat="48.45315" lon="2.659604">
      <ele>137.66</ele>
      <time>2016-06-05T10:43:43Z</time>
    </trkpt>
    <trkpt lat="48.453287" lon="2.659627">
      <ele>137.167</ele>
      <time>2016-06-05T10:43:45Z</time>
    </trkpt>
    <trkpt lat="48.45342" lon="2.659636">
      <ele>137.215</ele>
      <time>2016-06-05T10:43:47Z</time>
    </trkpt>
    <trkpt lat="48.453546" lon="2.65965">
      <ele>137.567</ele>
      <time>2016-06-05T10:43:49Z</time>
    </trkpt>
    <trkpt lat="48.453657" lon="2.65965">
      <ele>137.74</ele>
      <time>2016-06-05T10:43:52Z</time>
    </trkpt>
    <trkpt lat="48.453773" lon="2.65969">
      <ele>137.884</ele>
      <time>2016-06-05T10:43:54Z</time>
    </trkpt>
    <trkpt lat="48.453888" lon="2.659717">
      <ele>137.981</ele>
      <time>2016-06-05T10:43:56Z</time>
    </trkpt>
    <trkpt lat="48.454008" lon="2.659743">
      <ele>138.043</ele>
      <time>2016-06-05T10:43:59Z</time>
    </trkpt>
    <trkpt lat="48.454108" lon="2.65972">
      <ele>137.992</ele>
      <time>2016-06-05T10:44:01Z</time>
    </trkpt>
    <trkpt lat="48.454241" lon="2.659751">
      <ele>137.76</ele>
      <time>2016-06-05T10:44:03Z</time>
    </trkpt>
    <trkpt lat="48.454336" lon="2.659808">
      <ele>137.579</ele>
      <time>2016-06-05T10:44:04Z</time>
    </trkpt>
    <trkpt lat="48.454456" lon="2.659806">
      <ele>137.289</ele>
      <time>2016-06-05T10:44:06Z</time>
    </trkpt>
    <trkpt lat="48.454596" lon="2.659809">
      <ele>137.142</ele>
      <time>2016-06-05T10:44:08Z</time>
    </trkpt>
    <trkpt lat="48.454727" lon="2.659824">
      <ele>136.983</ele>
      <time>2016-06-05T10:44:10Z</time>
    </trkpt>
    <trkpt lat="48.454814" lon="2.659866">
      <ele>136.67</ele>
      <time>2016-06-05T10:44:12Z</time>
    </trkpt>
    <trkpt lat="48.454922" lon="2.659885">
      <ele>136.281</ele>
      <time>2016-06-05T10:44:14Z</time>
    </trkpt>
    <trkpt lat="48.45503" lon="2.659906">
      <ele>135.892</ele>
      <time>2016-06-05T10:44:16Z</time>
    </trkpt>
    <trkpt lat="48.455142" lon="2.659931">
      <ele>135.489</ele>
      <time>2016-06-05T10:44:18Z</time>
    </trkpt>
    <trkpt lat="48.45523" lon="2.659976">
      <ele>135.172</ele>
      <time>2016-06-05T10:44:20Z</time>
    </trkpt>
    <trkpt lat="48.455324" lon="2.66">
      <ele>134.834</ele>
      <time>2016-06-05T10:44:22Z</time>
    </trkpt>
    <trkpt lat="48.455427" lon="2.660005">
      <ele>134.463</ele>
      <time>2016-06-05T10:44:24Z</time>
    </trkpt>
    <trkpt lat="48.455541" lon="2.660022">
      <ele>134.052</ele>
      <time>2016-06-05T10:44:26Z</time>
    </trkpt>
    <trkpt lat="48.455654" lon="2.660058">
      <ele>133.926</ele>
      <time>2016-06-05T10:44:28Z</time>
    </trkpt>
    <trkpt lat="48.455764" lon="2.660058">
      <ele>133.843</ele>
      <time>2016-06-05T10:44:30Z</time>
    </trkpt>
    <trkpt lat="48.455885" lon="2.66006">
      <ele>133.638</ele>
      <time>2016-06-05T10:44:32Z</time>
    </trkpt>
    <trkpt lat="48.455992" lon="2.660071">
      <ele>133.319</ele>
      <time>2016-06-05T10:44:34Z</time>
    </trkpt>
    <trkpt lat="48.456102" lon="2.660103">
      <ele>133.021</ele>
      <time>2016-06-05T10:44:36Z</time>
    </trkpt>
    <trkpt lat="48.456191" lon="2.660017">
      <ele>133.27</ele>
      <time>2016-06-05T10:44:40Z</time>
    </trkpt>
    <trkpt lat="48.456222" lon="2.659889">
      <ele>133.639</ele>
      <time>2016-06-05T10:44:43Z</time>
    </trkpt>
    <trkpt lat="48.456253" lon="2.659731">
      <ele>133.985</ele>
      <time>2016-06-05T10:44:46Z</time>
    </trkpt>
    <trkpt lat="48.456319" lon="2.65958">
      <ele>133.359</ele>
      <time>2016-06-05T10:44:48Z</time>
    </trkpt>
    <trkpt lat="48.45635" lon="2.659449">
      <ele>132.879</ele>
      <time>2016-06-05T10:44:50Z</time>
    </trkpt>
    <trkpt lat="48.456407" lon="2.659252">
      <ele>132.307</ele>
      <time>2016-06-05T10:44:53Z</time>
    </trkpt>
    <trkpt lat="48.456426" lon="2.65911">
      <ele>132.0</ele>
      <time>2016-06-05T10:44:55Z</time>
    </trkpt>
    <trkpt lat="48.456405" lon="2.658956">
      <ele>132.0</ele>
      <time>2016-06-05T10:44:57Z</time>
    </trkpt>
    <trkpt lat="48.456416" lon="2.658813">
      <ele>131.753</ele>
      <time>2016-06-05T10:44:59Z</time>
    </trkpt>
    <trkpt lat="48.456436" lon="2.658668">
      <ele>131.34</ele>
      <time>2016-06-05T10:45:01Z</time>
    </trkpt>
    <trkpt lat="48.456478" lon="2.658543">
      <ele>131.242</ele>
      <time>2016-06-05T10:45:03Z</time>
    </trkpt>
    <trkpt lat="48.456524" lon="2.658388">
      <ele>131.096</ele>
      <time>2016-06-05T10:45:05Z</time>
    </trkpt>
    <trkpt lat="48.456587" lon="2.658265">
      <ele>130.579</ele>
      <time>2016-06-05T10:45:08Z</time>
    </trkpt>
    <trkpt lat="48.456666" lon="2.658172">
      <ele>129.84</ele>
      <time>2016-06-05T10:45:10Z</time>
    </trkpt>
    <trkpt lat="48.456777" lon="2.658046">
      <ele>129.0</ele>
      <time>2016-06-05T10:45:12Z</time>
    </trkpt>
    <trkpt lat="48.456896" lon="2.657931">
      <ele>129.0</ele>
      <time>2016-06-05T10:45:14Z</time>
    </trkpt>
    <trkpt lat="48.457019" lon="2.65785">
      <ele>128.732</ele>
      <time>2016-06-05T10:45:16Z</time>
    </trkpt>
    <trkpt lat="48.457115" lon="2.657795">
      <ele>128.386</ele>
      <time>2016-06-05T10:45:18Z</time>
    </trkpt>
    <trkpt lat="48.457215" lon="2.657744">
      <ele>128.148</ele>
      <time>2016-06-05T10:45:20Z</time>
    </trkpt>
    <trkpt lat="48.457336" lon="2.657688">
      <ele>128.191</ele>
      <time>2016-06-05T10:45:23Z</time>
    </trkpt>
    <trkpt lat="48.457435" lon="2.657774">
      <ele>128.003</ele>
      <time>2016-06-05T10:45:26Z</time>
    </trkpt>
    <trkpt lat="48.45747" lon="2.657905">
      <ele>128.0</ele>
      <time>2016-06-05T10:45:28Z</time>
    </trkpt>
    <trkpt lat="48.457534" lon="2.658002">
      <ele>127.901</ele>
      <time>2016-06-05T10:45:30Z</time>
    </trkpt>
    <trkpt lat="48.457627" lon="2.658081">
      <ele>127.409</ele>
      <time>2016-06-05T10:45:33Z</time>
    </trkpt>
    <trkpt lat="48.457782" lon="2.658106">
      <ele>126.634</ele>
      <time>2016-06-05T10:45:35Z</time>
    </trkpt>
    <trkpt lat="48.457884" lon="2.658139">
      <ele>126.284</ele>
      <time>2016-06-05T10:45:37Z</time>
    </trkpt>
    <trkpt lat="48.458003" lon="2.658251">
      <ele>125.022</ele>
      <time>2016-06-05T10:45:39Z</time>
    </trkpt>
    <trkpt lat="48.458097" lon="2.658438">
      <ele>122.493</ele>
      <time>2016-06-05T10:45:41Z</time>
    </trkpt>
    <trkpt lat="48.458176" lon="2.658604">
      <ele>120.102</ele>
      <time>2016-06-05T10:45:43Z</time>
    </trkpt>
    <trkpt lat="48.458219" lon="2.658725">
      <ele>118.529</ele>
      <time>2016-06-05T10:45:44Z</time>
    </trkpt>
    <trkpt lat="48.458302" lon="2.658858">
      <ele>116.545</ele>
      <time>2016-06-05T10:45:46Z</time>
    </trkpt>
    <trkpt lat="48.458393" lon="2.658955">
      <ele>114.376</ele>
      <time>2016-06-05T10:45:48Z</time>
    </trkpt>
    <trkpt lat="48.45849" lon="2.659128">
      <ele>110.676</ele>
      <time>2016-06-05T10:45:50Z</time>
    </trkpt>
    <trkpt lat="48.458535" lon="2.659249">
      <ele>108.615</ele>
      <time>2016-06-05T10:45:52Z</time>
    </trkpt>
    <trkpt lat="48.458549" lon="2.659418">
      <ele>106.904</ele>
      <time>2016-06-05T10:45:55Z</time>
    </trkpt>
    <trkpt lat="48.45855" lon="2.659563">
      <ele>105.806</ele>
      <time>2016-06-05T10:45:57Z</time>
    </trkpt>
    <trkpt lat="48.458597" lon="2.659684">
      <ele>104.428</ele>
      <time>2016-06-05T10:46:00Z</time>
    </trkpt>
    <trkpt lat="48.458578" lon="2.659819">
      <ele>103.968</ele>
      <time>2016-06-05T10:46:02Z</time>
    </trkpt>
    <trkpt lat="48.458542" lon="2.659955">
      <ele>103.7</ele>
      <time>2016-06-05T10:46:04Z</time>
    </trkpt>
    <trkpt lat="48.458557" lon="2.660155">
      <ele>102.274</ele>
      <time>2016-06-05T10:46:07Z</time>
    </trkpt>
    <trkpt lat="48.458622" lon="2.660336">
      <ele>100.712</ele>
      <time>2016-06-05T10:46:09Z</time>
    </trkpt>
    <trkpt lat="48.458717" lon="2.660493">
      <ele>99.463</ele>
      <time>2016-06-05T10:46:11Z</time>
    </trkpt>
    <trkpt lat="48.45881" lon="2.660606">
      <ele>98.698</ele>
      <time>2016-06-05T10:46:13Z</time>
    </trkpt>
    <trkpt lat="48.458878" lon="2.660709">
      <ele>98.609</ele>
      <time>2016-06-05T10:46:15Z</time>
    </trkpt>
    <trkpt lat="48.458995" lon="2.66083">
      <ele>98.988</ele>
      <time>2016-06-05T10:46:17Z</time>
    </trkpt>
    <trkpt lat="48.459097" lon="2.660912">
      <ele>99.495</ele>
      <time>2016-06-05T10:46:19Z</time>
    </trkpt>
    <trkpt lat="48.459192" lon="2.660985">
      <ele>100.042</ele>
      <time>2016-06-05T10:46:21Z</time>
    </trkpt>
    <trkpt lat="48.459289" lon="2.661062">
      <ele>100.284</ele>
      <time>2016-06-05T10:46:23Z</time>
    </trkpt>
    <trkpt lat="48.45941" lon="2.661117">
      <ele>100.127</ele>
      <time>2016-06-05T10:46:25Z</time>
    </trkpt>
    <trkpt lat="48.459512" lon="2.661197">
      <ele>100.0</ele>
      <time>2016-06-05T10:46:27Z</time>
    </trkpt>
    <trkpt lat="48.459626" lon="2.661257">
      <ele>100.0</ele>
      <time>2016-06-05T10:46:29Z</time>
    </trkpt>
    <trkpt lat="48.459738" lon="2.66131">
      <ele>100.13</ele>
      <time>2016-06-05T10:46:31Z</time>
    </trkpt>
    <trkpt lat="48.459855" lon="2.661381">
      <ele>100.97</ele>
      <time>2016-06-05T10:46:34Z</time>
    </trkpt>
    <trkpt lat="48.459952" lon="2.661389">
      <ele>101.654</ele>
      <time>2016-06-05T10:46:37Z</time>
    </trkpt>
    <trkpt lat="48.460065" lon="2.661404">
      <ele>102.702</ele>
      <time>2016-06-05T10:46:42Z</time>
    </trkpt>
    <trkpt lat="48.460149" lon="2.66132">
      <ele>103.724</ele>
      <time>2016-06-05T10:46:45Z</time>
    </trkpt>
    <trkpt lat="48.460255" lon="2.661257">
      <ele>104.793</ele>
      <time>2016-06-05T10:46:49Z</time>
    </trkpt>
    <trkpt lat="48.460366" lon="2.66119">
      <ele>105.318</ele>
      <time>2016-06-05T10:46:52Z</time>
    </trkpt>
    <trkpt lat="48.460434" lon="2.661066">
      <ele>105.562</ele>
      <time>2016-06-05T10:46:56Z</time>
    </trkpt>
    <trkpt lat="48.460489" lon="2.660956">
      <ele>105.76</ele>
      <time>2016-06-05T10:46:59Z</time>
    </trkpt>
    <trkpt lat="48.46057" lon="2.660891">
      <ele>106.0</ele>
      <time>2016-06-05T10:47:04Z</time>
    </trkpt>
    <trkpt lat="48.460624" lon="2.660745">
      <ele>106.078</ele>
      <time>2016-06-05T10:47:09Z</time>
    </trkpt>
    <trkpt lat="48.460713" lon="2.660639">
      <ele>106.397</ele>
      <time>2016-06-05T10:47:12Z</time>
    </trkpt>
    <trkpt lat="48.460813" lon="2.660597">
      <ele>106.789</ele>
      <time>2016-06-05T10:47:17Z</time>
    </trkpt>
    <trkpt lat="48.4609" lon="2.660526">
      <ele>106.76</ele>
      <time>2016-06-05T10:47:21Z</time>
    </trkpt>
    <trkpt lat="48.461007" lon="2.660427">
      <ele>106.375</ele>
      <time>2016-06-05T10:47:25Z</time>
    </trkpt>
    <trkpt lat="48.461098" lon="2.660423">
      <ele>106.047</ele>
      <time>2016-06-05T10:47:27Z</time>
    </trkpt>
    <trkpt lat="48.461228" lon="2.660439">
      <ele>104.738</ele>
      <time>2016-06-05T10:47:30Z</time>
    </trkpt>
    <trkpt lat="48.461319" lon="2.660463">
      <ele>103.755</ele>
      <time>2016-06-05T10:47:32Z</time>
    </trkpt>
    <trkpt lat="48.461408" lon="2.660507">
      <ele>102.794</ele>
      <time>2016-06-05T10:47:34Z</time>
    </trkpt>
    <trkpt lat="48.46154" lon="2.660512">
      <ele>101.368</ele>
      <time>2016-06-05T10:47:38Z</time>
    </trkpt>
    <trkpt lat="48.461678" lon="2.660477">
      <ele>99.959</ele>
      <time>2016-06-05T10:47:41Z</time>
    </trkpt>
    <trkpt lat="48.461822" lon="2.660439">
      <ele>99.441</ele>
      <time>2016-06-05T10:47:43Z</time>
    </trkpt>
    <trkpt lat="48.461944" lon="2.660392">
      <ele>99.002</ele>
      <time>2016-06-05T10:47:46Z</time>
    </trkpt>
    <trkpt lat="48.462066" lon="2.660354">
      <ele>99.318</ele>
      <time>2016-06-05T10:47:48Z</time>
    </trkpt>
    <trkpt lat="48.462171" lon="2.660306">
      <ele>99.733</ele>
      <time>2016-06-05T10:47:50Z</time>
    </trkpt>
    <trkpt lat="48.462262" lon="2.660228">
      <ele>99.872</ele>
      <time>2016-06-05T10:47:53Z</time>
    </trkpt>
    <trkpt lat="48.462342" lon="2.660147">
      <ele>99.935</ele>
      <time>2016-06-05T10:47:55Z</time>
    </trkpt>
    <trkpt lat="48.462425" lon="2.660083">
      <ele>100.323</ele>
      <time>2016-06-05T10:47:57Z</time>
    </trkpt>
    <trkpt lat="48.462557" lon="2.659969">
      <ele>101.117</ele>
      <time>2016-06-05T10:47:59Z</time>
    </trkpt>
    <trkpt lat="48.462675" lon="2.659847">
      <ele>101.426</ele>
      <time>2016-06-05T10:48:02Z</time>
    </trkpt>
    <trkpt lat="48.462793" lon="2.659725">
      <ele>102.055</ele>
      <time>2016-06-05T10:48:04Z</time>
    </trkpt>
    <trkpt lat="48.462873" lon="2.659661">
      <ele>102.122</ele>
      <time>2016-06-05T10:48:05Z</time>
    </trkpt>
    <trkpt lat="48.46302" lon="2.659587">
      <ele>102.385</ele>
      <time>2016-06-05T10:48:07Z</time>
    </trkpt>
    <trkpt lat="48.463137" lon="2.659502">
      <ele>102.379</ele>
      <time>2016-06-05T10:48:10Z</time>
    </trkpt>
    <trkpt lat="48.463234" lon="2.659432">
      <ele>102.626</ele>
      <time>2016-06-05T10:48:12Z</time>
    </trkpt>
    <trkpt lat="48.46335" lon="2.659299">
      <ele>102.94</ele>
      <time>2016-06-05T10:48:14Z</time>
    </trkpt>
    <trkpt lat="48.463451" lon="2.659212">
      <ele>102.576</ele>
      <time>2016-06-05T10:48:18Z</time>
    </trkpt>
    <trkpt lat="48.463579" lon="2.659112">
      <ele>102.093</ele>
      <time>2016-06-05T10:48:20Z</time>
    </trkpt>
    <trkpt lat="48.463695" lon="2.659038">
      <ele>102.0</ele>
      <time>2016-06-05T10:48:23Z</time>
    </trkpt>
    <trkpt lat="48.463787" lon="2.658966">
      <ele>102.0</ele>
      <time>2016-06-05T10:48:25Z</time>
    </trkpt>
    <trkpt lat="48.463869" lon="2.658883">
      <ele>102.0</ele>
      <time>2016-06-05T10:48:27Z</time>
    </trkpt>
    <trkpt lat="48.463995" lon="2.658829">
      <ele>101.918</ele>
      <time>2016-06-05T10:48:31Z</time>
    </trkpt>
    <trkpt lat="48.464075" lon="2.658745">
      <ele>101.653</ele>
      <time>2016-06-05T10:48:33Z</time>
    </trkpt>
    <trkpt lat="48.464173" lon="2.65867">
      <ele>101.184</ele>
      <time>2016-06-05T10:48:35Z</time>
    </trkpt>
    <trkpt lat="48.464262" lon="2.658589">
      <ele>100.657</ele>
      <time>2016-06-05T10:48:38Z</time>
    </trkpt>
    <trkpt lat="48.46436" lon="2.658506">
      <ele>100.304</ele>
      <time>2016-06-05T10:48:40Z</time>
    </trkpt>
    <trkpt lat="48.464488" lon="2.65848">
      <ele>99.917</ele>
      <time>2016-06-05T10:48:42Z</time>
    </trkpt>
    <trkpt lat="48.464603" lon="2.658442">
      <ele>99.777</ele>
      <time>2016-06-05T10:48:44Z</time>
    </trkpt>
    <trkpt lat="48.464706" lon="2.658449">
      <ele>99.608</ele>
      <time>2016-06-05T10:48:46Z</time>
    </trkpt>
    <trkpt lat="48.464817" lon="2.658462">
      <ele>99.878</ele>
      <time>2016-06-05T10:48:49Z</time>
    </trkpt>
    <trkpt lat="48.464909" lon="2.65845">
      <ele>100.252</ele>
      <time>2016-06-05T10:48:51Z</time>
    </trkpt>
    <trkpt lat="48.465012" lon="2.658413">
      <ele>100.726</ele>
      <time>2016-06-05T10:48:54Z</time>
    </trkpt>
    <trkpt lat="48.465125" lon="2.658378">
      <ele>100.912</ele>
      <time>2016-06-05T10:48:57Z</time>
    </trkpt>
    <trkpt lat="48.465224" lon="2.658348">
      <ele>100.99</ele>
      <time>2016-06-05T10:48:59Z</time>
    </trkpt>
    <trkpt lat="48.465357" lon="2.658355">
      <ele>100.715</ele>
      <time>2016-06-05T10:49:02Z</time>
    </trkpt>
    <trkpt lat="48.465443" lon="2.658428">
      <ele>100.405</ele>
      <time>2016-06-05T10:49:04Z</time>
    </trkpt>
    <trkpt lat="48.465522" lon="2.658501">
      <ele>100.121</ele>
      <time>2016-06-05T10:49:06Z</time>
    </trkpt>
    <trkpt lat="48.465621" lon="2.658501">
      <ele>99.529</ele>
      <time>2016-06-05T10:49:09Z</time>
    </trkpt>
    <trkpt lat="48.465731" lon="2.658456">
      <ele>98.737</ele>
      <time>2016-06-05T10:49:12Z</time>
    </trkpt>
    <trkpt lat="48.465824" lon="2.65837">
      <ele>98.067</ele>
      <time>2016-06-05T10:49:15Z</time>
    </trkpt>
    <trkpt lat="48.465907" lon="2.658314">
      <ele>97.735</ele>
      <time>2016-06-05T10:49:17Z</time>
    </trkpt>
    <trkpt lat="48.466047" lon="2.658283">
      <ele>97.231</ele>
      <time>2016-06-05T10:49:19Z</time>
    </trkpt>
    <trkpt lat="48.466136" lon="2.658354">
      <ele>97.0</ele>
      <time>2016-06-05T10:49:20Z</time>
    </trkpt>
    <trkpt lat="48.466238" lon="2.658354">
      <ele>97.0</ele>
      <time>2016-06-05T10:49:22Z</time>
    </trkpt>
    <trkpt lat="48.466362" lon="2.658379">
      <ele>97.0</ele>
      <time>2016-06-05T10:49:24Z</time>
    </trkpt>
    <trkpt lat="48.466479" lon="2.658388">
      <ele>97.0</ele>
      <time>2016-06-05T10:49:26Z</time>
    </trkpt>
    <trkpt lat="48.466622" lon="2.658415">
      <ele>97.0</ele>
      <time>2016-06-05T10:49:28Z</time>
    </trkpt>
    <trkpt lat="48.466739" lon="2.65844">
      <ele>97.421</ele>
      <time>2016-06-05T10:49:32Z</time>
    </trkpt>
    <trkpt lat="48.466858" lon="2.658428">
      <ele>98.143</ele>
      <time>2016-06-05T10:49:35Z</time>
    </trkpt>
    <trkpt lat="48.466973" lon="2.65846">
      <ele>98.488</ele>
      <time>2016-06-05T10:49:37Z</time>
    </trkpt>
    <trkpt lat="48.467087" lon="2.658451">
      <ele>98.281</ele>
      <time>2016-06-05T10:49:40Z</time>
    </trkpt>
    <trkpt lat="48.467225" lon="2.658461">
      <ele>97.97</ele>
      <time>2016-06-05T10:49:43Z</time>
    </trkpt>
    <trkpt lat="48.467365" lon="2.65849">
      <ele>96.458</ele>
      <time>2016-06-05T10:49:45Z</time>
    </trkpt>
    <trkpt lat="48.467461" lon="2.65849">
      <ele>95.421</ele>
      <time>2016-06-05T10:49:47Z</time>
    </trkpt>
    <trkpt lat="48.467594" lon="2.658492">
      <ele>94.662</ele>
      <time>2016-06-05T10:49:49Z</time>
    </trkpt>
    <trkpt lat="48.467693" lon="2.6585">
      <ele>94.305</ele>
      <time>2016-06-05T10:49:52Z</time>
    </trkpt>
    <trkpt lat="48.467803" lon="2.658461">
      <ele>94.0</ele>
      <time>2016-06-05T10:49:56Z</time>
    </trkpt>
    <trkpt lat="48.467889" lon="2.65853">
      <ele>94.0</ele>
      <time>2016-06-05T10:49:59Z</time>
    </trkpt>
    <trkpt lat="48.467978" lon="2.658588">
      <ele>94.0</ele>
      <time>2016-06-05T10:50:03Z</time>
    </trkpt>
    <trkpt lat="48.468075" lon="2.658577">
      <ele>94.0</ele>
      <time>2016-06-05T10:50:06Z</time>
    </trkpt>
    <trkpt lat="48.468174" lon="2.658558">
      <ele>94.0</ele>
      <time>2016-06-05T10:50:11Z</time>
    </trkpt>
    <trkpt lat="48.468311" lon="2.658585">
      <ele>94.0</ele>
      <time>2016-06-05T10:50:14Z</time>
    </trkpt>
    <trkpt lat="48.468418" lon="2.658606">
      <ele>94.299</ele>
      <time>2016-06-05T10:50:17Z</time>
    </trkpt>
    <trkpt lat="48.468541" lon="2.658603">
      <ele>94.726</ele>
      <time>2016-06-05T10:50:20Z</time>
    </trkpt>
    <trkpt lat="48.468636" lon="2.658611">
      <ele>94.91</ele>
      <time>2016-06-05T10:50:22Z</time>
    </trkpt>
    <trkpt lat="48.468754" lon="2.65863">
      <ele>94.486</ele>
      <time>2016-06-05T10:50:25Z</time>
    </trkpt>
    <trkpt lat="48.468894" lon="2.658648">
      <ele>93.982</ele>
      <time>2016-06-05T10:50:28Z</time>
    </trkpt>
    <trkpt lat="48.468994" lon="2.658652">
      <ele>93.622</ele>
      <time>2016-06-05T10:50:30Z</time>
    </trkpt>
    <trkpt lat="48.4691" lon="2.658668">
      <ele>93.24</ele>
      <time>2016-06-05T10:50:32Z</time>
    </trkpt>
    <trkpt lat="48.469226" lon="2.658668">
      <ele>92.573</ele>
      <time>2016-06-05T10:50:34Z</time>
    </trkpt>
    <trkpt lat="48.469337" lon="2.658689">
      <ele>91.774</ele>
      <time>2016-06-05T10:50:36Z</time>
    </trkpt>
    <trkpt lat="48.469444" lon="2.658683">
      <ele>91.003</ele>
      <time>2016-06-05T10:50:38Z</time>
    </trkpt>
    <trkpt lat="48.469549" lon="2.658684">
      <ele>90.346</ele>
      <time>2016-06-05T10:50:40Z</time>
    </trkpt>
    <trkpt lat="48.469644" lon="2.658715">
      <ele>89.832</ele>
      <time>2016-06-05T10:50:42Z</time>
    </trkpt>
    <trkpt lat="48.469777" lon="2.658728">
      <ele>89.618</ele>
      <time>2016-06-05T10:50:45Z</time>
    </trkpt>
    <trkpt lat="48.469874" lon="2.658758">
      <ele>90.075</ele>
      <time>2016-06-05T10:50:47Z</time>
    </trkpt>
    <trkpt lat="48.470008" lon="2.658765">
      <ele>90.567</ele>
      <time>2016-06-05T10:50:51Z</time>
    </trkpt>
    <trkpt lat="48.470129" lon="2.658789">
      <ele>90.807</ele>
      <time>2016-06-05T10:50:54Z</time>
    </trkpt>
    <trkpt lat="48.470234" lon="2.658794">
      <ele>90.946</ele>
      <time>2016-06-05T10:50:57Z</time>
    </trkpt>
    <trkpt lat="48.470333" lon="2.658792">
      <ele>90.861</ele>
      <time>2016-06-05T10:51:01Z</time>
    </trkpt>
    <trkpt lat="48.470471" lon="2.658775">
      <ele>90.43</ele>
      <time>2016-06-05T10:51:07Z</time>
    </trkpt>
    <trkpt lat="48.470576" lon="2.658783">
      <ele>90.062</ele>
      <time>2016-06-05T10:51:10Z</time>
    </trkpt>
    <trkpt lat="48.470672" lon="2.658797">
      <ele>89.361</ele>
      <time>2016-06-05T10:51:12Z</time>
    </trkpt>
    <trkpt lat="48.470771" lon="2.658812">
      <ele>88.681</ele>
      <time>2016-06-05T10:51:14Z</time>
    </trkpt>
    <trkpt lat="48.470898" lon="2.658831">
      <ele>87.676</ele>
      <time>2016-06-05T10:51:17Z</time>
    </trkpt>
    <trkpt lat="48.471005" lon="2.658857">
      <ele>86.802</ele>
      <time>2016-06-05T10:51:19Z</time>
    </trkpt>
    <trkpt lat="48.471118" lon="2.65879">
      <ele>84.875</ele>
      <time>2016-06-05T10:51:23Z</time>
    </trkpt>
    <trkpt lat="48.471199" lon="2.658724">
      <ele>83.646</ele>
      <time>2016-06-05T10:51:26Z</time>
    </trkpt>
    <trkpt lat="48.47127" lon="2.658632">
      <ele>82.568</ele>
      <time>2016-06-05T10:51:30Z</time>
    </trkpt>
    <trkpt lat="48.471377" lon="2.658563">
      <ele>81.862</ele>
      <time>2016-06-05T10:51:33Z</time>
    </trkpt>
    <trkpt lat="48.4715" lon="2.658454">
      <ele>81.261</ele>
      <time>2016-06-05T10:51:36Z</time>
    </trkpt>
    <trkpt lat="48.471576" lon="2.658368">
      <ele>81.041</ele>
      <time>2016-06-05T10:51:38Z</time>
    </trkpt>
    <trkpt lat="48.471667" lon="2.658291">
      <ele>81.155</ele>
      <time>2016-06-05T10:51:40Z</time>
    </trkpt>
    <trkpt lat="48.471757" lon="2.658185">
      <ele>82.011</ele>
      <time>2016-06-05T10:51:43Z</time>
    </trkpt>
    <trkpt lat="48.471879" lon="2.658134">
      <ele>82.698</ele>
      <time>2016-06-05T10:51:46Z</time>
    </trkpt>
    <trkpt lat="48.47197" lon="2.658045">
      <ele>83.092</ele>
      <time>2016-06-05T10:51:48Z</time>
    </trkpt>
    <trkpt lat="48.472073" lon="2.65794">
      <ele>83.463</ele>
      <time>2016-06-05T10:51:51Z</time>
    </trkpt>
    <trkpt lat="48.472179" lon="2.657866">
      <ele>83.844</ele>
      <time>2016-06-05T10:51:54Z</time>
    </trkpt>
    <trkpt lat="48.472299" lon="2.657825">
      <ele>84.0</ele>
      <time>2016-06-05T10:51:57Z</time>
    </trkpt>
    <trkpt lat="48.472402" lon="2.657727">
      <ele>83.817</ele>
      <time>2016-06-05T10:51:59Z</time>
    </trkpt>
    <trkpt lat="48.472513" lon="2.65762">
      <ele>83.432</ele>
      <time>2016-06-05T10:52:04Z</time>
    </trkpt>
    <trkpt lat="48.472607" lon="2.657505">
      <ele>83.018</ele>
      <time>2016-06-05T10:52:07Z</time>
    </trkpt>
    <trkpt lat="48.472726" lon="2.657464">
      <ele>83.0</ele>
      <time>2016-06-05T10:52:09Z</time>
    </trkpt>
    <trkpt lat="48.472813" lon="2.657418">
      <ele>83.089</ele>
      <time>2016-06-05T10:52:11Z</time>
    </trkpt>
    <trkpt lat="48.472902" lon="2.657329">
      <ele>83.172</ele>
      <time>2016-06-05T10:52:14Z</time>
    </trkpt>
    <trkpt lat="48.472984" lon="2.657226">
      <ele>83.01</ele>
      <time>2016-06-05T10:52:17Z</time>
    </trkpt>
    <trkpt lat="48.473065" lon="2.657153">
      <ele>83.034</ele>
      <time>2016-06-05T10:52:20Z</time>
    </trkpt>
    <trkpt lat="48.473143" lon="2.65708">
      <ele>83.315</ele>
      <time>2016-06-05T10:52:22Z</time>
    </trkpt>
    <trkpt lat="48.473224" lon="2.656975">
      <ele>83.606</ele>
      <time>2016-06-05T10:52:25Z</time>
    </trkpt>
    <trkpt lat="48.473317" lon="2.656898">
      <ele>83.784</ele>
      <time>2016-06-05T10:52:27Z</time>
    </trkpt>
    <trkpt lat="48.473423" lon="2.656785">
      <ele>84.072</ele>
      <time>2016-06-05T10:52:29Z</time>
    </trkpt>
    <trkpt lat="48.473532" lon="2.656673">
      <ele>84.453</ele>
      <time>2016-06-05T10:52:31Z</time>
    </trkpt>
    <trkpt lat="48.473629" lon="2.656617">
      <ele>85.193</ele>
      <time>2016-06-05T10:52:33Z</time>
    </trkpt>
    <trkpt lat="48.473723" lon="2.656576">
      <ele>86.208</ele>
      <time>2016-06-05T10:52:35Z</time>
    </trkpt>
    <trkpt lat="48.473827" lon="2.656537">
      <ele>87.332</ele>
      <time>2016-06-05T10:52:37Z</time>
    </trkpt>
    <trkpt lat="48.47394" lon="2.656453">
      <ele>88.368</ele>
      <time>2016-06-05T10:52:40Z</time>
    </trkpt>
    <trkpt lat="48.474054" lon="2.656306">
      <ele>89.366</ele>
      <time>2016-06-05T10:52:43Z</time>
    </trkpt>
    <trkpt lat="48.474151" lon="2.656194">
      <ele>90.549</ele>
      <time>2016-06-05T10:52:45Z</time>
    </trkpt>
    <trkpt lat="48.474212" lon="2.656082">
      <ele>91.0</ele>
      <time>2016-06-05T10:52:48Z</time>
    </trkpt>
    <trkpt lat="48.474317" lon="2.655998">
      <ele>91.0</ele>
      <time>2016-06-05T10:52:50Z</time>
    </trkpt>
    <trkpt lat="48.474408" lon="2.655969">
      <ele>91.0</ele>
      <time>2016-06-05T10:52:51Z</time>
    </trkpt>
    <trkpt lat="48.474499" lon="2.655945">
      <ele>90.883</ele>
      <time>2016-06-05T10:52:54Z</time>
    </trkpt>
    <trkpt lat="48.4746" lon="2.655837">
      <ele>90.447</ele>
      <time>2016-06-05T10:52:56Z</time>
    </trkpt>
    <trkpt lat="48.474689" lon="2.655755">
      <ele>90.12</ele>
      <time>2016-06-05T10:52:58Z</time>
    </trkpt>
    <trkpt lat="48.474771" lon="2.655684">
      <ele>90.0</ele>
      <time>2016-06-05T10:53:01Z</time>
    </trkpt>
    <trkpt lat="48.474861" lon="2.655605">
      <ele>90.0</ele>
      <time>2016-06-05T10:53:04Z</time>
    </trkpt>
    <trkpt lat="48.474977" lon="2.655547">
      <ele>89.997</ele>
      <time>2016-06-05T10:53:06Z</time>
    </trkpt>
    <trkpt lat="48.475065" lon="2.655401">
      <ele>90.338</ele>
      <time>2016-06-05T10:53:09Z</time>
    </trkpt>
    <trkpt lat="48.47519" lon="2.655354">
      <ele>90.872</ele>
      <time>2016-06-05T10:53:11Z</time>
    </trkpt>
    <trkpt lat="48.475289" lon="2.655243">
      <ele>90.951</ele>
      <time>2016-06-05T10:53:15Z</time>
    </trkpt>
    <trkpt lat="48.475374" lon="2.655199">
      <ele>91.311</ele>
      <time>2016-06-05T10:53:17Z</time>
    </trkpt>
    <trkpt lat="48.475462" lon="2.655141">
      <ele>91.507</ele>
      <time>2016-06-05T10:53:19Z</time>
    </trkpt>
    <trkpt lat="48.47557" lon="2.655041">
      <ele>91.332</ele>
      <time>2016-06-05T10:53:21Z</time>
    </trkpt>
    <trkpt lat="48.475657" lon="2.654939">
      <ele>91.006</ele>
      <time>2016-06-05T10:53:23Z</time>
    </trkpt>
    <trkpt lat="48.475772" lon="2.654852">
      <ele>91.129</ele>
      <time>2016-06-05T10:53:26Z</time>
    </trkpt>
    <trkpt lat="48.475877" lon="2.654792">
      <ele>91.212</ele>
      <time>2016-06-05T10:53:29Z</time>
    </trkpt>
    <trkpt lat="48.475986" lon="2.654703">
      <ele>90.969</ele>
      <time>2016-06-05T10:53:31Z</time>
    </trkpt>
    <trkpt lat="48.476089" lon="2.65461">
      <ele>90.968</ele>
      <time>2016-06-05T10:53:33Z</time>
    </trkpt>
    <trkpt lat="48.476188" lon="2.654515">
      <ele>91.277</ele>
      <time>2016-06-05T10:53:35Z</time>
    </trkpt>
    <trkpt lat="48.476291" lon="2.654433">
      <ele>91.606</ele>
      <time>2016-06-05T10:53:37Z</time>
    </trkpt>
    <trkpt lat="48.4764" lon="2.654333">
      <ele>91.599</ele>
      <time>2016-06-05T10:53:39Z</time>
    </trkpt>
    <trkpt lat="48.476503" lon="2.654283">
      <ele>91.419</ele>
      <time>2016-06-05T10:53:41Z</time>
    </trkpt>
    <trkpt lat="48.476613" lon="2.654199">
      <ele>91.116</ele>
      <time>2016-06-05T10:53:43Z</time>
    </trkpt>
    <trkpt lat="48.476705" lon="2.654108">
      <ele>90.927</ele>
      <time>2016-06-05T10:53:46Z</time>
    </trkpt>
    <trkpt lat="48.476817" lon="2.65395">
      <ele>90.761</ele>
      <time>2016-06-05T10:53:49Z</time>
    </trkpt>
    <trkpt lat="48.476905" lon="2.653921">
      <ele>90.974</ele>
      <time>2016-06-05T10:53:51Z</time>
    </trkpt>
    <trkpt lat="48.476992" lon="2.653868">
      <ele>91.342</ele>
      <time>2016-06-05T10:53:54Z</time>
    </trkpt>
    <trkpt lat="48.477089" lon="2.653729">
      <ele>92.041</ele>
      <time>2016-06-05T10:53:58Z</time>
    </trkpt>
    <trkpt lat="48.477203" lon="2.653629">
      <ele>92.862</ele>
      <time>2016-06-05T10:54:01Z</time>
    </trkpt>
    <trkpt lat="48.477283" lon="2.653505">
      <ele>92.92</ele>
      <time>2016-06-05T10:54:05Z</time>
    </trkpt>
    <trkpt lat="48.477375" lon="2.65347">
      <ele>93.321</ele>
      <time>2016-06-05T10:54:07Z</time>
    </trkpt>
    <trkpt lat="48.477482" lon="2.653349">
      <ele>93.874</ele>
      <time>2016-06-05T10:54:10Z</time>
    </trkpt>
    <trkpt lat="48.477598" lon="2.653268">
      <ele>93.848</ele>
      <time>2016-06-05T10:54:13Z</time>
    </trkpt>
    <trkpt lat="48.477699" lon="2.653166">
      <ele>93.829</ele>
      <time>2016-06-05T10:54:16Z</time>
    </trkpt>
    <trkpt lat="48.477821" lon="2.653076">
      <ele>94.0</ele>
      <time>2016-06-05T10:54:18Z</time>
    </trkpt>
    <trkpt lat="48.477959" lon="2.652976">
      <ele>93.714</ele>
      <time>2016-06-05T10:54:20Z</time>
    </trkpt>
    <trkpt lat="48.478063" lon="2.652874">
      <ele>93.329</ele>
      <time>2016-06-05T10:54:22Z</time>
    </trkpt>
    <trkpt lat="48.47818" lon="2.652761">
      <ele>92.465</ele>
      <time>2016-06-05T10:54:26Z</time>
    </trkpt>
    <trkpt lat="48.478287" lon="2.652663">
      <ele>91.409</ele>
      <time>2016-06-05T10:54:28Z</time>
    </trkpt>
    <trkpt lat="48.478401" lon="2.652559">
      <ele>90.373</ele>
      <time>2016-06-05T10:54:31Z</time>
    </trkpt>
    <trkpt lat="48.478481" lon="2.652461">
      <ele>89.925</ele>
      <time>2016-06-05T10:54:34Z</time>
    </trkpt>
    <trkpt lat="48.478568" lon="2.652379">
      <ele>89.632</ele>
      <time>2016-06-05T10:54:37Z</time>
    </trkpt>
    <trkpt lat="48.478671" lon="2.652322">
      <ele>89.282</ele>
      <time>2016-06-05T10:54:41Z</time>
    </trkpt>
    <trkpt lat="48.478751" lon="2.652221">
      <ele>89.0</ele>
      <time>2016-06-05T10:54:45Z</time>
    </trkpt>
    <trkpt lat="48.478836" lon="2.652165">
      <ele>89.0</ele>
      <time>2016-06-05T10:54:48Z</time>
    </trkpt>
    <trkpt lat="48.478926" lon="2.652123">
      <ele>89.134</ele>
      <time>2016-06-05T10:54:51Z</time>
    </trkpt>
    <trkpt lat="48.47902" lon="2.652048">
      <ele>89.472</ele>
      <time>2016-06-05T10:54:57Z</time>
    </trkpt>
    <trkpt lat="48.479135" lon="2.652012">
      <ele>89.886</ele>
      <time>2016-06-05T10:55:02Z</time>
    </trkpt>
    <trkpt lat="48.479209" lon="2.651877">
      <ele>90.663</ele>
      <time>2016-06-05T10:55:06Z</time>
    </trkpt>
    <trkpt lat="48.479271" lon="2.651778">
      <ele>91.501</ele>
      <time>2016-06-05T10:55:09Z</time>
    </trkpt>
    <trkpt lat="48.479393" lon="2.65171">
      <ele>92.601</ele>
      <time>2016-06-05T10:55:13Z</time>
    </trkpt>
    <trkpt lat="48.479462" lon="2.651615">
      <ele>93.249</ele>
      <time>2016-06-05T10:55:15Z</time>
    </trkpt>
    <trkpt lat="48.47955" lon="2.651565">
      <ele>93.746</ele>
      <time>2016-06-05T10:55:18Z</time>
    </trkpt>
    <trkpt lat="48.479616" lon="2.65147">
      <ele>94.326</ele>
      <time>2016-06-05T10:55:21Z</time>
    </trkpt>
    <trkpt lat="48.479713" lon="2.651356">
      <ele>94.967</ele>
      <time>2016-06-05T10:55:24Z</time>
    </trkpt>
    <trkpt lat="48.479819" lon="2.651264">
      <ele>94.652</ele>
      <time>2016-06-05T10:55:29Z</time>
    </trkpt>
    <trkpt lat="48.479891" lon="2.651161">
      <ele>94.392</ele>
      <time>2016-06-05T10:55:33Z</time>
    </trkpt>
    <trkpt lat="48.480004" lon="2.651141">
      <ele>93.987</ele>
      <time>2016-06-05T10:55:36Z</time>
    </trkpt>
    <trkpt lat="48.480082" lon="2.651048">
      <ele>93.705</ele>
      <time>2016-06-05T10:55:40Z</time>
    </trkpt>
    <trkpt lat="48.480172" lon="2.651018">
      <ele>93.381</ele>
      <time>2016-06-05T10:55:44Z</time>
    </trkpt>
    <trkpt lat="48.480275" lon="2.650953">
      <ele>93.01</ele>
      <time>2016-06-05T10:55:47Z</time>
    </trkpt>
    <trkpt lat="48.480373" lon="2.650872">
      <ele>93.343</ele>
      <time>2016-06-05T10:55:51Z</time>
    </trkpt>
    <trkpt lat="48.480452" lon="2.650795">
      <ele>93.627</ele>
      <time>2016-06-05T10:55:54Z</time>
    </trkpt>
    <trkpt lat="48.480555" lon="2.650751">
      <ele>93.998</ele>
      <time>2016-06-05T10:55:57Z</time>
    </trkpt>
    <trkpt lat="48.480653" lon="2.650656">
      <ele>94.351</ele>
      <time>2016-06-05T10:56:01Z</time>
    </trkpt>
    <trkpt lat="48.480756" lon="2.650558">
      <ele>94.722</ele>
      <time>2016-06-05T10:56:05Z</time>
    </trkpt>
    <trkpt lat="48.480839" lon="2.650446">
      <ele>95.033</ele>
      <time>2016-06-05T10:56:09Z</time>
    </trkpt>
    <trkpt lat="48.480936" lon="2.650373">
      <ele>95.496</ele>
      <time>2016-06-05T10:56:14Z</time>
    </trkpt>
    <trkpt lat="48.481028" lon="2.650323">
      <ele>95.815</ele>
      <time>2016-06-05T10:56:19Z</time>
    </trkpt>
    <trkpt lat="48.481097" lon="2.650201">
      <ele>95.949</ele>
      <time>2016-06-05T10:56:25Z</time>
    </trkpt>
    <trkpt lat="48.481183" lon="2.65013">
      <ele>96.518</ele>
      <time>2016-06-05T10:56:28Z</time>
    </trkpt>
    <trkpt lat="48.481277" lon="2.650066">
      <ele>97.194</ele>
      <time>2016-06-05T10:56:33Z</time>
    </trkpt>
    <trkpt lat="48.481373" lon="2.650034">
      <ele>97.886</ele>
      <time>2016-06-05T10:56:38Z</time>
    </trkpt>
    <trkpt lat="48.48147" lon="2.649959">
      <ele>98.732</ele>
      <time>2016-06-05T10:56:41Z</time>
    </trkpt>
    <trkpt lat="48.481536" lon="2.649862">
      <ele>99.556</ele>
      <time>2016-06-05T10:56:45Z</time>
    </trkpt>
    <trkpt lat="48.481627" lon="2.649793">
      <ele>100.46</ele>
      <time>2016-06-05T10:56:49Z</time>
    </trkpt>
    <trkpt lat="48.481721" lon="2.649725">
      <ele>101.188</ele>
      <time>2016-06-05T10:56:53Z</time>
    </trkpt>
    <trkpt lat="48.481808" lon="2.649666">
      <ele>101.612</ele>
      <time>2016-06-05T10:56:57Z</time>
    </trkpt>
    <trkpt lat="48.481901" lon="2.649556">
      <ele>102.348</ele>
      <time>2016-06-05T10:57:01Z</time>
    </trkpt>
    <trkpt lat="48.481992" lon="2.649502">
      <ele>102.999</ele>
      <time>2016-06-05T10:57:04Z</time>
    </trkpt>
    <trkpt lat="48.482085" lon="2.649447">
      <ele>103.501</ele>
      <time>2016-06-05T10:57:08Z</time>
    </trkpt>
    <trkpt lat="48.482202" lon="2.649444">
      <ele>103.926</ele>
      <time>2016-06-05T10:57:11Z</time>
    </trkpt>
    <trkpt lat="48.482292" lon="2.649357">
      <ele>104.015</ele>
      <time>2016-06-05T10:57:15Z</time>
    </trkpt>
    <trkpt lat="48.482373" lon="2.649252">
      <ele>104.226</ele>
      <time>2016-06-05T10:57:18Z</time>
    </trkpt>
    <trkpt lat="48.482448" lon="2.649168">
      <ele>104.626</ele>
      <time>2016-06-05T10:57:22Z</time>
    </trkpt>
    <trkpt lat="48.482541" lon="2.649097">
      <ele>105.148</ele>
      <time>2016-06-05T10:57:26Z</time>
    </trkpt>
    <trkpt lat="48.482653" lon="2.649043">
      <ele>105.551</ele>
      <time>2016-06-05T10:57:29Z</time>
    </trkpt>
    <trkpt lat="48.482735" lon="2.648953">
      <ele>105.846</ele>
      <time>2016-06-05T10:57:32Z</time>
    </trkpt>
    <trkpt lat="48.482817" lon="2.648875">
      <ele>105.993</ele>
      <time>2016-06-05T10:57:35Z</time>
    </trkpt>
    <trkpt lat="48.482908" lon="2.648764">
      <ele>105.789</ele>
      <time>2016-06-05T10:57:38Z</time>
    </trkpt>
    <trkpt lat="48.483" lon="2.648657">
      <ele>105.332</ele>
      <time>2016-06-05T10:57:41Z</time>
    </trkpt>
    <trkpt lat="48.483114" lon="2.64857">
      <ele>104.042</ele>
      <time>2016-06-05T10:57:45Z</time>
    </trkpt>
    <trkpt lat="48.483222" lon="2.64848">
      <ele>102.414</ele>
      <time>2016-06-05T10:57:49Z</time>
    </trkpt>
    <trkpt lat="48.48333" lon="2.648408">
      <ele>101.039</ele>
      <time>2016-06-05T10:57:52Z</time>
    </trkpt>
    <trkpt lat="48.483428" lon="2.648327">
      <ele>99.963</ele>
      <time>2016-06-05T10:57:55Z</time>
    </trkpt>
    <trkpt lat="48.483532" lon="2.648282">
      <ele>98.802</ele>
      <time>2016-06-05T10:57:58Z</time>
    </trkpt>
    <trkpt lat="48.48362" lon="2.648196">
      <ele>97.984</ele>
      <time>2016-06-05T10:58:01Z</time>
    </trkpt>
    <trkpt lat="48.483737" lon="2.64808">
      <ele>97.587</ele>
      <time>2016-06-05T10:58:04Z</time>
    </trkpt>
    <trkpt lat="48.483831" lon="2.648008">
      <ele>97.208</ele>
      <time>2016-06-05T10:58:07Z</time>
    </trkpt>
    <trkpt lat="48.483915" lon="2.647926">
      <ele>96.956</ele>
      <time>2016-06-05T10:58:10Z</time>
    </trkpt>
    <trkpt lat="48.483999" lon="2.647847">
      <ele>96.702</ele>
      <time>2016-06-05T10:58:13Z</time>
    </trkpt>
    <trkpt lat="48.484094" lon="2.647782">
      <ele>96.273</ele>
      <time>2016-06-05T10:58:16Z</time>
    </trkpt>
    <trkpt lat="48.484185" lon="2.647688">
      <ele>96.368</ele>
      <time>2016-06-05T10:58:18Z</time>
    </trkpt>
    <trkpt lat="48.484281" lon="2.647623">
      <ele>96.739</ele>
      <time>2016-06-05T10:58:21Z</time>
    </trkpt>
    <trkpt lat="48.484372" lon="2.647494">
      <ele>97.006</ele>
      <time>2016-06-05T10:58:24Z</time>
    </trkpt>
    <trkpt lat="48.484483" lon="2.647418">
      <ele>97.0</ele>
      <time>2016-06-05T10:58:27Z</time>
    </trkpt>
    <trkpt lat="48.484589" lon="2.647341">
      <ele>97.0</ele>
      <time>2016-06-05T10:58:30Z</time>
    </trkpt>
    <trkpt lat="48.484687" lon="2.647281">
      <ele>97.0</ele>
      <time>2016-06-05T10:58:33Z</time>
    </trkpt>
    <trkpt lat="48.484803" lon="2.647214">
      <ele>97.03</ele>
      <time>2016-06-05T10:58:36Z</time>
    </trkpt>
    <trkpt lat="48.484918" lon="2.647111">
      <ele>97.4</ele>
      <time>2016-06-05T10:58:39Z</time>
    </trkpt>
    <trkpt lat="48.485034" lon="2.646993">
      <ele>97.948</ele>
      <time>2016-06-05T10:58:42Z</time>
    </trkpt>
    <trkpt lat="48.485107" lon="2.64691">
      <ele>98.585</ele>
      <time>2016-06-05T10:58:44Z</time>
    </trkpt>
    <trkpt lat="48.485216" lon="2.646767">
      <ele>99.558</ele>
      <time>2016-06-05T10:58:47Z</time>
    </trkpt>
    <trkpt lat="48.485303" lon="2.646687">
      <ele>99.843</ele>
      <time>2016-06-05T10:58:49Z</time>
    </trkpt>
    <trkpt lat="48.485428" lon="2.646606">
      <ele>99.459</ele>
      <time>2016-06-05T10:58:52Z</time>
    </trkpt>
    <trkpt lat="48.485524" lon="2.646505">
      <ele>99.114</ele>
      <time>2016-06-05T10:58:54Z</time>
    </trkpt>
    <trkpt lat="48.485612" lon="2.646395">
      <ele>98.187</ele>
      <time>2016-06-05T10:58:56Z</time>
    </trkpt>
    <trkpt lat="48.485714" lon="2.646348">
      <ele>96.802</ele>
      <time>2016-06-05T10:59:00Z</time>
    </trkpt>
    <trkpt lat="48.485832" lon="2.646244">
      <ele>95.538</ele>
      <time>2016-06-05T10:59:03Z</time>
    </trkpt>
    <trkpt lat="48.485901" lon="2.646141">
      <ele>94.97</ele>
      <time>2016-06-05T10:59:05Z</time>
    </trkpt>
    <trkpt lat="48.48603" lon="2.646073">
      <ele>93.168</ele>
      <time>2016-06-05T10:59:07Z</time>
    </trkpt>
    <trkpt lat="48.486135" lon="2.645945">
      <ele>91.914</ele>
      <time>2016-06-05T10:59:10Z</time>
    </trkpt>
    <trkpt lat="48.486252" lon="2.645895">
      <ele>91.493</ele>
      <time>2016-06-05T10:59:12Z</time>
    </trkpt>
    <trkpt lat="48.486379" lon="2.645798">
      <ele>91.036</ele>
      <time>2016-06-05T10:59:15Z</time>
    </trkpt>
    <trkpt lat="48.486464" lon="2.645723">
      <ele>91.0</ele>
      <time>2016-06-05T10:59:18Z</time>
    </trkpt>
    <trkpt lat="48.486605" lon="2.645653">
      <ele>91.0</ele>
      <time>2016-06-05T10:59:22Z</time>
    </trkpt>
    <trkpt lat="48.486704" lon="2.645595">
      <ele>91.115</ele>
      <time>2016-06-05T10:59:24Z</time>
    </trkpt>
    <trkpt lat="48.486801" lon="2.645518">
      <ele>91.619</ele>
      <time>2016-06-05T10:59:27Z</time>
    </trkpt>
    <trkpt lat="48.486913" lon="2.645396">
      <ele>92.461</ele>
      <time>2016-06-05T10:59:30Z</time>
    </trkpt>
    <trkpt lat="48.486991" lon="2.645314">
      <ele>93.059</ele>
      <time>2016-06-05T10:59:32Z</time>
    </trkpt>
    <trkpt lat="48.487085" lon="2.645209">
      <ele>93.754</ele>
      <time>2016-06-05T10:59:35Z</time>
    </trkpt>
    <trkpt lat="48.487179" lon="2.645148">
      <ele>94.312</ele>
      <time>2016-06-05T10:59:39Z</time>
    </trkpt>
    <trkpt lat="48.487304" lon="2.645065">
      <ele>95.06</ele>
      <time>2016-06-05T10:59:42Z</time>
    </trkpt>
    <trkpt lat="48.487413" lon="2.64495">
      <ele>95.687</ele>
      <time>2016-06-05T10:59:45Z</time>
    </trkpt>
    <trkpt lat="48.487494" lon="2.644863">
      <ele>95.978</ele>
      <time>2016-06-05T10:59:48Z</time>
    </trkpt>
    <trkpt lat="48.487575" lon="2.644782">
      <ele>95.942</ele>
      <time>2016-06-05T10:59:52Z</time>
    </trkpt>
    <trkpt lat="48.487674" lon="2.644722">
      <ele>96.0</ele>
      <time>2016-06-05T10:59:57Z</time>
    </trkpt>
    <trkpt lat="48.487782" lon="2.644625">
      <ele>95.99</ele>
      <time>2016-06-05T11:00:02Z</time>
    </trkpt>
    <trkpt lat="48.487868" lon="2.644572">
      <ele>95.851</ele>
      <time>2016-06-05T11:00:05Z</time>
    </trkpt>
    <trkpt lat="48.487954" lon="2.644497">
      <ele>95.88</ele>
      <time>2016-06-05T11:00:08Z</time>
    </trkpt>
    <trkpt lat="48.488027" lon="2.644382">
      <ele>96.426</ele>
      <time>2016-06-05T11:00:11Z</time>
    </trkpt>
    <trkpt lat="48.488101" lon="2.644279">
      <ele>97.028</ele>
      <time>2016-06-05T11:00:14Z</time>
    </trkpt>
    <trkpt lat="48.488224" lon="2.644207">
      <ele>97.103</ele>
      <time>2016-06-05T11:00:18Z</time>
    </trkpt>
    <trkpt lat="48.488306" lon="2.644141">
      <ele>97.191</ele>
      <time>2016-06-05T11:00:20Z</time>
    </trkpt>
    <trkpt lat="48.488412" lon="2.644077">
      <ele>97.04</ele>
      <time>2016-06-05T11:00:23Z</time>
    </trkpt>
    <trkpt lat="48.488504" lon="2.644023">
      <ele>96.903</ele>
      <time>2016-06-05T11:00:26Z</time>
    </trkpt>
    <trkpt lat="48.48859" lon="2.643959">
      <ele>96.824</ele>
      <time>2016-06-05T11:00:29Z</time>
    </trkpt>
    <trkpt lat="48.48868" lon="2.643901">
      <ele>96.708</ele>
      <time>2016-06-05T11:00:32Z</time>
    </trkpt>
    <trkpt lat="48.488774" lon="2.643874">
      <ele>96.445</ele>
      <time>2016-06-05T11:00:35Z</time>
    </trkpt>
    <trkpt lat="48.488864" lon="2.64382">
      <ele>96.315</ele>
      <time>2016-06-05T11:00:38Z</time>
    </trkpt>
    <trkpt lat="48.488996" lon="2.643772">
      <ele>97.03</ele>
      <time>2016-06-05T11:00:42Z</time>
    </trkpt>
    <trkpt lat="48.489111" lon="2.643703">
      <ele>97.733</ele>
      <time>2016-06-05T11:00:46Z</time>
    </trkpt>
    <trkpt lat="48.489208" lon="2.643668">
      <ele>98.298</ele>
      <time>2016-06-05T11:00:49Z</time>
    </trkpt>
    <trkpt lat="48.489304" lon="2.643614">
      <ele>98.989</ele>
      <time>2016-06-05T11:00:53Z</time>
    </trkpt>
    <trkpt lat="48.489404" lon="2.64359">
      <ele>99.774</ele>
      <time>2016-06-05T11:00:57Z</time>
    </trkpt>
    <trkpt lat="48.489524" lon="2.643585">
      <ele>100.64</ele>
      <time>2016-06-05T11:01:00Z</time>
    </trkpt>
    <trkpt lat="48.489601" lon="2.643502">
      <ele>101.299</ele>
      <time>2016-06-05T11:01:03Z</time>
    </trkpt>
    <trkpt lat="48.489687" lon="2.643405">
      <ele>101.84</ele>
      <time>2016-06-05T11:01:06Z</time>
    </trkpt>
    <trkpt lat="48.489754" lon="2.643313">
      <ele>102.106</ele>
      <time>2016-06-05T11:01:09Z</time>
    </trkpt>
    <trkpt lat="48.489837" lon="2.643227">
      <ele>102.255</ele>
      <time>2016-06-05T11:01:12Z</time>
    </trkpt>
    <trkpt lat="48.489908" lon="2.643119">
      <ele>102.153</ele>
      <time>2016-06-05T11:01:15Z</time>
    </trkpt>
    <trkpt lat="48.489968" lon="2.642994">
      <ele>101.778</ele>
      <time>2016-06-05T11:01:18Z</time>
    </trkpt>
    <trkpt lat="48.490072" lon="2.642898">
      <ele>101.692</ele>
      <time>2016-06-05T11:01:21Z</time>
    </trkpt>
    <trkpt lat="48.490162" lon="2.642782">
      <ele>101.598</ele>
      <time>2016-06-05T11:01:25Z</time>
    </trkpt>
    <trkpt lat="48.49025" lon="2.642655">
      <ele>101.9</ele>
      <time>2016-06-05T11:01:29Z</time>
    </trkpt>
    <trkpt lat="48.490343" lon="2.642544">
      <ele>102.0</ele>
      <time>2016-06-05T11:01:32Z</time>
    </trkpt>
    <trkpt lat="48.490453" lon="2.642441">
      <ele>101.788</ele>
      <time>2016-06-05T11:01:36Z</time>
    </trkpt>
    <trkpt lat="48.490547" lon="2.642346">
      <ele>101.446</ele>
      <time>2016-06-05T11:01:39Z</time>
    </trkpt>
    <trkpt lat="48.490643" lon="2.642232">
      <ele>101.024</ele>
      <time>2016-06-05T11:01:42Z</time>
    </trkpt>
    <trkpt lat="48.490691" lon="2.642115">
      <ele>100.802</ele>
      <time>2016-06-05T11:01:45Z</time>
    </trkpt>
    <trkpt lat="48.490778" lon="2.64207">
      <ele>100.891</ele>
      <time>2016-06-05T11:01:47Z</time>
    </trkpt>
    <trkpt lat="48.490883" lon="2.641968">
      <ele>101.179</ele>
      <time>2016-06-05T11:01:50Z</time>
    </trkpt>
    <trkpt lat="48.490945" lon="2.641869">
      <ele>101.402</ele>
      <time>2016-06-05T11:01:53Z</time>
    </trkpt>
    <trkpt lat="48.491005" lon="2.641758">
      <ele>101.618</ele>
      <time>2016-06-05T11:01:55Z</time>
    </trkpt>
    <trkpt lat="48.4911" lon="2.641652">
      <ele>102.013</ele>
      <time>2016-06-05T11:01:57Z</time>
    </trkpt>
    <trkpt lat="48.491198" lon="2.641548">
      <ele>102.294</ele>
      <time>2016-06-05T11:02:00Z</time>
    </trkpt>
    <trkpt lat="48.491296" lon="2.64144">
      <ele>102.273</ele>
      <time>2016-06-05T11:02:05Z</time>
    </trkpt>
    <trkpt lat="48.491396" lon="2.641331">
      <ele>102.183</ele>
      <time>2016-06-05T11:02:08Z</time>
    </trkpt>
    <trkpt lat="48.491457" lon="2.641215">
      <ele>102.381</ele>
      <time>2016-06-05T11:02:12Z</time>
    </trkpt>
    <trkpt lat="48.491527" lon="2.641097">
      <ele>102.477</ele>
      <time>2016-06-05T11:02:16Z</time>
    </trkpt>
    <trkpt lat="48.491625" lon="2.641001">
      <ele>102.091</ele>
      <time>2016-06-05T11:02:20Z</time>
    </trkpt>
    <trkpt lat="48.49169" lon="2.640875">
      <ele>101.987</ele>
      <time>2016-06-05T11:02:23Z</time>
    </trkpt>
    <trkpt lat="48.491778" lon="2.640782">
      <ele>102.111</ele>
      <time>2016-06-05T11:02:26Z</time>
    </trkpt>
    <trkpt lat="48.491855" lon="2.64069">
      <ele>102.166</ele>
      <time>2016-06-05T11:02:29Z</time>
    </trkpt>
    <trkpt lat="48.491924" lon="2.640604">
      <ele>102.061</ele>
      <time>2016-06-05T11:02:31Z</time>
    </trkpt>
    <trkpt lat="48.492005" lon="2.640488">
      <ele>101.782</ele>
      <time>2016-06-05T11:02:34Z</time>
    </trkpt>
    <trkpt lat="48.492079" lon="2.640368">
      <ele>101.516</ele>
      <time>2016-06-05T11:02:37Z</time>
    </trkpt>
    <trkpt lat="48.492163" lon="2.640299">
      <ele>101.213</ele>
      <time>2016-06-05T11:02:39Z</time>
    </trkpt>
    <trkpt lat="48.492272" lon="2.640212">
      <ele>100.763</ele>
      <time>2016-06-05T11:02:43Z</time>
    </trkpt>
    <trkpt lat="48.492345" lon="2.640077">
      <ele>100.277</ele>
      <time>2016-06-05T11:02:47Z</time>
    </trkpt>
    <trkpt lat="48.492422" lon="2.639909">
      <ele>100.0</ele>
      <time>2016-06-05T11:02:50Z</time>
    </trkpt>
    <trkpt lat="48.492516" lon="2.639871">
      <ele>100.0</ele>
      <time>2016-06-05T11:02:52Z</time>
    </trkpt>
    <trkpt lat="48.4926" lon="2.639755">
      <ele>100.0</ele>
      <time>2016-06-05T11:02:56Z</time>
    </trkpt>
    <trkpt lat="48.492707" lon="2.639674">
      <ele>100.044</ele>
      <time>2016-06-05T11:02:58Z</time>
    </trkpt>
    <trkpt lat="48.492789" lon="2.639571">
      <ele>99.96</ele>
      <time>2016-06-05T11:03:01Z</time>
    </trkpt>
    <trkpt lat="48.492876" lon="2.639495">
      <ele>99.646</ele>
      <time>2016-06-05T11:03:06Z</time>
    </trkpt>
    <trkpt lat="48.492974" lon="2.639433">
      <ele>99.306</ele>
      <time>2016-06-05T11:03:09Z</time>
    </trkpt>
    <trkpt lat="48.493035" lon="2.639295">
      <ele>99.114</ele>
      <time>2016-06-05T11:03:13Z</time>
    </trkpt>
    <trkpt lat="48.493123" lon="2.639193">
      <ele>98.514</ele>
      <time>2016-06-05T11:03:15Z</time>
    </trkpt>
    <trkpt lat="48.49322" lon="2.639061">
      <ele>98.196</ele>
      <time>2016-06-05T11:03:18Z</time>
    </trkpt>
    <trkpt lat="48.493312" lon="2.638949">
      <ele>97.937</ele>
      <time>2016-06-05T11:03:21Z</time>
    </trkpt>
    <trkpt lat="48.493377" lon="2.638847">
      <ele>98.127</ele>
      <time>2016-06-05T11:03:23Z</time>
    </trkpt>
    <trkpt lat="48.493456" lon="2.63874">
      <ele>98.299</ele>
      <time>2016-06-05T11:03:25Z</time>
    </trkpt>
    <trkpt lat="48.493526" lon="2.638639">
      <ele>98.276</ele>
      <time>2016-06-05T11:03:27Z</time>
    </trkpt>
    <trkpt lat="48.493613" lon="2.638538">
      <ele>97.732</ele>
      <time>2016-06-05T11:03:29Z</time>
    </trkpt>
    <trkpt lat="48.49369" lon="2.638464">
      <ele>97.337</ele>
      <time>2016-06-05T11:03:31Z</time>
    </trkpt>
    <trkpt lat="48.49377" lon="2.638356">
      <ele>97.035</ele>
      <time>2016-06-05T11:03:33Z</time>
    </trkpt>
    <trkpt lat="48.493846" lon="2.638278">
      <ele>96.801</ele>
      <time>2016-06-05T11:03:35Z</time>
    </trkpt>
    <trkpt lat="48.493919" lon="2.638179">
      <ele>96.336</ele>
      <time>2016-06-05T11:03:37Z</time>
    </trkpt>
    <trkpt lat="48.494014" lon="2.638085">
      <ele>95.656</ele>
      <time>2016-06-05T11:03:39Z</time>
    </trkpt>
    <trkpt lat="48.494102" lon="2.637937">
      <ele>94.806</ele>
      <time>2016-06-05T11:03:42Z</time>
    </trkpt>
    <trkpt lat="48.494182" lon="2.637856">
      <ele>94.282</ele>
      <time>2016-06-05T11:03:44Z</time>
    </trkpt>
    <trkpt lat="48.494263" lon="2.637739">
      <ele>93.86</ele>
      <time>2016-06-05T11:03:46Z</time>
    </trkpt>
    <trkpt lat="48.494337" lon="2.63764">
      <ele>93.504</ele>
      <time>2016-06-05T11:03:48Z</time>
    </trkpt>
    <trkpt lat="48.494421" lon="2.637537">
      <ele>93.133</ele>
      <time>2016-06-05T11:03:50Z</time>
    </trkpt>
    <trkpt lat="48.494504" lon="2.637432">
      <ele>93.214</ele>
      <time>2016-06-05T11:03:52Z</time>
    </trkpt>
    <trkpt lat="48.494596" lon="2.637291">
      <ele>93.546</ele>
      <time>2016-06-05T11:03:55Z</time>
    </trkpt>
    <trkpt lat="48.494684" lon="2.637191">
      <ele>93.765</ele>
      <time>2016-06-05T11:03:57Z</time>
    </trkpt>
    <trkpt lat="48.494775" lon="2.63712">
      <ele>93.772</ele>
      <time>2016-06-05T11:03:59Z</time>
    </trkpt>
    <trkpt lat="48.494869" lon="2.63701">
      <ele>94.043</ele>
      <time>2016-06-05T11:04:01Z</time>
    </trkpt>
    <trkpt lat="48.494955" lon="2.636901">
      <ele>94.676</ele>
      <time>2016-06-05T11:04:03Z</time>
    </trkpt>
    <trkpt lat="48.495044" lon="2.636789">
      <ele>95.0</ele>
      <time>2016-06-05T11:04:05Z</time>
    </trkpt>
    <trkpt lat="48.495154" lon="2.636669">
      <ele>95.0</ele>
      <time>2016-06-05T11:04:07Z</time>
    </trkpt>
    <trkpt lat="48.495225" lon="2.636573">
      <ele>94.727</ele>
      <time>2016-06-05T11:04:09Z</time>
    </trkpt>
    <trkpt lat="48.495334" lon="2.63645">
      <ele>93.86</ele>
      <time>2016-06-05T11:04:11Z</time>
    </trkpt>
    <trkpt lat="48.495412" lon="2.636337">
      <ele>92.937</ele>
      <time>2016-06-05T11:04:13Z</time>
    </trkpt>
    <trkpt lat="48.495513" lon="2.63625">
      <ele>92.23</ele>
      <time>2016-06-05T11:04:15Z</time>
    </trkpt>
    <trkpt lat="48.49559" lon="2.636168">
      <ele>91.901</ele>
      <time>2016-06-05T11:04:17Z</time>
    </trkpt>
    <trkpt lat="48.495682" lon="2.636049">
      <ele>91.423</ele>
      <time>2016-06-05T11:04:19Z</time>
    </trkpt>
    <trkpt lat="48.495792" lon="2.635948">
      <ele>91.061</ele>
      <time>2016-06-05T11:04:21Z</time>
    </trkpt>
    <trkpt lat="48.495889" lon="2.635809">
      <ele>91.0</ele>
      <time>2016-06-05T11:04:23Z</time>
    </trkpt>
    <trkpt lat="48.495981" lon="2.635665">
      <ele>91.0</ele>
      <time>2016-06-05T11:04:25Z</time>
    </trkpt>
    <trkpt lat="48.496058" lon="2.635589">
      <ele>91.0</ele>
      <time>2016-06-05T11:04:27Z</time>
    </trkpt>
    <trkpt lat="48.496173" lon="2.63548">
      <ele>91.223</ele>
      <time>2016-06-05T11:04:30Z</time>
    </trkpt>
    <trkpt lat="48.496243" lon="2.635366">
      <ele>91.475</ele>
      <time>2016-06-05T11:04:32Z</time>
    </trkpt>
    <trkpt lat="48.496334" lon="2.635257">
      <ele>91.802</ele>
      <time>2016-06-05T11:04:34Z</time>
    </trkpt>
    <trkpt lat="48.496398" lon="2.635116">
      <ele>92.033</ele>
      <time>2016-06-05T11:04:37Z</time>
    </trkpt>
    <trkpt lat="48.496483" lon="2.635005">
      <ele>92.339</ele>
      <time>2016-06-05T11:04:40Z</time>
    </trkpt>
    <trkpt lat="48.49656" lon="2.634919">
      <ele>92.324</ele>
      <time>2016-06-05T11:04:42Z</time>
    </trkpt>
    <trkpt lat="48.496682" lon="2.634842">
      <ele>92.542</ele>
      <time>2016-06-05T11:04:46Z</time>
    </trkpt>
    <trkpt lat="48.496696" lon="2.634705">
      <ele>92.205</ele>
      <time>2016-06-05T11:04:57Z</time>
    </trkpt>
    <trkpt lat="48.496658" lon="2.634704">
      <ele>91.971</ele>
      <time>2016-06-05T11:09:04Z</time>
    </trkpt>
  </trkseg>
</trk>
</gpx>
